<?xml version="1.0" encoding="UTF-8" standalone="no" ?>
<gpx xmlns="http://www.topografix.com/GPX/1/1" xmlns:xsi="http://www.w3.org/2001/XMLSchema-instance" xsi:schemaLocation="http://www.topografix.com/GPX/1/1 http://www.topografix.com/GPX/1/1/gpx.xsd" version="1.1" creator="VisuGPX - https://www.visugpx.com">
  <metadata>
    <name>Climbach VTT</name>
  </metadata>
  <trk>
    <name><![CDATA[Climbach VTT]]></name>
    <trkseg>
      <trkpt lat="49.02049" lon="7.84594">
        <ele>344.39999389648</ele>
        <time>2020-05-18T13:37:02.000Z</time>
      </trkpt>
      <trkpt lat="49.02049" lon="7.84583">
        <ele>346.20001220703</ele>
        <time>2020-05-18T13:37:05.000Z</time>
      </trkpt>
      <trkpt lat="49.0205" lon="7.8458">
        <ele>345.20001220703</ele>
        <time>2020-05-18T13:37:06.000Z</time>
      </trkpt>
      <trkpt lat="49.02141" lon="7.84596">
        <ele>351</ele>
        <time>2020-05-18T13:37:51.000Z</time>
      </trkpt>
      <trkpt lat="49.02148" lon="7.84583">
        <ele>351.60000610352</ele>
        <time>2020-05-18T13:37:56.000Z</time>
      </trkpt>
      <trkpt lat="49.0215" lon="7.84581">
        <ele>351.39999389648</ele>
        <time>2020-05-18T13:37:58.000Z</time>
      </trkpt>
      <trkpt lat="49.02153" lon="7.84574">
        <ele>351</ele>
        <time>2020-05-18T13:38:00.000Z</time>
      </trkpt>
      <trkpt lat="49.02165" lon="7.84559">
        <ele>351.20001220703</ele>
        <time>2020-05-18T13:38:05.000Z</time>
      </trkpt>
      <trkpt lat="49.02163" lon="7.84557">
        <ele>351.60000610352</ele>
        <time>2020-05-18T13:38:09.000Z</time>
      </trkpt>
      <trkpt lat="49.02163" lon="7.84556">
        <ele>351.79998779297</ele>
        <time>2020-05-18T13:38:11.000Z</time>
      </trkpt>
      <trkpt lat="49.02159" lon="7.84553">
        <ele>351.39999389648</ele>
        <time>2020-05-18T13:38:18.000Z</time>
      </trkpt>
      <trkpt lat="49.02161" lon="7.84556">
        <ele>351.60000610352</ele>
        <time>2020-05-18T13:38:31.000Z</time>
      </trkpt>
      <trkpt lat="49.02161" lon="7.8455">
        <ele>351.79998779297</ele>
        <time>2020-05-18T13:38:44.000Z</time>
      </trkpt>
      <trkpt lat="49.0216" lon="7.8455">
        <ele>352</ele>
        <time>2020-05-18T13:38:46.000Z</time>
      </trkpt>
      <trkpt lat="49.02162" lon="7.84548">
        <ele>351.79998779297</ele>
        <time>2020-05-18T13:38:52.000Z</time>
      </trkpt>
      <trkpt lat="49.0217" lon="7.84537">
        <ele>351.20001220703</ele>
        <time>2020-05-18T13:38:57.000Z</time>
      </trkpt>
      <trkpt lat="49.02183" lon="7.84519">
        <ele>351.39999389648</ele>
        <time>2020-05-18T13:39:02.000Z</time>
      </trkpt>
      <trkpt lat="49.02194" lon="7.84503">
        <ele>351.79998779297</ele>
        <time>2020-05-18T13:39:07.000Z</time>
      </trkpt>
      <trkpt lat="49.02204" lon="7.84493">
        <ele>353.39999389648</ele>
        <time>2020-05-18T13:39:11.000Z</time>
      </trkpt>
      <trkpt lat="49.02206" lon="7.84491">
        <ele>353.79998779297</ele>
        <time>2020-05-18T13:39:12.000Z</time>
      </trkpt>
      <trkpt lat="49.02209" lon="7.84491">
        <ele>354</ele>
        <time>2020-05-18T13:39:14.000Z</time>
      </trkpt>
      <trkpt lat="49.02211" lon="7.8449">
        <ele>354.39999389648</ele>
        <time>2020-05-18T13:39:16.000Z</time>
      </trkpt>
      <trkpt lat="49.02219" lon="7.84486">
        <ele>355.79998779297</ele>
        <time>2020-05-18T13:39:20.000Z</time>
      </trkpt>
      <trkpt lat="49.0222" lon="7.84484">
        <ele>356</ele>
        <time>2020-05-18T13:39:21.000Z</time>
      </trkpt>
      <trkpt lat="49.02222" lon="7.84483">
        <ele>356.39999389648</ele>
        <time>2020-05-18T13:39:22.000Z</time>
      </trkpt>
      <trkpt lat="49.02228" lon="7.84479">
        <ele>357</ele>
        <time>2020-05-18T13:39:24.000Z</time>
      </trkpt>
      <trkpt lat="49.0223" lon="7.84476">
        <ele>357.20001220703</ele>
        <time>2020-05-18T13:39:25.000Z</time>
      </trkpt>
      <trkpt lat="49.02232" lon="7.84469">
        <ele>357.60000610352</ele>
        <time>2020-05-18T13:39:27.000Z</time>
      </trkpt>
      <trkpt lat="49.0224" lon="7.84454">
        <ele>357.39999389648</ele>
        <time>2020-05-18T13:39:31.000Z</time>
      </trkpt>
      <trkpt lat="49.02242" lon="7.8445">
        <ele>357.60000610352</ele>
        <time>2020-05-18T13:39:32.000Z</time>
      </trkpt>
      <trkpt lat="49.02251" lon="7.84437">
        <ele>358.39999389648</ele>
        <time>2020-05-18T13:39:36.000Z</time>
      </trkpt>
      <trkpt lat="49.02256" lon="7.84428">
        <ele>358.60000610352</ele>
        <time>2020-05-18T13:39:38.000Z</time>
      </trkpt>
      <trkpt lat="49.02264" lon="7.84412">
        <ele>359</ele>
        <time>2020-05-18T13:39:42.000Z</time>
      </trkpt>
      <trkpt lat="49.02273" lon="7.84396">
        <ele>359.60000610352</ele>
        <time>2020-05-18T13:39:46.000Z</time>
      </trkpt>
      <trkpt lat="49.02276" lon="7.84391">
        <ele>360</ele>
        <time>2020-05-18T13:39:48.000Z</time>
      </trkpt>
      <trkpt lat="49.02281" lon="7.84381">
        <ele>360.20001220703</ele>
        <time>2020-05-18T13:39:51.000Z</time>
      </trkpt>
      <trkpt lat="49.02284" lon="7.84377">
        <ele>360.20001220703</ele>
        <time>2020-05-18T13:39:52.000Z</time>
      </trkpt>
      <trkpt lat="49.02295" lon="7.84359">
        <ele>360.39999389648</ele>
        <time>2020-05-18T13:39:57.000Z</time>
      </trkpt>
      <trkpt lat="49.02294" lon="7.84337">
        <ele>360.79998779297</ele>
        <time>2020-05-18T13:40:01.000Z</time>
      </trkpt>
      <trkpt lat="49.02293" lon="7.84314">
        <ele>360.60000610352</ele>
        <time>2020-05-18T13:40:05.000Z</time>
      </trkpt>
      <trkpt lat="49.02293" lon="7.84308">
        <ele>360.60000610352</ele>
        <time>2020-05-18T13:40:06.000Z</time>
      </trkpt>
      <trkpt lat="49.0229" lon="7.8426">
        <ele>360.79998779297</ele>
        <time>2020-05-18T13:40:14.000Z</time>
      </trkpt>
      <trkpt lat="49.02287" lon="7.84224">
        <ele>361.60000610352</ele>
        <time>2020-05-18T13:40:20.000Z</time>
      </trkpt>
      <trkpt lat="49.02283" lon="7.84193">
        <ele>362.39999389648</ele>
        <time>2020-05-18T13:40:26.000Z</time>
      </trkpt>
      <trkpt lat="49.02282" lon="7.84188">
        <ele>362.60000610352</ele>
        <time>2020-05-18T13:40:27.000Z</time>
      </trkpt>
      <trkpt lat="49.02278" lon="7.84172">
        <ele>363.20001220703</ele>
        <time>2020-05-18T13:40:31.000Z</time>
      </trkpt>
      <trkpt lat="49.02271" lon="7.8415">
        <ele>364</ele>
        <time>2020-05-18T13:40:36.000Z</time>
      </trkpt>
      <trkpt lat="49.0227" lon="7.84145">
        <ele>364.20001220703</ele>
        <time>2020-05-18T13:40:37.000Z</time>
      </trkpt>
      <trkpt lat="49.02261" lon="7.84114">
        <ele>364.20001220703</ele>
        <time>2020-05-18T13:40:43.000Z</time>
      </trkpt>
      <trkpt lat="49.02255" lon="7.84094">
        <ele>365</ele>
        <time>2020-05-18T13:40:47.000Z</time>
      </trkpt>
      <trkpt lat="49.02254" lon="7.84089">
        <ele>365.20001220703</ele>
        <time>2020-05-18T13:40:48.000Z</time>
      </trkpt>
      <trkpt lat="49.02241" lon="7.84056">
        <ele>366</ele>
        <time>2020-05-18T13:40:55.000Z</time>
      </trkpt>
      <trkpt lat="49.02237" lon="7.84043">
        <ele>366.20001220703</ele>
        <time>2020-05-18T13:40:58.000Z</time>
      </trkpt>
      <trkpt lat="49.02235" lon="7.84035">
        <ele>366.60000610352</ele>
        <time>2020-05-18T13:41:00.000Z</time>
      </trkpt>
      <trkpt lat="49.02232" lon="7.84023">
        <ele>367.20001220703</ele>
        <time>2020-05-18T13:41:03.000Z</time>
      </trkpt>
      <trkpt lat="49.0223" lon="7.84014">
        <ele>367.79998779297</ele>
        <time>2020-05-18T13:41:05.000Z</time>
      </trkpt>
      <trkpt lat="49.02225" lon="7.83996">
        <ele>368.39999389648</ele>
        <time>2020-05-18T13:41:09.000Z</time>
      </trkpt>
      <trkpt lat="49.02221" lon="7.83986">
        <ele>368.20001220703</ele>
        <time>2020-05-18T13:41:11.000Z</time>
      </trkpt>
      <trkpt lat="49.02213" lon="7.83963">
        <ele>368.39999389648</ele>
        <time>2020-05-18T13:41:16.000Z</time>
      </trkpt>
      <trkpt lat="49.02202" lon="7.83944">
        <ele>369.20001220703</ele>
        <time>2020-05-18T13:41:21.000Z</time>
      </trkpt>
      <trkpt lat="49.02199" lon="7.83941">
        <ele>369.39999389648</ele>
        <time>2020-05-18T13:41:22.000Z</time>
      </trkpt>
      <trkpt lat="49.02186" lon="7.83925">
        <ele>369.60000610352</ele>
        <time>2020-05-18T13:41:27.000Z</time>
      </trkpt>
      <trkpt lat="49.02172" lon="7.8391">
        <ele>369.60000610352</ele>
        <time>2020-05-18T13:41:32.000Z</time>
      </trkpt>
      <trkpt lat="49.02158" lon="7.83892">
        <ele>368.60000610352</ele>
        <time>2020-05-18T13:41:37.000Z</time>
      </trkpt>
      <trkpt lat="49.02142" lon="7.83877">
        <ele>369</ele>
        <time>2020-05-18T13:41:42.000Z</time>
      </trkpt>
      <trkpt lat="49.02135" lon="7.83868">
        <ele>369.39999389648</ele>
        <time>2020-05-18T13:41:44.000Z</time>
      </trkpt>
      <trkpt lat="49.02127" lon="7.83859">
        <ele>368.60000610352</ele>
        <time>2020-05-18T13:41:46.000Z</time>
      </trkpt>
      <trkpt lat="49.02123" lon="7.83854">
        <ele>368.20001220703</ele>
        <time>2020-05-18T13:41:47.000Z</time>
      </trkpt>
      <trkpt lat="49.02119" lon="7.83849">
        <ele>367.79998779297</ele>
        <time>2020-05-18T13:41:48.000Z</time>
      </trkpt>
      <trkpt lat="49.0211" lon="7.83839">
        <ele>366.79998779297</ele>
        <time>2020-05-18T13:41:50.000Z</time>
      </trkpt>
      <trkpt lat="49.02105" lon="7.83834">
        <ele>366.39999389648</ele>
        <time>2020-05-18T13:41:51.000Z</time>
      </trkpt>
      <trkpt lat="49.02085" lon="7.8381">
        <ele>365.20001220703</ele>
        <time>2020-05-18T13:41:55.000Z</time>
      </trkpt>
      <trkpt lat="49.02068" lon="7.83791">
        <ele>364.20001220703</ele>
        <time>2020-05-18T13:41:58.000Z</time>
      </trkpt>
      <trkpt lat="49.02058" lon="7.83781">
        <ele>363.39999389648</ele>
        <time>2020-05-18T13:42:00.000Z</time>
      </trkpt>
      <trkpt lat="49.02041" lon="7.83766">
        <ele>362.79998779297</ele>
        <time>2020-05-18T13:42:03.000Z</time>
      </trkpt>
      <trkpt lat="49.02029" lon="7.83754">
        <ele>362.20001220703</ele>
        <time>2020-05-18T13:42:05.000Z</time>
      </trkpt>
      <trkpt lat="49.02023" lon="7.83748">
        <ele>361.79998779297</ele>
        <time>2020-05-18T13:42:06.000Z</time>
      </trkpt>
      <trkpt lat="49.02004" lon="7.83729">
        <ele>360.60000610352</ele>
        <time>2020-05-18T13:42:09.000Z</time>
      </trkpt>
      <trkpt lat="49.01988" lon="7.83711">
        <ele>360</ele>
        <time>2020-05-18T13:42:11.000Z</time>
      </trkpt>
      <trkpt lat="49.01981" lon="7.83704">
        <ele>359.39999389648</ele>
        <time>2020-05-18T13:42:12.000Z</time>
      </trkpt>
      <trkpt lat="49.01974" lon="7.83698">
        <ele>358.20001220703</ele>
        <time>2020-05-18T13:42:13.000Z</time>
      </trkpt>
      <trkpt lat="49.01967" lon="7.83694">
        <ele>356.79998779297</ele>
        <time>2020-05-18T13:42:14.000Z</time>
      </trkpt>
      <trkpt lat="49.01949" lon="7.83683">
        <ele>356</ele>
        <time>2020-05-18T13:42:16.000Z</time>
      </trkpt>
      <trkpt lat="49.0194" lon="7.83678">
        <ele>355.79998779297</ele>
        <time>2020-05-18T13:42:17.000Z</time>
      </trkpt>
      <trkpt lat="49.01914" lon="7.83662">
        <ele>354.39999389648</ele>
        <time>2020-05-18T13:42:20.000Z</time>
      </trkpt>
      <trkpt lat="49.01906" lon="7.83657">
        <ele>353.39999389648</ele>
        <time>2020-05-18T13:42:21.000Z</time>
      </trkpt>
      <trkpt lat="49.01899" lon="7.83652">
        <ele>352.79998779297</ele>
        <time>2020-05-18T13:42:22.000Z</time>
      </trkpt>
      <trkpt lat="49.01883" lon="7.83642">
        <ele>351</ele>
        <time>2020-05-18T13:42:24.000Z</time>
      </trkpt>
      <trkpt lat="49.01869" lon="7.83635">
        <ele>349.60000610352</ele>
        <time>2020-05-18T13:42:26.000Z</time>
      </trkpt>
      <trkpt lat="49.01854" lon="7.83641">
        <ele>348.39999389648</ele>
        <time>2020-05-18T13:42:28.000Z</time>
      </trkpt>
      <trkpt lat="49.01838" lon="7.83653">
        <ele>347.39999389648</ele>
        <time>2020-05-18T13:42:30.000Z</time>
      </trkpt>
      <trkpt lat="49.0183" lon="7.83659">
        <ele>345.79998779297</ele>
        <time>2020-05-18T13:42:31.000Z</time>
      </trkpt>
      <trkpt lat="49.01821" lon="7.83663">
        <ele>344.20001220703</ele>
        <time>2020-05-18T13:42:32.000Z</time>
      </trkpt>
      <trkpt lat="49.01813" lon="7.83668">
        <ele>342.39999389648</ele>
        <time>2020-05-18T13:42:33.000Z</time>
      </trkpt>
      <trkpt lat="49.01804" lon="7.83673">
        <ele>341.39999389648</ele>
        <time>2020-05-18T13:42:34.000Z</time>
      </trkpt>
      <trkpt lat="49.01785" lon="7.83684">
        <ele>340.20001220703</ele>
        <time>2020-05-18T13:42:36.000Z</time>
      </trkpt>
      <trkpt lat="49.01776" lon="7.83691">
        <ele>339.60000610352</ele>
        <time>2020-05-18T13:42:37.000Z</time>
      </trkpt>
      <trkpt lat="49.01768" lon="7.83699">
        <ele>338.79998779297</ele>
        <time>2020-05-18T13:42:38.000Z</time>
      </trkpt>
      <trkpt lat="49.01752" lon="7.83715">
        <ele>337.20001220703</ele>
        <time>2020-05-18T13:42:40.000Z</time>
      </trkpt>
      <trkpt lat="49.01744" lon="7.83724">
        <ele>336.79998779297</ele>
        <time>2020-05-18T13:42:41.000Z</time>
      </trkpt>
      <trkpt lat="49.01728" lon="7.83742">
        <ele>336</ele>
        <time>2020-05-18T13:42:43.000Z</time>
      </trkpt>
      <trkpt lat="49.01711" lon="7.83762">
        <ele>335.79998779297</ele>
        <time>2020-05-18T13:42:45.000Z</time>
      </trkpt>
      <trkpt lat="49.0169" lon="7.83788">
        <ele>335</ele>
        <time>2020-05-18T13:42:48.000Z</time>
      </trkpt>
      <trkpt lat="49.01685" lon="7.83797">
        <ele>334.20001220703</ele>
        <time>2020-05-18T13:42:49.000Z</time>
      </trkpt>
      <trkpt lat="49.01668" lon="7.83832">
        <ele>333.20001220703</ele>
        <time>2020-05-18T13:42:52.000Z</time>
      </trkpt>
      <trkpt lat="49.01662" lon="7.83842">
        <ele>332.20001220703</ele>
        <time>2020-05-18T13:42:53.000Z</time>
      </trkpt>
      <trkpt lat="49.01652" lon="7.83861">
        <ele>330.79998779297</ele>
        <time>2020-05-18T13:42:55.000Z</time>
      </trkpt>
      <trkpt lat="49.01647" lon="7.83869">
        <ele>329.60000610352</ele>
        <time>2020-05-18T13:42:56.000Z</time>
      </trkpt>
      <trkpt lat="49.01642" lon="7.83879">
        <ele>328.20001220703</ele>
        <time>2020-05-18T13:42:57.000Z</time>
      </trkpt>
      <trkpt lat="49.01637" lon="7.83889">
        <ele>327.20001220703</ele>
        <time>2020-05-18T13:42:58.000Z</time>
      </trkpt>
      <trkpt lat="49.01624" lon="7.8391">
        <ele>325.79998779297</ele>
        <time>2020-05-18T13:43:00.000Z</time>
      </trkpt>
      <trkpt lat="49.01616" lon="7.8392">
        <ele>324.39999389648</ele>
        <time>2020-05-18T13:43:01.000Z</time>
      </trkpt>
      <trkpt lat="49.01609" lon="7.83928">
        <ele>323</ele>
        <time>2020-05-18T13:43:02.000Z</time>
      </trkpt>
      <trkpt lat="49.01605" lon="7.83934">
        <ele>323</ele>
        <time>2020-05-18T13:43:03.000Z</time>
      </trkpt>
      <trkpt lat="49.01601" lon="7.83939">
        <ele>323.20001220703</ele>
        <time>2020-05-18T13:43:05.000Z</time>
      </trkpt>
      <trkpt lat="49.016" lon="7.8394">
        <ele>323.79998779297</ele>
        <time>2020-05-18T13:43:07.000Z</time>
      </trkpt>
      <trkpt lat="49.01599" lon="7.83939">
        <ele>324.39999389648</ele>
        <time>2020-05-18T13:43:10.000Z</time>
      </trkpt>
      <trkpt lat="49.01598" lon="7.8394">
        <ele>324.79998779297</ele>
        <time>2020-05-18T13:43:15.000Z</time>
      </trkpt>
      <trkpt lat="49.01593" lon="7.83943">
        <ele>325</ele>
        <time>2020-05-18T13:43:20.000Z</time>
      </trkpt>
      <trkpt lat="49.01587" lon="7.83941">
        <ele>325.39999389648</ele>
        <time>2020-05-18T13:43:23.000Z</time>
      </trkpt>
      <trkpt lat="49.01585" lon="7.83938">
        <ele>325.60000610352</ele>
        <time>2020-05-18T13:43:24.000Z</time>
      </trkpt>
      <trkpt lat="49.01583" lon="7.83934">
        <ele>325.60000610352</ele>
        <time>2020-05-18T13:43:25.000Z</time>
      </trkpt>
      <trkpt lat="49.01571" lon="7.83921">
        <ele>325.60000610352</ele>
        <time>2020-05-18T13:43:29.000Z</time>
      </trkpt>
      <trkpt lat="49.0156" lon="7.8391">
        <ele>325.60000610352</ele>
        <time>2020-05-18T13:43:33.000Z</time>
      </trkpt>
      <trkpt lat="49.01558" lon="7.83907">
        <ele>325.79998779297</ele>
        <time>2020-05-18T13:43:34.000Z</time>
      </trkpt>
      <trkpt lat="49.0155" lon="7.83899">
        <ele>326.60000610352</ele>
        <time>2020-05-18T13:43:38.000Z</time>
      </trkpt>
      <trkpt lat="49.01546" lon="7.83894">
        <ele>326.60000610352</ele>
        <time>2020-05-18T13:43:40.000Z</time>
      </trkpt>
      <trkpt lat="49.01535" lon="7.8388">
        <ele>327</ele>
        <time>2020-05-18T13:43:45.000Z</time>
      </trkpt>
      <trkpt lat="49.01532" lon="7.83878">
        <ele>327.39999389648</ele>
        <time>2020-05-18T13:43:46.000Z</time>
      </trkpt>
      <trkpt lat="49.01527" lon="7.83874">
        <ele>328</ele>
        <time>2020-05-18T13:43:48.000Z</time>
      </trkpt>
      <trkpt lat="49.01521" lon="7.83866">
        <ele>328.60000610352</ele>
        <time>2020-05-18T13:43:51.000Z</time>
      </trkpt>
      <trkpt lat="49.0152" lon="7.83864">
        <ele>328.60000610352</ele>
        <time>2020-05-18T13:43:52.000Z</time>
      </trkpt>
      <trkpt lat="49.01512" lon="7.83857">
        <ele>329.39999389648</ele>
        <time>2020-05-18T13:43:56.000Z</time>
      </trkpt>
      <trkpt lat="49.01508" lon="7.83853">
        <ele>329.79998779297</ele>
        <time>2020-05-18T13:43:58.000Z</time>
      </trkpt>
      <trkpt lat="49.01502" lon="7.83848">
        <ele>330.39999389648</ele>
        <time>2020-05-18T13:44:01.000Z</time>
      </trkpt>
      <trkpt lat="49.01498" lon="7.83846">
        <ele>330.79998779297</ele>
        <time>2020-05-18T13:44:03.000Z</time>
      </trkpt>
      <trkpt lat="49.01489" lon="7.83841">
        <ele>331.60000610352</ele>
        <time>2020-05-18T13:44:07.000Z</time>
      </trkpt>
      <trkpt lat="49.01486" lon="7.8384">
        <ele>331.60000610352</ele>
        <time>2020-05-18T13:44:08.000Z</time>
      </trkpt>
      <trkpt lat="49.0148" lon="7.83839">
        <ele>332.39999389648</ele>
        <time>2020-05-18T13:44:11.000Z</time>
      </trkpt>
      <trkpt lat="49.01478" lon="7.83839">
        <ele>332.60000610352</ele>
        <time>2020-05-18T13:44:12.000Z</time>
      </trkpt>
      <trkpt lat="49.01468" lon="7.83839">
        <ele>333.39999389648</ele>
        <time>2020-05-18T13:44:16.000Z</time>
      </trkpt>
      <trkpt lat="49.01462" lon="7.83839">
        <ele>334.20001220703</ele>
        <time>2020-05-18T13:44:19.000Z</time>
      </trkpt>
      <trkpt lat="49.01457" lon="7.83841">
        <ele>334.60000610352</ele>
        <time>2020-05-18T13:44:21.000Z</time>
      </trkpt>
      <trkpt lat="49.0145" lon="7.8384">
        <ele>335.20001220703</ele>
        <time>2020-05-18T13:44:24.000Z</time>
      </trkpt>
      <trkpt lat="49.01448" lon="7.8384">
        <ele>335.39999389648</ele>
        <time>2020-05-18T13:44:25.000Z</time>
      </trkpt>
      <trkpt lat="49.01437" lon="7.83842">
        <ele>335.79998779297</ele>
        <time>2020-05-18T13:44:29.000Z</time>
      </trkpt>
      <trkpt lat="49.01431" lon="7.83841">
        <ele>336</ele>
        <time>2020-05-18T13:44:31.000Z</time>
      </trkpt>
      <trkpt lat="49.01419" lon="7.8384">
        <ele>336</ele>
        <time>2020-05-18T13:44:36.000Z</time>
      </trkpt>
      <trkpt lat="49.0141" lon="7.83841">
        <ele>336.79998779297</ele>
        <time>2020-05-18T13:44:40.000Z</time>
      </trkpt>
      <trkpt lat="49.01408" lon="7.83841">
        <ele>337</ele>
        <time>2020-05-18T13:44:41.000Z</time>
      </trkpt>
      <trkpt lat="49.01396" lon="7.83847">
        <ele>337.60000610352</ele>
        <time>2020-05-18T13:44:46.000Z</time>
      </trkpt>
      <trkpt lat="49.01393" lon="7.83848">
        <ele>337.79998779297</ele>
        <time>2020-05-18T13:44:47.000Z</time>
      </trkpt>
      <trkpt lat="49.01385" lon="7.83855">
        <ele>338.79998779297</ele>
        <time>2020-05-18T13:44:51.000Z</time>
      </trkpt>
      <trkpt lat="49.01373" lon="7.83866">
        <ele>339.79998779297</ele>
        <time>2020-05-18T13:44:57.000Z</time>
      </trkpt>
      <trkpt lat="49.01371" lon="7.83867">
        <ele>340</ele>
        <time>2020-05-18T13:44:58.000Z</time>
      </trkpt>
      <trkpt lat="49.01359" lon="7.83877">
        <ele>341</ele>
        <time>2020-05-18T13:45:04.000Z</time>
      </trkpt>
      <trkpt lat="49.01352" lon="7.83885">
        <ele>341.79998779297</ele>
        <time>2020-05-18T13:45:08.000Z</time>
      </trkpt>
      <trkpt lat="49.01349" lon="7.83889">
        <ele>342</ele>
        <time>2020-05-18T13:45:10.000Z</time>
      </trkpt>
      <trkpt lat="49.0134" lon="7.839">
        <ele>343</ele>
        <time>2020-05-18T13:45:16.000Z</time>
      </trkpt>
      <trkpt lat="49.01339" lon="7.83902">
        <ele>343.20001220703</ele>
        <time>2020-05-18T13:45:17.000Z</time>
      </trkpt>
      <trkpt lat="49.01332" lon="7.83906">
        <ele>344.60000610352</ele>
        <time>2020-05-18T13:45:21.000Z</time>
      </trkpt>
      <trkpt lat="49.01331" lon="7.83906">
        <ele>344.79998779297</ele>
        <time>2020-05-18T13:45:22.000Z</time>
      </trkpt>
      <trkpt lat="49.01329" lon="7.83905">
        <ele>344.79998779297</ele>
        <time>2020-05-18T13:45:23.000Z</time>
      </trkpt>
      <trkpt lat="49.01323" lon="7.839">
        <ele>344.79998779297</ele>
        <time>2020-05-18T13:45:26.000Z</time>
      </trkpt>
      <trkpt lat="49.01312" lon="7.83888">
        <ele>344.60000610352</ele>
        <time>2020-05-18T13:45:32.000Z</time>
      </trkpt>
      <trkpt lat="49.01296" lon="7.83876">
        <ele>344</ele>
        <time>2020-05-18T13:45:37.000Z</time>
      </trkpt>
      <trkpt lat="49.01276" lon="7.83862">
        <ele>343.60000610352</ele>
        <time>2020-05-18T13:45:42.000Z</time>
      </trkpt>
      <trkpt lat="49.01244" lon="7.8385">
        <ele>343.60000610352</ele>
        <time>2020-05-18T13:45:49.000Z</time>
      </trkpt>
      <trkpt lat="49.01218" lon="7.83847">
        <ele>343.60000610352</ele>
        <time>2020-05-18T13:45:55.000Z</time>
      </trkpt>
      <trkpt lat="49.01211" lon="7.83847">
        <ele>343.39999389648</ele>
        <time>2020-05-18T13:45:57.000Z</time>
      </trkpt>
      <trkpt lat="49.01204" lon="7.83846">
        <ele>343</ele>
        <time>2020-05-18T13:45:59.000Z</time>
      </trkpt>
      <trkpt lat="49.012" lon="7.83846">
        <ele>343</ele>
        <time>2020-05-18T13:46:00.000Z</time>
      </trkpt>
      <trkpt lat="49.01187" lon="7.8385">
        <ele>343.20001220703</ele>
        <time>2020-05-18T13:46:03.000Z</time>
      </trkpt>
      <trkpt lat="49.01179" lon="7.83852">
        <ele>343.20001220703</ele>
        <time>2020-05-18T13:46:05.000Z</time>
      </trkpt>
      <trkpt lat="49.01166" lon="7.83858">
        <ele>343.20001220703</ele>
        <time>2020-05-18T13:46:08.000Z</time>
      </trkpt>
      <trkpt lat="49.01162" lon="7.83862">
        <ele>343.20001220703</ele>
        <time>2020-05-18T13:46:09.000Z</time>
      </trkpt>
      <trkpt lat="49.01157" lon="7.83864">
        <ele>343</ele>
        <time>2020-05-18T13:46:10.000Z</time>
      </trkpt>
      <trkpt lat="49.01143" lon="7.83875">
        <ele>343</ele>
        <time>2020-05-18T13:46:13.000Z</time>
      </trkpt>
      <trkpt lat="49.01139" lon="7.83879">
        <ele>343</ele>
        <time>2020-05-18T13:46:14.000Z</time>
      </trkpt>
      <trkpt lat="49.01117" lon="7.83897">
        <ele>343</ele>
        <time>2020-05-18T13:46:19.000Z</time>
      </trkpt>
      <trkpt lat="49.01094" lon="7.83922">
        <ele>342.60000610352</ele>
        <time>2020-05-18T13:46:25.000Z</time>
      </trkpt>
      <trkpt lat="49.01069" lon="7.83944">
        <ele>342.60000610352</ele>
        <time>2020-05-18T13:46:31.000Z</time>
      </trkpt>
      <trkpt lat="49.01054" lon="7.83962">
        <ele>342.39999389648</ele>
        <time>2020-05-18T13:46:35.000Z</time>
      </trkpt>
      <trkpt lat="49.01034" lon="7.83988">
        <ele>342.39999389648</ele>
        <time>2020-05-18T13:46:41.000Z</time>
      </trkpt>
      <trkpt lat="49.01021" lon="7.84005">
        <ele>342.60000610352</ele>
        <time>2020-05-18T13:46:45.000Z</time>
      </trkpt>
      <trkpt lat="49.0101" lon="7.84019">
        <ele>342.60000610352</ele>
        <time>2020-05-18T13:46:48.000Z</time>
      </trkpt>
      <trkpt lat="49.01003" lon="7.84027">
        <ele>342.79998779297</ele>
        <time>2020-05-18T13:46:50.000Z</time>
      </trkpt>
      <trkpt lat="49.00984" lon="7.84057">
        <ele>342.60000610352</ele>
        <time>2020-05-18T13:46:56.000Z</time>
      </trkpt>
      <trkpt lat="49.00971" lon="7.84085">
        <ele>342.79998779297</ele>
        <time>2020-05-18T13:47:01.000Z</time>
      </trkpt>
      <trkpt lat="49.00953" lon="7.84117">
        <ele>342.39999389648</ele>
        <time>2020-05-18T13:47:07.000Z</time>
      </trkpt>
      <trkpt lat="49.00943" lon="7.84131">
        <ele>342.60000610352</ele>
        <time>2020-05-18T13:47:11.000Z</time>
      </trkpt>
      <trkpt lat="49.00928" lon="7.84139">
        <ele>342.60000610352</ele>
        <time>2020-05-18T13:47:15.000Z</time>
      </trkpt>
      <trkpt lat="49.0092" lon="7.84139">
        <ele>342.60000610352</ele>
        <time>2020-05-18T13:47:17.000Z</time>
      </trkpt>
      <trkpt lat="49.0091" lon="7.84138">
        <ele>343</ele>
        <time>2020-05-18T13:47:19.000Z</time>
      </trkpt>
      <trkpt lat="49.00905" lon="7.84136">
        <ele>342.79998779297</ele>
        <time>2020-05-18T13:47:20.000Z</time>
      </trkpt>
      <trkpt lat="49.00884" lon="7.84126">
        <ele>342.79998779297</ele>
        <time>2020-05-18T13:47:25.000Z</time>
      </trkpt>
      <trkpt lat="49.00879" lon="7.84125">
        <ele>342.79998779297</ele>
        <time>2020-05-18T13:47:26.000Z</time>
      </trkpt>
      <trkpt lat="49.00865" lon="7.84121">
        <ele>342.79998779297</ele>
        <time>2020-05-18T13:47:29.000Z</time>
      </trkpt>
      <trkpt lat="49.00838" lon="7.84119">
        <ele>343.39999389648</ele>
        <time>2020-05-18T13:47:35.000Z</time>
      </trkpt>
      <trkpt lat="49.00811" lon="7.84119">
        <ele>343</ele>
        <time>2020-05-18T13:47:41.000Z</time>
      </trkpt>
      <trkpt lat="49.00782" lon="7.84128">
        <ele>342.20001220703</ele>
        <time>2020-05-18T13:47:47.000Z</time>
      </trkpt>
      <trkpt lat="49.00761" lon="7.84141">
        <ele>342.39999389648</ele>
        <time>2020-05-18T13:47:52.000Z</time>
      </trkpt>
      <trkpt lat="49.00753" lon="7.84146">
        <ele>342.79998779297</ele>
        <time>2020-05-18T13:47:54.000Z</time>
      </trkpt>
      <trkpt lat="49.00745" lon="7.84152">
        <ele>343.20001220703</ele>
        <time>2020-05-18T13:47:56.000Z</time>
      </trkpt>
      <trkpt lat="49.00742" lon="7.84155">
        <ele>343.20001220703</ele>
        <time>2020-05-18T13:47:57.000Z</time>
      </trkpt>
      <trkpt lat="49.00728" lon="7.84171">
        <ele>342.79998779297</ele>
        <time>2020-05-18T13:48:01.000Z</time>
      </trkpt>
      <trkpt lat="49.00712" lon="7.84197">
        <ele>342.39999389648</ele>
        <time>2020-05-18T13:48:06.000Z</time>
      </trkpt>
      <trkpt lat="49.00694" lon="7.84227">
        <ele>343</ele>
        <time>2020-05-18T13:48:12.000Z</time>
      </trkpt>
      <trkpt lat="49.0069" lon="7.84238">
        <ele>342.79998779297</ele>
        <time>2020-05-18T13:48:14.000Z</time>
      </trkpt>
      <trkpt lat="49.00684" lon="7.84248">
        <ele>342.79998779297</ele>
        <time>2020-05-18T13:48:16.000Z</time>
      </trkpt>
      <trkpt lat="49.00677" lon="7.84264">
        <ele>343</ele>
        <time>2020-05-18T13:48:19.000Z</time>
      </trkpt>
      <trkpt lat="49.00672" lon="7.84275">
        <ele>343.20001220703</ele>
        <time>2020-05-18T13:48:21.000Z</time>
      </trkpt>
      <trkpt lat="49.00669" lon="7.84281">
        <ele>343.20001220703</ele>
        <time>2020-05-18T13:48:22.000Z</time>
      </trkpt>
      <trkpt lat="49.00663" lon="7.843">
        <ele>343</ele>
        <time>2020-05-18T13:48:25.000Z</time>
      </trkpt>
      <trkpt lat="49.00655" lon="7.84325">
        <ele>342.60000610352</ele>
        <time>2020-05-18T13:48:29.000Z</time>
      </trkpt>
      <trkpt lat="49.00646" lon="7.84356">
        <ele>343</ele>
        <time>2020-05-18T13:48:34.000Z</time>
      </trkpt>
      <trkpt lat="49.00645" lon="7.84363">
        <ele>343.20001220703</ele>
        <time>2020-05-18T13:48:35.000Z</time>
      </trkpt>
      <trkpt lat="49.00643" lon="7.84369">
        <ele>343.39999389648</ele>
        <time>2020-05-18T13:48:36.000Z</time>
      </trkpt>
      <trkpt lat="49.00638" lon="7.84395">
        <ele>343.20001220703</ele>
        <time>2020-05-18T13:48:40.000Z</time>
      </trkpt>
      <trkpt lat="49.00637" lon="7.84408">
        <ele>343.20001220703</ele>
        <time>2020-05-18T13:48:42.000Z</time>
      </trkpt>
      <trkpt lat="49.00635" lon="7.84422">
        <ele>343</ele>
        <time>2020-05-18T13:48:44.000Z</time>
      </trkpt>
      <trkpt lat="49.00634" lon="7.84442">
        <ele>342.60000610352</ele>
        <time>2020-05-18T13:48:47.000Z</time>
      </trkpt>
      <trkpt lat="49.00634" lon="7.84449">
        <ele>342.79998779297</ele>
        <time>2020-05-18T13:48:48.000Z</time>
      </trkpt>
      <trkpt lat="49.00633" lon="7.84472">
        <ele>343.20001220703</ele>
        <time>2020-05-18T13:48:52.000Z</time>
      </trkpt>
      <trkpt lat="49.00637" lon="7.84498">
        <ele>343.20001220703</ele>
        <time>2020-05-18T13:48:57.000Z</time>
      </trkpt>
      <trkpt lat="49.00639" lon="7.84524">
        <ele>343.20001220703</ele>
        <time>2020-05-18T13:49:01.000Z</time>
      </trkpt>
      <trkpt lat="49.00642" lon="7.84564">
        <ele>342.79998779297</ele>
        <time>2020-05-18T13:49:07.000Z</time>
      </trkpt>
      <trkpt lat="49.00646" lon="7.84591">
        <ele>343</ele>
        <time>2020-05-18T13:49:11.000Z</time>
      </trkpt>
      <trkpt lat="49.00645" lon="7.84618">
        <ele>343</ele>
        <time>2020-05-18T13:49:15.000Z</time>
      </trkpt>
      <trkpt lat="49.00644" lon="7.84654">
        <ele>342.79998779297</ele>
        <time>2020-05-18T13:49:20.000Z</time>
      </trkpt>
      <trkpt lat="49.00643" lon="7.84669">
        <ele>342.20001220703</ele>
        <time>2020-05-18T13:49:22.000Z</time>
      </trkpt>
      <trkpt lat="49.00642" lon="7.84685">
        <ele>341.60000610352</ele>
        <time>2020-05-18T13:49:24.000Z</time>
      </trkpt>
      <trkpt lat="49.0064" lon="7.84692">
        <ele>341.39999389648</ele>
        <time>2020-05-18T13:49:25.000Z</time>
      </trkpt>
      <trkpt lat="49.00638" lon="7.8471">
        <ele>340.79998779297</ele>
        <time>2020-05-18T13:49:27.000Z</time>
      </trkpt>
      <trkpt lat="49.00638" lon="7.84719">
        <ele>340.39999389648</ele>
        <time>2020-05-18T13:49:28.000Z</time>
      </trkpt>
      <trkpt lat="49.00638" lon="7.84728">
        <ele>340</ele>
        <time>2020-05-18T13:49:29.000Z</time>
      </trkpt>
      <trkpt lat="49.00636" lon="7.84757">
        <ele>338.79998779297</ele>
        <time>2020-05-18T13:49:32.000Z</time>
      </trkpt>
      <trkpt lat="49.00634" lon="7.84766">
        <ele>338.60000610352</ele>
        <time>2020-05-18T13:49:33.000Z</time>
      </trkpt>
      <trkpt lat="49.0063" lon="7.84784">
        <ele>338.20001220703</ele>
        <time>2020-05-18T13:49:35.000Z</time>
      </trkpt>
      <trkpt lat="49.00615" lon="7.84819">
        <ele>337.79998779297</ele>
        <time>2020-05-18T13:49:39.000Z</time>
      </trkpt>
      <trkpt lat="49.00611" lon="7.84828">
        <ele>337.60000610352</ele>
        <time>2020-05-18T13:49:40.000Z</time>
      </trkpt>
      <trkpt lat="49.00606" lon="7.84835">
        <ele>337.39999389648</ele>
        <time>2020-05-18T13:49:41.000Z</time>
      </trkpt>
      <trkpt lat="49.006" lon="7.84841">
        <ele>336.79998779297</ele>
        <time>2020-05-18T13:49:42.000Z</time>
      </trkpt>
      <trkpt lat="49.00594" lon="7.84843">
        <ele>336.60000610352</ele>
        <time>2020-05-18T13:49:43.000Z</time>
      </trkpt>
      <trkpt lat="49.00582" lon="7.84843">
        <ele>336.39999389648</ele>
        <time>2020-05-18T13:49:45.000Z</time>
      </trkpt>
      <trkpt lat="49.00577" lon="7.84842">
        <ele>336.20001220703</ele>
        <time>2020-05-18T13:49:46.000Z</time>
      </trkpt>
      <trkpt lat="49.00573" lon="7.84839">
        <ele>336.20001220703</ele>
        <time>2020-05-18T13:49:47.000Z</time>
      </trkpt>
      <trkpt lat="49.00565" lon="7.84829">
        <ele>336.39999389648</ele>
        <time>2020-05-18T13:49:49.000Z</time>
      </trkpt>
      <trkpt lat="49.00557" lon="7.84814">
        <ele>337</ele>
        <time>2020-05-18T13:49:52.000Z</time>
      </trkpt>
      <trkpt lat="49.00554" lon="7.84808">
        <ele>337.39999389648</ele>
        <time>2020-05-18T13:49:53.000Z</time>
      </trkpt>
      <trkpt lat="49.00552" lon="7.84804">
        <ele>337.79998779297</ele>
        <time>2020-05-18T13:49:54.000Z</time>
      </trkpt>
      <trkpt lat="49.00545" lon="7.84789">
        <ele>338.60000610352</ele>
        <time>2020-05-18T13:49:57.000Z</time>
      </trkpt>
      <trkpt lat="49.00541" lon="7.8478">
        <ele>338.79998779297</ele>
        <time>2020-05-18T13:49:59.000Z</time>
      </trkpt>
      <trkpt lat="49.00529" lon="7.84766">
        <ele>339.20001220703</ele>
        <time>2020-05-18T13:50:03.000Z</time>
      </trkpt>
      <trkpt lat="49.00524" lon="7.84767">
        <ele>339.79998779297</ele>
        <time>2020-05-18T13:50:05.000Z</time>
      </trkpt>
      <trkpt lat="49.00522" lon="7.8477">
        <ele>340.20001220703</ele>
        <time>2020-05-18T13:50:06.000Z</time>
      </trkpt>
      <trkpt lat="49.0052" lon="7.84778">
        <ele>340.79998779297</ele>
        <time>2020-05-18T13:50:08.000Z</time>
      </trkpt>
      <trkpt lat="49.00519" lon="7.84787">
        <ele>341.20001220703</ele>
        <time>2020-05-18T13:50:10.000Z</time>
      </trkpt>
      <trkpt lat="49.00518" lon="7.84802">
        <ele>342</ele>
        <time>2020-05-18T13:50:13.000Z</time>
      </trkpt>
      <trkpt lat="49.00517" lon="7.84815">
        <ele>343</ele>
        <time>2020-05-18T13:50:16.000Z</time>
      </trkpt>
      <trkpt lat="49.00516" lon="7.84819">
        <ele>342.79998779297</ele>
        <time>2020-05-18T13:50:17.000Z</time>
      </trkpt>
      <trkpt lat="49.00516" lon="7.84836">
        <ele>343.20001220703</ele>
        <time>2020-05-18T13:50:21.000Z</time>
      </trkpt>
      <trkpt lat="49.00515" lon="7.8485">
        <ele>344</ele>
        <time>2020-05-18T13:50:24.000Z</time>
      </trkpt>
      <trkpt lat="49.00515" lon="7.84864">
        <ele>344.60000610352</ele>
        <time>2020-05-18T13:50:27.000Z</time>
      </trkpt>
      <trkpt lat="49.0051" lon="7.84884">
        <ele>345</ele>
        <time>2020-05-18T13:50:31.000Z</time>
      </trkpt>
      <trkpt lat="49.0051" lon="7.8489">
        <ele>345.20001220703</ele>
        <time>2020-05-18T13:50:32.000Z</time>
      </trkpt>
      <trkpt lat="49.00508" lon="7.84919">
        <ele>346.20001220703</ele>
        <time>2020-05-18T13:50:38.000Z</time>
      </trkpt>
      <trkpt lat="49.00508" lon="7.84924">
        <ele>346.39999389648</ele>
        <time>2020-05-18T13:50:39.000Z</time>
      </trkpt>
      <trkpt lat="49.00504" lon="7.84956">
        <ele>347.20001220703</ele>
        <time>2020-05-18T13:50:46.000Z</time>
      </trkpt>
      <trkpt lat="49.00504" lon="7.84961">
        <ele>347.20001220703</ele>
        <time>2020-05-18T13:50:47.000Z</time>
      </trkpt>
      <trkpt lat="49.00501" lon="7.84983">
        <ele>348.39999389648</ele>
        <time>2020-05-18T13:50:52.000Z</time>
      </trkpt>
      <trkpt lat="49.00498" lon="7.85001">
        <ele>348.60000610352</ele>
        <time>2020-05-18T13:50:56.000Z</time>
      </trkpt>
      <trkpt lat="49.00495" lon="7.8502">
        <ele>349.39999389648</ele>
        <time>2020-05-18T13:51:00.000Z</time>
      </trkpt>
      <trkpt lat="49.00491" lon="7.85041">
        <ele>350.39999389648</ele>
        <time>2020-05-18T13:51:05.000Z</time>
      </trkpt>
      <trkpt lat="49.0049" lon="7.85046">
        <ele>350.60000610352</ele>
        <time>2020-05-18T13:51:06.000Z</time>
      </trkpt>
      <trkpt lat="49.00487" lon="7.85067">
        <ele>351.39999389648</ele>
        <time>2020-05-18T13:51:11.000Z</time>
      </trkpt>
      <trkpt lat="49.00483" lon="7.85098">
        <ele>352.60000610352</ele>
        <time>2020-05-18T13:51:18.000Z</time>
      </trkpt>
      <trkpt lat="49.00483" lon="7.85102">
        <ele>352.79998779297</ele>
        <time>2020-05-18T13:51:19.000Z</time>
      </trkpt>
      <trkpt lat="49.00482" lon="7.85105">
        <ele>353</ele>
        <time>2020-05-18T13:51:20.000Z</time>
      </trkpt>
      <trkpt lat="49.00479" lon="7.85107">
        <ele>353.60000610352</ele>
        <time>2020-05-18T13:51:22.000Z</time>
      </trkpt>
      <trkpt lat="49.00474" lon="7.85097">
        <ele>354</ele>
        <time>2020-05-18T13:51:25.000Z</time>
      </trkpt>
      <trkpt lat="49.0046" lon="7.85071">
        <ele>353.60000610352</ele>
        <time>2020-05-18T13:51:31.000Z</time>
      </trkpt>
      <trkpt lat="49.00454" lon="7.85062">
        <ele>353.39999389648</ele>
        <time>2020-05-18T13:51:33.000Z</time>
      </trkpt>
      <trkpt lat="49.00444" lon="7.85049">
        <ele>352.79998779297</ele>
        <time>2020-05-18T13:51:36.000Z</time>
      </trkpt>
      <trkpt lat="49.0044" lon="7.85044">
        <ele>352.60000610352</ele>
        <time>2020-05-18T13:51:37.000Z</time>
      </trkpt>
      <trkpt lat="49.00428" lon="7.85026">
        <ele>351.60000610352</ele>
        <time>2020-05-18T13:51:40.000Z</time>
      </trkpt>
      <trkpt lat="49.00418" lon="7.85014">
        <ele>350.20001220703</ele>
        <time>2020-05-18T13:51:42.000Z</time>
      </trkpt>
      <trkpt lat="49.00413" lon="7.85008">
        <ele>349</ele>
        <time>2020-05-18T13:51:43.000Z</time>
      </trkpt>
      <trkpt lat="49.00399" lon="7.84995">
        <ele>347.79998779297</ele>
        <time>2020-05-18T13:51:46.000Z</time>
      </trkpt>
      <trkpt lat="49.00391" lon="7.84989">
        <ele>348.20001220703</ele>
        <time>2020-05-18T13:51:50.000Z</time>
      </trkpt>
      <trkpt lat="49.00383" lon="7.84983">
        <ele>347.60000610352</ele>
        <time>2020-05-18T13:52:02.000Z</time>
      </trkpt>
      <trkpt lat="49.00372" lon="7.84975">
        <ele>346.60000610352</ele>
        <time>2020-05-18T13:52:05.000Z</time>
      </trkpt>
      <trkpt lat="49.00364" lon="7.84969">
        <ele>345.39999389648</ele>
        <time>2020-05-18T13:52:07.000Z</time>
      </trkpt>
      <trkpt lat="49.00348" lon="7.84958">
        <ele>343.79998779297</ele>
        <time>2020-05-18T13:52:10.000Z</time>
      </trkpt>
      <trkpt lat="49.00336" lon="7.84951">
        <ele>342.79998779297</ele>
        <time>2020-05-18T13:52:12.000Z</time>
      </trkpt>
      <trkpt lat="49.0033" lon="7.84947">
        <ele>342.60000610352</ele>
        <time>2020-05-18T13:52:13.000Z</time>
      </trkpt>
      <trkpt lat="49.0031" lon="7.84932">
        <ele>341.20001220703</ele>
        <time>2020-05-18T13:52:16.000Z</time>
      </trkpt>
      <trkpt lat="49.00302" lon="7.84928">
        <ele>340.39999389648</ele>
        <time>2020-05-18T13:52:17.000Z</time>
      </trkpt>
      <trkpt lat="49.00294" lon="7.84923">
        <ele>339.79998779297</ele>
        <time>2020-05-18T13:52:18.000Z</time>
      </trkpt>
      <trkpt lat="49.0028" lon="7.84913">
        <ele>338.20001220703</ele>
        <time>2020-05-18T13:52:20.000Z</time>
      </trkpt>
      <trkpt lat="49.00265" lon="7.84903">
        <ele>336.79998779297</ele>
        <time>2020-05-18T13:52:22.000Z</time>
      </trkpt>
      <trkpt lat="49.00257" lon="7.84897">
        <ele>335.20001220703</ele>
        <time>2020-05-18T13:52:23.000Z</time>
      </trkpt>
      <trkpt lat="49.00242" lon="7.84887">
        <ele>333.79998779297</ele>
        <time>2020-05-18T13:52:25.000Z</time>
      </trkpt>
      <trkpt lat="49.00238" lon="7.84881">
        <ele>333.20001220703</ele>
        <time>2020-05-18T13:52:26.000Z</time>
      </trkpt>
      <trkpt lat="49.00234" lon="7.84872">
        <ele>332.39999389648</ele>
        <time>2020-05-18T13:52:27.000Z</time>
      </trkpt>
      <trkpt lat="49.00228" lon="7.84847">
        <ele>331.39999389648</ele>
        <time>2020-05-18T13:52:29.000Z</time>
      </trkpt>
      <trkpt lat="49.00222" lon="7.84818">
        <ele>329.20001220703</ele>
        <time>2020-05-18T13:52:31.000Z</time>
      </trkpt>
      <trkpt lat="49.00219" lon="7.84803">
        <ele>328</ele>
        <time>2020-05-18T13:52:32.000Z</time>
      </trkpt>
      <trkpt lat="49.00215" lon="7.84789">
        <ele>326.39999389648</ele>
        <time>2020-05-18T13:52:33.000Z</time>
      </trkpt>
      <trkpt lat="49.00212" lon="7.84774">
        <ele>325.20001220703</ele>
        <time>2020-05-18T13:52:34.000Z</time>
      </trkpt>
      <trkpt lat="49.00206" lon="7.84745">
        <ele>323.60000610352</ele>
        <time>2020-05-18T13:52:36.000Z</time>
      </trkpt>
      <trkpt lat="49.00204" lon="7.84731">
        <ele>323.20001220703</ele>
        <time>2020-05-18T13:52:37.000Z</time>
      </trkpt>
      <trkpt lat="49.00193" lon="7.84676">
        <ele>323</ele>
        <time>2020-05-18T13:52:41.000Z</time>
      </trkpt>
      <trkpt lat="49.00179" lon="7.84603">
        <ele>323.60000610352</ele>
        <time>2020-05-18T13:52:47.000Z</time>
      </trkpt>
      <trkpt lat="49.00177" lon="7.84592">
        <ele>323.60000610352</ele>
        <time>2020-05-18T13:52:48.000Z</time>
      </trkpt>
      <trkpt lat="49.0017" lon="7.84575">
        <ele>323.79998779297</ele>
        <time>2020-05-18T13:52:50.000Z</time>
      </trkpt>
      <trkpt lat="49.00157" lon="7.84564">
        <ele>324.79998779297</ele>
        <time>2020-05-18T13:52:53.000Z</time>
      </trkpt>
      <trkpt lat="49.00152" lon="7.84563">
        <ele>325.39999389648</ele>
        <time>2020-05-18T13:52:54.000Z</time>
      </trkpt>
      <trkpt lat="49.00139" lon="7.84564">
        <ele>326.39999389648</ele>
        <time>2020-05-18T13:52:57.000Z</time>
      </trkpt>
      <trkpt lat="49.00127" lon="7.84569">
        <ele>327.79998779297</ele>
        <time>2020-05-18T13:53:00.000Z</time>
      </trkpt>
      <trkpt lat="49.00123" lon="7.8457">
        <ele>328.20001220703</ele>
        <time>2020-05-18T13:53:01.000Z</time>
      </trkpt>
      <trkpt lat="49.0012" lon="7.84571">
        <ele>328.79998779297</ele>
        <time>2020-05-18T13:53:02.000Z</time>
      </trkpt>
      <trkpt lat="49.001" lon="7.84578">
        <ele>329.60000610352</ele>
        <time>2020-05-18T13:53:07.000Z</time>
      </trkpt>
      <trkpt lat="49.00077" lon="7.84588">
        <ele>329.79998779297</ele>
        <time>2020-05-18T13:53:13.000Z</time>
      </trkpt>
      <trkpt lat="49.00073" lon="7.8459">
        <ele>330</ele>
        <time>2020-05-18T13:53:14.000Z</time>
      </trkpt>
      <trkpt lat="49.00069" lon="7.84592">
        <ele>330.20001220703</ele>
        <time>2020-05-18T13:53:15.000Z</time>
      </trkpt>
      <trkpt lat="49.00061" lon="7.84605">
        <ele>330.39999389648</ele>
        <time>2020-05-18T13:53:18.000Z</time>
      </trkpt>
      <trkpt lat="49.00049" lon="7.84624">
        <ele>330.79998779297</ele>
        <time>2020-05-18T13:53:23.000Z</time>
      </trkpt>
      <trkpt lat="49.00044" lon="7.8463">
        <ele>331.20001220703</ele>
        <time>2020-05-18T13:53:25.000Z</time>
      </trkpt>
      <trkpt lat="49.00016" lon="7.84645">
        <ele>331.60000610352</ele>
        <time>2020-05-18T13:53:33.000Z</time>
      </trkpt>
      <trkpt lat="48.99996" lon="7.84656">
        <ele>330.20001220703</ele>
        <time>2020-05-18T13:53:39.000Z</time>
      </trkpt>
      <trkpt lat="48.99991" lon="7.84664">
        <ele>330</ele>
        <time>2020-05-18T13:53:41.000Z</time>
      </trkpt>
      <trkpt lat="48.99984" lon="7.84676">
        <ele>329</ele>
        <time>2020-05-18T13:53:44.000Z</time>
      </trkpt>
      <trkpt lat="48.99982" lon="7.84681">
        <ele>329</ele>
        <time>2020-05-18T13:53:45.000Z</time>
      </trkpt>
      <trkpt lat="48.99971" lon="7.8471">
        <ele>329.79998779297</ele>
        <time>2020-05-18T13:53:52.000Z</time>
      </trkpt>
      <trkpt lat="48.99969" lon="7.84714">
        <ele>330.20001220703</ele>
        <time>2020-05-18T13:53:53.000Z</time>
      </trkpt>
      <trkpt lat="48.99963" lon="7.84729">
        <ele>330.79998779297</ele>
        <time>2020-05-18T13:53:58.000Z</time>
      </trkpt>
      <trkpt lat="48.99961" lon="7.84737">
        <ele>331.20001220703</ele>
        <time>2020-05-18T13:54:01.000Z</time>
      </trkpt>
      <trkpt lat="48.99959" lon="7.84747">
        <ele>332.20001220703</ele>
        <time>2020-05-18T13:54:05.000Z</time>
      </trkpt>
      <trkpt lat="48.9996" lon="7.8475">
        <ele>332.20001220703</ele>
        <time>2020-05-18T13:54:06.000Z</time>
      </trkpt>
      <trkpt lat="48.99967" lon="7.84757">
        <ele>333.60000610352</ele>
        <time>2020-05-18T13:54:11.000Z</time>
      </trkpt>
      <trkpt lat="48.99968" lon="7.84758">
        <ele>333.79998779297</ele>
        <time>2020-05-18T13:54:12.000Z</time>
      </trkpt>
      <trkpt lat="48.99973" lon="7.84762">
        <ele>334.60000610352</ele>
        <time>2020-05-18T13:54:15.000Z</time>
      </trkpt>
      <trkpt lat="48.99976" lon="7.84764">
        <ele>335.79998779297</ele>
        <time>2020-05-18T13:54:17.000Z</time>
      </trkpt>
      <trkpt lat="48.99978" lon="7.84766">
        <ele>336.60000610352</ele>
        <time>2020-05-18T13:54:19.000Z</time>
      </trkpt>
      <trkpt lat="48.99979" lon="7.84767">
        <ele>337</ele>
        <time>2020-05-18T13:54:20.000Z</time>
      </trkpt>
      <trkpt lat="48.99986" lon="7.84777">
        <ele>338.20001220703</ele>
        <time>2020-05-18T13:54:26.000Z</time>
      </trkpt>
      <trkpt lat="48.99986" lon="7.84779">
        <ele>338.20001220703</ele>
        <time>2020-05-18T13:54:27.000Z</time>
      </trkpt>
      <trkpt lat="48.99984" lon="7.84786">
        <ele>338.79998779297</ele>
        <time>2020-05-18T13:54:30.000Z</time>
      </trkpt>
      <trkpt lat="48.99981" lon="7.84792">
        <ele>339.39999389648</ele>
        <time>2020-05-18T13:54:33.000Z</time>
      </trkpt>
      <trkpt lat="48.99978" lon="7.84799">
        <ele>340.39999389648</ele>
        <time>2020-05-18T13:54:37.000Z</time>
      </trkpt>
      <trkpt lat="48.99977" lon="7.84802">
        <ele>340.60000610352</ele>
        <time>2020-05-18T13:54:38.000Z</time>
      </trkpt>
      <trkpt lat="48.9997" lon="7.84817">
        <ele>341.20001220703</ele>
        <time>2020-05-18T13:54:46.000Z</time>
      </trkpt>
      <trkpt lat="48.99971" lon="7.84835">
        <ele>341.39999389648</ele>
        <time>2020-05-18T13:54:53.000Z</time>
      </trkpt>
      <trkpt lat="48.99972" lon="7.84837">
        <ele>341.60000610352</ele>
        <time>2020-05-18T13:54:54.000Z</time>
      </trkpt>
      <trkpt lat="48.99978" lon="7.84853">
        <ele>342.20001220703</ele>
        <time>2020-05-18T13:55:01.000Z</time>
      </trkpt>
      <trkpt lat="48.9998" lon="7.84857">
        <ele>343</ele>
        <time>2020-05-18T13:55:03.000Z</time>
      </trkpt>
      <trkpt lat="48.99987" lon="7.84874">
        <ele>344</ele>
        <time>2020-05-18T13:55:11.000Z</time>
      </trkpt>
      <trkpt lat="48.99987" lon="7.84878">
        <ele>344.20001220703</ele>
        <time>2020-05-18T13:55:13.000Z</time>
      </trkpt>
      <trkpt lat="48.99987" lon="7.84887">
        <ele>344.60000610352</ele>
        <time>2020-05-18T13:55:17.000Z</time>
      </trkpt>
      <trkpt lat="48.99986" lon="7.84896">
        <ele>345.20001220703</ele>
        <time>2020-05-18T13:55:21.000Z</time>
      </trkpt>
      <trkpt lat="48.99984" lon="7.84908">
        <ele>346</ele>
        <time>2020-05-18T13:55:26.000Z</time>
      </trkpt>
      <trkpt lat="48.99984" lon="7.84911">
        <ele>346.20001220703</ele>
        <time>2020-05-18T13:55:27.000Z</time>
      </trkpt>
      <trkpt lat="48.99986" lon="7.84927">
        <ele>347.39999389648</ele>
        <time>2020-05-18T13:55:34.000Z</time>
      </trkpt>
      <trkpt lat="48.99987" lon="7.8493">
        <ele>347.60000610352</ele>
        <time>2020-05-18T13:55:35.000Z</time>
      </trkpt>
      <trkpt lat="48.99989" lon="7.84941">
        <ele>348.60000610352</ele>
        <time>2020-05-18T13:55:40.000Z</time>
      </trkpt>
      <trkpt lat="48.9999" lon="7.8495">
        <ele>349.60000610352</ele>
        <time>2020-05-18T13:55:44.000Z</time>
      </trkpt>
      <trkpt lat="48.9999" lon="7.84953">
        <ele>349.79998779297</ele>
        <time>2020-05-18T13:55:45.000Z</time>
      </trkpt>
      <trkpt lat="48.99988" lon="7.84966">
        <ele>350.79998779297</ele>
        <time>2020-05-18T13:55:51.000Z</time>
      </trkpt>
      <trkpt lat="48.99986" lon="7.84969">
        <ele>351</ele>
        <time>2020-05-18T13:55:53.000Z</time>
      </trkpt>
      <trkpt lat="48.99978" lon="7.84979">
        <ele>352</ele>
        <time>2020-05-18T13:55:59.000Z</time>
      </trkpt>
      <trkpt lat="48.99974" lon="7.84985">
        <ele>352.60000610352</ele>
        <time>2020-05-18T13:56:03.000Z</time>
      </trkpt>
      <trkpt lat="48.99971" lon="7.84989">
        <ele>353.20001220703</ele>
        <time>2020-05-18T13:56:06.000Z</time>
      </trkpt>
      <trkpt lat="48.99967" lon="7.84993">
        <ele>353.79998779297</ele>
        <time>2020-05-18T13:56:10.000Z</time>
      </trkpt>
      <trkpt lat="48.99964" lon="7.84996">
        <ele>354.20001220703</ele>
        <time>2020-05-18T13:56:12.000Z</time>
      </trkpt>
      <trkpt lat="48.99963" lon="7.84997">
        <ele>354.39999389648</ele>
        <time>2020-05-18T13:56:13.000Z</time>
      </trkpt>
      <trkpt lat="48.99961" lon="7.85002">
        <ele>355.60000610352</ele>
        <time>2020-05-18T13:56:16.000Z</time>
      </trkpt>
      <trkpt lat="48.9996" lon="7.85004">
        <ele>355.60000610352</ele>
        <time>2020-05-18T13:56:17.000Z</time>
      </trkpt>
      <trkpt lat="48.99958" lon="7.85005">
        <ele>355.79998779297</ele>
        <time>2020-05-18T13:56:18.000Z</time>
      </trkpt>
      <trkpt lat="48.99953" lon="7.85003">
        <ele>355.79998779297</ele>
        <time>2020-05-18T13:56:21.000Z</time>
      </trkpt>
      <trkpt lat="48.9995" lon="7.85002">
        <ele>356.20001220703</ele>
        <time>2020-05-18T13:56:23.000Z</time>
      </trkpt>
      <trkpt lat="48.99947" lon="7.85002">
        <ele>356.60000610352</ele>
        <time>2020-05-18T13:56:25.000Z</time>
      </trkpt>
      <trkpt lat="48.99946" lon="7.85">
        <ele>356.79998779297</ele>
        <time>2020-05-18T13:56:26.000Z</time>
      </trkpt>
      <trkpt lat="48.99932" lon="7.84993">
        <ele>357.79998779297</ele>
        <time>2020-05-18T13:56:33.000Z</time>
      </trkpt>
      <trkpt lat="48.99931" lon="7.84994">
        <ele>358.20001220703</ele>
        <time>2020-05-18T13:56:34.000Z</time>
      </trkpt>
      <trkpt lat="48.9992" lon="7.84988">
        <ele>358.39999389648</ele>
        <time>2020-05-18T13:56:39.000Z</time>
      </trkpt>
      <trkpt lat="48.99911" lon="7.84982">
        <ele>358.60000610352</ele>
        <time>2020-05-18T13:56:45.000Z</time>
      </trkpt>
      <trkpt lat="48.99908" lon="7.8498">
        <ele>359</ele>
        <time>2020-05-18T13:56:47.000Z</time>
      </trkpt>
      <trkpt lat="48.99903" lon="7.84985">
        <ele>359.39999389648</ele>
        <time>2020-05-18T13:56:52.000Z</time>
      </trkpt>
      <trkpt lat="48.99905" lon="7.84989">
        <ele>359.79998779297</ele>
        <time>2020-05-18T13:56:54.000Z</time>
      </trkpt>
      <trkpt lat="48.99906" lon="7.84991">
        <ele>360.39999389648</ele>
        <time>2020-05-18T13:56:55.000Z</time>
      </trkpt>
      <trkpt lat="48.99909" lon="7.84994">
        <ele>361</ele>
        <time>2020-05-18T13:56:57.000Z</time>
      </trkpt>
      <trkpt lat="48.99914" lon="7.85">
        <ele>361.60000610352</ele>
        <time>2020-05-18T13:57:01.000Z</time>
      </trkpt>
      <trkpt lat="48.99916" lon="7.85003">
        <ele>361.39999389648</ele>
        <time>2020-05-18T13:57:02.000Z</time>
      </trkpt>
      <trkpt lat="48.99922" lon="7.85011">
        <ele>362.20001220703</ele>
        <time>2020-05-18T13:57:06.000Z</time>
      </trkpt>
      <trkpt lat="48.99933" lon="7.85022">
        <ele>362.60000610352</ele>
        <time>2020-05-18T13:57:12.000Z</time>
      </trkpt>
      <trkpt lat="48.99944" lon="7.85035">
        <ele>363.20001220703</ele>
        <time>2020-05-18T13:57:18.000Z</time>
      </trkpt>
      <trkpt lat="48.99948" lon="7.85039">
        <ele>363.60000610352</ele>
        <time>2020-05-18T13:57:20.000Z</time>
      </trkpt>
      <trkpt lat="48.99952" lon="7.85043">
        <ele>363.60000610352</ele>
        <time>2020-05-18T13:57:22.000Z</time>
      </trkpt>
      <trkpt lat="48.99961" lon="7.85057">
        <ele>364</ele>
        <time>2020-05-18T13:57:27.000Z</time>
      </trkpt>
      <trkpt lat="48.99974" lon="7.85069">
        <ele>364.39999389648</ele>
        <time>2020-05-18T13:57:32.000Z</time>
      </trkpt>
      <trkpt lat="48.99981" lon="7.85077">
        <ele>365.20001220703</ele>
        <time>2020-05-18T13:57:35.000Z</time>
      </trkpt>
      <trkpt lat="48.99986" lon="7.8508">
        <ele>365.39999389648</ele>
        <time>2020-05-18T13:57:37.000Z</time>
      </trkpt>
      <trkpt lat="48.99997" lon="7.85091">
        <ele>365.60000610352</ele>
        <time>2020-05-18T13:57:42.000Z</time>
      </trkpt>
      <trkpt lat="49.00005" lon="7.85097">
        <ele>366.20001220703</ele>
        <time>2020-05-18T13:57:45.000Z</time>
      </trkpt>
      <trkpt lat="49.00009" lon="7.851">
        <ele>366.39999389648</ele>
        <time>2020-05-18T13:57:47.000Z</time>
      </trkpt>
      <trkpt lat="49.00019" lon="7.85113">
        <ele>367.39999389648</ele>
        <time>2020-05-18T13:57:53.000Z</time>
      </trkpt>
      <trkpt lat="49.00021" lon="7.8512">
        <ele>368.60000610352</ele>
        <time>2020-05-18T13:57:57.000Z</time>
      </trkpt>
      <trkpt lat="49.00022" lon="7.85123">
        <ele>369</ele>
        <time>2020-05-18T13:57:58.000Z</time>
      </trkpt>
      <trkpt lat="49.00022" lon="7.85126">
        <ele>369.60000610352</ele>
        <time>2020-05-18T13:57:59.000Z</time>
      </trkpt>
      <trkpt lat="49.00021" lon="7.85128">
        <ele>370</ele>
        <time>2020-05-18T13:58:00.000Z</time>
      </trkpt>
      <trkpt lat="49.00021" lon="7.85131">
        <ele>370.39999389648</ele>
        <time>2020-05-18T13:58:01.000Z</time>
      </trkpt>
      <trkpt lat="49.00021" lon="7.85134">
        <ele>371</ele>
        <time>2020-05-18T13:58:02.000Z</time>
      </trkpt>
      <trkpt lat="49.00018" lon="7.85138">
        <ele>371.79998779297</ele>
        <time>2020-05-18T13:58:04.000Z</time>
      </trkpt>
      <trkpt lat="49.00017" lon="7.85139">
        <ele>372.20001220703</ele>
        <time>2020-05-18T13:58:05.000Z</time>
      </trkpt>
      <trkpt lat="49.00015" lon="7.85139">
        <ele>372.60000610352</ele>
        <time>2020-05-18T13:58:06.000Z</time>
      </trkpt>
      <trkpt lat="49.00008" lon="7.85139">
        <ele>373.39999389648</ele>
        <time>2020-05-18T13:58:10.000Z</time>
      </trkpt>
      <trkpt lat="48.99995" lon="7.85139">
        <ele>373.79998779297</ele>
        <time>2020-05-18T13:58:16.000Z</time>
      </trkpt>
      <trkpt lat="48.99988" lon="7.85139">
        <ele>374.39999389648</ele>
        <time>2020-05-18T13:58:20.000Z</time>
      </trkpt>
      <trkpt lat="48.99985" lon="7.85139">
        <ele>374.39999389648</ele>
        <time>2020-05-18T13:58:21.000Z</time>
      </trkpt>
      <trkpt lat="48.99983" lon="7.85138">
        <ele>374.39999389648</ele>
        <time>2020-05-18T13:58:22.000Z</time>
      </trkpt>
      <trkpt lat="48.99971" lon="7.85138">
        <ele>374.20001220703</ele>
        <time>2020-05-18T13:58:26.000Z</time>
      </trkpt>
      <trkpt lat="48.99958" lon="7.85137">
        <ele>374.60000610352</ele>
        <time>2020-05-18T13:58:30.000Z</time>
      </trkpt>
      <trkpt lat="48.99944" lon="7.85133">
        <ele>374.79998779297</ele>
        <time>2020-05-18T13:58:36.000Z</time>
      </trkpt>
      <trkpt lat="48.99934" lon="7.85127">
        <ele>375.39999389648</ele>
        <time>2020-05-18T13:58:41.000Z</time>
      </trkpt>
      <trkpt lat="48.99933" lon="7.85127">
        <ele>375.60000610352</ele>
        <time>2020-05-18T13:58:42.000Z</time>
      </trkpt>
      <trkpt lat="48.99927" lon="7.85122">
        <ele>376</ele>
        <time>2020-05-18T13:58:45.000Z</time>
      </trkpt>
      <trkpt lat="48.99925" lon="7.85121">
        <ele>376.20001220703</ele>
        <time>2020-05-18T13:58:46.000Z</time>
      </trkpt>
      <trkpt lat="48.99924" lon="7.8512">
        <ele>376.60000610352</ele>
        <time>2020-05-18T13:58:47.000Z</time>
      </trkpt>
      <trkpt lat="48.99919" lon="7.85116">
        <ele>376.60000610352</ele>
        <time>2020-05-18T13:58:49.000Z</time>
      </trkpt>
      <trkpt lat="48.99902" lon="7.85102">
        <ele>377.60000610352</ele>
        <time>2020-05-18T13:58:55.000Z</time>
      </trkpt>
      <trkpt lat="48.99896" lon="7.85097">
        <ele>378</ele>
        <time>2020-05-18T13:58:57.000Z</time>
      </trkpt>
      <trkpt lat="48.99883" lon="7.85086">
        <ele>378.20001220703</ele>
        <time>2020-05-18T13:59:02.000Z</time>
      </trkpt>
      <trkpt lat="48.99868" lon="7.85075">
        <ele>378.39999389648</ele>
        <time>2020-05-18T13:59:07.000Z</time>
      </trkpt>
      <trkpt lat="48.99863" lon="7.8507">
        <ele>378.60000610352</ele>
        <time>2020-05-18T13:59:09.000Z</time>
      </trkpt>
      <trkpt lat="48.99853" lon="7.85059">
        <ele>378.79998779297</ele>
        <time>2020-05-18T13:59:13.000Z</time>
      </trkpt>
      <trkpt lat="48.99844" lon="7.85051">
        <ele>379</ele>
        <time>2020-05-18T13:59:17.000Z</time>
      </trkpt>
      <trkpt lat="48.99835" lon="7.85044">
        <ele>379.60000610352</ele>
        <time>2020-05-18T13:59:20.000Z</time>
      </trkpt>
      <trkpt lat="48.99831" lon="7.85036">
        <ele>380</ele>
        <time>2020-05-18T13:59:22.000Z</time>
      </trkpt>
      <trkpt lat="48.9982" lon="7.85023">
        <ele>380.60000610352</ele>
        <time>2020-05-18T13:59:27.000Z</time>
      </trkpt>
      <trkpt lat="48.99818" lon="7.8502">
        <ele>380.60000610352</ele>
        <time>2020-05-18T13:59:28.000Z</time>
      </trkpt>
      <trkpt lat="48.99811" lon="7.85007">
        <ele>381.39999389648</ele>
        <time>2020-05-18T13:59:32.000Z</time>
      </trkpt>
      <trkpt lat="48.99808" lon="7.85004">
        <ele>381.39999389648</ele>
        <time>2020-05-18T13:59:33.000Z</time>
      </trkpt>
      <trkpt lat="48.99807" lon="7.85002">
        <ele>381.79998779297</ele>
        <time>2020-05-18T13:59:34.000Z</time>
      </trkpt>
      <trkpt lat="48.99802" lon="7.84996">
        <ele>382</ele>
        <time>2020-05-18T13:59:36.000Z</time>
      </trkpt>
      <trkpt lat="48.99795" lon="7.84986">
        <ele>382.20001220703</ele>
        <time>2020-05-18T13:59:40.000Z</time>
      </trkpt>
      <trkpt lat="48.99793" lon="7.84983">
        <ele>382.20001220703</ele>
        <time>2020-05-18T13:59:41.000Z</time>
      </trkpt>
      <trkpt lat="48.99786" lon="7.84972">
        <ele>382.60000610352</ele>
        <time>2020-05-18T13:59:44.000Z</time>
      </trkpt>
      <trkpt lat="48.99785" lon="7.84969">
        <ele>382.79998779297</ele>
        <time>2020-05-18T13:59:45.000Z</time>
      </trkpt>
      <trkpt lat="48.99775" lon="7.84952">
        <ele>383.39999389648</ele>
        <time>2020-05-18T13:59:50.000Z</time>
      </trkpt>
      <trkpt lat="48.9977" lon="7.84945">
        <ele>383.79998779297</ele>
        <time>2020-05-18T13:59:52.000Z</time>
      </trkpt>
      <trkpt lat="48.99765" lon="7.8494">
        <ele>384.20001220703</ele>
        <time>2020-05-18T13:59:54.000Z</time>
      </trkpt>
      <trkpt lat="48.99753" lon="7.84927">
        <ele>384.79998779297</ele>
        <time>2020-05-18T13:59:59.000Z</time>
      </trkpt>
      <trkpt lat="48.9975" lon="7.84925">
        <ele>385</ele>
        <time>2020-05-18T14:00:00.000Z</time>
      </trkpt>
      <trkpt lat="48.99739" lon="7.84911">
        <ele>385.60000610352</ele>
        <time>2020-05-18T14:00:05.000Z</time>
      </trkpt>
      <trkpt lat="48.99732" lon="7.84904">
        <ele>386</ele>
        <time>2020-05-18T14:00:08.000Z</time>
      </trkpt>
      <trkpt lat="48.99723" lon="7.84896">
        <ele>386.39999389648</ele>
        <time>2020-05-18T14:00:11.000Z</time>
      </trkpt>
      <trkpt lat="48.99718" lon="7.84892">
        <ele>386.79998779297</ele>
        <time>2020-05-18T14:00:13.000Z</time>
      </trkpt>
      <trkpt lat="48.99714" lon="7.84888">
        <ele>387.20001220703</ele>
        <time>2020-05-18T14:00:15.000Z</time>
      </trkpt>
      <trkpt lat="48.99712" lon="7.84886">
        <ele>387.39999389648</ele>
        <time>2020-05-18T14:00:16.000Z</time>
      </trkpt>
      <trkpt lat="48.99705" lon="7.8488">
        <ele>387.60000610352</ele>
        <time>2020-05-18T14:00:19.000Z</time>
      </trkpt>
      <trkpt lat="48.99696" lon="7.84871">
        <ele>388.20001220703</ele>
        <time>2020-05-18T14:00:22.000Z</time>
      </trkpt>
      <trkpt lat="48.99693" lon="7.84868">
        <ele>388.20001220703</ele>
        <time>2020-05-18T14:00:23.000Z</time>
      </trkpt>
      <trkpt lat="48.9969" lon="7.84865">
        <ele>388.20001220703</ele>
        <time>2020-05-18T14:00:24.000Z</time>
      </trkpt>
      <trkpt lat="48.9968" lon="7.84856">
        <ele>388.39999389648</ele>
        <time>2020-05-18T14:00:27.000Z</time>
      </trkpt>
      <trkpt lat="48.99677" lon="7.84853">
        <ele>388.79998779297</ele>
        <time>2020-05-18T14:00:28.000Z</time>
      </trkpt>
      <trkpt lat="48.99663" lon="7.84838">
        <ele>389</ele>
        <time>2020-05-18T14:00:33.000Z</time>
      </trkpt>
      <trkpt lat="48.99656" lon="7.84832">
        <ele>388.79998779297</ele>
        <time>2020-05-18T14:00:36.000Z</time>
      </trkpt>
      <trkpt lat="48.99655" lon="7.84832">
        <ele>388.79998779297</ele>
        <time>2020-05-18T14:00:37.000Z</time>
      </trkpt>
      <trkpt lat="48.99641" lon="7.84822">
        <ele>388.60000610352</ele>
        <time>2020-05-18T14:00:44.000Z</time>
      </trkpt>
      <trkpt lat="48.99625" lon="7.84816">
        <ele>389.39999389648</ele>
        <time>2020-05-18T14:00:49.000Z</time>
      </trkpt>
      <trkpt lat="48.99608" lon="7.84809">
        <ele>389.79998779297</ele>
        <time>2020-05-18T14:00:54.000Z</time>
      </trkpt>
      <trkpt lat="48.99593" lon="7.84802">
        <ele>389.39999389648</ele>
        <time>2020-05-18T14:00:58.000Z</time>
      </trkpt>
      <trkpt lat="48.99581" lon="7.84801">
        <ele>388.20001220703</ele>
        <time>2020-05-18T14:01:01.000Z</time>
      </trkpt>
      <trkpt lat="48.9957" lon="7.84802">
        <ele>387.79998779297</ele>
        <time>2020-05-18T14:01:04.000Z</time>
      </trkpt>
      <trkpt lat="48.99565" lon="7.84802">
        <ele>387.79998779297</ele>
        <time>2020-05-18T14:01:05.000Z</time>
      </trkpt>
      <trkpt lat="48.99552" lon="7.84801">
        <ele>387.60000610352</ele>
        <time>2020-05-18T14:01:08.000Z</time>
      </trkpt>
      <trkpt lat="48.99548" lon="7.84799">
        <ele>387</ele>
        <time>2020-05-18T14:01:09.000Z</time>
      </trkpt>
      <trkpt lat="48.99542" lon="7.84792">
        <ele>386.20001220703</ele>
        <time>2020-05-18T14:01:11.000Z</time>
      </trkpt>
      <trkpt lat="48.9954" lon="7.84786">
        <ele>385.60000610352</ele>
        <time>2020-05-18T14:01:12.000Z</time>
      </trkpt>
      <trkpt lat="48.99534" lon="7.84772">
        <ele>384.20001220703</ele>
        <time>2020-05-18T14:01:14.000Z</time>
      </trkpt>
      <trkpt lat="48.99529" lon="7.84763">
        <ele>383.39999389648</ele>
        <time>2020-05-18T14:01:15.000Z</time>
      </trkpt>
      <trkpt lat="48.99526" lon="7.84754">
        <ele>382.60000610352</ele>
        <time>2020-05-18T14:01:16.000Z</time>
      </trkpt>
      <trkpt lat="48.99518" lon="7.84734">
        <ele>381.20001220703</ele>
        <time>2020-05-18T14:01:18.000Z</time>
      </trkpt>
      <trkpt lat="48.99511" lon="7.84711">
        <ele>380.20001220703</ele>
        <time>2020-05-18T14:01:20.000Z</time>
      </trkpt>
      <trkpt lat="48.99507" lon="7.84701">
        <ele>380</ele>
        <time>2020-05-18T14:01:21.000Z</time>
      </trkpt>
      <trkpt lat="48.99502" lon="7.8469">
        <ele>379.79998779297</ele>
        <time>2020-05-18T14:01:22.000Z</time>
      </trkpt>
      <trkpt lat="48.99488" lon="7.84667">
        <ele>379.20001220703</ele>
        <time>2020-05-18T14:01:25.000Z</time>
      </trkpt>
      <trkpt lat="48.99481" lon="7.84658">
        <ele>379</ele>
        <time>2020-05-18T14:01:26.000Z</time>
      </trkpt>
      <trkpt lat="48.99463" lon="7.84637">
        <ele>378.60000610352</ele>
        <time>2020-05-18T14:01:29.000Z</time>
      </trkpt>
      <trkpt lat="48.99456" lon="7.8463">
        <ele>378.60000610352</ele>
        <time>2020-05-18T14:01:30.000Z</time>
      </trkpt>
      <trkpt lat="48.9945" lon="7.84625">
        <ele>378.39999389648</ele>
        <time>2020-05-18T14:01:31.000Z</time>
      </trkpt>
      <trkpt lat="48.99437" lon="7.8462">
        <ele>378.20001220703</ele>
        <time>2020-05-18T14:01:33.000Z</time>
      </trkpt>
      <trkpt lat="48.99413" lon="7.8461">
        <ele>377.79998779297</ele>
        <time>2020-05-18T14:01:37.000Z</time>
      </trkpt>
      <trkpt lat="48.99384" lon="7.84599">
        <ele>377.39999389648</ele>
        <time>2020-05-18T14:01:42.000Z</time>
      </trkpt>
      <trkpt lat="48.99356" lon="7.8459">
        <ele>377.20001220703</ele>
        <time>2020-05-18T14:01:47.000Z</time>
      </trkpt>
      <trkpt lat="48.99334" lon="7.84586">
        <ele>377</ele>
        <time>2020-05-18T14:01:51.000Z</time>
      </trkpt>
      <trkpt lat="48.99313" lon="7.84584">
        <ele>376.60000610352</ele>
        <time>2020-05-18T14:01:55.000Z</time>
      </trkpt>
      <trkpt lat="48.99308" lon="7.84584">
        <ele>376.20001220703</ele>
        <time>2020-05-18T14:01:56.000Z</time>
      </trkpt>
      <trkpt lat="48.99286" lon="7.84587">
        <ele>375.60000610352</ele>
        <time>2020-05-18T14:02:00.000Z</time>
      </trkpt>
      <trkpt lat="48.99276" lon="7.84589">
        <ele>375.79998779297</ele>
        <time>2020-05-18T14:02:02.000Z</time>
      </trkpt>
      <trkpt lat="48.99264" lon="7.84589">
        <ele>375</ele>
        <time>2020-05-18T14:02:04.000Z</time>
      </trkpt>
      <trkpt lat="48.99257" lon="7.8459">
        <ele>374.60000610352</ele>
        <time>2020-05-18T14:02:05.000Z</time>
      </trkpt>
      <trkpt lat="48.99243" lon="7.84591">
        <ele>373.79998779297</ele>
        <time>2020-05-18T14:02:07.000Z</time>
      </trkpt>
      <trkpt lat="48.99237" lon="7.84593">
        <ele>373.39999389648</ele>
        <time>2020-05-18T14:02:08.000Z</time>
      </trkpt>
      <trkpt lat="48.9922" lon="7.84593">
        <ele>373.39999389648</ele>
        <time>2020-05-18T14:02:11.000Z</time>
      </trkpt>
      <trkpt lat="48.99215" lon="7.84592">
        <ele>373.39999389648</ele>
        <time>2020-05-18T14:02:12.000Z</time>
      </trkpt>
      <trkpt lat="48.99195" lon="7.84584">
        <ele>373.39999389648</ele>
        <time>2020-05-18T14:02:17.000Z</time>
      </trkpt>
      <trkpt lat="48.9918" lon="7.84573">
        <ele>372.39999389648</ele>
        <time>2020-05-18T14:02:20.000Z</time>
      </trkpt>
      <trkpt lat="48.99176" lon="7.84569">
        <ele>372.20001220703</ele>
        <time>2020-05-18T14:02:21.000Z</time>
      </trkpt>
      <trkpt lat="48.99168" lon="7.84548">
        <ele>371.79998779297</ele>
        <time>2020-05-18T14:02:25.000Z</time>
      </trkpt>
      <trkpt lat="48.99172" lon="7.8453">
        <ele>371.79998779297</ele>
        <time>2020-05-18T14:02:28.000Z</time>
      </trkpt>
      <trkpt lat="48.99173" lon="7.8451">
        <ele>371.20001220703</ele>
        <time>2020-05-18T14:02:31.000Z</time>
      </trkpt>
      <trkpt lat="48.99174" lon="7.84499">
        <ele>371</ele>
        <time>2020-05-18T14:02:33.000Z</time>
      </trkpt>
      <trkpt lat="48.99166" lon="7.84481">
        <ele>370.60000610352</ele>
        <time>2020-05-18T14:02:37.000Z</time>
      </trkpt>
      <trkpt lat="48.99163" lon="7.84477">
        <ele>370.60000610352</ele>
        <time>2020-05-18T14:02:38.000Z</time>
      </trkpt>
      <trkpt lat="48.99155" lon="7.84471">
        <ele>370.79998779297</ele>
        <time>2020-05-18T14:02:40.000Z</time>
      </trkpt>
      <trkpt lat="48.99147" lon="7.84466">
        <ele>371</ele>
        <time>2020-05-18T14:02:42.000Z</time>
      </trkpt>
      <trkpt lat="48.99112" lon="7.84442">
        <ele>372.20001220703</ele>
        <time>2020-05-18T14:02:52.000Z</time>
      </trkpt>
      <trkpt lat="48.9911" lon="7.84438">
        <ele>372.39999389648</ele>
        <time>2020-05-18T14:02:53.000Z</time>
      </trkpt>
      <trkpt lat="48.99109" lon="7.8443">
        <ele>372.79998779297</ele>
        <time>2020-05-18T14:02:55.000Z</time>
      </trkpt>
      <trkpt lat="48.99112" lon="7.8442">
        <ele>373.39999389648</ele>
        <time>2020-05-18T14:02:58.000Z</time>
      </trkpt>
      <trkpt lat="48.99113" lon="7.84419">
        <ele>373.79998779297</ele>
        <time>2020-05-18T14:02:59.000Z</time>
      </trkpt>
      <trkpt lat="48.99116" lon="7.84415">
        <ele>374.79998779297</ele>
        <time>2020-05-18T14:03:01.000Z</time>
      </trkpt>
      <trkpt lat="48.99119" lon="7.8441">
        <ele>375.39999389648</ele>
        <time>2020-05-18T14:03:03.000Z</time>
      </trkpt>
      <trkpt lat="48.99122" lon="7.84403">
        <ele>376</ele>
        <time>2020-05-18T14:03:06.000Z</time>
      </trkpt>
      <trkpt lat="48.99123" lon="7.844">
        <ele>376.20001220703</ele>
        <time>2020-05-18T14:03:07.000Z</time>
      </trkpt>
      <trkpt lat="48.99124" lon="7.84397">
        <ele>376.60000610352</ele>
        <time>2020-05-18T14:03:08.000Z</time>
      </trkpt>
      <trkpt lat="48.99126" lon="7.84389">
        <ele>377.20001220703</ele>
        <time>2020-05-18T14:03:11.000Z</time>
      </trkpt>
      <trkpt lat="48.99126" lon="7.84386">
        <ele>377.20001220703</ele>
        <time>2020-05-18T14:03:12.000Z</time>
      </trkpt>
      <trkpt lat="48.99127" lon="7.84383">
        <ele>377.20001220703</ele>
        <time>2020-05-18T14:03:13.000Z</time>
      </trkpt>
      <trkpt lat="48.99133" lon="7.8437">
        <ele>378.20001220703</ele>
        <time>2020-05-18T14:03:18.000Z</time>
      </trkpt>
      <trkpt lat="48.99134" lon="7.84368">
        <ele>378.60000610352</ele>
        <time>2020-05-18T14:03:19.000Z</time>
      </trkpt>
      <trkpt lat="48.99138" lon="7.84361">
        <ele>379.39999389648</ele>
        <time>2020-05-18T14:03:23.000Z</time>
      </trkpt>
      <trkpt lat="48.99139" lon="7.84358">
        <ele>379.79998779297</ele>
        <time>2020-05-18T14:03:24.000Z</time>
      </trkpt>
      <trkpt lat="48.99141" lon="7.84352">
        <ele>380.79998779297</ele>
        <time>2020-05-18T14:03:27.000Z</time>
      </trkpt>
      <trkpt lat="48.99142" lon="7.84349">
        <ele>381.20001220703</ele>
        <time>2020-05-18T14:03:29.000Z</time>
      </trkpt>
      <trkpt lat="48.99145" lon="7.84341">
        <ele>382</ele>
        <time>2020-05-18T14:03:32.000Z</time>
      </trkpt>
      <trkpt lat="48.99147" lon="7.84333">
        <ele>383</ele>
        <time>2020-05-18T14:03:36.000Z</time>
      </trkpt>
      <trkpt lat="48.99149" lon="7.84326">
        <ele>384.20001220703</ele>
        <time>2020-05-18T14:03:40.000Z</time>
      </trkpt>
      <trkpt lat="48.99149" lon="7.84324">
        <ele>384.39999389648</ele>
        <time>2020-05-18T14:03:41.000Z</time>
      </trkpt>
      <trkpt lat="48.99151" lon="7.84316">
        <ele>385.20001220703</ele>
        <time>2020-05-18T14:03:45.000Z</time>
      </trkpt>
      <trkpt lat="48.99152" lon="7.84309">
        <ele>386.39999389648</ele>
        <time>2020-05-18T14:03:49.000Z</time>
      </trkpt>
      <trkpt lat="48.99152" lon="7.84308">
        <ele>386.79998779297</ele>
        <time>2020-05-18T14:03:50.000Z</time>
      </trkpt>
      <trkpt lat="48.99154" lon="7.84301">
        <ele>387.79998779297</ele>
        <time>2020-05-18T14:03:54.000Z</time>
      </trkpt>
      <trkpt lat="48.99153" lon="7.84297">
        <ele>388.39999389648</ele>
        <time>2020-05-18T14:03:56.000Z</time>
      </trkpt>
      <trkpt lat="48.99151" lon="7.84294">
        <ele>389</ele>
        <time>2020-05-18T14:03:58.000Z</time>
      </trkpt>
      <trkpt lat="48.99151" lon="7.84292">
        <ele>389.79998779297</ele>
        <time>2020-05-18T14:04:00.000Z</time>
      </trkpt>
      <trkpt lat="48.9915" lon="7.8429">
        <ele>390</ele>
        <time>2020-05-18T14:04:01.000Z</time>
      </trkpt>
      <trkpt lat="48.99148" lon="7.84289">
        <ele>390.60000610352</ele>
        <time>2020-05-18T14:04:03.000Z</time>
      </trkpt>
      <trkpt lat="48.99146" lon="7.84287">
        <ele>391.20001220703</ele>
        <time>2020-05-18T14:04:05.000Z</time>
      </trkpt>
      <trkpt lat="48.99143" lon="7.84287">
        <ele>392.39999389648</ele>
        <time>2020-05-18T14:04:09.000Z</time>
      </trkpt>
      <trkpt lat="48.99141" lon="7.84287">
        <ele>392.79998779297</ele>
        <time>2020-05-18T14:04:11.000Z</time>
      </trkpt>
      <trkpt lat="48.99138" lon="7.84288">
        <ele>393.39999389648</ele>
        <time>2020-05-18T14:04:14.000Z</time>
      </trkpt>
      <trkpt lat="48.99137" lon="7.84288">
        <ele>393.60000610352</ele>
        <time>2020-05-18T14:04:15.000Z</time>
      </trkpt>
      <trkpt lat="48.99131" lon="7.84289">
        <ele>394.39999389648</ele>
        <time>2020-05-18T14:04:20.000Z</time>
      </trkpt>
      <trkpt lat="48.9913" lon="7.8429">
        <ele>394.39999389648</ele>
        <time>2020-05-18T14:04:21.000Z</time>
      </trkpt>
      <trkpt lat="48.99128" lon="7.8429">
        <ele>394.60000610352</ele>
        <time>2020-05-18T14:04:22.000Z</time>
      </trkpt>
      <trkpt lat="48.99126" lon="7.8429">
        <ele>394.79998779297</ele>
        <time>2020-05-18T14:04:24.000Z</time>
      </trkpt>
      <trkpt lat="48.99119" lon="7.84291">
        <ele>395.60000610352</ele>
        <time>2020-05-18T14:04:29.000Z</time>
      </trkpt>
      <trkpt lat="48.99116" lon="7.84291">
        <ele>396.20001220703</ele>
        <time>2020-05-18T14:04:31.000Z</time>
      </trkpt>
      <trkpt lat="48.99109" lon="7.84292">
        <ele>397</ele>
        <time>2020-05-18T14:04:36.000Z</time>
      </trkpt>
      <trkpt lat="48.99099" lon="7.84296">
        <ele>397.79998779297</ele>
        <time>2020-05-18T14:04:43.000Z</time>
      </trkpt>
      <trkpt lat="48.99097" lon="7.84297">
        <ele>398</ele>
        <time>2020-05-18T14:04:44.000Z</time>
      </trkpt>
      <trkpt lat="48.99091" lon="7.84299">
        <ele>398.60000610352</ele>
        <time>2020-05-18T14:04:48.000Z</time>
      </trkpt>
      <trkpt lat="48.99088" lon="7.84299">
        <ele>399</ele>
        <time>2020-05-18T14:04:50.000Z</time>
      </trkpt>
      <trkpt lat="48.99082" lon="7.843">
        <ele>399.20001220703</ele>
        <time>2020-05-18T14:04:53.000Z</time>
      </trkpt>
      <trkpt lat="48.99076" lon="7.84303">
        <ele>399.79998779297</ele>
        <time>2020-05-18T14:04:57.000Z</time>
      </trkpt>
      <trkpt lat="48.99073" lon="7.84304">
        <ele>400</ele>
        <time>2020-05-18T14:04:59.000Z</time>
      </trkpt>
      <trkpt lat="48.99071" lon="7.84304">
        <ele>400.20001220703</ele>
        <time>2020-05-18T14:05:00.000Z</time>
      </trkpt>
      <trkpt lat="48.99066" lon="7.84305">
        <ele>400.60000610352</ele>
        <time>2020-05-18T14:05:03.000Z</time>
      </trkpt>
      <trkpt lat="48.99056" lon="7.84308">
        <ele>401.20001220703</ele>
        <time>2020-05-18T14:05:07.000Z</time>
      </trkpt>
      <trkpt lat="48.9905" lon="7.8431">
        <ele>401.39999389648</ele>
        <time>2020-05-18T14:05:10.000Z</time>
      </trkpt>
      <trkpt lat="48.99041" lon="7.84313">
        <ele>402.20001220703</ele>
        <time>2020-05-18T14:05:16.000Z</time>
      </trkpt>
      <trkpt lat="48.9904" lon="7.84313">
        <ele>402.60000610352</ele>
        <time>2020-05-18T14:05:17.000Z</time>
      </trkpt>
      <trkpt lat="48.99037" lon="7.84313">
        <ele>403.20001220703</ele>
        <time>2020-05-18T14:05:19.000Z</time>
      </trkpt>
      <trkpt lat="48.99037" lon="7.84312">
        <ele>403.60000610352</ele>
        <time>2020-05-18T14:05:20.000Z</time>
      </trkpt>
      <trkpt lat="48.99035" lon="7.84307">
        <ele>404.39999389648</ele>
        <time>2020-05-18T14:05:23.000Z</time>
      </trkpt>
      <trkpt lat="48.99036" lon="7.84301">
        <ele>405.20001220703</ele>
        <time>2020-05-18T14:05:26.000Z</time>
      </trkpt>
      <trkpt lat="48.99036" lon="7.84299">
        <ele>405.60000610352</ele>
        <time>2020-05-18T14:05:27.000Z</time>
      </trkpt>
      <trkpt lat="48.99037" lon="7.84296">
        <ele>406.20001220703</ele>
        <time>2020-05-18T14:05:29.000Z</time>
      </trkpt>
      <trkpt lat="48.99037" lon="7.84294">
        <ele>406.60000610352</ele>
        <time>2020-05-18T14:05:30.000Z</time>
      </trkpt>
      <trkpt lat="48.99039" lon="7.8429">
        <ele>407.20001220703</ele>
        <time>2020-05-18T14:05:32.000Z</time>
      </trkpt>
      <trkpt lat="48.9904" lon="7.84288">
        <ele>407.60000610352</ele>
        <time>2020-05-18T14:05:34.000Z</time>
      </trkpt>
      <trkpt lat="48.99042" lon="7.84285">
        <ele>409</ele>
        <time>2020-05-18T14:05:37.000Z</time>
      </trkpt>
      <trkpt lat="48.99047" lon="7.84277">
        <ele>410</ele>
        <time>2020-05-18T14:05:41.000Z</time>
      </trkpt>
      <trkpt lat="48.9905" lon="7.84274">
        <ele>410.20001220703</ele>
        <time>2020-05-18T14:05:43.000Z</time>
      </trkpt>
      <trkpt lat="48.99058" lon="7.84267">
        <ele>411.20001220703</ele>
        <time>2020-05-18T14:05:49.000Z</time>
      </trkpt>
      <trkpt lat="48.99059" lon="7.84267">
        <ele>411.20001220703</ele>
        <time>2020-05-18T14:05:50.000Z</time>
      </trkpt>
      <trkpt lat="48.99063" lon="7.84265">
        <ele>412</ele>
        <time>2020-05-18T14:06:01.000Z</time>
      </trkpt>
      <trkpt lat="48.99063" lon="7.84265">
        <ele>412.20001220703</ele>
        <time>2020-05-18T14:06:18.000Z</time>
      </trkpt>
      <trkpt lat="48.99063" lon="7.84265">
        <ele>411.79998779297</ele>
        <time>2020-05-18T14:06:29.000Z</time>
      </trkpt>
      <trkpt lat="48.99066" lon="7.8426">
        <ele>412.20001220703</ele>
        <time>2020-05-18T14:06:35.000Z</time>
      </trkpt>
      <trkpt lat="48.9907" lon="7.84255">
        <ele>413</ele>
        <time>2020-05-18T14:06:39.000Z</time>
      </trkpt>
      <trkpt lat="48.99071" lon="7.84252">
        <ele>413.20001220703</ele>
        <time>2020-05-18T14:06:41.000Z</time>
      </trkpt>
      <trkpt lat="48.99077" lon="7.84241">
        <ele>414.20001220703</ele>
        <time>2020-05-18T14:06:47.000Z</time>
      </trkpt>
      <trkpt lat="48.99078" lon="7.84239">
        <ele>414.39999389648</ele>
        <time>2020-05-18T14:06:48.000Z</time>
      </trkpt>
      <trkpt lat="48.99081" lon="7.84234">
        <ele>415</ele>
        <time>2020-05-18T14:06:51.000Z</time>
      </trkpt>
      <trkpt lat="48.99082" lon="7.84232">
        <ele>415.39999389648</ele>
        <time>2020-05-18T14:06:52.000Z</time>
      </trkpt>
      <trkpt lat="48.99084" lon="7.84222">
        <ele>416.20001220703</ele>
        <time>2020-05-18T14:06:56.000Z</time>
      </trkpt>
      <trkpt lat="48.99085" lon="7.8422">
        <ele>416.39999389648</ele>
        <time>2020-05-18T14:06:57.000Z</time>
      </trkpt>
      <trkpt lat="48.9909" lon="7.84207">
        <ele>417.39999389648</ele>
        <time>2020-05-18T14:07:02.000Z</time>
      </trkpt>
      <trkpt lat="48.99092" lon="7.84202">
        <ele>417.60000610352</ele>
        <time>2020-05-18T14:07:03.000Z</time>
      </trkpt>
      <trkpt lat="48.99095" lon="7.84196">
        <ele>417.79998779297</ele>
        <time>2020-05-18T14:07:05.000Z</time>
      </trkpt>
      <trkpt lat="48.99096" lon="7.84189">
        <ele>418</ele>
        <time>2020-05-18T14:07:07.000Z</time>
      </trkpt>
      <trkpt lat="48.99098" lon="7.84169">
        <ele>418.39999389648</ele>
        <time>2020-05-18T14:07:14.000Z</time>
      </trkpt>
      <trkpt lat="48.99101" lon="7.84159">
        <ele>418.60000610352</ele>
        <time>2020-05-18T14:07:18.000Z</time>
      </trkpt>
      <trkpt lat="48.99102" lon="7.84157">
        <ele>419.20001220703</ele>
        <time>2020-05-18T14:07:19.000Z</time>
      </trkpt>
      <trkpt lat="48.99102" lon="7.84149">
        <ele>419.79998779297</ele>
        <time>2020-05-18T14:07:22.000Z</time>
      </trkpt>
      <trkpt lat="48.99101" lon="7.84144">
        <ele>420</ele>
        <time>2020-05-18T14:07:24.000Z</time>
      </trkpt>
      <trkpt lat="48.991" lon="7.84136">
        <ele>421</ele>
        <time>2020-05-18T14:07:27.000Z</time>
      </trkpt>
      <trkpt lat="48.99099" lon="7.84126">
        <ele>421.79998779297</ele>
        <time>2020-05-18T14:07:31.000Z</time>
      </trkpt>
      <trkpt lat="48.99097" lon="7.84121">
        <ele>422.20001220703</ele>
        <time>2020-05-18T14:07:33.000Z</time>
      </trkpt>
      <trkpt lat="48.99096" lon="7.84111">
        <ele>423</ele>
        <time>2020-05-18T14:07:37.000Z</time>
      </trkpt>
      <trkpt lat="48.99095" lon="7.84106">
        <ele>423.20001220703</ele>
        <time>2020-05-18T14:07:39.000Z</time>
      </trkpt>
      <trkpt lat="48.99094" lon="7.84105">
        <ele>423.60000610352</ele>
        <time>2020-05-18T14:07:40.000Z</time>
      </trkpt>
      <trkpt lat="48.9909" lon="7.84103">
        <ele>424</ele>
        <time>2020-05-18T14:07:43.000Z</time>
      </trkpt>
      <trkpt lat="48.99088" lon="7.84103">
        <ele>425</ele>
        <time>2020-05-18T14:07:45.000Z</time>
      </trkpt>
      <trkpt lat="48.99086" lon="7.84102">
        <ele>425.39999389648</ele>
        <time>2020-05-18T14:07:46.000Z</time>
      </trkpt>
      <trkpt lat="48.99085" lon="7.84102">
        <ele>426</ele>
        <time>2020-05-18T14:07:47.000Z</time>
      </trkpt>
      <trkpt lat="48.99082" lon="7.84102">
        <ele>426.60000610352</ele>
        <time>2020-05-18T14:07:49.000Z</time>
      </trkpt>
      <trkpt lat="48.99078" lon="7.84102">
        <ele>427.20001220703</ele>
        <time>2020-05-18T14:07:51.000Z</time>
      </trkpt>
      <trkpt lat="48.99075" lon="7.84101">
        <ele>427.79998779297</ele>
        <time>2020-05-18T14:07:53.000Z</time>
      </trkpt>
      <trkpt lat="48.99072" lon="7.84101">
        <ele>428.60000610352</ele>
        <time>2020-05-18T14:07:55.000Z</time>
      </trkpt>
      <trkpt lat="48.99071" lon="7.84101">
        <ele>429</ele>
        <time>2020-05-18T14:07:56.000Z</time>
      </trkpt>
      <trkpt lat="48.99068" lon="7.84101">
        <ele>430</ele>
        <time>2020-05-18T14:07:59.000Z</time>
      </trkpt>
      <trkpt lat="48.99068" lon="7.84102">
        <ele>430.20001220703</ele>
        <time>2020-05-18T14:08:00.000Z</time>
      </trkpt>
      <trkpt lat="48.99065" lon="7.84103">
        <ele>431.60000610352</ele>
        <time>2020-05-18T14:08:02.000Z</time>
      </trkpt>
      <trkpt lat="48.99058" lon="7.84103">
        <ele>432.79998779297</ele>
        <time>2020-05-18T14:08:06.000Z</time>
      </trkpt>
      <trkpt lat="48.99058" lon="7.84102">
        <ele>433.39999389648</ele>
        <time>2020-05-18T14:08:07.000Z</time>
      </trkpt>
      <trkpt lat="48.99056" lon="7.84103">
        <ele>433.79998779297</ele>
        <time>2020-05-18T14:08:08.000Z</time>
      </trkpt>
      <trkpt lat="48.99052" lon="7.84102">
        <ele>434.79998779297</ele>
        <time>2020-05-18T14:08:11.000Z</time>
      </trkpt>
      <trkpt lat="48.99052" lon="7.84101">
        <ele>435</ele>
        <time>2020-05-18T14:08:12.000Z</time>
      </trkpt>
      <trkpt lat="48.99049" lon="7.84101">
        <ele>436.20001220703</ele>
        <time>2020-05-18T14:08:15.000Z</time>
      </trkpt>
      <trkpt lat="48.99045" lon="7.84102">
        <ele>437.39999389648</ele>
        <time>2020-05-18T14:08:18.000Z</time>
      </trkpt>
      <trkpt lat="48.99044" lon="7.84102">
        <ele>437.60000610352</ele>
        <time>2020-05-18T14:08:19.000Z</time>
      </trkpt>
      <trkpt lat="48.99041" lon="7.841">
        <ele>438</ele>
        <time>2020-05-18T14:08:21.000Z</time>
      </trkpt>
      <trkpt lat="48.99039" lon="7.841">
        <ele>439</ele>
        <time>2020-05-18T14:08:23.000Z</time>
      </trkpt>
      <trkpt lat="48.99036" lon="7.841">
        <ele>440.20001220703</ele>
        <time>2020-05-18T14:08:26.000Z</time>
      </trkpt>
      <trkpt lat="48.99032" lon="7.84098">
        <ele>441</ele>
        <time>2020-05-18T14:08:29.000Z</time>
      </trkpt>
      <trkpt lat="48.9903" lon="7.84097">
        <ele>441.39999389648</ele>
        <time>2020-05-18T14:08:30.000Z</time>
      </trkpt>
      <trkpt lat="48.99025" lon="7.84092">
        <ele>442.39999389648</ele>
        <time>2020-05-18T14:08:34.000Z</time>
      </trkpt>
      <trkpt lat="48.99023" lon="7.84092">
        <ele>442.79998779297</ele>
        <time>2020-05-18T14:08:35.000Z</time>
      </trkpt>
      <trkpt lat="48.99021" lon="7.84092">
        <ele>443.20001220703</ele>
        <time>2020-05-18T14:08:36.000Z</time>
      </trkpt>
      <trkpt lat="48.9902" lon="7.84091">
        <ele>443.39999389648</ele>
        <time>2020-05-18T14:08:37.000Z</time>
      </trkpt>
      <trkpt lat="48.99015" lon="7.8409">
        <ele>444.60000610352</ele>
        <time>2020-05-18T14:08:40.000Z</time>
      </trkpt>
      <trkpt lat="48.99013" lon="7.84091">
        <ele>445.20001220703</ele>
        <time>2020-05-18T14:08:41.000Z</time>
      </trkpt>
      <trkpt lat="48.99011" lon="7.84093">
        <ele>445.79998779297</ele>
        <time>2020-05-18T14:08:43.000Z</time>
      </trkpt>
      <trkpt lat="48.99009" lon="7.84099">
        <ele>446.39999389648</ele>
        <time>2020-05-18T14:08:46.000Z</time>
      </trkpt>
      <trkpt lat="48.99008" lon="7.84105">
        <ele>446.79998779297</ele>
        <time>2020-05-18T14:08:49.000Z</time>
      </trkpt>
      <trkpt lat="48.99008" lon="7.84107">
        <ele>446.79998779297</ele>
        <time>2020-05-18T14:08:50.000Z</time>
      </trkpt>
      <trkpt lat="48.99008" lon="7.84112">
        <ele>446.79998779297</ele>
        <time>2020-05-18T14:08:52.000Z</time>
      </trkpt>
      <trkpt lat="48.99003" lon="7.8413">
        <ele>446.60000610352</ele>
        <time>2020-05-18T14:08:59.000Z</time>
      </trkpt>
      <trkpt lat="48.98992" lon="7.84148">
        <ele>447.20001220703</ele>
        <time>2020-05-18T14:09:08.000Z</time>
      </trkpt>
      <trkpt lat="48.98988" lon="7.84152">
        <ele>447.60000610352</ele>
        <time>2020-05-18T14:09:11.000Z</time>
      </trkpt>
      <trkpt lat="48.98984" lon="7.84153">
        <ele>448</ele>
        <time>2020-05-18T14:09:14.000Z</time>
      </trkpt>
      <trkpt lat="48.98976" lon="7.84158">
        <ele>449</ele>
        <time>2020-05-18T14:09:20.000Z</time>
      </trkpt>
      <trkpt lat="48.98974" lon="7.84159">
        <ele>449.20001220703</ele>
        <time>2020-05-18T14:09:21.000Z</time>
      </trkpt>
      <trkpt lat="48.98966" lon="7.84159">
        <ele>449.79998779297</ele>
        <time>2020-05-18T14:09:26.000Z</time>
      </trkpt>
      <trkpt lat="48.98964" lon="7.84159">
        <ele>450</ele>
        <time>2020-05-18T14:09:27.000Z</time>
      </trkpt>
      <trkpt lat="48.98961" lon="7.84157">
        <ele>450.20001220703</ele>
        <time>2020-05-18T14:09:29.000Z</time>
      </trkpt>
      <trkpt lat="48.98957" lon="7.84155">
        <ele>451.20001220703</ele>
        <time>2020-05-18T14:09:32.000Z</time>
      </trkpt>
      <trkpt lat="48.98956" lon="7.84154">
        <ele>451.20001220703</ele>
        <time>2020-05-18T14:09:33.000Z</time>
      </trkpt>
      <trkpt lat="48.98952" lon="7.84153">
        <ele>452.39999389648</ele>
        <time>2020-05-18T14:09:36.000Z</time>
      </trkpt>
      <trkpt lat="48.98948" lon="7.84151">
        <ele>453</ele>
        <time>2020-05-18T14:09:39.000Z</time>
      </trkpt>
      <trkpt lat="48.98945" lon="7.8415">
        <ele>453.39999389648</ele>
        <time>2020-05-18T14:09:41.000Z</time>
      </trkpt>
      <trkpt lat="48.9894" lon="7.84145">
        <ele>454.60000610352</ele>
        <time>2020-05-18T14:09:45.000Z</time>
      </trkpt>
      <trkpt lat="48.98939" lon="7.84145">
        <ele>454.79998779297</ele>
        <time>2020-05-18T14:09:46.000Z</time>
      </trkpt>
      <trkpt lat="48.98938" lon="7.84145">
        <ele>455.20001220703</ele>
        <time>2020-05-18T14:09:47.000Z</time>
      </trkpt>
      <trkpt lat="48.98936" lon="7.84142">
        <ele>455.60000610352</ele>
        <time>2020-05-18T14:09:49.000Z</time>
      </trkpt>
      <trkpt lat="48.98934" lon="7.8414">
        <ele>456.20001220703</ele>
        <time>2020-05-18T14:09:51.000Z</time>
      </trkpt>
      <trkpt lat="48.98933" lon="7.84139">
        <ele>456.39999389648</ele>
        <time>2020-05-18T14:09:52.000Z</time>
      </trkpt>
      <trkpt lat="48.98931" lon="7.84138">
        <ele>456.79998779297</ele>
        <time>2020-05-18T14:09:54.000Z</time>
      </trkpt>
      <trkpt lat="48.98924" lon="7.84137">
        <ele>457</ele>
        <time>2020-05-18T14:09:58.000Z</time>
      </trkpt>
      <trkpt lat="48.98913" lon="7.84138">
        <ele>457</ele>
        <time>2020-05-18T14:10:04.000Z</time>
      </trkpt>
      <trkpt lat="48.98898" lon="7.8414">
        <ele>456.60000610352</ele>
        <time>2020-05-18T14:10:09.000Z</time>
      </trkpt>
      <trkpt lat="48.98883" lon="7.8414">
        <ele>455.79998779297</ele>
        <time>2020-05-18T14:10:13.000Z</time>
      </trkpt>
      <trkpt lat="48.98875" lon="7.84139">
        <ele>455.60000610352</ele>
        <time>2020-05-18T14:10:15.000Z</time>
      </trkpt>
      <trkpt lat="48.98857" lon="7.8414">
        <ele>454.60000610352</ele>
        <time>2020-05-18T14:10:19.000Z</time>
      </trkpt>
      <trkpt lat="48.98847" lon="7.8414">
        <ele>453.60000610352</ele>
        <time>2020-05-18T14:10:21.000Z</time>
      </trkpt>
      <trkpt lat="48.98842" lon="7.84139">
        <ele>453</ele>
        <time>2020-05-18T14:10:22.000Z</time>
      </trkpt>
      <trkpt lat="48.98831" lon="7.84136">
        <ele>452.20001220703</ele>
        <time>2020-05-18T14:10:24.000Z</time>
      </trkpt>
      <trkpt lat="48.98819" lon="7.8413">
        <ele>451.60000610352</ele>
        <time>2020-05-18T14:10:26.000Z</time>
      </trkpt>
      <trkpt lat="48.98808" lon="7.84123">
        <ele>450.79998779297</ele>
        <time>2020-05-18T14:10:28.000Z</time>
      </trkpt>
      <trkpt lat="48.98793" lon="7.84114">
        <ele>450.39999389648</ele>
        <time>2020-05-18T14:10:31.000Z</time>
      </trkpt>
      <trkpt lat="48.98783" lon="7.84107">
        <ele>450.39999389648</ele>
        <time>2020-05-18T14:10:33.000Z</time>
      </trkpt>
      <trkpt lat="48.98769" lon="7.84094">
        <ele>450.20001220703</ele>
        <time>2020-05-18T14:10:36.000Z</time>
      </trkpt>
      <trkpt lat="48.98765" lon="7.8409">
        <ele>450.60000610352</ele>
        <time>2020-05-18T14:10:37.000Z</time>
      </trkpt>
      <trkpt lat="48.98749" lon="7.84071">
        <ele>450.39999389648</ele>
        <time>2020-05-18T14:10:41.000Z</time>
      </trkpt>
      <trkpt lat="48.98722" lon="7.8404">
        <ele>450.39999389648</ele>
        <time>2020-05-18T14:10:48.000Z</time>
      </trkpt>
      <trkpt lat="48.98713" lon="7.84031">
        <ele>450.20001220703</ele>
        <time>2020-05-18T14:10:50.000Z</time>
      </trkpt>
      <trkpt lat="48.98699" lon="7.8402">
        <ele>449.79998779297</ele>
        <time>2020-05-18T14:10:53.000Z</time>
      </trkpt>
      <trkpt lat="48.98695" lon="7.84017">
        <ele>449.79998779297</ele>
        <time>2020-05-18T14:10:54.000Z</time>
      </trkpt>
      <trkpt lat="48.98684" lon="7.84008">
        <ele>448.39999389648</ele>
        <time>2020-05-18T14:10:56.000Z</time>
      </trkpt>
      <trkpt lat="48.98679" lon="7.84004">
        <ele>447.20001220703</ele>
        <time>2020-05-18T14:10:57.000Z</time>
      </trkpt>
      <trkpt lat="48.98674" lon="7.83999">
        <ele>446.20001220703</ele>
        <time>2020-05-18T14:10:58.000Z</time>
      </trkpt>
      <trkpt lat="48.98669" lon="7.83994">
        <ele>445.60000610352</ele>
        <time>2020-05-18T14:10:59.000Z</time>
      </trkpt>
      <trkpt lat="48.98652" lon="7.83976">
        <ele>444.20001220703</ele>
        <time>2020-05-18T14:11:02.000Z</time>
      </trkpt>
      <trkpt lat="48.98646" lon="7.83969">
        <ele>443.79998779297</ele>
        <time>2020-05-18T14:11:03.000Z</time>
      </trkpt>
      <trkpt lat="48.98625" lon="7.8395">
        <ele>442.79998779297</ele>
        <time>2020-05-18T14:11:06.000Z</time>
      </trkpt>
      <trkpt lat="48.98618" lon="7.83944">
        <ele>442.20001220703</ele>
        <time>2020-05-18T14:11:07.000Z</time>
      </trkpt>
      <trkpt lat="48.9861" lon="7.83937">
        <ele>441.60000610352</ele>
        <time>2020-05-18T14:11:08.000Z</time>
      </trkpt>
      <trkpt lat="48.98595" lon="7.83926">
        <ele>440</ele>
        <time>2020-05-18T14:11:10.000Z</time>
      </trkpt>
      <trkpt lat="48.98582" lon="7.83914">
        <ele>438.60000610352</ele>
        <time>2020-05-18T14:11:12.000Z</time>
      </trkpt>
      <trkpt lat="48.98562" lon="7.83891">
        <ele>437.39999389648</ele>
        <time>2020-05-18T14:11:15.000Z</time>
      </trkpt>
      <trkpt lat="48.98555" lon="7.83882">
        <ele>436.60000610352</ele>
        <time>2020-05-18T14:11:16.000Z</time>
      </trkpt>
      <trkpt lat="48.9855" lon="7.83872">
        <ele>436</ele>
        <time>2020-05-18T14:11:17.000Z</time>
      </trkpt>
      <trkpt lat="48.98543" lon="7.83852">
        <ele>435.20001220703</ele>
        <time>2020-05-18T14:11:19.000Z</time>
      </trkpt>
      <trkpt lat="48.98538" lon="7.83831">
        <ele>437.20001220703</ele>
        <time>2020-05-18T14:11:22.000Z</time>
      </trkpt>
      <trkpt lat="48.98537" lon="7.83828">
        <ele>439.60000610352</ele>
        <time>2020-05-18T14:11:23.000Z</time>
      </trkpt>
      <trkpt lat="48.98536" lon="7.83824">
        <ele>441</ele>
        <time>2020-05-18T14:11:24.000Z</time>
      </trkpt>
      <trkpt lat="48.98534" lon="7.83816">
        <ele>442</ele>
        <time>2020-05-18T14:11:26.000Z</time>
      </trkpt>
      <trkpt lat="48.9853" lon="7.83803">
        <ele>443</ele>
        <time>2020-05-18T14:11:30.000Z</time>
      </trkpt>
      <trkpt lat="48.98528" lon="7.838">
        <ele>443.60000610352</ele>
        <time>2020-05-18T14:11:31.000Z</time>
      </trkpt>
      <trkpt lat="48.98528" lon="7.83797">
        <ele>444.20001220703</ele>
        <time>2020-05-18T14:11:32.000Z</time>
      </trkpt>
      <trkpt lat="48.98527" lon="7.83794">
        <ele>444.39999389648</ele>
        <time>2020-05-18T14:11:33.000Z</time>
      </trkpt>
      <trkpt lat="48.98526" lon="7.83784">
        <ele>445.39999389648</ele>
        <time>2020-05-18T14:11:36.000Z</time>
      </trkpt>
      <trkpt lat="48.98525" lon="7.83781">
        <ele>445.79998779297</ele>
        <time>2020-05-18T14:11:37.000Z</time>
      </trkpt>
      <trkpt lat="48.98522" lon="7.83771">
        <ele>446.39999389648</ele>
        <time>2020-05-18T14:11:40.000Z</time>
      </trkpt>
      <trkpt lat="48.98519" lon="7.83762">
        <ele>447</ele>
        <time>2020-05-18T14:11:43.000Z</time>
      </trkpt>
      <trkpt lat="48.98514" lon="7.8375">
        <ele>447.79998779297</ele>
        <time>2020-05-18T14:11:47.000Z</time>
      </trkpt>
      <trkpt lat="48.98511" lon="7.83746">
        <ele>448.20001220703</ele>
        <time>2020-05-18T14:11:49.000Z</time>
      </trkpt>
      <trkpt lat="48.98504" lon="7.83735">
        <ele>448.79998779297</ele>
        <time>2020-05-18T14:11:54.000Z</time>
      </trkpt>
      <trkpt lat="48.98503" lon="7.83732">
        <ele>449</ele>
        <time>2020-05-18T14:11:55.000Z</time>
      </trkpt>
      <trkpt lat="48.98499" lon="7.83724">
        <ele>449.60000610352</ele>
        <time>2020-05-18T14:11:58.000Z</time>
      </trkpt>
      <trkpt lat="48.98496" lon="7.83719">
        <ele>449.79998779297</ele>
        <time>2020-05-18T14:12:00.000Z</time>
      </trkpt>
      <trkpt lat="48.98493" lon="7.83712">
        <ele>449.79998779297</ele>
        <time>2020-05-18T14:12:02.000Z</time>
      </trkpt>
      <trkpt lat="48.98487" lon="7.83697">
        <ele>450.39999389648</ele>
        <time>2020-05-18T14:12:06.000Z</time>
      </trkpt>
      <trkpt lat="48.98483" lon="7.83689">
        <ele>450.60000610352</ele>
        <time>2020-05-18T14:12:09.000Z</time>
      </trkpt>
      <trkpt lat="48.98481" lon="7.83683">
        <ele>450.79998779297</ele>
        <time>2020-05-18T14:12:11.000Z</time>
      </trkpt>
      <trkpt lat="48.9848" lon="7.8368">
        <ele>451</ele>
        <time>2020-05-18T14:12:12.000Z</time>
      </trkpt>
      <trkpt lat="48.98474" lon="7.83669">
        <ele>451.39999389648</ele>
        <time>2020-05-18T14:12:16.000Z</time>
      </trkpt>
      <trkpt lat="48.98473" lon="7.83666">
        <ele>451.60000610352</ele>
        <time>2020-05-18T14:12:17.000Z</time>
      </trkpt>
      <trkpt lat="48.9847" lon="7.83658">
        <ele>451.79998779297</ele>
        <time>2020-05-18T14:12:20.000Z</time>
      </trkpt>
      <trkpt lat="48.98467" lon="7.83653">
        <ele>452</ele>
        <time>2020-05-18T14:12:22.000Z</time>
      </trkpt>
      <trkpt lat="48.98465" lon="7.83648">
        <ele>452.39999389648</ele>
        <time>2020-05-18T14:12:24.000Z</time>
      </trkpt>
      <trkpt lat="48.98464" lon="7.83646">
        <ele>452.60000610352</ele>
        <time>2020-05-18T14:12:25.000Z</time>
      </trkpt>
      <trkpt lat="48.9846" lon="7.83638">
        <ele>453</ele>
        <time>2020-05-18T14:12:29.000Z</time>
      </trkpt>
      <trkpt lat="48.98459" lon="7.83635">
        <ele>453.79998779297</ele>
        <time>2020-05-18T14:12:31.000Z</time>
      </trkpt>
      <trkpt lat="48.98457" lon="7.83632">
        <ele>454.39999389648</ele>
        <time>2020-05-18T14:12:33.000Z</time>
      </trkpt>
      <trkpt lat="48.98451" lon="7.83622">
        <ele>455.20001220703</ele>
        <time>2020-05-18T14:12:38.000Z</time>
      </trkpt>
      <trkpt lat="48.98449" lon="7.8362">
        <ele>455.60000610352</ele>
        <time>2020-05-18T14:12:39.000Z</time>
      </trkpt>
      <trkpt lat="48.98448" lon="7.83618">
        <ele>455.79998779297</ele>
        <time>2020-05-18T14:12:40.000Z</time>
      </trkpt>
      <trkpt lat="48.98445" lon="7.83611">
        <ele>456.60000610352</ele>
        <time>2020-05-18T14:12:43.000Z</time>
      </trkpt>
      <trkpt lat="48.98444" lon="7.83609">
        <ele>456.79998779297</ele>
        <time>2020-05-18T14:12:44.000Z</time>
      </trkpt>
      <trkpt lat="48.9844" lon="7.83601">
        <ele>457.60000610352</ele>
        <time>2020-05-18T14:12:48.000Z</time>
      </trkpt>
      <trkpt lat="48.98439" lon="7.836">
        <ele>457.79998779297</ele>
        <time>2020-05-18T14:12:49.000Z</time>
      </trkpt>
      <trkpt lat="48.98435" lon="7.83593">
        <ele>458.39999389648</ele>
        <time>2020-05-18T14:12:53.000Z</time>
      </trkpt>
      <trkpt lat="48.98435" lon="7.8359">
        <ele>458.60000610352</ele>
        <time>2020-05-18T14:12:54.000Z</time>
      </trkpt>
      <trkpt lat="48.98434" lon="7.83588">
        <ele>458.79998779297</ele>
        <time>2020-05-18T14:12:55.000Z</time>
      </trkpt>
      <trkpt lat="48.98431" lon="7.8358">
        <ele>459.39999389648</ele>
        <time>2020-05-18T14:12:59.000Z</time>
      </trkpt>
      <trkpt lat="48.9843" lon="7.83578">
        <ele>459.60000610352</ele>
        <time>2020-05-18T14:13:00.000Z</time>
      </trkpt>
      <trkpt lat="48.98422" lon="7.83565">
        <ele>459.39999389648</ele>
        <time>2020-05-18T14:13:06.000Z</time>
      </trkpt>
      <trkpt lat="48.98412" lon="7.83554">
        <ele>459</ele>
        <time>2020-05-18T14:13:10.000Z</time>
      </trkpt>
      <trkpt lat="48.98398" lon="7.83539">
        <ele>457.20001220703</ele>
        <time>2020-05-18T14:13:14.000Z</time>
      </trkpt>
      <trkpt lat="48.98392" lon="7.83531">
        <ele>457</ele>
        <time>2020-05-18T14:13:16.000Z</time>
      </trkpt>
      <trkpt lat="48.98383" lon="7.83519">
        <ele>456</ele>
        <time>2020-05-18T14:13:19.000Z</time>
      </trkpt>
      <trkpt lat="48.98376" lon="7.8351">
        <ele>455</ele>
        <time>2020-05-18T14:13:21.000Z</time>
      </trkpt>
      <trkpt lat="48.98372" lon="7.83505">
        <ele>454.79998779297</ele>
        <time>2020-05-18T14:13:22.000Z</time>
      </trkpt>
      <trkpt lat="48.98357" lon="7.83486">
        <ele>455</ele>
        <time>2020-05-18T14:13:26.000Z</time>
      </trkpt>
      <trkpt lat="48.98342" lon="7.83467">
        <ele>455</ele>
        <time>2020-05-18T14:13:30.000Z</time>
      </trkpt>
      <trkpt lat="48.98339" lon="7.83463">
        <ele>454.79998779297</ele>
        <time>2020-05-18T14:13:31.000Z</time>
      </trkpt>
      <trkpt lat="48.9832" lon="7.83438">
        <ele>455</ele>
        <time>2020-05-18T14:13:37.000Z</time>
      </trkpt>
      <trkpt lat="48.98304" lon="7.8342">
        <ele>455.20001220703</ele>
        <time>2020-05-18T14:13:42.000Z</time>
      </trkpt>
      <trkpt lat="48.98299" lon="7.83415">
        <ele>455.79998779297</ele>
        <time>2020-05-18T14:13:44.000Z</time>
      </trkpt>
      <trkpt lat="48.98294" lon="7.83409">
        <ele>456.20001220703</ele>
        <time>2020-05-18T14:13:46.000Z</time>
      </trkpt>
      <trkpt lat="48.98279" lon="7.83393">
        <ele>457</ele>
        <time>2020-05-18T14:13:51.000Z</time>
      </trkpt>
      <trkpt lat="48.98262" lon="7.83374">
        <ele>457.60000610352</ele>
        <time>2020-05-18T14:13:57.000Z</time>
      </trkpt>
      <trkpt lat="48.98246" lon="7.83356">
        <ele>457.79998779297</ele>
        <time>2020-05-18T14:14:03.000Z</time>
      </trkpt>
      <trkpt lat="48.98231" lon="7.83339">
        <ele>457.20001220703</ele>
        <time>2020-05-18T14:14:08.000Z</time>
      </trkpt>
      <trkpt lat="48.98214" lon="7.83321">
        <ele>457.20001220703</ele>
        <time>2020-05-18T14:14:13.000Z</time>
      </trkpt>
      <trkpt lat="48.98203" lon="7.83308">
        <ele>457.60000610352</ele>
        <time>2020-05-18T14:14:17.000Z</time>
      </trkpt>
      <trkpt lat="48.98185" lon="7.83291">
        <ele>457.20001220703</ele>
        <time>2020-05-18T14:14:23.000Z</time>
      </trkpt>
      <trkpt lat="48.98174" lon="7.83283">
        <ele>456</ele>
        <time>2020-05-18T14:14:27.000Z</time>
      </trkpt>
      <trkpt lat="48.98172" lon="7.8328">
        <ele>455.60000610352</ele>
        <time>2020-05-18T14:14:28.000Z</time>
      </trkpt>
      <trkpt lat="48.98167" lon="7.83269">
        <ele>455.20001220703</ele>
        <time>2020-05-18T14:14:31.000Z</time>
      </trkpt>
      <trkpt lat="48.98163" lon="7.83254">
        <ele>456.79998779297</ele>
        <time>2020-05-18T14:14:36.000Z</time>
      </trkpt>
      <trkpt lat="48.9816" lon="7.83248">
        <ele>458</ele>
        <time>2020-05-18T14:14:40.000Z</time>
      </trkpt>
      <trkpt lat="48.98159" lon="7.83246">
        <ele>458.39999389648</ele>
        <time>2020-05-18T14:14:41.000Z</time>
      </trkpt>
      <trkpt lat="48.98158" lon="7.8324">
        <ele>459.20001220703</ele>
        <time>2020-05-18T14:14:43.000Z</time>
      </trkpt>
      <trkpt lat="48.98154" lon="7.83236">
        <ele>460.20001220703</ele>
        <time>2020-05-18T14:14:46.000Z</time>
      </trkpt>
      <trkpt lat="48.98149" lon="7.83228">
        <ele>461.20001220703</ele>
        <time>2020-05-18T14:14:51.000Z</time>
      </trkpt>
      <trkpt lat="48.98146" lon="7.83224">
        <ele>461.60000610352</ele>
        <time>2020-05-18T14:14:53.000Z</time>
      </trkpt>
      <trkpt lat="48.98145" lon="7.83221">
        <ele>461.79998779297</ele>
        <time>2020-05-18T14:14:54.000Z</time>
      </trkpt>
      <trkpt lat="48.98142" lon="7.83217">
        <ele>462.20001220703</ele>
        <time>2020-05-18T14:14:56.000Z</time>
      </trkpt>
      <trkpt lat="48.98138" lon="7.83209">
        <ele>462.79998779297</ele>
        <time>2020-05-18T14:15:00.000Z</time>
      </trkpt>
      <trkpt lat="48.98137" lon="7.83205">
        <ele>463.39999389648</ele>
        <time>2020-05-18T14:15:02.000Z</time>
      </trkpt>
      <trkpt lat="48.98133" lon="7.83197">
        <ele>464.60000610352</ele>
        <time>2020-05-18T14:15:07.000Z</time>
      </trkpt>
      <trkpt lat="48.98133" lon="7.83195">
        <ele>464.79998779297</ele>
        <time>2020-05-18T14:15:08.000Z</time>
      </trkpt>
      <trkpt lat="48.9813" lon="7.83187">
        <ele>466</ele>
        <time>2020-05-18T14:15:13.000Z</time>
      </trkpt>
      <trkpt lat="48.98128" lon="7.83184">
        <ele>466.39999389648</ele>
        <time>2020-05-18T14:15:15.000Z</time>
      </trkpt>
      <trkpt lat="48.98125" lon="7.83176">
        <ele>467</ele>
        <time>2020-05-18T14:15:20.000Z</time>
      </trkpt>
      <trkpt lat="48.98124" lon="7.83175">
        <ele>467</ele>
        <time>2020-05-18T14:15:21.000Z</time>
      </trkpt>
      <trkpt lat="48.98119" lon="7.83169">
        <ele>468</ele>
        <time>2020-05-18T14:15:26.000Z</time>
      </trkpt>
      <trkpt lat="48.98115" lon="7.83163">
        <ele>469</ele>
        <time>2020-05-18T14:15:30.000Z</time>
      </trkpt>
      <trkpt lat="48.98114" lon="7.83161">
        <ele>469.39999389648</ele>
        <time>2020-05-18T14:15:31.000Z</time>
      </trkpt>
      <trkpt lat="48.98112" lon="7.83157">
        <ele>470</ele>
        <time>2020-05-18T14:15:34.000Z</time>
      </trkpt>
      <trkpt lat="48.9811" lon="7.83149">
        <ele>471</ele>
        <time>2020-05-18T14:15:39.000Z</time>
      </trkpt>
      <trkpt lat="48.98109" lon="7.83147">
        <ele>471.20001220703</ele>
        <time>2020-05-18T14:15:40.000Z</time>
      </trkpt>
      <trkpt lat="48.98108" lon="7.83145">
        <ele>471.39999389648</ele>
        <time>2020-05-18T14:15:41.000Z</time>
      </trkpt>
      <trkpt lat="48.98105" lon="7.83138">
        <ele>472.20001220703</ele>
        <time>2020-05-18T14:15:45.000Z</time>
      </trkpt>
      <trkpt lat="48.98098" lon="7.83126">
        <ele>473</ele>
        <time>2020-05-18T14:15:53.000Z</time>
      </trkpt>
      <trkpt lat="48.98096" lon="7.83122">
        <ele>473.39999389648</ele>
        <time>2020-05-18T14:15:55.000Z</time>
      </trkpt>
      <trkpt lat="48.98092" lon="7.83113">
        <ele>474.39999389648</ele>
        <time>2020-05-18T14:16:00.000Z</time>
      </trkpt>
      <trkpt lat="48.98091" lon="7.83112">
        <ele>474.60000610352</ele>
        <time>2020-05-18T14:16:01.000Z</time>
      </trkpt>
      <trkpt lat="48.9809" lon="7.83109">
        <ele>474.79998779297</ele>
        <time>2020-05-18T14:16:02.000Z</time>
      </trkpt>
      <trkpt lat="48.98087" lon="7.83101">
        <ele>475.39999389648</ele>
        <time>2020-05-18T14:16:06.000Z</time>
      </trkpt>
      <trkpt lat="48.98083" lon="7.83093">
        <ele>476.60000610352</ele>
        <time>2020-05-18T14:16:10.000Z</time>
      </trkpt>
      <trkpt lat="48.98079" lon="7.83083">
        <ele>477.60000610352</ele>
        <time>2020-05-18T14:16:15.000Z</time>
      </trkpt>
      <trkpt lat="48.98075" lon="7.83075">
        <ele>478.39999389648</ele>
        <time>2020-05-18T14:16:20.000Z</time>
      </trkpt>
      <trkpt lat="48.98075" lon="7.83073">
        <ele>478.60000610352</ele>
        <time>2020-05-18T14:16:21.000Z</time>
      </trkpt>
      <trkpt lat="48.98071" lon="7.83067">
        <ele>479.20001220703</ele>
        <time>2020-05-18T14:16:24.000Z</time>
      </trkpt>
      <trkpt lat="48.98068" lon="7.83061">
        <ele>479.79998779297</ele>
        <time>2020-05-18T14:16:27.000Z</time>
      </trkpt>
      <trkpt lat="48.98067" lon="7.8306">
        <ele>480.20001220703</ele>
        <time>2020-05-18T14:16:28.000Z</time>
      </trkpt>
      <trkpt lat="48.98063" lon="7.83052">
        <ele>481</ele>
        <time>2020-05-18T14:16:32.000Z</time>
      </trkpt>
      <trkpt lat="48.98062" lon="7.83051">
        <ele>481.20001220703</ele>
        <time>2020-05-18T14:16:33.000Z</time>
      </trkpt>
      <trkpt lat="48.98058" lon="7.83043">
        <ele>482</ele>
        <time>2020-05-18T14:16:38.000Z</time>
      </trkpt>
      <trkpt lat="48.98055" lon="7.83032">
        <ele>483.20001220703</ele>
        <time>2020-05-18T14:16:45.000Z</time>
      </trkpt>
      <trkpt lat="48.98054" lon="7.8303">
        <ele>483.60000610352</ele>
        <time>2020-05-18T14:16:46.000Z</time>
      </trkpt>
      <trkpt lat="48.98052" lon="7.83027">
        <ele>484.39999389648</ele>
        <time>2020-05-18T14:16:48.000Z</time>
      </trkpt>
      <trkpt lat="48.98048" lon="7.83015">
        <ele>485.60000610352</ele>
        <time>2020-05-18T14:16:55.000Z</time>
      </trkpt>
      <trkpt lat="48.98045" lon="7.83007">
        <ele>486.20001220703</ele>
        <time>2020-05-18T14:16:59.000Z</time>
      </trkpt>
      <trkpt lat="48.98042" lon="7.83002">
        <ele>486.60000610352</ele>
        <time>2020-05-18T14:17:02.000Z</time>
      </trkpt>
      <trkpt lat="48.98039" lon="7.82991">
        <ele>487.60000610352</ele>
        <time>2020-05-18T14:17:08.000Z</time>
      </trkpt>
      <trkpt lat="48.98038" lon="7.82989">
        <ele>487.60000610352</ele>
        <time>2020-05-18T14:17:09.000Z</time>
      </trkpt>
      <trkpt lat="48.98038" lon="7.82984">
        <ele>488</ele>
        <time>2020-05-18T14:17:12.000Z</time>
      </trkpt>
      <trkpt lat="48.98036" lon="7.82974">
        <ele>488.79998779297</ele>
        <time>2020-05-18T14:17:17.000Z</time>
      </trkpt>
      <trkpt lat="48.98036" lon="7.8297">
        <ele>489</ele>
        <time>2020-05-18T14:17:19.000Z</time>
      </trkpt>
      <trkpt lat="48.98035" lon="7.82966">
        <ele>489.79998779297</ele>
        <time>2020-05-18T14:17:21.000Z</time>
      </trkpt>
      <trkpt lat="48.98036" lon="7.82958">
        <ele>491.20001220703</ele>
        <time>2020-05-18T14:17:25.000Z</time>
      </trkpt>
      <trkpt lat="48.98036" lon="7.82956">
        <ele>491.60000610352</ele>
        <time>2020-05-18T14:17:26.000Z</time>
      </trkpt>
      <trkpt lat="48.98034" lon="7.82948">
        <ele>492.20001220703</ele>
        <time>2020-05-18T14:17:29.000Z</time>
      </trkpt>
      <trkpt lat="48.98033" lon="7.82943">
        <ele>492.60000610352</ele>
        <time>2020-05-18T14:17:31.000Z</time>
      </trkpt>
      <trkpt lat="48.98033" lon="7.82941">
        <ele>492.60000610352</ele>
        <time>2020-05-18T14:17:32.000Z</time>
      </trkpt>
      <trkpt lat="48.98034" lon="7.82933">
        <ele>493.20001220703</ele>
        <time>2020-05-18T14:17:37.000Z</time>
      </trkpt>
      <trkpt lat="48.98037" lon="7.82919">
        <ele>494.20001220703</ele>
        <time>2020-05-18T14:17:45.000Z</time>
      </trkpt>
      <trkpt lat="48.98037" lon="7.82915">
        <ele>494.20001220703</ele>
        <time>2020-05-18T14:17:47.000Z</time>
      </trkpt>
      <trkpt lat="48.98037" lon="7.82901">
        <ele>494.60000610352</ele>
        <time>2020-05-18T14:17:54.000Z</time>
      </trkpt>
      <trkpt lat="48.98034" lon="7.82896">
        <ele>494.39999389648</ele>
        <time>2020-05-18T14:17:56.000Z</time>
      </trkpt>
      <trkpt lat="48.98028" lon="7.82889">
        <ele>493.79998779297</ele>
        <time>2020-05-18T14:17:59.000Z</time>
      </trkpt>
      <trkpt lat="48.98023" lon="7.82884">
        <ele>493.39999389648</ele>
        <time>2020-05-18T14:18:01.000Z</time>
      </trkpt>
      <trkpt lat="48.98017" lon="7.82876">
        <ele>492.79998779297</ele>
        <time>2020-05-18T14:18:03.000Z</time>
      </trkpt>
      <trkpt lat="48.98014" lon="7.82872">
        <ele>492.60000610352</ele>
        <time>2020-05-18T14:18:04.000Z</time>
      </trkpt>
      <trkpt lat="48.9801" lon="7.82868">
        <ele>492.20001220703</ele>
        <time>2020-05-18T14:18:05.000Z</time>
      </trkpt>
      <trkpt lat="48.98002" lon="7.82859">
        <ele>491.60000610352</ele>
        <time>2020-05-18T14:18:07.000Z</time>
      </trkpt>
      <trkpt lat="48.97999" lon="7.82854">
        <ele>491.39999389648</ele>
        <time>2020-05-18T14:18:08.000Z</time>
      </trkpt>
      <trkpt lat="48.97997" lon="7.82849">
        <ele>490.60000610352</ele>
        <time>2020-05-18T14:18:09.000Z</time>
      </trkpt>
      <trkpt lat="48.97994" lon="7.82845">
        <ele>490.20001220703</ele>
        <time>2020-05-18T14:18:10.000Z</time>
      </trkpt>
      <trkpt lat="48.97985" lon="7.82837">
        <ele>490</ele>
        <time>2020-05-18T14:18:13.000Z</time>
      </trkpt>
      <trkpt lat="48.9798" lon="7.82833">
        <ele>489.79998779297</ele>
        <time>2020-05-18T14:18:14.000Z</time>
      </trkpt>
      <trkpt lat="48.97975" lon="7.8283">
        <ele>489.60000610352</ele>
        <time>2020-05-18T14:18:15.000Z</time>
      </trkpt>
      <trkpt lat="48.97965" lon="7.82819">
        <ele>488.39999389648</ele>
        <time>2020-05-18T14:18:17.000Z</time>
      </trkpt>
      <trkpt lat="48.9796" lon="7.82813">
        <ele>487.79998779297</ele>
        <time>2020-05-18T14:18:18.000Z</time>
      </trkpt>
      <trkpt lat="48.97955" lon="7.82809">
        <ele>487</ele>
        <time>2020-05-18T14:18:19.000Z</time>
      </trkpt>
      <trkpt lat="48.97942" lon="7.828">
        <ele>485.79998779297</ele>
        <time>2020-05-18T14:18:21.000Z</time>
      </trkpt>
      <trkpt lat="48.97937" lon="7.82794">
        <ele>484.60000610352</ele>
        <time>2020-05-18T14:18:22.000Z</time>
      </trkpt>
      <trkpt lat="48.9793" lon="7.82786">
        <ele>482.39999389648</ele>
        <time>2020-05-18T14:18:23.000Z</time>
      </trkpt>
      <trkpt lat="48.97922" lon="7.82779">
        <ele>480.79998779297</ele>
        <time>2020-05-18T14:18:24.000Z</time>
      </trkpt>
      <trkpt lat="48.97914" lon="7.8277">
        <ele>479.60000610352</ele>
        <time>2020-05-18T14:18:25.000Z</time>
      </trkpt>
      <trkpt lat="48.97906" lon="7.82761">
        <ele>478.60000610352</ele>
        <time>2020-05-18T14:18:26.000Z</time>
      </trkpt>
      <trkpt lat="48.979" lon="7.82751">
        <ele>477.39999389648</ele>
        <time>2020-05-18T14:18:27.000Z</time>
      </trkpt>
      <trkpt lat="48.97886" lon="7.82735">
        <ele>476.20001220703</ele>
        <time>2020-05-18T14:18:29.000Z</time>
      </trkpt>
      <trkpt lat="48.97878" lon="7.82727">
        <ele>475.79998779297</ele>
        <time>2020-05-18T14:18:30.000Z</time>
      </trkpt>
      <trkpt lat="48.97868" lon="7.82717">
        <ele>475</ele>
        <time>2020-05-18T14:18:32.000Z</time>
      </trkpt>
      <trkpt lat="48.97864" lon="7.82712">
        <ele>474.60000610352</ele>
        <time>2020-05-18T14:18:33.000Z</time>
      </trkpt>
      <trkpt lat="48.9786" lon="7.82708">
        <ele>473.79998779297</ele>
        <time>2020-05-18T14:18:34.000Z</time>
      </trkpt>
      <trkpt lat="48.9785" lon="7.82703">
        <ele>473.20001220703</ele>
        <time>2020-05-18T14:18:37.000Z</time>
      </trkpt>
      <trkpt lat="48.97844" lon="7.82698">
        <ele>472.60000610352</ele>
        <time>2020-05-18T14:18:39.000Z</time>
      </trkpt>
      <trkpt lat="48.9784" lon="7.82691">
        <ele>472</ele>
        <time>2020-05-18T14:18:41.000Z</time>
      </trkpt>
      <trkpt lat="48.97838" lon="7.82684">
        <ele>471.60000610352</ele>
        <time>2020-05-18T14:18:43.000Z</time>
      </trkpt>
      <trkpt lat="48.97837" lon="7.8268">
        <ele>471.60000610352</ele>
        <time>2020-05-18T14:18:44.000Z</time>
      </trkpt>
      <trkpt lat="48.97837" lon="7.82677">
        <ele>471.60000610352</ele>
        <time>2020-05-18T14:18:45.000Z</time>
      </trkpt>
      <trkpt lat="48.97838" lon="7.82666">
        <ele>471.60000610352</ele>
        <time>2020-05-18T14:18:49.000Z</time>
      </trkpt>
      <trkpt lat="48.97839" lon="7.82663">
        <ele>472</ele>
        <time>2020-05-18T14:18:51.000Z</time>
      </trkpt>
      <trkpt lat="48.97839" lon="7.82663">
        <ele>472.39999389648</ele>
        <time>2020-05-18T14:18:54.000Z</time>
      </trkpt>
      <trkpt lat="48.97839" lon="7.82662">
        <ele>472.60000610352</ele>
        <time>2020-05-18T14:18:55.000Z</time>
      </trkpt>
      <trkpt lat="48.9784" lon="7.82655">
        <ele>472.79998779297</ele>
        <time>2020-05-18T14:20:48.000Z</time>
      </trkpt>
      <trkpt lat="48.97842" lon="7.82653">
        <ele>472.60000610352</ele>
        <time>2020-05-18T14:20:49.000Z</time>
      </trkpt>
      <trkpt lat="48.97852" lon="7.82644">
        <ele>473.39999389648</ele>
        <time>2020-05-18T14:20:55.000Z</time>
      </trkpt>
      <trkpt lat="48.97853" lon="7.82642">
        <ele>473.60000610352</ele>
        <time>2020-05-18T14:20:56.000Z</time>
      </trkpt>
      <trkpt lat="48.97858" lon="7.82637">
        <ele>474</ele>
        <time>2020-05-18T14:20:59.000Z</time>
      </trkpt>
      <trkpt lat="48.97861" lon="7.82633">
        <ele>474.20001220703</ele>
        <time>2020-05-18T14:21:01.000Z</time>
      </trkpt>
      <trkpt lat="48.97865" lon="7.82629">
        <ele>474.20001220703</ele>
        <time>2020-05-18T14:21:03.000Z</time>
      </trkpt>
      <trkpt lat="48.97867" lon="7.82628">
        <ele>474.20001220703</ele>
        <time>2020-05-18T14:21:04.000Z</time>
      </trkpt>
      <trkpt lat="48.97875" lon="7.82622">
        <ele>474.39999389648</ele>
        <time>2020-05-18T14:21:08.000Z</time>
      </trkpt>
      <trkpt lat="48.9788" lon="7.82619">
        <ele>474.60000610352</ele>
        <time>2020-05-18T14:21:10.000Z</time>
      </trkpt>
      <trkpt lat="48.97887" lon="7.82614">
        <ele>474.79998779297</ele>
        <time>2020-05-18T14:21:14.000Z</time>
      </trkpt>
      <trkpt lat="48.97891" lon="7.82609">
        <ele>475</ele>
        <time>2020-05-18T14:21:16.000Z</time>
      </trkpt>
      <trkpt lat="48.97895" lon="7.82603">
        <ele>475.20001220703</ele>
        <time>2020-05-18T14:21:18.000Z</time>
      </trkpt>
      <trkpt lat="48.97905" lon="7.8259">
        <ele>473</ele>
        <time>2020-05-18T14:21:21.000Z</time>
      </trkpt>
      <trkpt lat="48.97916" lon="7.82582">
        <ele>470.79998779297</ele>
        <time>2020-05-18T14:21:23.000Z</time>
      </trkpt>
      <trkpt lat="48.97922" lon="7.82577">
        <ele>469</ele>
        <time>2020-05-18T14:21:24.000Z</time>
      </trkpt>
      <trkpt lat="48.97928" lon="7.82571">
        <ele>467.39999389648</ele>
        <time>2020-05-18T14:21:25.000Z</time>
      </trkpt>
      <trkpt lat="48.97939" lon="7.82562">
        <ele>465.79998779297</ele>
        <time>2020-05-18T14:21:27.000Z</time>
      </trkpt>
      <trkpt lat="48.97941" lon="7.82559">
        <ele>465.60000610352</ele>
        <time>2020-05-18T14:21:28.000Z</time>
      </trkpt>
      <trkpt lat="48.97941" lon="7.8255">
        <ele>465</ele>
        <time>2020-05-18T14:21:31.000Z</time>
      </trkpt>
      <trkpt lat="48.9794" lon="7.82547">
        <ele>465</ele>
        <time>2020-05-18T14:21:32.000Z</time>
      </trkpt>
      <trkpt lat="48.97938" lon="7.82544">
        <ele>464.39999389648</ele>
        <time>2020-05-18T14:21:33.000Z</time>
      </trkpt>
      <trkpt lat="48.97934" lon="7.82535">
        <ele>463.39999389648</ele>
        <time>2020-05-18T14:21:35.000Z</time>
      </trkpt>
      <trkpt lat="48.97928" lon="7.82524">
        <ele>462.79998779297</ele>
        <time>2020-05-18T14:21:37.000Z</time>
      </trkpt>
      <trkpt lat="48.97926" lon="7.82518">
        <ele>462</ele>
        <time>2020-05-18T14:21:38.000Z</time>
      </trkpt>
      <trkpt lat="48.97918" lon="7.82504">
        <ele>460.60000610352</ele>
        <time>2020-05-18T14:21:40.000Z</time>
      </trkpt>
      <trkpt lat="48.97913" lon="7.82499">
        <ele>459.20001220703</ele>
        <time>2020-05-18T14:21:41.000Z</time>
      </trkpt>
      <trkpt lat="48.97909" lon="7.82494">
        <ele>458.39999389648</ele>
        <time>2020-05-18T14:21:42.000Z</time>
      </trkpt>
      <trkpt lat="48.97905" lon="7.82491">
        <ele>457.39999389648</ele>
        <time>2020-05-18T14:21:43.000Z</time>
      </trkpt>
      <trkpt lat="48.979" lon="7.82485">
        <ele>456.60000610352</ele>
        <time>2020-05-18T14:21:45.000Z</time>
      </trkpt>
      <trkpt lat="48.97899" lon="7.82481">
        <ele>456.39999389648</ele>
        <time>2020-05-18T14:21:46.000Z</time>
      </trkpt>
      <trkpt lat="48.97898" lon="7.82469">
        <ele>454.79998779297</ele>
        <time>2020-05-18T14:21:49.000Z</time>
      </trkpt>
      <trkpt lat="48.97899" lon="7.82464">
        <ele>454.39999389648</ele>
        <time>2020-05-18T14:21:50.000Z</time>
      </trkpt>
      <trkpt lat="48.97901" lon="7.82459">
        <ele>454.20001220703</ele>
        <time>2020-05-18T14:21:51.000Z</time>
      </trkpt>
      <trkpt lat="48.97904" lon="7.82448">
        <ele>453.79998779297</ele>
        <time>2020-05-18T14:21:53.000Z</time>
      </trkpt>
      <trkpt lat="48.97904" lon="7.82441">
        <ele>453.60000610352</ele>
        <time>2020-05-18T14:21:54.000Z</time>
      </trkpt>
      <trkpt lat="48.97903" lon="7.82423">
        <ele>452.60000610352</ele>
        <time>2020-05-18T14:21:56.000Z</time>
      </trkpt>
      <trkpt lat="48.97904" lon="7.8241">
        <ele>452.39999389648</ele>
        <time>2020-05-18T14:21:58.000Z</time>
      </trkpt>
      <trkpt lat="48.97906" lon="7.82375">
        <ele>453</ele>
        <time>2020-05-18T14:22:04.000Z</time>
      </trkpt>
      <trkpt lat="48.97905" lon="7.82363">
        <ele>453.20001220703</ele>
        <time>2020-05-18T14:22:06.000Z</time>
      </trkpt>
      <trkpt lat="48.97905" lon="7.8235">
        <ele>453.20001220703</ele>
        <time>2020-05-18T14:22:08.000Z</time>
      </trkpt>
      <trkpt lat="48.97903" lon="7.82326">
        <ele>452.39999389648</ele>
        <time>2020-05-18T14:22:11.000Z</time>
      </trkpt>
      <trkpt lat="48.97902" lon="7.82318">
        <ele>452</ele>
        <time>2020-05-18T14:22:12.000Z</time>
      </trkpt>
      <trkpt lat="48.97901" lon="7.823">
        <ele>451.39999389648</ele>
        <time>2020-05-18T14:22:14.000Z</time>
      </trkpt>
      <trkpt lat="48.97898" lon="7.82282">
        <ele>451</ele>
        <time>2020-05-18T14:22:16.000Z</time>
      </trkpt>
      <trkpt lat="48.97896" lon="7.82264">
        <ele>451.20001220703</ele>
        <time>2020-05-18T14:22:18.000Z</time>
      </trkpt>
      <trkpt lat="48.97893" lon="7.82246">
        <ele>451.20001220703</ele>
        <time>2020-05-18T14:22:20.000Z</time>
      </trkpt>
      <trkpt lat="48.97888" lon="7.82222">
        <ele>450.60000610352</ele>
        <time>2020-05-18T14:22:23.000Z</time>
      </trkpt>
      <trkpt lat="48.97887" lon="7.82213">
        <ele>450.20001220703</ele>
        <time>2020-05-18T14:22:24.000Z</time>
      </trkpt>
      <trkpt lat="48.97886" lon="7.82186">
        <ele>449.79998779297</ele>
        <time>2020-05-18T14:22:27.000Z</time>
      </trkpt>
      <trkpt lat="48.97885" lon="7.82177">
        <ele>449.79998779297</ele>
        <time>2020-05-18T14:22:28.000Z</time>
      </trkpt>
      <trkpt lat="48.97881" lon="7.82145">
        <ele>449.20001220703</ele>
        <time>2020-05-18T14:22:32.000Z</time>
      </trkpt>
      <trkpt lat="48.97879" lon="7.82117">
        <ele>450.20001220703</ele>
        <time>2020-05-18T14:22:36.000Z</time>
      </trkpt>
      <trkpt lat="48.97878" lon="7.82111">
        <ele>450.39999389648</ele>
        <time>2020-05-18T14:22:37.000Z</time>
      </trkpt>
      <trkpt lat="48.97877" lon="7.82092">
        <ele>451.39999389648</ele>
        <time>2020-05-18T14:22:40.000Z</time>
      </trkpt>
      <trkpt lat="48.97877" lon="7.82086">
        <ele>451.60000610352</ele>
        <time>2020-05-18T14:22:41.000Z</time>
      </trkpt>
      <trkpt lat="48.97875" lon="7.82047">
        <ele>451.79998779297</ele>
        <time>2020-05-18T14:22:47.000Z</time>
      </trkpt>
      <trkpt lat="48.97874" lon="7.82024">
        <ele>451.60000610352</ele>
        <time>2020-05-18T14:22:50.000Z</time>
      </trkpt>
      <trkpt lat="48.97872" lon="7.82008">
        <ele>451.60000610352</ele>
        <time>2020-05-18T14:22:52.000Z</time>
      </trkpt>
      <trkpt lat="48.97871" lon="7.81992">
        <ele>451.20001220703</ele>
        <time>2020-05-18T14:22:54.000Z</time>
      </trkpt>
      <trkpt lat="48.97871" lon="7.81976">
        <ele>450.79998779297</ele>
        <time>2020-05-18T14:22:56.000Z</time>
      </trkpt>
      <trkpt lat="48.9787" lon="7.81966">
        <ele>450.79998779297</ele>
        <time>2020-05-18T14:22:57.000Z</time>
      </trkpt>
      <trkpt lat="48.97868" lon="7.8194">
        <ele>450.20001220703</ele>
        <time>2020-05-18T14:23:00.000Z</time>
      </trkpt>
      <trkpt lat="48.97867" lon="7.81931">
        <ele>450.20001220703</ele>
        <time>2020-05-18T14:23:01.000Z</time>
      </trkpt>
      <trkpt lat="48.97866" lon="7.81922">
        <ele>449.79998779297</ele>
        <time>2020-05-18T14:23:02.000Z</time>
      </trkpt>
      <trkpt lat="48.97866" lon="7.81905">
        <ele>449</ele>
        <time>2020-05-18T14:23:04.000Z</time>
      </trkpt>
      <trkpt lat="48.97865" lon="7.81876">
        <ele>447.60000610352</ele>
        <time>2020-05-18T14:23:07.000Z</time>
      </trkpt>
      <trkpt lat="48.97863" lon="7.81841">
        <ele>446.20001220703</ele>
        <time>2020-05-18T14:23:10.000Z</time>
      </trkpt>
      <trkpt lat="48.97861" lon="7.81817">
        <ele>444.39999389648</ele>
        <time>2020-05-18T14:23:12.000Z</time>
      </trkpt>
      <trkpt lat="48.97859" lon="7.81772">
        <ele>443.39999389648</ele>
        <time>2020-05-18T14:23:16.000Z</time>
      </trkpt>
      <trkpt lat="48.97859" lon="7.81761">
        <ele>443.20001220703</ele>
        <time>2020-05-18T14:23:17.000Z</time>
      </trkpt>
      <trkpt lat="48.97856" lon="7.8173">
        <ele>442</ele>
        <time>2020-05-18T14:23:20.000Z</time>
      </trkpt>
      <trkpt lat="48.97855" lon="7.81721">
        <ele>441.39999389648</ele>
        <time>2020-05-18T14:23:21.000Z</time>
      </trkpt>
      <trkpt lat="48.97854" lon="7.81713">
        <ele>440.79998779297</ele>
        <time>2020-05-18T14:23:22.000Z</time>
      </trkpt>
      <trkpt lat="48.97852" lon="7.81701">
        <ele>440.20001220703</ele>
        <time>2020-05-18T14:23:24.000Z</time>
      </trkpt>
      <trkpt lat="48.97847" lon="7.81701">
        <ele>440.20001220703</ele>
        <time>2020-05-18T14:23:27.000Z</time>
      </trkpt>
      <trkpt lat="48.97844" lon="7.81707">
        <ele>439.60000610352</ele>
        <time>2020-05-18T14:23:29.000Z</time>
      </trkpt>
      <trkpt lat="48.97842" lon="7.81711">
        <ele>439.20001220703</ele>
        <time>2020-05-18T14:23:30.000Z</time>
      </trkpt>
      <trkpt lat="48.97837" lon="7.81715">
        <ele>438.20001220703</ele>
        <time>2020-05-18T14:23:31.000Z</time>
      </trkpt>
      <trkpt lat="48.97833" lon="7.8172">
        <ele>437</ele>
        <time>2020-05-18T14:23:32.000Z</time>
      </trkpt>
      <trkpt lat="48.97829" lon="7.81726">
        <ele>435.79998779297</ele>
        <time>2020-05-18T14:23:33.000Z</time>
      </trkpt>
      <trkpt lat="48.9782" lon="7.81739">
        <ele>433.60000610352</ele>
        <time>2020-05-18T14:23:35.000Z</time>
      </trkpt>
      <trkpt lat="48.9781" lon="7.81754">
        <ele>432.39999389648</ele>
        <time>2020-05-18T14:23:38.000Z</time>
      </trkpt>
      <trkpt lat="48.97807" lon="7.81759">
        <ele>431.79998779297</ele>
        <time>2020-05-18T14:23:39.000Z</time>
      </trkpt>
      <trkpt lat="48.97804" lon="7.81764">
        <ele>431.20001220703</ele>
        <time>2020-05-18T14:23:40.000Z</time>
      </trkpt>
      <trkpt lat="48.97799" lon="7.81771">
        <ele>429.20001220703</ele>
        <time>2020-05-18T14:23:42.000Z</time>
      </trkpt>
      <trkpt lat="48.97798" lon="7.81771">
        <ele>428.20001220703</ele>
        <time>2020-05-18T14:23:43.000Z</time>
      </trkpt>
      <trkpt lat="48.97797" lon="7.8177">
        <ele>427.79998779297</ele>
        <time>2020-05-18T14:23:44.000Z</time>
      </trkpt>
      <trkpt lat="48.97798" lon="7.81765">
        <ele>427.79998779297</ele>
        <time>2020-05-18T14:23:46.000Z</time>
      </trkpt>
      <trkpt lat="48.97804" lon="7.81749">
        <ele>428</ele>
        <time>2020-05-18T14:23:51.000Z</time>
      </trkpt>
      <trkpt lat="48.97804" lon="7.81741">
        <ele>428.39999389648</ele>
        <time>2020-05-18T14:23:53.000Z</time>
      </trkpt>
      <trkpt lat="48.97805" lon="7.81736">
        <ele>428.39999389648</ele>
        <time>2020-05-18T14:23:54.000Z</time>
      </trkpt>
      <trkpt lat="48.97807" lon="7.81732">
        <ele>428.39999389648</ele>
        <time>2020-05-18T14:23:55.000Z</time>
      </trkpt>
      <trkpt lat="48.9781" lon="7.81722">
        <ele>428.60000610352</ele>
        <time>2020-05-18T14:23:57.000Z</time>
      </trkpt>
      <trkpt lat="48.97811" lon="7.81711">
        <ele>428.39999389648</ele>
        <time>2020-05-18T14:23:59.000Z</time>
      </trkpt>
      <trkpt lat="48.97817" lon="7.81679">
        <ele>427.79998779297</ele>
        <time>2020-05-18T14:24:04.000Z</time>
      </trkpt>
      <trkpt lat="48.97817" lon="7.81671">
        <ele>426.79998779297</ele>
        <time>2020-05-18T14:24:05.000Z</time>
      </trkpt>
      <trkpt lat="48.97816" lon="7.81653">
        <ele>425.60000610352</ele>
        <time>2020-05-18T14:24:07.000Z</time>
      </trkpt>
      <trkpt lat="48.97813" lon="7.81644">
        <ele>425.39999389648</ele>
        <time>2020-05-18T14:24:08.000Z</time>
      </trkpt>
      <trkpt lat="48.9781" lon="7.81639">
        <ele>425</ele>
        <time>2020-05-18T14:24:09.000Z</time>
      </trkpt>
      <trkpt lat="48.97799" lon="7.81634">
        <ele>424.60000610352</ele>
        <time>2020-05-18T14:24:11.000Z</time>
      </trkpt>
      <trkpt lat="48.97786" lon="7.81629">
        <ele>423.60000610352</ele>
        <time>2020-05-18T14:24:13.000Z</time>
      </trkpt>
      <trkpt lat="48.97779" lon="7.81625">
        <ele>422.39999389648</ele>
        <time>2020-05-18T14:24:14.000Z</time>
      </trkpt>
      <trkpt lat="48.97772" lon="7.81619">
        <ele>421</ele>
        <time>2020-05-18T14:24:15.000Z</time>
      </trkpt>
      <trkpt lat="48.97753" lon="7.81604">
        <ele>420.20001220703</ele>
        <time>2020-05-18T14:24:18.000Z</time>
      </trkpt>
      <trkpt lat="48.97743" lon="7.81594">
        <ele>421.20001220703</ele>
        <time>2020-05-18T14:24:20.000Z</time>
      </trkpt>
      <trkpt lat="48.97734" lon="7.81588">
        <ele>422.20001220703</ele>
        <time>2020-05-18T14:24:22.000Z</time>
      </trkpt>
      <trkpt lat="48.9773" lon="7.81587">
        <ele>422.79998779297</ele>
        <time>2020-05-18T14:24:23.000Z</time>
      </trkpt>
      <trkpt lat="48.97721" lon="7.81585">
        <ele>423.20001220703</ele>
        <time>2020-05-18T14:24:25.000Z</time>
      </trkpt>
      <trkpt lat="48.97711" lon="7.81585">
        <ele>423</ele>
        <time>2020-05-18T14:24:27.000Z</time>
      </trkpt>
      <trkpt lat="48.97702" lon="7.81586">
        <ele>422.20001220703</ele>
        <time>2020-05-18T14:24:29.000Z</time>
      </trkpt>
      <trkpt lat="48.9769" lon="7.81587">
        <ele>421.20001220703</ele>
        <time>2020-05-18T14:24:31.000Z</time>
      </trkpt>
      <trkpt lat="48.97682" lon="7.81588">
        <ele>420.60000610352</ele>
        <time>2020-05-18T14:24:32.000Z</time>
      </trkpt>
      <trkpt lat="48.97674" lon="7.81591">
        <ele>419.79998779297</ele>
        <time>2020-05-18T14:24:33.000Z</time>
      </trkpt>
      <trkpt lat="48.97666" lon="7.81594">
        <ele>419</ele>
        <time>2020-05-18T14:24:34.000Z</time>
      </trkpt>
      <trkpt lat="48.97657" lon="7.81596">
        <ele>418.20001220703</ele>
        <time>2020-05-18T14:24:35.000Z</time>
      </trkpt>
      <trkpt lat="48.97649" lon="7.81599">
        <ele>417.20001220703</ele>
        <time>2020-05-18T14:24:36.000Z</time>
      </trkpt>
      <trkpt lat="48.97641" lon="7.81602">
        <ele>415.60000610352</ele>
        <time>2020-05-18T14:24:37.000Z</time>
      </trkpt>
      <trkpt lat="48.97631" lon="7.81604">
        <ele>414.39999389648</ele>
        <time>2020-05-18T14:24:38.000Z</time>
      </trkpt>
      <trkpt lat="48.97622" lon="7.81607">
        <ele>413.39999389648</ele>
        <time>2020-05-18T14:24:39.000Z</time>
      </trkpt>
      <trkpt lat="48.97614" lon="7.81611">
        <ele>413</ele>
        <time>2020-05-18T14:24:40.000Z</time>
      </trkpt>
      <trkpt lat="48.976" lon="7.81615">
        <ele>412.39999389648</ele>
        <time>2020-05-18T14:24:42.000Z</time>
      </trkpt>
      <trkpt lat="48.97593" lon="7.81615">
        <ele>412.60000610352</ele>
        <time>2020-05-18T14:24:43.000Z</time>
      </trkpt>
      <trkpt lat="48.97571" lon="7.81622">
        <ele>411.60000610352</ele>
        <time>2020-05-18T14:24:46.000Z</time>
      </trkpt>
      <trkpt lat="48.97563" lon="7.81626">
        <ele>410.79998779297</ele>
        <time>2020-05-18T14:24:47.000Z</time>
      </trkpt>
      <trkpt lat="48.97554" lon="7.81633">
        <ele>409.39999389648</ele>
        <time>2020-05-18T14:24:48.000Z</time>
      </trkpt>
      <trkpt lat="48.97546" lon="7.8164">
        <ele>408.39999389648</ele>
        <time>2020-05-18T14:24:49.000Z</time>
      </trkpt>
      <trkpt lat="48.97539" lon="7.81647">
        <ele>407.20001220703</ele>
        <time>2020-05-18T14:24:50.000Z</time>
      </trkpt>
      <trkpt lat="48.97524" lon="7.81659">
        <ele>406</ele>
        <time>2020-05-18T14:24:52.000Z</time>
      </trkpt>
      <trkpt lat="48.97509" lon="7.8167">
        <ele>404.79998779297</ele>
        <time>2020-05-18T14:24:54.000Z</time>
      </trkpt>
      <trkpt lat="48.97501" lon="7.81675">
        <ele>404.20001220703</ele>
        <time>2020-05-18T14:24:55.000Z</time>
      </trkpt>
      <trkpt lat="48.97493" lon="7.8168">
        <ele>403.60000610352</ele>
        <time>2020-05-18T14:24:56.000Z</time>
      </trkpt>
      <trkpt lat="48.97484" lon="7.81686">
        <ele>402.79998779297</ele>
        <time>2020-05-18T14:24:57.000Z</time>
      </trkpt>
      <trkpt lat="48.97477" lon="7.81694">
        <ele>402.20001220703</ele>
        <time>2020-05-18T14:24:58.000Z</time>
      </trkpt>
      <trkpt lat="48.97463" lon="7.81706">
        <ele>401.20001220703</ele>
        <time>2020-05-18T14:25:00.000Z</time>
      </trkpt>
      <trkpt lat="48.97448" lon="7.81716">
        <ele>400</ele>
        <time>2020-05-18T14:25:02.000Z</time>
      </trkpt>
      <trkpt lat="48.9744" lon="7.81721">
        <ele>399.79998779297</ele>
        <time>2020-05-18T14:25:03.000Z</time>
      </trkpt>
      <trkpt lat="48.97434" lon="7.81724">
        <ele>399.60000610352</ele>
        <time>2020-05-18T14:25:04.000Z</time>
      </trkpt>
      <trkpt lat="48.97422" lon="7.81727">
        <ele>399</ele>
        <time>2020-05-18T14:25:06.000Z</time>
      </trkpt>
      <trkpt lat="48.97417" lon="7.81727">
        <ele>398.79998779297</ele>
        <time>2020-05-18T14:25:07.000Z</time>
      </trkpt>
      <trkpt lat="48.97405" lon="7.81726">
        <ele>397.79998779297</ele>
        <time>2020-05-18T14:25:10.000Z</time>
      </trkpt>
      <trkpt lat="48.97403" lon="7.81724">
        <ele>397.39999389648</ele>
        <time>2020-05-18T14:25:11.000Z</time>
      </trkpt>
      <trkpt lat="48.97401" lon="7.81718">
        <ele>397.39999389648</ele>
        <time>2020-05-18T14:25:13.000Z</time>
      </trkpt>
      <trkpt lat="48.97399" lon="7.81712">
        <ele>397.60000610352</ele>
        <time>2020-05-18T14:25:15.000Z</time>
      </trkpt>
      <trkpt lat="48.97395" lon="7.81702">
        <ele>398.39999389648</ele>
        <time>2020-05-18T14:25:18.000Z</time>
      </trkpt>
      <trkpt lat="48.97393" lon="7.81696">
        <ele>399.20001220703</ele>
        <time>2020-05-18T14:25:20.000Z</time>
      </trkpt>
      <trkpt lat="48.97392" lon="7.81694">
        <ele>399.39999389648</ele>
        <time>2020-05-18T14:25:21.000Z</time>
      </trkpt>
      <trkpt lat="48.97387" lon="7.81676">
        <ele>400.60000610352</ele>
        <time>2020-05-18T14:25:27.000Z</time>
      </trkpt>
      <trkpt lat="48.97383" lon="7.8166">
        <ele>401</ele>
        <time>2020-05-18T14:25:32.000Z</time>
      </trkpt>
      <trkpt lat="48.97381" lon="7.81654">
        <ele>401.60000610352</ele>
        <time>2020-05-18T14:25:34.000Z</time>
      </trkpt>
      <trkpt lat="48.97379" lon="7.81646">
        <ele>402</ele>
        <time>2020-05-18T14:25:37.000Z</time>
      </trkpt>
      <trkpt lat="48.97376" lon="7.81634">
        <ele>402.79998779297</ele>
        <time>2020-05-18T14:25:41.000Z</time>
      </trkpt>
      <trkpt lat="48.97376" lon="7.81631">
        <ele>402.79998779297</ele>
        <time>2020-05-18T14:25:42.000Z</time>
      </trkpt>
      <trkpt lat="48.97374" lon="7.81622">
        <ele>403.20001220703</ele>
        <time>2020-05-18T14:25:45.000Z</time>
      </trkpt>
      <trkpt lat="48.97374" lon="7.81616">
        <ele>403.60000610352</ele>
        <time>2020-05-18T14:25:47.000Z</time>
      </trkpt>
      <trkpt lat="48.9737" lon="7.81599">
        <ele>404.79998779297</ele>
        <time>2020-05-18T14:25:52.000Z</time>
      </trkpt>
      <trkpt lat="48.97366" lon="7.81587">
        <ele>406</ele>
        <time>2020-05-18T14:25:56.000Z</time>
      </trkpt>
      <trkpt lat="48.97365" lon="7.81581">
        <ele>406.60000610352</ele>
        <time>2020-05-18T14:25:58.000Z</time>
      </trkpt>
      <trkpt lat="48.97364" lon="7.81578">
        <ele>406.79998779297</ele>
        <time>2020-05-18T14:25:59.000Z</time>
      </trkpt>
      <trkpt lat="48.97363" lon="7.81571">
        <ele>407</ele>
        <time>2020-05-18T14:26:01.000Z</time>
      </trkpt>
      <trkpt lat="48.97361" lon="7.81563">
        <ele>407.39999389648</ele>
        <time>2020-05-18T14:26:04.000Z</time>
      </trkpt>
      <trkpt lat="48.97358" lon="7.81547">
        <ele>407.79998779297</ele>
        <time>2020-05-18T14:26:10.000Z</time>
      </trkpt>
      <trkpt lat="48.97357" lon="7.81545">
        <ele>408</ele>
        <time>2020-05-18T14:26:11.000Z</time>
      </trkpt>
      <trkpt lat="48.97353" lon="7.81531">
        <ele>408.60000610352</ele>
        <time>2020-05-18T14:26:16.000Z</time>
      </trkpt>
      <trkpt lat="48.97352" lon="7.81525">
        <ele>408.79998779297</ele>
        <time>2020-05-18T14:26:18.000Z</time>
      </trkpt>
      <trkpt lat="48.97351" lon="7.81522">
        <ele>409</ele>
        <time>2020-05-18T14:26:19.000Z</time>
      </trkpt>
      <trkpt lat="48.9735" lon="7.81517">
        <ele>409.60000610352</ele>
        <time>2020-05-18T14:26:21.000Z</time>
      </trkpt>
      <trkpt lat="48.97349" lon="7.81514">
        <ele>409.79998779297</ele>
        <time>2020-05-18T14:26:22.000Z</time>
      </trkpt>
      <trkpt lat="48.97348" lon="7.81509">
        <ele>410.20001220703</ele>
        <time>2020-05-18T14:26:24.000Z</time>
      </trkpt>
      <trkpt lat="48.97344" lon="7.81494">
        <ele>411.20001220703</ele>
        <time>2020-05-18T14:26:29.000Z</time>
      </trkpt>
      <trkpt lat="48.97341" lon="7.8148">
        <ele>412.39999389648</ele>
        <time>2020-05-18T14:26:34.000Z</time>
      </trkpt>
      <trkpt lat="48.97338" lon="7.81468">
        <ele>412.79998779297</ele>
        <time>2020-05-18T14:26:38.000Z</time>
      </trkpt>
      <trkpt lat="48.97337" lon="7.81463">
        <ele>413.20001220703</ele>
        <time>2020-05-18T14:26:40.000Z</time>
      </trkpt>
      <trkpt lat="48.97335" lon="7.81445">
        <ele>414.20001220703</ele>
        <time>2020-05-18T14:26:46.000Z</time>
      </trkpt>
      <trkpt lat="48.97335" lon="7.81437">
        <ele>414.39999389648</ele>
        <time>2020-05-18T14:26:49.000Z</time>
      </trkpt>
      <trkpt lat="48.97333" lon="7.81428">
        <ele>415</ele>
        <time>2020-05-18T14:26:52.000Z</time>
      </trkpt>
      <trkpt lat="48.97332" lon="7.81423">
        <ele>415.39999389648</ele>
        <time>2020-05-18T14:26:54.000Z</time>
      </trkpt>
      <trkpt lat="48.97332" lon="7.81414">
        <ele>415.79998779297</ele>
        <time>2020-05-18T14:26:57.000Z</time>
      </trkpt>
      <trkpt lat="48.97331" lon="7.81404">
        <ele>416.20001220703</ele>
        <time>2020-05-18T14:27:00.000Z</time>
      </trkpt>
      <trkpt lat="48.9733" lon="7.81401">
        <ele>416.60000610352</ele>
        <time>2020-05-18T14:27:01.000Z</time>
      </trkpt>
      <trkpt lat="48.9733" lon="7.8139">
        <ele>417</ele>
        <time>2020-05-18T14:27:05.000Z</time>
      </trkpt>
      <trkpt lat="48.97329" lon="7.81383">
        <ele>417.20001220703</ele>
        <time>2020-05-18T14:27:07.000Z</time>
      </trkpt>
      <trkpt lat="48.97328" lon="7.81373">
        <ele>417.39999389648</ele>
        <time>2020-05-18T14:27:10.000Z</time>
      </trkpt>
      <trkpt lat="48.97328" lon="7.81368">
        <ele>417.79998779297</ele>
        <time>2020-05-18T14:27:11.000Z</time>
      </trkpt>
      <trkpt lat="48.97329" lon="7.81355">
        <ele>418.20001220703</ele>
        <time>2020-05-18T14:27:15.000Z</time>
      </trkpt>
      <trkpt lat="48.97326" lon="7.81333">
        <ele>418.60000610352</ele>
        <time>2020-05-18T14:27:21.000Z</time>
      </trkpt>
      <trkpt lat="48.97326" lon="7.81329">
        <ele>418.79998779297</ele>
        <time>2020-05-18T14:27:22.000Z</time>
      </trkpt>
      <trkpt lat="48.97323" lon="7.81313">
        <ele>419</ele>
        <time>2020-05-18T14:27:27.000Z</time>
      </trkpt>
      <trkpt lat="48.9732" lon="7.81297">
        <ele>419.39999389648</ele>
        <time>2020-05-18T14:27:31.000Z</time>
      </trkpt>
      <trkpt lat="48.97318" lon="7.81282">
        <ele>420</ele>
        <time>2020-05-18T14:27:35.000Z</time>
      </trkpt>
      <trkpt lat="48.97318" lon="7.81279">
        <ele>420.20001220703</ele>
        <time>2020-05-18T14:27:36.000Z</time>
      </trkpt>
      <trkpt lat="48.97315" lon="7.81266">
        <ele>420.60000610352</ele>
        <time>2020-05-18T14:27:40.000Z</time>
      </trkpt>
      <trkpt lat="48.97313" lon="7.81253">
        <ele>421.20001220703</ele>
        <time>2020-05-18T14:27:43.000Z</time>
      </trkpt>
      <trkpt lat="48.97312" lon="7.81248">
        <ele>421.39999389648</ele>
        <time>2020-05-18T14:27:44.000Z</time>
      </trkpt>
      <trkpt lat="48.97311" lon="7.81243">
        <ele>421.39999389648</ele>
        <time>2020-05-18T14:27:45.000Z</time>
      </trkpt>
      <trkpt lat="48.97307" lon="7.81229">
        <ele>422</ele>
        <time>2020-05-18T14:27:49.000Z</time>
      </trkpt>
      <trkpt lat="48.97305" lon="7.81217">
        <ele>422.60000610352</ele>
        <time>2020-05-18T14:27:53.000Z</time>
      </trkpt>
      <trkpt lat="48.97304" lon="7.81213">
        <ele>422.79998779297</ele>
        <time>2020-05-18T14:27:54.000Z</time>
      </trkpt>
      <trkpt lat="48.97299" lon="7.81193">
        <ele>423.20001220703</ele>
        <time>2020-05-18T14:27:59.000Z</time>
      </trkpt>
      <trkpt lat="48.97297" lon="7.81189">
        <ele>423.20001220703</ele>
        <time>2020-05-18T14:28:00.000Z</time>
      </trkpt>
      <trkpt lat="48.97295" lon="7.81172">
        <ele>423.39999389648</ele>
        <time>2020-05-18T14:28:04.000Z</time>
      </trkpt>
      <trkpt lat="48.97294" lon="7.81168">
        <ele>423.39999389648</ele>
        <time>2020-05-18T14:28:05.000Z</time>
      </trkpt>
      <trkpt lat="48.97292" lon="7.81161">
        <ele>423.39999389648</ele>
        <time>2020-05-18T14:28:07.000Z</time>
      </trkpt>
      <trkpt lat="48.97292" lon="7.81155">
        <ele>423.39999389648</ele>
        <time>2020-05-18T14:28:09.000Z</time>
      </trkpt>
      <trkpt lat="48.9729" lon="7.81146">
        <ele>423.79998779297</ele>
        <time>2020-05-18T14:28:12.000Z</time>
      </trkpt>
      <trkpt lat="48.97289" lon="7.81142">
        <ele>424</ele>
        <time>2020-05-18T14:28:13.000Z</time>
      </trkpt>
      <trkpt lat="48.97286" lon="7.81126">
        <ele>423.79998779297</ele>
        <time>2020-05-18T14:28:17.000Z</time>
      </trkpt>
      <trkpt lat="48.97285" lon="7.81118">
        <ele>423.79998779297</ele>
        <time>2020-05-18T14:28:19.000Z</time>
      </trkpt>
      <trkpt lat="48.97284" lon="7.81109">
        <ele>423.79998779297</ele>
        <time>2020-05-18T14:28:21.000Z</time>
      </trkpt>
      <trkpt lat="48.97282" lon="7.811">
        <ele>423.79998779297</ele>
        <time>2020-05-18T14:28:23.000Z</time>
      </trkpt>
      <trkpt lat="48.97276" lon="7.81078">
        <ele>423.79998779297</ele>
        <time>2020-05-18T14:28:27.000Z</time>
      </trkpt>
      <trkpt lat="48.97267" lon="7.81048">
        <ele>424.39999389648</ele>
        <time>2020-05-18T14:28:32.000Z</time>
      </trkpt>
      <trkpt lat="48.97259" lon="7.81022">
        <ele>424.20001220703</ele>
        <time>2020-05-18T14:28:37.000Z</time>
      </trkpt>
      <trkpt lat="48.97256" lon="7.80999">
        <ele>425.20001220703</ele>
        <time>2020-05-18T14:28:42.000Z</time>
      </trkpt>
      <trkpt lat="48.97253" lon="7.80976">
        <ele>425</ele>
        <time>2020-05-18T14:28:47.000Z</time>
      </trkpt>
      <trkpt lat="48.9725" lon="7.8096">
        <ele>423.79998779297</ele>
        <time>2020-05-18T14:28:50.000Z</time>
      </trkpt>
      <trkpt lat="48.97249" lon="7.80948">
        <ele>423.20001220703</ele>
        <time>2020-05-18T14:28:52.000Z</time>
      </trkpt>
      <trkpt lat="48.97247" lon="7.80924">
        <ele>422.60000610352</ele>
        <time>2020-05-18T14:28:55.000Z</time>
      </trkpt>
      <trkpt lat="48.97246" lon="7.80916">
        <ele>422.20001220703</ele>
        <time>2020-05-18T14:28:56.000Z</time>
      </trkpt>
      <trkpt lat="48.97241" lon="7.809">
        <ele>421.39999389648</ele>
        <time>2020-05-18T14:28:58.000Z</time>
      </trkpt>
      <trkpt lat="48.97238" lon="7.80894">
        <ele>421</ele>
        <time>2020-05-18T14:28:59.000Z</time>
      </trkpt>
      <trkpt lat="48.97228" lon="7.80879">
        <ele>421</ele>
        <time>2020-05-18T14:29:02.000Z</time>
      </trkpt>
      <trkpt lat="48.97224" lon="7.80875">
        <ele>420.79998779297</ele>
        <time>2020-05-18T14:29:03.000Z</time>
      </trkpt>
      <trkpt lat="48.97216" lon="7.80866">
        <ele>420.39999389648</ele>
        <time>2020-05-18T14:29:05.000Z</time>
      </trkpt>
      <trkpt lat="48.97212" lon="7.80863">
        <ele>420</ele>
        <time>2020-05-18T14:29:06.000Z</time>
      </trkpt>
      <trkpt lat="48.97204" lon="7.80859">
        <ele>419.20001220703</ele>
        <time>2020-05-18T14:29:08.000Z</time>
      </trkpt>
      <trkpt lat="48.972" lon="7.80862">
        <ele>418.79998779297</ele>
        <time>2020-05-18T14:29:10.000Z</time>
      </trkpt>
      <trkpt lat="48.97192" lon="7.80887">
        <ele>417.79998779297</ele>
        <time>2020-05-18T14:29:15.000Z</time>
      </trkpt>
      <trkpt lat="48.97189" lon="7.80894">
        <ele>416.79998779297</ele>
        <time>2020-05-18T14:29:16.000Z</time>
      </trkpt>
      <trkpt lat="48.97183" lon="7.80909">
        <ele>414.39999389648</ele>
        <time>2020-05-18T14:29:18.000Z</time>
      </trkpt>
      <trkpt lat="48.97179" lon="7.80916">
        <ele>412.60000610352</ele>
        <time>2020-05-18T14:29:19.000Z</time>
      </trkpt>
      <trkpt lat="48.97174" lon="7.80928">
        <ele>410.79998779297</ele>
        <time>2020-05-18T14:29:21.000Z</time>
      </trkpt>
      <trkpt lat="48.97171" lon="7.80936">
        <ele>409.60000610352</ele>
        <time>2020-05-18T14:29:22.000Z</time>
      </trkpt>
      <trkpt lat="48.97169" lon="7.80944">
        <ele>408.20001220703</ele>
        <time>2020-05-18T14:29:23.000Z</time>
      </trkpt>
      <trkpt lat="48.97166" lon="7.80953">
        <ele>406.60000610352</ele>
        <time>2020-05-18T14:29:24.000Z</time>
      </trkpt>
      <trkpt lat="48.97162" lon="7.80962">
        <ele>405.39999389648</ele>
        <time>2020-05-18T14:29:25.000Z</time>
      </trkpt>
      <trkpt lat="48.97158" lon="7.8097">
        <ele>403.79998779297</ele>
        <time>2020-05-18T14:29:26.000Z</time>
      </trkpt>
      <trkpt lat="48.97155" lon="7.80978">
        <ele>402</ele>
        <time>2020-05-18T14:29:27.000Z</time>
      </trkpt>
      <trkpt lat="48.97151" lon="7.80987">
        <ele>400.20001220703</ele>
        <time>2020-05-18T14:29:28.000Z</time>
      </trkpt>
      <trkpt lat="48.97147" lon="7.80997">
        <ele>399.20001220703</ele>
        <time>2020-05-18T14:29:29.000Z</time>
      </trkpt>
      <trkpt lat="48.97138" lon="7.81018">
        <ele>397.60000610352</ele>
        <time>2020-05-18T14:29:31.000Z</time>
      </trkpt>
      <trkpt lat="48.97135" lon="7.81028">
        <ele>396</ele>
        <time>2020-05-18T14:29:32.000Z</time>
      </trkpt>
      <trkpt lat="48.97133" lon="7.81038">
        <ele>393.60000610352</ele>
        <time>2020-05-18T14:29:33.000Z</time>
      </trkpt>
      <trkpt lat="48.9713" lon="7.81049">
        <ele>392</ele>
        <time>2020-05-18T14:29:34.000Z</time>
      </trkpt>
      <trkpt lat="48.97127" lon="7.81058">
        <ele>390.20001220703</ele>
        <time>2020-05-18T14:29:35.000Z</time>
      </trkpt>
      <trkpt lat="48.97123" lon="7.81077">
        <ele>388.60000610352</ele>
        <time>2020-05-18T14:29:37.000Z</time>
      </trkpt>
      <trkpt lat="48.97122" lon="7.81096">
        <ele>387.39999389648</ele>
        <time>2020-05-18T14:29:39.000Z</time>
      </trkpt>
      <trkpt lat="48.97122" lon="7.81105">
        <ele>385.79998779297</ele>
        <time>2020-05-18T14:29:40.000Z</time>
      </trkpt>
      <trkpt lat="48.97121" lon="7.81113">
        <ele>384.20001220703</ele>
        <time>2020-05-18T14:29:41.000Z</time>
      </trkpt>
      <trkpt lat="48.9712" lon="7.81132">
        <ele>382.39999389648</ele>
        <time>2020-05-18T14:29:43.000Z</time>
      </trkpt>
      <trkpt lat="48.97123" lon="7.81153">
        <ele>381.39999389648</ele>
        <time>2020-05-18T14:29:45.000Z</time>
      </trkpt>
      <trkpt lat="48.97126" lon="7.81173">
        <ele>379.39999389648</ele>
        <time>2020-05-18T14:29:47.000Z</time>
      </trkpt>
      <trkpt lat="48.97127" lon="7.81181">
        <ele>378.39999389648</ele>
        <time>2020-05-18T14:29:48.000Z</time>
      </trkpt>
      <trkpt lat="48.97127" lon="7.81187">
        <ele>377.60000610352</ele>
        <time>2020-05-18T14:29:49.000Z</time>
      </trkpt>
      <trkpt lat="48.97128" lon="7.81194">
        <ele>377.20001220703</ele>
        <time>2020-05-18T14:29:50.000Z</time>
      </trkpt>
      <trkpt lat="48.97133" lon="7.81211">
        <ele>375.79998779297</ele>
        <time>2020-05-18T14:29:52.000Z</time>
      </trkpt>
      <trkpt lat="48.97136" lon="7.8122">
        <ele>374.39999389648</ele>
        <time>2020-05-18T14:29:53.000Z</time>
      </trkpt>
      <trkpt lat="48.97139" lon="7.81229">
        <ele>373.20001220703</ele>
        <time>2020-05-18T14:29:54.000Z</time>
      </trkpt>
      <trkpt lat="48.97143" lon="7.81238">
        <ele>372</ele>
        <time>2020-05-18T14:29:55.000Z</time>
      </trkpt>
      <trkpt lat="48.97146" lon="7.81246">
        <ele>370.20001220703</ele>
        <time>2020-05-18T14:29:56.000Z</time>
      </trkpt>
      <trkpt lat="48.9715" lon="7.81256">
        <ele>369.20001220703</ele>
        <time>2020-05-18T14:29:57.000Z</time>
      </trkpt>
      <trkpt lat="48.97152" lon="7.81266">
        <ele>367.79998779297</ele>
        <time>2020-05-18T14:29:58.000Z</time>
      </trkpt>
      <trkpt lat="48.97155" lon="7.81276">
        <ele>366.20001220703</ele>
        <time>2020-05-18T14:29:59.000Z</time>
      </trkpt>
      <trkpt lat="48.97158" lon="7.81285">
        <ele>365</ele>
        <time>2020-05-18T14:30:00.000Z</time>
      </trkpt>
      <trkpt lat="48.97162" lon="7.81302">
        <ele>362.79998779297</ele>
        <time>2020-05-18T14:30:02.000Z</time>
      </trkpt>
      <trkpt lat="48.97163" lon="7.81307">
        <ele>362.20001220703</ele>
        <time>2020-05-18T14:30:03.000Z</time>
      </trkpt>
      <trkpt lat="48.97162" lon="7.8131">
        <ele>361.79998779297</ele>
        <time>2020-05-18T14:30:04.000Z</time>
      </trkpt>
      <trkpt lat="48.97158" lon="7.81312">
        <ele>361.20001220703</ele>
        <time>2020-05-18T14:30:06.000Z</time>
      </trkpt>
      <trkpt lat="48.97153" lon="7.81309">
        <ele>360.39999389648</ele>
        <time>2020-05-18T14:30:08.000Z</time>
      </trkpt>
      <trkpt lat="48.9715" lon="7.81303">
        <ele>359</ele>
        <time>2020-05-18T14:30:10.000Z</time>
      </trkpt>
      <trkpt lat="48.97148" lon="7.813">
        <ele>358</ele>
        <time>2020-05-18T14:30:11.000Z</time>
      </trkpt>
      <trkpt lat="48.97144" lon="7.81294">
        <ele>356.79998779297</ele>
        <time>2020-05-18T14:30:13.000Z</time>
      </trkpt>
      <trkpt lat="48.9714" lon="7.81289">
        <ele>356.39999389648</ele>
        <time>2020-05-18T14:30:15.000Z</time>
      </trkpt>
      <trkpt lat="48.97131" lon="7.8127">
        <ele>356</ele>
        <time>2020-05-18T14:30:19.000Z</time>
      </trkpt>
      <trkpt lat="48.97128" lon="7.81263">
        <ele>355.60000610352</ele>
        <time>2020-05-18T14:30:20.000Z</time>
      </trkpt>
      <trkpt lat="48.97124" lon="7.81256">
        <ele>355</ele>
        <time>2020-05-18T14:30:21.000Z</time>
      </trkpt>
      <trkpt lat="48.97116" lon="7.81244">
        <ele>354.39999389648</ele>
        <time>2020-05-18T14:30:23.000Z</time>
      </trkpt>
      <trkpt lat="48.97111" lon="7.81238">
        <ele>354.20001220703</ele>
        <time>2020-05-18T14:30:24.000Z</time>
      </trkpt>
      <trkpt lat="48.97104" lon="7.81227">
        <ele>354.20001220703</ele>
        <time>2020-05-18T14:30:26.000Z</time>
      </trkpt>
      <trkpt lat="48.97097" lon="7.81215">
        <ele>354.60000610352</ele>
        <time>2020-05-18T14:30:28.000Z</time>
      </trkpt>
      <trkpt lat="48.97095" lon="7.81208">
        <ele>354.79998779297</ele>
        <time>2020-05-18T14:30:29.000Z</time>
      </trkpt>
      <trkpt lat="48.97086" lon="7.81185">
        <ele>353.60000610352</ele>
        <time>2020-05-18T14:30:33.000Z</time>
      </trkpt>
      <trkpt lat="48.97078" lon="7.81165">
        <ele>353.60000610352</ele>
        <time>2020-05-18T14:30:36.000Z</time>
      </trkpt>
      <trkpt lat="48.97073" lon="7.81153">
        <ele>353.60000610352</ele>
        <time>2020-05-18T14:30:38.000Z</time>
      </trkpt>
      <trkpt lat="48.97068" lon="7.81141">
        <ele>353.60000610352</ele>
        <time>2020-05-18T14:30:40.000Z</time>
      </trkpt>
      <trkpt lat="48.97063" lon="7.8113">
        <ele>353.60000610352</ele>
        <time>2020-05-18T14:30:42.000Z</time>
      </trkpt>
      <trkpt lat="48.97061" lon="7.81125">
        <ele>353.79998779297</ele>
        <time>2020-05-18T14:30:43.000Z</time>
      </trkpt>
      <trkpt lat="48.97059" lon="7.8112">
        <ele>353.79998779297</ele>
        <time>2020-05-18T14:30:44.000Z</time>
      </trkpt>
      <trkpt lat="48.97054" lon="7.81103">
        <ele>354.39999389648</ele>
        <time>2020-05-18T14:30:47.000Z</time>
      </trkpt>
      <trkpt lat="48.97053" lon="7.81098">
        <ele>354.79998779297</ele>
        <time>2020-05-18T14:30:48.000Z</time>
      </trkpt>
      <trkpt lat="48.9705" lon="7.81085">
        <ele>355.60000610352</ele>
        <time>2020-05-18T14:30:51.000Z</time>
      </trkpt>
      <trkpt lat="48.97049" lon="7.8108">
        <ele>356</ele>
        <time>2020-05-18T14:30:52.000Z</time>
      </trkpt>
      <trkpt lat="48.9705" lon="7.8107">
        <ele>356.79998779297</ele>
        <time>2020-05-18T14:30:54.000Z</time>
      </trkpt>
      <trkpt lat="48.97051" lon="7.81065">
        <ele>357</ele>
        <time>2020-05-18T14:30:55.000Z</time>
      </trkpt>
      <trkpt lat="48.97055" lon="7.81038">
        <ele>356</ele>
        <time>2020-05-18T14:31:00.000Z</time>
      </trkpt>
      <trkpt lat="48.97046" lon="7.81025">
        <ele>355</ele>
        <time>2020-05-18T14:31:03.000Z</time>
      </trkpt>
      <trkpt lat="48.97041" lon="7.81021">
        <ele>354.39999389648</ele>
        <time>2020-05-18T14:31:04.000Z</time>
      </trkpt>
      <trkpt lat="48.97029" lon="7.81013">
        <ele>353</ele>
        <time>2020-05-18T14:31:06.000Z</time>
      </trkpt>
      <trkpt lat="48.97024" lon="7.81009">
        <ele>352.79998779297</ele>
        <time>2020-05-18T14:31:07.000Z</time>
      </trkpt>
      <trkpt lat="48.97013" lon="7.81003">
        <ele>352</ele>
        <time>2020-05-18T14:31:09.000Z</time>
      </trkpt>
      <trkpt lat="48.97001" lon="7.80998">
        <ele>350.39999389648</ele>
        <time>2020-05-18T14:31:11.000Z</time>
      </trkpt>
      <trkpt lat="48.96994" lon="7.80995">
        <ele>349.39999389648</ele>
        <time>2020-05-18T14:31:12.000Z</time>
      </trkpt>
      <trkpt lat="48.96988" lon="7.80992">
        <ele>348.60000610352</ele>
        <time>2020-05-18T14:31:13.000Z</time>
      </trkpt>
      <trkpt lat="48.96977" lon="7.80985">
        <ele>346.79998779297</ele>
        <time>2020-05-18T14:31:15.000Z</time>
      </trkpt>
      <trkpt lat="48.96973" lon="7.8098">
        <ele>346</ele>
        <time>2020-05-18T14:31:16.000Z</time>
      </trkpt>
      <trkpt lat="48.96969" lon="7.80975">
        <ele>345.39999389648</ele>
        <time>2020-05-18T14:31:17.000Z</time>
      </trkpt>
      <trkpt lat="48.96962" lon="7.80962">
        <ele>343.60000610352</ele>
        <time>2020-05-18T14:31:19.000Z</time>
      </trkpt>
      <trkpt lat="48.9696" lon="7.80955">
        <ele>342.79998779297</ele>
        <time>2020-05-18T14:31:20.000Z</time>
      </trkpt>
      <trkpt lat="48.96959" lon="7.80948">
        <ele>341.79998779297</ele>
        <time>2020-05-18T14:31:21.000Z</time>
      </trkpt>
      <trkpt lat="48.96957" lon="7.80933">
        <ele>339.79998779297</ele>
        <time>2020-05-18T14:31:23.000Z</time>
      </trkpt>
      <trkpt lat="48.96956" lon="7.80927">
        <ele>339</ele>
        <time>2020-05-18T14:31:24.000Z</time>
      </trkpt>
      <trkpt lat="48.96955" lon="7.8092">
        <ele>338.39999389648</ele>
        <time>2020-05-18T14:31:25.000Z</time>
      </trkpt>
      <trkpt lat="48.96952" lon="7.80909">
        <ele>336.60000610352</ele>
        <time>2020-05-18T14:31:27.000Z</time>
      </trkpt>
      <trkpt lat="48.96949" lon="7.80904">
        <ele>335.60000610352</ele>
        <time>2020-05-18T14:31:28.000Z</time>
      </trkpt>
      <trkpt lat="48.96945" lon="7.80895">
        <ele>334.39999389648</ele>
        <time>2020-05-18T14:31:30.000Z</time>
      </trkpt>
      <trkpt lat="48.96944" lon="7.80892">
        <ele>333.60000610352</ele>
        <time>2020-05-18T14:31:32.000Z</time>
      </trkpt>
      <trkpt lat="48.96941" lon="7.80889">
        <ele>333.39999389648</ele>
        <time>2020-05-18T14:31:41.000Z</time>
      </trkpt>
      <trkpt lat="48.96937" lon="7.80884">
        <ele>333.20001220703</ele>
        <time>2020-05-18T14:31:43.000Z</time>
      </trkpt>
      <trkpt lat="48.96934" lon="7.80882">
        <ele>332.20001220703</ele>
        <time>2020-05-18T14:31:46.000Z</time>
      </trkpt>
      <trkpt lat="48.96934" lon="7.80882">
        <ele>331.79998779297</ele>
        <time>2020-05-18T14:31:48.000Z</time>
      </trkpt>
      <trkpt lat="48.96934" lon="7.80881">
        <ele>331</ele>
        <time>2020-05-18T14:32:14.000Z</time>
      </trkpt>
      <trkpt lat="48.96934" lon="7.80879">
        <ele>331</ele>
        <time>2020-05-18T14:32:16.000Z</time>
      </trkpt>
      <trkpt lat="48.96929" lon="7.80879">
        <ele>330.79998779297</ele>
        <time>2020-05-18T14:32:18.000Z</time>
      </trkpt>
      <trkpt lat="48.96926" lon="7.80877">
        <ele>330.20001220703</ele>
        <time>2020-05-18T14:32:19.000Z</time>
      </trkpt>
      <trkpt lat="48.96922" lon="7.80875">
        <ele>329.60000610352</ele>
        <time>2020-05-18T14:32:20.000Z</time>
      </trkpt>
      <trkpt lat="48.96918" lon="7.80873">
        <ele>328.60000610352</ele>
        <time>2020-05-18T14:32:21.000Z</time>
      </trkpt>
      <trkpt lat="48.96913" lon="7.8087">
        <ele>327.39999389648</ele>
        <time>2020-05-18T14:32:22.000Z</time>
      </trkpt>
      <trkpt lat="48.96908" lon="7.80869">
        <ele>325.79998779297</ele>
        <time>2020-05-18T14:32:23.000Z</time>
      </trkpt>
      <trkpt lat="48.96902" lon="7.80867">
        <ele>324.20001220703</ele>
        <time>2020-05-18T14:32:25.000Z</time>
      </trkpt>
      <trkpt lat="48.96893" lon="7.80865">
        <ele>323</ele>
        <time>2020-05-18T14:32:28.000Z</time>
      </trkpt>
      <trkpt lat="48.96888" lon="7.80864">
        <ele>322.60000610352</ele>
        <time>2020-05-18T14:32:29.000Z</time>
      </trkpt>
      <trkpt lat="48.96884" lon="7.80863">
        <ele>321.79998779297</ele>
        <time>2020-05-18T14:32:30.000Z</time>
      </trkpt>
      <trkpt lat="48.9688" lon="7.80862">
        <ele>320.20001220703</ele>
        <time>2020-05-18T14:32:31.000Z</time>
      </trkpt>
      <trkpt lat="48.96878" lon="7.80862">
        <ele>319.20001220703</ele>
        <time>2020-05-18T14:32:32.000Z</time>
      </trkpt>
      <trkpt lat="48.96875" lon="7.8086">
        <ele>318.39999389648</ele>
        <time>2020-05-18T14:32:33.000Z</time>
      </trkpt>
      <trkpt lat="48.96873" lon="7.80858">
        <ele>318</ele>
        <time>2020-05-18T14:32:34.000Z</time>
      </trkpt>
      <trkpt lat="48.96865" lon="7.80854">
        <ele>316.60000610352</ele>
        <time>2020-05-18T14:32:37.000Z</time>
      </trkpt>
      <trkpt lat="48.96862" lon="7.80852">
        <ele>316</ele>
        <time>2020-05-18T14:32:38.000Z</time>
      </trkpt>
      <trkpt lat="48.96859" lon="7.8085">
        <ele>315.20001220703</ele>
        <time>2020-05-18T14:32:39.000Z</time>
      </trkpt>
      <trkpt lat="48.96856" lon="7.80847">
        <ele>314.39999389648</ele>
        <time>2020-05-18T14:32:40.000Z</time>
      </trkpt>
      <trkpt lat="48.96852" lon="7.80842">
        <ele>313.79998779297</ele>
        <time>2020-05-18T14:32:41.000Z</time>
      </trkpt>
      <trkpt lat="48.96848" lon="7.80837">
        <ele>312.39999389648</ele>
        <time>2020-05-18T14:32:42.000Z</time>
      </trkpt>
      <trkpt lat="48.96844" lon="7.80833">
        <ele>311.39999389648</ele>
        <time>2020-05-18T14:32:43.000Z</time>
      </trkpt>
      <trkpt lat="48.96839" lon="7.80829">
        <ele>310.79998779297</ele>
        <time>2020-05-18T14:32:44.000Z</time>
      </trkpt>
      <trkpt lat="48.96831" lon="7.80824">
        <ele>309.60000610352</ele>
        <time>2020-05-18T14:32:46.000Z</time>
      </trkpt>
      <trkpt lat="48.96827" lon="7.80824">
        <ele>309</ele>
        <time>2020-05-18T14:32:47.000Z</time>
      </trkpt>
      <trkpt lat="48.96819" lon="7.80825">
        <ele>308.79998779297</ele>
        <time>2020-05-18T14:32:49.000Z</time>
      </trkpt>
      <trkpt lat="48.96817" lon="7.80829">
        <ele>308.79998779297</ele>
        <time>2020-05-18T14:32:51.000Z</time>
      </trkpt>
      <trkpt lat="48.96816" lon="7.80831">
        <ele>308.60000610352</ele>
        <time>2020-05-18T14:32:53.000Z</time>
      </trkpt>
      <trkpt lat="48.96814" lon="7.80833">
        <ele>308.39999389648</ele>
        <time>2020-05-18T14:33:01.000Z</time>
      </trkpt>
      <trkpt lat="48.96818" lon="7.8082">
        <ele>308.39999389648</ele>
        <time>2020-05-18T14:33:08.000Z</time>
      </trkpt>
      <trkpt lat="48.96821" lon="7.80806">
        <ele>309.39999389648</ele>
        <time>2020-05-18T14:33:13.000Z</time>
      </trkpt>
      <trkpt lat="48.96825" lon="7.80796">
        <ele>310</ele>
        <time>2020-05-18T14:33:18.000Z</time>
      </trkpt>
      <trkpt lat="48.96826" lon="7.80794">
        <ele>310</ele>
        <time>2020-05-18T14:33:19.000Z</time>
      </trkpt>
      <trkpt lat="48.96829" lon="7.80787">
        <ele>310.39999389648</ele>
        <time>2020-05-18T14:33:22.000Z</time>
      </trkpt>
      <trkpt lat="48.9683" lon="7.80784">
        <ele>310.60000610352</ele>
        <time>2020-05-18T14:33:23.000Z</time>
      </trkpt>
      <trkpt lat="48.96834" lon="7.80773">
        <ele>311.60000610352</ele>
        <time>2020-05-18T14:33:27.000Z</time>
      </trkpt>
      <trkpt lat="48.96835" lon="7.8077">
        <ele>312</ele>
        <time>2020-05-18T14:33:28.000Z</time>
      </trkpt>
      <trkpt lat="48.96839" lon="7.8076">
        <ele>312.79998779297</ele>
        <time>2020-05-18T14:33:32.000Z</time>
      </trkpt>
      <trkpt lat="48.9684" lon="7.80758">
        <ele>313.20001220703</ele>
        <time>2020-05-18T14:33:33.000Z</time>
      </trkpt>
      <trkpt lat="48.9684" lon="7.80755">
        <ele>313.60000610352</ele>
        <time>2020-05-18T14:33:34.000Z</time>
      </trkpt>
      <trkpt lat="48.96841" lon="7.80752">
        <ele>313.79998779297</ele>
        <time>2020-05-18T14:33:35.000Z</time>
      </trkpt>
      <trkpt lat="48.96844" lon="7.80743">
        <ele>314.20001220703</ele>
        <time>2020-05-18T14:33:38.000Z</time>
      </trkpt>
      <trkpt lat="48.96846" lon="7.8074">
        <ele>314.20001220703</ele>
        <time>2020-05-18T14:33:39.000Z</time>
      </trkpt>
      <trkpt lat="48.9685" lon="7.80729">
        <ele>315.20001220703</ele>
        <time>2020-05-18T14:33:43.000Z</time>
      </trkpt>
      <trkpt lat="48.96851" lon="7.80726">
        <ele>315.60000610352</ele>
        <time>2020-05-18T14:33:45.000Z</time>
      </trkpt>
      <trkpt lat="48.96856" lon="7.80716">
        <ele>316.20001220703</ele>
        <time>2020-05-18T14:33:50.000Z</time>
      </trkpt>
      <trkpt lat="48.96857" lon="7.80712">
        <ele>316.60000610352</ele>
        <time>2020-05-18T14:33:53.000Z</time>
      </trkpt>
      <trkpt lat="48.96859" lon="7.80708">
        <ele>317</ele>
        <time>2020-05-18T14:33:55.000Z</time>
      </trkpt>
      <trkpt lat="48.9686" lon="7.80703">
        <ele>317.20001220703</ele>
        <time>2020-05-18T14:33:58.000Z</time>
      </trkpt>
      <trkpt lat="48.96861" lon="7.80701">
        <ele>317.79998779297</ele>
        <time>2020-05-18T14:33:59.000Z</time>
      </trkpt>
      <trkpt lat="48.96862" lon="7.80698">
        <ele>318</ele>
        <time>2020-05-18T14:34:00.000Z</time>
      </trkpt>
      <trkpt lat="48.96865" lon="7.8069">
        <ele>318.60000610352</ele>
        <time>2020-05-18T14:34:04.000Z</time>
      </trkpt>
      <trkpt lat="48.96866" lon="7.80688">
        <ele>318.60000610352</ele>
        <time>2020-05-18T14:34:05.000Z</time>
      </trkpt>
      <trkpt lat="48.96868" lon="7.80681">
        <ele>319</ele>
        <time>2020-05-18T14:34:07.000Z</time>
      </trkpt>
      <trkpt lat="48.96871" lon="7.80674">
        <ele>319.39999389648</ele>
        <time>2020-05-18T14:34:10.000Z</time>
      </trkpt>
      <trkpt lat="48.96872" lon="7.80673">
        <ele>319.60000610352</ele>
        <time>2020-05-18T14:34:11.000Z</time>
      </trkpt>
      <trkpt lat="48.96874" lon="7.80666">
        <ele>320.20001220703</ele>
        <time>2020-05-18T14:34:15.000Z</time>
      </trkpt>
      <trkpt lat="48.96876" lon="7.8066">
        <ele>320.60000610352</ele>
        <time>2020-05-18T14:34:18.000Z</time>
      </trkpt>
      <trkpt lat="48.96878" lon="7.80655">
        <ele>321.20001220703</ele>
        <time>2020-05-18T14:34:21.000Z</time>
      </trkpt>
      <trkpt lat="48.96882" lon="7.80648">
        <ele>321.60000610352</ele>
        <time>2020-05-18T14:34:25.000Z</time>
      </trkpt>
      <trkpt lat="48.96884" lon="7.80644">
        <ele>322.20001220703</ele>
        <time>2020-05-18T14:34:28.000Z</time>
      </trkpt>
      <trkpt lat="48.96888" lon="7.80639">
        <ele>323</ele>
        <time>2020-05-18T14:34:31.000Z</time>
      </trkpt>
      <trkpt lat="48.9689" lon="7.80636">
        <ele>323.60000610352</ele>
        <time>2020-05-18T14:34:33.000Z</time>
      </trkpt>
      <trkpt lat="48.96891" lon="7.80634">
        <ele>324.20001220703</ele>
        <time>2020-05-18T14:34:35.000Z</time>
      </trkpt>
      <trkpt lat="48.96891" lon="7.80632">
        <ele>324.20001220703</ele>
        <time>2020-05-18T14:34:36.000Z</time>
      </trkpt>
      <trkpt lat="48.96893" lon="7.80628">
        <ele>324.60000610352</ele>
        <time>2020-05-18T14:34:38.000Z</time>
      </trkpt>
      <trkpt lat="48.96893" lon="7.80626">
        <ele>324.79998779297</ele>
        <time>2020-05-18T14:34:39.000Z</time>
      </trkpt>
      <trkpt lat="48.96894" lon="7.80622">
        <ele>325.20001220703</ele>
        <time>2020-05-18T14:34:41.000Z</time>
      </trkpt>
      <trkpt lat="48.96894" lon="7.8062">
        <ele>325.60000610352</ele>
        <time>2020-05-18T14:34:42.000Z</time>
      </trkpt>
      <trkpt lat="48.96895" lon="7.80611">
        <ele>326.60000610352</ele>
        <time>2020-05-18T14:34:47.000Z</time>
      </trkpt>
      <trkpt lat="48.96896" lon="7.80605">
        <ele>327.20001220703</ele>
        <time>2020-05-18T14:34:51.000Z</time>
      </trkpt>
      <trkpt lat="48.96898" lon="7.80602">
        <ele>327.60000610352</ele>
        <time>2020-05-18T14:34:53.000Z</time>
      </trkpt>
      <trkpt lat="48.96899" lon="7.80597">
        <ele>328.79998779297</ele>
        <time>2020-05-18T14:34:56.000Z</time>
      </trkpt>
      <trkpt lat="48.96899" lon="7.80595">
        <ele>329.20001220703</ele>
        <time>2020-05-18T14:34:57.000Z</time>
      </trkpt>
      <trkpt lat="48.969" lon="7.80593">
        <ele>329.60000610352</ele>
        <time>2020-05-18T14:34:58.000Z</time>
      </trkpt>
      <trkpt lat="48.969" lon="7.80592">
        <ele>330</ele>
        <time>2020-05-18T14:34:59.000Z</time>
      </trkpt>
      <trkpt lat="48.96899" lon="7.80588">
        <ele>330.60000610352</ele>
        <time>2020-05-18T14:35:05.000Z</time>
      </trkpt>
      <trkpt lat="48.96899" lon="7.80588">
        <ele>330.39999389648</ele>
        <time>2020-05-18T14:35:31.000Z</time>
      </trkpt>
      <trkpt lat="48.96899" lon="7.80587">
        <ele>330.60000610352</ele>
        <time>2020-05-18T14:36:28.000Z</time>
      </trkpt>
      <trkpt lat="48.969" lon="7.80586">
        <ele>331.20001220703</ele>
        <time>2020-05-18T14:36:41.000Z</time>
      </trkpt>
      <trkpt lat="48.96901" lon="7.80585">
        <ele>331.20001220703</ele>
        <time>2020-05-18T14:36:51.000Z</time>
      </trkpt>
      <trkpt lat="48.96901" lon="7.80582">
        <ele>331.39999389648</ele>
        <time>2020-05-18T14:36:53.000Z</time>
      </trkpt>
      <trkpt lat="48.96902" lon="7.80581">
        <ele>331.60000610352</ele>
        <time>2020-05-18T14:36:54.000Z</time>
      </trkpt>
      <trkpt lat="48.96903" lon="7.80575">
        <ele>332.60000610352</ele>
        <time>2020-05-18T14:36:58.000Z</time>
      </trkpt>
      <trkpt lat="48.96905" lon="7.80567">
        <ele>333.39999389648</ele>
        <time>2020-05-18T14:37:02.000Z</time>
      </trkpt>
      <trkpt lat="48.96906" lon="7.80566">
        <ele>333.79998779297</ele>
        <time>2020-05-18T14:37:03.000Z</time>
      </trkpt>
      <trkpt lat="48.96906" lon="7.80564">
        <ele>334</ele>
        <time>2020-05-18T14:37:04.000Z</time>
      </trkpt>
      <trkpt lat="48.96908" lon="7.80562">
        <ele>334.60000610352</ele>
        <time>2020-05-18T14:37:06.000Z</time>
      </trkpt>
      <trkpt lat="48.96908" lon="7.8056">
        <ele>335</ele>
        <time>2020-05-18T14:37:07.000Z</time>
      </trkpt>
      <trkpt lat="48.96909" lon="7.80554">
        <ele>335.79998779297</ele>
        <time>2020-05-18T14:37:10.000Z</time>
      </trkpt>
      <trkpt lat="48.9691" lon="7.80553">
        <ele>336.20001220703</ele>
        <time>2020-05-18T14:37:11.000Z</time>
      </trkpt>
      <trkpt lat="48.96911" lon="7.80549">
        <ele>337.20001220703</ele>
        <time>2020-05-18T14:37:14.000Z</time>
      </trkpt>
      <trkpt lat="48.96911" lon="7.80548">
        <ele>337.39999389648</ele>
        <time>2020-05-18T14:37:15.000Z</time>
      </trkpt>
      <trkpt lat="48.96913" lon="7.80542">
        <ele>338.60000610352</ele>
        <time>2020-05-18T14:37:20.000Z</time>
      </trkpt>
      <trkpt lat="48.96914" lon="7.80532">
        <ele>339.79998779297</ele>
        <time>2020-05-18T14:37:26.000Z</time>
      </trkpt>
      <trkpt lat="48.96915" lon="7.8053">
        <ele>340</ele>
        <time>2020-05-18T14:37:27.000Z</time>
      </trkpt>
      <trkpt lat="48.96916" lon="7.80524">
        <ele>341.20001220703</ele>
        <time>2020-05-18T14:37:31.000Z</time>
      </trkpt>
      <trkpt lat="48.96917" lon="7.80521">
        <ele>341.60000610352</ele>
        <time>2020-05-18T14:37:33.000Z</time>
      </trkpt>
      <trkpt lat="48.96918" lon="7.80518">
        <ele>342.39999389648</ele>
        <time>2020-05-18T14:37:35.000Z</time>
      </trkpt>
      <trkpt lat="48.9692" lon="7.80511">
        <ele>343.20001220703</ele>
        <time>2020-05-18T14:37:39.000Z</time>
      </trkpt>
      <trkpt lat="48.96921" lon="7.8051">
        <ele>343.39999389648</ele>
        <time>2020-05-18T14:37:40.000Z</time>
      </trkpt>
      <trkpt lat="48.96924" lon="7.80505">
        <ele>344.60000610352</ele>
        <time>2020-05-18T14:37:45.000Z</time>
      </trkpt>
      <trkpt lat="48.96928" lon="7.80502">
        <ele>345.79998779297</ele>
        <time>2020-05-18T14:37:49.000Z</time>
      </trkpt>
      <trkpt lat="48.96929" lon="7.805">
        <ele>346</ele>
        <time>2020-05-18T14:37:50.000Z</time>
      </trkpt>
      <trkpt lat="48.9693" lon="7.80497">
        <ele>346.39999389648</ele>
        <time>2020-05-18T14:37:52.000Z</time>
      </trkpt>
      <trkpt lat="48.96933" lon="7.80494">
        <ele>346.79998779297</ele>
        <time>2020-05-18T14:37:55.000Z</time>
      </trkpt>
      <trkpt lat="48.96935" lon="7.80493">
        <ele>347.20001220703</ele>
        <time>2020-05-18T14:37:57.000Z</time>
      </trkpt>
      <trkpt lat="48.96939" lon="7.80489">
        <ele>348</ele>
        <time>2020-05-18T14:38:01.000Z</time>
      </trkpt>
      <trkpt lat="48.9694" lon="7.80488">
        <ele>348</ele>
        <time>2020-05-18T14:38:02.000Z</time>
      </trkpt>
      <trkpt lat="48.96944" lon="7.80485">
        <ele>349.20001220703</ele>
        <time>2020-05-18T14:38:07.000Z</time>
      </trkpt>
      <trkpt lat="48.96945" lon="7.80484">
        <ele>349.39999389648</ele>
        <time>2020-05-18T14:38:08.000Z</time>
      </trkpt>
      <trkpt lat="48.96953" lon="7.8048">
        <ele>350.39999389648</ele>
        <time>2020-05-18T14:38:14.000Z</time>
      </trkpt>
      <trkpt lat="48.96958" lon="7.80476">
        <ele>351.60000610352</ele>
        <time>2020-05-18T14:38:20.000Z</time>
      </trkpt>
      <trkpt lat="48.96959" lon="7.80476">
        <ele>351.79998779297</ele>
        <time>2020-05-18T14:38:21.000Z</time>
      </trkpt>
      <trkpt lat="48.9696" lon="7.80475">
        <ele>352</ele>
        <time>2020-05-18T14:38:22.000Z</time>
      </trkpt>
      <trkpt lat="48.96963" lon="7.80474">
        <ele>352.79998779297</ele>
        <time>2020-05-18T14:38:25.000Z</time>
      </trkpt>
      <trkpt lat="48.96964" lon="7.80473">
        <ele>353</ele>
        <time>2020-05-18T14:38:26.000Z</time>
      </trkpt>
      <trkpt lat="48.96966" lon="7.80472">
        <ele>353.20001220703</ele>
        <time>2020-05-18T14:38:28.000Z</time>
      </trkpt>
      <trkpt lat="48.96969" lon="7.8047">
        <ele>354.20001220703</ele>
        <time>2020-05-18T14:38:31.000Z</time>
      </trkpt>
      <trkpt lat="48.96974" lon="7.8047">
        <ele>355</ele>
        <time>2020-05-18T14:38:34.000Z</time>
      </trkpt>
      <trkpt lat="48.96976" lon="7.8047">
        <ele>355.20001220703</ele>
        <time>2020-05-18T14:38:36.000Z</time>
      </trkpt>
      <trkpt lat="48.96981" lon="7.80469">
        <ele>356.20001220703</ele>
        <time>2020-05-18T14:38:41.000Z</time>
      </trkpt>
      <trkpt lat="48.96982" lon="7.80469">
        <ele>356.39999389648</ele>
        <time>2020-05-18T14:38:42.000Z</time>
      </trkpt>
      <trkpt lat="48.96985" lon="7.80467">
        <ele>357.39999389648</ele>
        <time>2020-05-18T14:38:45.000Z</time>
      </trkpt>
      <trkpt lat="48.96988" lon="7.80467">
        <ele>357.79998779297</ele>
        <time>2020-05-18T14:38:47.000Z</time>
      </trkpt>
      <trkpt lat="48.96991" lon="7.80466">
        <ele>358.39999389648</ele>
        <time>2020-05-18T14:38:51.000Z</time>
      </trkpt>
      <trkpt lat="48.96993" lon="7.80466">
        <ele>358.79998779297</ele>
        <time>2020-05-18T14:38:53.000Z</time>
      </trkpt>
      <trkpt lat="48.96998" lon="7.80464">
        <ele>359.79998779297</ele>
        <time>2020-05-18T14:38:58.000Z</time>
      </trkpt>
      <trkpt lat="48.97008" lon="7.80458">
        <ele>361</ele>
        <time>2020-05-18T14:39:06.000Z</time>
      </trkpt>
      <trkpt lat="48.97013" lon="7.80455">
        <ele>362</ele>
        <time>2020-05-18T14:39:12.000Z</time>
      </trkpt>
      <trkpt lat="48.97018" lon="7.80451">
        <ele>362.60000610352</ele>
        <time>2020-05-18T14:39:17.000Z</time>
      </trkpt>
      <trkpt lat="48.97021" lon="7.80448">
        <ele>363</ele>
        <time>2020-05-18T14:39:21.000Z</time>
      </trkpt>
      <trkpt lat="48.97025" lon="7.80442">
        <ele>363.39999389648</ele>
        <time>2020-05-18T14:39:25.000Z</time>
      </trkpt>
      <trkpt lat="48.97026" lon="7.80441">
        <ele>363.39999389648</ele>
        <time>2020-05-18T14:39:26.000Z</time>
      </trkpt>
      <trkpt lat="48.97027" lon="7.80437">
        <ele>364</ele>
        <time>2020-05-18T14:39:29.000Z</time>
      </trkpt>
      <trkpt lat="48.97028" lon="7.80428">
        <ele>364.20001220703</ele>
        <time>2020-05-18T14:39:33.000Z</time>
      </trkpt>
      <trkpt lat="48.97029" lon="7.80415">
        <ele>364.20001220703</ele>
        <time>2020-05-18T14:39:37.000Z</time>
      </trkpt>
      <trkpt lat="48.97028" lon="7.80413">
        <ele>364.20001220703</ele>
        <time>2020-05-18T14:39:38.000Z</time>
      </trkpt>
      <trkpt lat="48.97022" lon="7.80403">
        <ele>363.60000610352</ele>
        <time>2020-05-18T14:39:43.000Z</time>
      </trkpt>
      <trkpt lat="48.97019" lon="7.80401">
        <ele>363.60000610352</ele>
        <time>2020-05-18T14:39:44.000Z</time>
      </trkpt>
      <trkpt lat="48.97014" lon="7.80393">
        <ele>363</ele>
        <time>2020-05-18T14:39:47.000Z</time>
      </trkpt>
      <trkpt lat="48.97012" lon="7.80389">
        <ele>363.79998779297</ele>
        <time>2020-05-18T14:39:51.000Z</time>
      </trkpt>
      <trkpt lat="48.97011" lon="7.80388">
        <ele>364.20001220703</ele>
        <time>2020-05-18T14:39:52.000Z</time>
      </trkpt>
      <trkpt lat="48.97008" lon="7.80382">
        <ele>364.79998779297</ele>
        <time>2020-05-18T14:39:57.000Z</time>
      </trkpt>
      <trkpt lat="48.97006" lon="7.80379">
        <ele>365.39999389648</ele>
        <time>2020-05-18T14:39:59.000Z</time>
      </trkpt>
      <trkpt lat="48.97005" lon="7.80373">
        <ele>365.79998779297</ele>
        <time>2020-05-18T14:40:02.000Z</time>
      </trkpt>
      <trkpt lat="48.97004" lon="7.80369">
        <ele>366.20001220703</ele>
        <time>2020-05-18T14:40:04.000Z</time>
      </trkpt>
      <trkpt lat="48.97003" lon="7.80365">
        <ele>366.39999389648</ele>
        <time>2020-05-18T14:40:05.000Z</time>
      </trkpt>
      <trkpt lat="48.97001" lon="7.80353">
        <ele>367.60000610352</ele>
        <time>2020-05-18T14:40:10.000Z</time>
      </trkpt>
      <trkpt lat="48.97001" lon="7.80349">
        <ele>367.79998779297</ele>
        <time>2020-05-18T14:40:12.000Z</time>
      </trkpt>
      <trkpt lat="48.97001" lon="7.80346">
        <ele>368.20001220703</ele>
        <time>2020-05-18T14:40:14.000Z</time>
      </trkpt>
      <trkpt lat="48.97001" lon="7.80344">
        <ele>368.60000610352</ele>
        <time>2020-05-18T14:40:15.000Z</time>
      </trkpt>
      <trkpt lat="48.97001" lon="7.80343">
        <ele>368.79998779297</ele>
        <time>2020-05-18T14:40:16.000Z</time>
      </trkpt>
      <trkpt lat="48.97003" lon="7.80336">
        <ele>369.79998779297</ele>
        <time>2020-05-18T14:40:20.000Z</time>
      </trkpt>
      <trkpt lat="48.97003" lon="7.80334">
        <ele>370</ele>
        <time>2020-05-18T14:40:22.000Z</time>
      </trkpt>
      <trkpt lat="48.97004" lon="7.80328">
        <ele>370.79998779297</ele>
        <time>2020-05-18T14:40:25.000Z</time>
      </trkpt>
      <trkpt lat="48.97005" lon="7.80325">
        <ele>371</ele>
        <time>2020-05-18T14:40:27.000Z</time>
      </trkpt>
      <trkpt lat="48.97006" lon="7.80321">
        <ele>371.39999389648</ele>
        <time>2020-05-18T14:40:29.000Z</time>
      </trkpt>
      <trkpt lat="48.97007" lon="7.80318">
        <ele>371.60000610352</ele>
        <time>2020-05-18T14:40:31.000Z</time>
      </trkpt>
      <trkpt lat="48.9701" lon="7.80313">
        <ele>372.39999389648</ele>
        <time>2020-05-18T14:40:34.000Z</time>
      </trkpt>
      <trkpt lat="48.97013" lon="7.80307">
        <ele>372.79998779297</ele>
        <time>2020-05-18T14:40:36.000Z</time>
      </trkpt>
      <trkpt lat="48.97017" lon="7.80296">
        <ele>373.39999389648</ele>
        <time>2020-05-18T14:40:40.000Z</time>
      </trkpt>
      <trkpt lat="48.97019" lon="7.8029">
        <ele>374</ele>
        <time>2020-05-18T14:40:44.000Z</time>
      </trkpt>
      <trkpt lat="48.9702" lon="7.80289">
        <ele>374.39999389648</ele>
        <time>2020-05-18T14:40:45.000Z</time>
      </trkpt>
      <trkpt lat="48.97023" lon="7.80285">
        <ele>375.20001220703</ele>
        <time>2020-05-18T14:40:49.000Z</time>
      </trkpt>
      <trkpt lat="48.97025" lon="7.80283">
        <ele>376</ele>
        <time>2020-05-18T14:40:53.000Z</time>
      </trkpt>
      <trkpt lat="48.97026" lon="7.80282">
        <ele>376.20001220703</ele>
        <time>2020-05-18T14:40:54.000Z</time>
      </trkpt>
      <trkpt lat="48.9703" lon="7.8028">
        <ele>377.39999389648</ele>
        <time>2020-05-18T14:40:59.000Z</time>
      </trkpt>
      <trkpt lat="48.97034" lon="7.8028">
        <ele>378.39999389648</ele>
        <time>2020-05-18T14:41:03.000Z</time>
      </trkpt>
      <trkpt lat="48.97037" lon="7.80282">
        <ele>379.20001220703</ele>
        <time>2020-05-18T14:41:05.000Z</time>
      </trkpt>
      <trkpt lat="48.97038" lon="7.80283">
        <ele>379.39999389648</ele>
        <time>2020-05-18T14:41:06.000Z</time>
      </trkpt>
      <trkpt lat="48.97041" lon="7.80284">
        <ele>379.39999389648</ele>
        <time>2020-05-18T14:41:07.000Z</time>
      </trkpt>
      <trkpt lat="48.97045" lon="7.80286">
        <ele>380.20001220703</ele>
        <time>2020-05-18T14:41:10.000Z</time>
      </trkpt>
      <trkpt lat="48.97046" lon="7.80287">
        <ele>380.60000610352</ele>
        <time>2020-05-18T14:41:11.000Z</time>
      </trkpt>
      <trkpt lat="48.97049" lon="7.8029">
        <ele>381.60000610352</ele>
        <time>2020-05-18T14:41:14.000Z</time>
      </trkpt>
      <trkpt lat="48.9705" lon="7.80293">
        <ele>382</ele>
        <time>2020-05-18T14:41:17.000Z</time>
      </trkpt>
      <trkpt lat="48.97053" lon="7.80298">
        <ele>382.60000610352</ele>
        <time>2020-05-18T14:41:20.000Z</time>
      </trkpt>
      <trkpt lat="48.97054" lon="7.80301">
        <ele>382.79998779297</ele>
        <time>2020-05-18T14:41:22.000Z</time>
      </trkpt>
      <trkpt lat="48.97058" lon="7.80308">
        <ele>383.60000610352</ele>
        <time>2020-05-18T14:41:27.000Z</time>
      </trkpt>
      <trkpt lat="48.97058" lon="7.80309">
        <ele>383.79998779297</ele>
        <time>2020-05-18T14:41:28.000Z</time>
      </trkpt>
      <trkpt lat="48.97063" lon="7.80315">
        <ele>384.79998779297</ele>
        <time>2020-05-18T14:41:33.000Z</time>
      </trkpt>
      <trkpt lat="48.97065" lon="7.80317">
        <ele>385.39999389648</ele>
        <time>2020-05-18T14:41:35.000Z</time>
      </trkpt>
      <trkpt lat="48.97066" lon="7.8032">
        <ele>386</ele>
        <time>2020-05-18T14:41:37.000Z</time>
      </trkpt>
      <trkpt lat="48.97068" lon="7.80324">
        <ele>386.39999389648</ele>
        <time>2020-05-18T14:41:40.000Z</time>
      </trkpt>
      <trkpt lat="48.97069" lon="7.80328">
        <ele>387</ele>
        <time>2020-05-18T14:41:43.000Z</time>
      </trkpt>
      <trkpt lat="48.97075" lon="7.80337">
        <ele>388.20001220703</ele>
        <time>2020-05-18T14:41:48.000Z</time>
      </trkpt>
      <trkpt lat="48.97081" lon="7.80345">
        <ele>389.39999389648</ele>
        <time>2020-05-18T14:41:53.000Z</time>
      </trkpt>
      <trkpt lat="48.97084" lon="7.8035">
        <ele>390</ele>
        <time>2020-05-18T14:41:56.000Z</time>
      </trkpt>
      <trkpt lat="48.97087" lon="7.80352">
        <ele>390.20001220703</ele>
        <time>2020-05-18T14:41:58.000Z</time>
      </trkpt>
      <trkpt lat="48.97088" lon="7.80353">
        <ele>390.60000610352</ele>
        <time>2020-05-18T14:41:59.000Z</time>
      </trkpt>
      <trkpt lat="48.97089" lon="7.80355">
        <ele>391</ele>
        <time>2020-05-18T14:42:01.000Z</time>
      </trkpt>
      <trkpt lat="48.97093" lon="7.8036">
        <ele>391.79998779297</ele>
        <time>2020-05-18T14:42:06.000Z</time>
      </trkpt>
      <trkpt lat="48.97095" lon="7.80361">
        <ele>392.39999389648</ele>
        <time>2020-05-18T14:42:08.000Z</time>
      </trkpt>
      <trkpt lat="48.97096" lon="7.80362">
        <ele>392.79998779297</ele>
        <time>2020-05-18T14:42:10.000Z</time>
      </trkpt>
      <trkpt lat="48.97103" lon="7.80365">
        <ele>393.79998779297</ele>
        <time>2020-05-18T14:42:16.000Z</time>
      </trkpt>
      <trkpt lat="48.97111" lon="7.80368">
        <ele>395.20001220703</ele>
        <time>2020-05-18T14:42:21.000Z</time>
      </trkpt>
      <trkpt lat="48.97114" lon="7.80369">
        <ele>395.79998779297</ele>
        <time>2020-05-18T14:42:23.000Z</time>
      </trkpt>
      <trkpt lat="48.97117" lon="7.8037">
        <ele>396.20001220703</ele>
        <time>2020-05-18T14:42:25.000Z</time>
      </trkpt>
      <trkpt lat="48.97119" lon="7.80372">
        <ele>397.20001220703</ele>
        <time>2020-05-18T14:42:28.000Z</time>
      </trkpt>
      <trkpt lat="48.9712" lon="7.80372">
        <ele>397.60000610352</ele>
        <time>2020-05-18T14:42:29.000Z</time>
      </trkpt>
      <trkpt lat="48.97122" lon="7.80373">
        <ele>398.60000610352</ele>
        <time>2020-05-18T14:42:31.000Z</time>
      </trkpt>
      <trkpt lat="48.97124" lon="7.80376">
        <ele>399.79998779297</ele>
        <time>2020-05-18T14:42:34.000Z</time>
      </trkpt>
      <trkpt lat="48.97127" lon="7.80379">
        <ele>400.39999389648</ele>
        <time>2020-05-18T14:42:37.000Z</time>
      </trkpt>
      <trkpt lat="48.97128" lon="7.80381">
        <ele>401</ele>
        <time>2020-05-18T14:42:39.000Z</time>
      </trkpt>
      <trkpt lat="48.97132" lon="7.80383">
        <ele>402</ele>
        <time>2020-05-18T14:42:44.000Z</time>
      </trkpt>
      <trkpt lat="48.97133" lon="7.80384">
        <ele>402.39999389648</ele>
        <time>2020-05-18T14:42:45.000Z</time>
      </trkpt>
      <trkpt lat="48.97135" lon="7.80387">
        <ele>403.20001220703</ele>
        <time>2020-05-18T14:42:48.000Z</time>
      </trkpt>
      <trkpt lat="48.97139" lon="7.8039">
        <ele>404</ele>
        <time>2020-05-18T14:42:52.000Z</time>
      </trkpt>
      <trkpt lat="48.9714" lon="7.80391">
        <ele>404.20001220703</ele>
        <time>2020-05-18T14:42:53.000Z</time>
      </trkpt>
      <trkpt lat="48.97145" lon="7.80395">
        <ele>405.39999389648</ele>
        <time>2020-05-18T14:42:57.000Z</time>
      </trkpt>
      <trkpt lat="48.97149" lon="7.80397">
        <ele>405.79998779297</ele>
        <time>2020-05-18T14:42:59.000Z</time>
      </trkpt>
      <trkpt lat="48.97153" lon="7.80399">
        <ele>406.60000610352</ele>
        <time>2020-05-18T14:43:02.000Z</time>
      </trkpt>
      <trkpt lat="48.97157" lon="7.804">
        <ele>407.39999389648</ele>
        <time>2020-05-18T14:43:05.000Z</time>
      </trkpt>
      <trkpt lat="48.97159" lon="7.80401">
        <ele>407.79998779297</ele>
        <time>2020-05-18T14:43:07.000Z</time>
      </trkpt>
      <trkpt lat="48.97165" lon="7.80405">
        <ele>409</ele>
        <time>2020-05-18T14:43:13.000Z</time>
      </trkpt>
      <trkpt lat="48.97166" lon="7.80406">
        <ele>409.20001220703</ele>
        <time>2020-05-18T14:43:14.000Z</time>
      </trkpt>
      <trkpt lat="48.97169" lon="7.80407">
        <ele>409.60000610352</ele>
        <time>2020-05-18T14:43:16.000Z</time>
      </trkpt>
      <trkpt lat="48.97172" lon="7.80408">
        <ele>410.20001220703</ele>
        <time>2020-05-18T14:43:19.000Z</time>
      </trkpt>
      <trkpt lat="48.97173" lon="7.80408">
        <ele>410.39999389648</ele>
        <time>2020-05-18T14:43:20.000Z</time>
      </trkpt>
      <trkpt lat="48.97177" lon="7.80409">
        <ele>411.20001220703</ele>
        <time>2020-05-18T14:43:24.000Z</time>
      </trkpt>
      <trkpt lat="48.97181" lon="7.80411">
        <ele>411.79998779297</ele>
        <time>2020-05-18T14:43:28.000Z</time>
      </trkpt>
      <trkpt lat="48.97184" lon="7.80412">
        <ele>412.39999389648</ele>
        <time>2020-05-18T14:43:31.000Z</time>
      </trkpt>
      <trkpt lat="48.97192" lon="7.80411">
        <ele>413.20001220703</ele>
        <time>2020-05-18T14:43:35.000Z</time>
      </trkpt>
      <trkpt lat="48.97194" lon="7.80412">
        <ele>413.39999389648</ele>
        <time>2020-05-18T14:43:36.000Z</time>
      </trkpt>
      <trkpt lat="48.97201" lon="7.80415">
        <ele>414.39999389648</ele>
        <time>2020-05-18T14:43:40.000Z</time>
      </trkpt>
      <trkpt lat="48.97203" lon="7.80419">
        <ele>414.60000610352</ele>
        <time>2020-05-18T14:43:42.000Z</time>
      </trkpt>
      <trkpt lat="48.97207" lon="7.80428">
        <ele>415.60000610352</ele>
        <time>2020-05-18T14:43:46.000Z</time>
      </trkpt>
      <trkpt lat="48.97208" lon="7.80433">
        <ele>415.79998779297</ele>
        <time>2020-05-18T14:43:48.000Z</time>
      </trkpt>
      <trkpt lat="48.97214" lon="7.80444">
        <ele>416.20001220703</ele>
        <time>2020-05-18T14:43:54.000Z</time>
      </trkpt>
      <trkpt lat="48.97216" lon="7.8045">
        <ele>416.60000610352</ele>
        <time>2020-05-18T14:43:57.000Z</time>
      </trkpt>
      <trkpt lat="48.97219" lon="7.80454">
        <ele>416.79998779297</ele>
        <time>2020-05-18T14:44:00.000Z</time>
      </trkpt>
      <trkpt lat="48.97222" lon="7.80459">
        <ele>417.60000610352</ele>
        <time>2020-05-18T14:44:04.000Z</time>
      </trkpt>
      <trkpt lat="48.97224" lon="7.80461">
        <ele>417.79998779297</ele>
        <time>2020-05-18T14:44:05.000Z</time>
      </trkpt>
      <trkpt lat="48.97228" lon="7.80463">
        <ele>417.79998779297</ele>
        <time>2020-05-18T14:44:07.000Z</time>
      </trkpt>
      <trkpt lat="48.97231" lon="7.80466">
        <ele>418</ele>
        <time>2020-05-18T14:44:10.000Z</time>
      </trkpt>
      <trkpt lat="48.97233" lon="7.80467">
        <ele>418</ele>
        <time>2020-05-18T14:44:11.000Z</time>
      </trkpt>
      <trkpt lat="48.9724" lon="7.80473">
        <ele>418.79998779297</ele>
        <time>2020-05-18T14:44:16.000Z</time>
      </trkpt>
      <trkpt lat="48.97242" lon="7.80474">
        <ele>418.79998779297</ele>
        <time>2020-05-18T14:44:17.000Z</time>
      </trkpt>
      <trkpt lat="48.97251" lon="7.80475">
        <ele>419.60000610352</ele>
        <time>2020-05-18T14:44:23.000Z</time>
      </trkpt>
      <trkpt lat="48.97253" lon="7.80473">
        <ele>419.79998779297</ele>
        <time>2020-05-18T14:44:24.000Z</time>
      </trkpt>
      <trkpt lat="48.97255" lon="7.80469">
        <ele>419.79998779297</ele>
        <time>2020-05-18T14:44:26.000Z</time>
      </trkpt>
      <trkpt lat="48.97255" lon="7.80464">
        <ele>420</ele>
        <time>2020-05-18T14:44:28.000Z</time>
      </trkpt>
      <trkpt lat="48.97257" lon="7.80449">
        <ele>420.60000610352</ele>
        <time>2020-05-18T14:44:34.000Z</time>
      </trkpt>
      <trkpt lat="48.97256" lon="7.80445">
        <ele>421</ele>
        <time>2020-05-18T14:44:36.000Z</time>
      </trkpt>
      <trkpt lat="48.97256" lon="7.80429">
        <ele>421.20001220703</ele>
        <time>2020-05-18T14:44:41.000Z</time>
      </trkpt>
      <trkpt lat="48.97256" lon="7.8041">
        <ele>421.39999389648</ele>
        <time>2020-05-18T14:44:46.000Z</time>
      </trkpt>
      <trkpt lat="48.97256" lon="7.80388">
        <ele>421.60000610352</ele>
        <time>2020-05-18T14:44:52.000Z</time>
      </trkpt>
      <trkpt lat="48.97256" lon="7.80363">
        <ele>421.79998779297</ele>
        <time>2020-05-18T14:44:58.000Z</time>
      </trkpt>
      <trkpt lat="48.97253" lon="7.8035">
        <ele>422</ele>
        <time>2020-05-18T14:45:01.000Z</time>
      </trkpt>
      <trkpt lat="48.97251" lon="7.80344">
        <ele>422.20001220703</ele>
        <time>2020-05-18T14:45:03.000Z</time>
      </trkpt>
      <trkpt lat="48.97243" lon="7.80321">
        <ele>422.20001220703</ele>
        <time>2020-05-18T14:45:09.000Z</time>
      </trkpt>
      <trkpt lat="48.97236" lon="7.80303">
        <ele>422.60000610352</ele>
        <time>2020-05-18T14:45:14.000Z</time>
      </trkpt>
      <trkpt lat="48.97235" lon="7.80278">
        <ele>423</ele>
        <time>2020-05-18T14:45:20.000Z</time>
      </trkpt>
      <trkpt lat="48.97237" lon="7.8027">
        <ele>423.20001220703</ele>
        <time>2020-05-18T14:45:22.000Z</time>
      </trkpt>
      <trkpt lat="48.97239" lon="7.80263">
        <ele>423.39999389648</ele>
        <time>2020-05-18T14:45:24.000Z</time>
      </trkpt>
      <trkpt lat="48.97242" lon="7.80249">
        <ele>423.39999389648</ele>
        <time>2020-05-18T14:45:27.000Z</time>
      </trkpt>
      <trkpt lat="48.97243" lon="7.80244">
        <ele>423.60000610352</ele>
        <time>2020-05-18T14:45:28.000Z</time>
      </trkpt>
      <trkpt lat="48.97244" lon="7.80227">
        <ele>424.20001220703</ele>
        <time>2020-05-18T14:45:32.000Z</time>
      </trkpt>
      <trkpt lat="48.97244" lon="7.80222">
        <ele>424.20001220703</ele>
        <time>2020-05-18T14:45:33.000Z</time>
      </trkpt>
      <trkpt lat="48.97244" lon="7.80219">
        <ele>424.39999389648</ele>
        <time>2020-05-18T14:45:34.000Z</time>
      </trkpt>
      <trkpt lat="48.97247" lon="7.80206">
        <ele>424.60000610352</ele>
        <time>2020-05-18T14:45:37.000Z</time>
      </trkpt>
      <trkpt lat="48.97253" lon="7.80171">
        <ele>424.20001220703</ele>
        <time>2020-05-18T14:45:43.000Z</time>
      </trkpt>
      <trkpt lat="48.97253" lon="7.80151">
        <ele>424</ele>
        <time>2020-05-18T14:45:47.000Z</time>
      </trkpt>
      <trkpt lat="48.97254" lon="7.80129">
        <ele>425</ele>
        <time>2020-05-18T14:45:51.000Z</time>
      </trkpt>
      <trkpt lat="48.97255" lon="7.80123">
        <ele>425.20001220703</ele>
        <time>2020-05-18T14:45:52.000Z</time>
      </trkpt>
      <trkpt lat="48.97256" lon="7.80108">
        <ele>425.20001220703</ele>
        <time>2020-05-18T14:45:55.000Z</time>
      </trkpt>
      <trkpt lat="48.97253" lon="7.80079">
        <ele>424.39999389648</ele>
        <time>2020-05-18T14:46:00.000Z</time>
      </trkpt>
      <trkpt lat="48.9725" lon="7.80042">
        <ele>424.79998779297</ele>
        <time>2020-05-18T14:46:06.000Z</time>
      </trkpt>
      <trkpt lat="48.97248" lon="7.80013">
        <ele>426</ele>
        <time>2020-05-18T14:46:11.000Z</time>
      </trkpt>
      <trkpt lat="48.97248" lon="7.80008">
        <ele>426.39999389648</ele>
        <time>2020-05-18T14:46:12.000Z</time>
      </trkpt>
      <trkpt lat="48.97243" lon="7.7999">
        <ele>427.20001220703</ele>
        <time>2020-05-18T14:46:16.000Z</time>
      </trkpt>
      <trkpt lat="48.97241" lon="7.79986">
        <ele>427.39999389648</ele>
        <time>2020-05-18T14:46:17.000Z</time>
      </trkpt>
      <trkpt lat="48.9724" lon="7.79982">
        <ele>427.60000610352</ele>
        <time>2020-05-18T14:46:18.000Z</time>
      </trkpt>
      <trkpt lat="48.97239" lon="7.79978">
        <ele>427.60000610352</ele>
        <time>2020-05-18T14:46:19.000Z</time>
      </trkpt>
      <trkpt lat="48.97237" lon="7.79969">
        <ele>428</ele>
        <time>2020-05-18T14:46:21.000Z</time>
      </trkpt>
      <trkpt lat="48.97236" lon="7.79955">
        <ele>428.39999389648</ele>
        <time>2020-05-18T14:46:24.000Z</time>
      </trkpt>
      <trkpt lat="48.97234" lon="7.79932">
        <ele>428.60000610352</ele>
        <time>2020-05-18T14:46:29.000Z</time>
      </trkpt>
      <trkpt lat="48.97233" lon="7.79928">
        <ele>428.60000610352</ele>
        <time>2020-05-18T14:46:30.000Z</time>
      </trkpt>
      <trkpt lat="48.97232" lon="7.7991">
        <ele>429</ele>
        <time>2020-05-18T14:46:34.000Z</time>
      </trkpt>
      <trkpt lat="48.97231" lon="7.7989">
        <ele>429.79998779297</ele>
        <time>2020-05-18T14:46:39.000Z</time>
      </trkpt>
      <trkpt lat="48.97227" lon="7.79862">
        <ele>430.39999389648</ele>
        <time>2020-05-18T14:46:45.000Z</time>
      </trkpt>
      <trkpt lat="48.97222" lon="7.79848">
        <ele>430.79998779297</ele>
        <time>2020-05-18T14:46:49.000Z</time>
      </trkpt>
      <trkpt lat="48.97221" lon="7.79844">
        <ele>430.79998779297</ele>
        <time>2020-05-18T14:46:50.000Z</time>
      </trkpt>
      <trkpt lat="48.97217" lon="7.79829">
        <ele>431.79998779297</ele>
        <time>2020-05-18T14:46:54.000Z</time>
      </trkpt>
      <trkpt lat="48.97216" lon="7.79825">
        <ele>432.20001220703</ele>
        <time>2020-05-18T14:46:55.000Z</time>
      </trkpt>
      <trkpt lat="48.97214" lon="7.79807">
        <ele>432.60000610352</ele>
        <time>2020-05-18T14:46:59.000Z</time>
      </trkpt>
      <trkpt lat="48.97216" lon="7.79793">
        <ele>433.20001220703</ele>
        <time>2020-05-18T14:47:03.000Z</time>
      </trkpt>
      <trkpt lat="48.97217" lon="7.79789">
        <ele>433.39999389648</ele>
        <time>2020-05-18T14:47:04.000Z</time>
      </trkpt>
      <trkpt lat="48.97218" lon="7.7977">
        <ele>434</ele>
        <time>2020-05-18T14:47:09.000Z</time>
      </trkpt>
      <trkpt lat="48.97218" lon="7.79767">
        <ele>434.20001220703</ele>
        <time>2020-05-18T14:47:10.000Z</time>
      </trkpt>
      <trkpt lat="48.97218" lon="7.7975">
        <ele>435</ele>
        <time>2020-05-18T14:47:14.000Z</time>
      </trkpt>
      <trkpt lat="48.97218" lon="7.79746">
        <ele>435.39999389648</ele>
        <time>2020-05-18T14:47:15.000Z</time>
      </trkpt>
      <trkpt lat="48.97215" lon="7.79728">
        <ele>436.20001220703</ele>
        <time>2020-05-18T14:47:20.000Z</time>
      </trkpt>
      <trkpt lat="48.97213" lon="7.79721">
        <ele>436.60000610352</ele>
        <time>2020-05-18T14:47:22.000Z</time>
      </trkpt>
      <trkpt lat="48.97213" lon="7.79712">
        <ele>437.20001220703</ele>
        <time>2020-05-18T14:47:25.000Z</time>
      </trkpt>
      <trkpt lat="48.97212" lon="7.79705">
        <ele>437.60000610352</ele>
        <time>2020-05-18T14:47:27.000Z</time>
      </trkpt>
      <trkpt lat="48.9721" lon="7.79694">
        <ele>438</ele>
        <time>2020-05-18T14:47:30.000Z</time>
      </trkpt>
      <trkpt lat="48.97205" lon="7.79674">
        <ele>438.79998779297</ele>
        <time>2020-05-18T14:47:35.000Z</time>
      </trkpt>
      <trkpt lat="48.97202" lon="7.79667">
        <ele>439.20001220703</ele>
        <time>2020-05-18T14:47:37.000Z</time>
      </trkpt>
      <trkpt lat="48.97198" lon="7.79651">
        <ele>439.60000610352</ele>
        <time>2020-05-18T14:47:42.000Z</time>
      </trkpt>
      <trkpt lat="48.97198" lon="7.79648">
        <ele>440</ele>
        <time>2020-05-18T14:47:43.000Z</time>
      </trkpt>
      <trkpt lat="48.97199" lon="7.7964">
        <ele>440.39999389648</ele>
        <time>2020-05-18T14:47:46.000Z</time>
      </trkpt>
      <trkpt lat="48.97199" lon="7.79637">
        <ele>440.60000610352</ele>
        <time>2020-05-18T14:47:47.000Z</time>
      </trkpt>
      <trkpt lat="48.97195" lon="7.79623">
        <ele>440.79998779297</ele>
        <time>2020-05-18T14:47:51.000Z</time>
      </trkpt>
      <trkpt lat="48.97195" lon="7.79619">
        <ele>441</ele>
        <time>2020-05-18T14:47:52.000Z</time>
      </trkpt>
      <trkpt lat="48.97191" lon="7.79605">
        <ele>441.79998779297</ele>
        <time>2020-05-18T14:47:56.000Z</time>
      </trkpt>
      <trkpt lat="48.9719" lon="7.79599">
        <ele>442</ele>
        <time>2020-05-18T14:47:58.000Z</time>
      </trkpt>
      <trkpt lat="48.97189" lon="7.7959">
        <ele>442.79998779297</ele>
        <time>2020-05-18T14:48:01.000Z</time>
      </trkpt>
      <trkpt lat="48.97189" lon="7.79587">
        <ele>443</ele>
        <time>2020-05-18T14:48:02.000Z</time>
      </trkpt>
      <trkpt lat="48.9719" lon="7.79578">
        <ele>443.79998779297</ele>
        <time>2020-05-18T14:48:05.000Z</time>
      </trkpt>
      <trkpt lat="48.9719" lon="7.79572">
        <ele>444.20001220703</ele>
        <time>2020-05-18T14:48:07.000Z</time>
      </trkpt>
      <trkpt lat="48.9719" lon="7.7957">
        <ele>444.39999389648</ele>
        <time>2020-05-18T14:48:08.000Z</time>
      </trkpt>
      <trkpt lat="48.97189" lon="7.79562">
        <ele>445</ele>
        <time>2020-05-18T14:48:11.000Z</time>
      </trkpt>
      <trkpt lat="48.97189" lon="7.79555">
        <ele>445.39999389648</ele>
        <time>2020-05-18T14:48:13.000Z</time>
      </trkpt>
      <trkpt lat="48.97187" lon="7.79544">
        <ele>445.79998779297</ele>
        <time>2020-05-18T14:48:17.000Z</time>
      </trkpt>
      <trkpt lat="48.97184" lon="7.79533">
        <ele>446.20001220703</ele>
        <time>2020-05-18T14:48:21.000Z</time>
      </trkpt>
      <trkpt lat="48.97181" lon="7.79519">
        <ele>447.20001220703</ele>
        <time>2020-05-18T14:48:27.000Z</time>
      </trkpt>
      <trkpt lat="48.9718" lon="7.79516">
        <ele>447.39999389648</ele>
        <time>2020-05-18T14:48:28.000Z</time>
      </trkpt>
      <trkpt lat="48.97177" lon="7.79501">
        <ele>447.60000610352</ele>
        <time>2020-05-18T14:48:33.000Z</time>
      </trkpt>
      <trkpt lat="48.97176" lon="7.79488">
        <ele>448.60000610352</ele>
        <time>2020-05-18T14:48:37.000Z</time>
      </trkpt>
      <trkpt lat="48.97173" lon="7.79476">
        <ele>449.39999389648</ele>
        <time>2020-05-18T14:48:41.000Z</time>
      </trkpt>
      <trkpt lat="48.97172" lon="7.79474">
        <ele>449.60000610352</ele>
        <time>2020-05-18T14:48:42.000Z</time>
      </trkpt>
      <trkpt lat="48.97164" lon="7.7946">
        <ele>450.20001220703</ele>
        <time>2020-05-18T14:48:47.000Z</time>
      </trkpt>
      <trkpt lat="48.97156" lon="7.79442">
        <ele>450.79998779297</ele>
        <time>2020-05-18T14:48:53.000Z</time>
      </trkpt>
      <trkpt lat="48.97152" lon="7.79425">
        <ele>451</ele>
        <time>2020-05-18T14:48:58.000Z</time>
      </trkpt>
      <trkpt lat="48.97149" lon="7.79405">
        <ele>451.39999389648</ele>
        <time>2020-05-18T14:49:04.000Z</time>
      </trkpt>
      <trkpt lat="48.97147" lon="7.79399">
        <ele>451.79998779297</ele>
        <time>2020-05-18T14:49:06.000Z</time>
      </trkpt>
      <trkpt lat="48.97146" lon="7.79393">
        <ele>452</ele>
        <time>2020-05-18T14:49:08.000Z</time>
      </trkpt>
      <trkpt lat="48.97146" lon="7.7939">
        <ele>452.20001220703</ele>
        <time>2020-05-18T14:49:09.000Z</time>
      </trkpt>
      <trkpt lat="48.97144" lon="7.79381">
        <ele>452.20001220703</ele>
        <time>2020-05-18T14:49:12.000Z</time>
      </trkpt>
      <trkpt lat="48.97143" lon="7.79374">
        <ele>452.60000610352</ele>
        <time>2020-05-18T14:49:14.000Z</time>
      </trkpt>
      <trkpt lat="48.97142" lon="7.79367">
        <ele>453</ele>
        <time>2020-05-18T14:49:16.000Z</time>
      </trkpt>
      <trkpt lat="48.9714" lon="7.79356">
        <ele>453.39999389648</ele>
        <time>2020-05-18T14:49:20.000Z</time>
      </trkpt>
      <trkpt lat="48.9714" lon="7.79347">
        <ele>453.79998779297</ele>
        <time>2020-05-18T14:49:23.000Z</time>
      </trkpt>
      <trkpt lat="48.9714" lon="7.79344">
        <ele>454</ele>
        <time>2020-05-18T14:49:24.000Z</time>
      </trkpt>
      <trkpt lat="48.97141" lon="7.79341">
        <ele>454</ele>
        <time>2020-05-18T14:49:25.000Z</time>
      </trkpt>
      <trkpt lat="48.97141" lon="7.79324">
        <ele>454.60000610352</ele>
        <time>2020-05-18T14:49:30.000Z</time>
      </trkpt>
      <trkpt lat="48.97142" lon="7.79309">
        <ele>454.39999389648</ele>
        <time>2020-05-18T14:49:34.000Z</time>
      </trkpt>
      <trkpt lat="48.97142" lon="7.79306">
        <ele>454.39999389648</ele>
        <time>2020-05-18T14:49:35.000Z</time>
      </trkpt>
      <trkpt lat="48.97141" lon="7.79302">
        <ele>454.39999389648</ele>
        <time>2020-05-18T14:49:36.000Z</time>
      </trkpt>
      <trkpt lat="48.97141" lon="7.7929">
        <ele>454.20001220703</ele>
        <time>2020-05-18T14:49:39.000Z</time>
      </trkpt>
      <trkpt lat="48.97139" lon="7.79274">
        <ele>454.20001220703</ele>
        <time>2020-05-18T14:49:43.000Z</time>
      </trkpt>
      <trkpt lat="48.97134" lon="7.7925">
        <ele>454</ele>
        <time>2020-05-18T14:49:48.000Z</time>
      </trkpt>
      <trkpt lat="48.97129" lon="7.7923">
        <ele>453.60000610352</ele>
        <time>2020-05-18T14:49:52.000Z</time>
      </trkpt>
      <trkpt lat="48.97123" lon="7.79211">
        <ele>453.60000610352</ele>
        <time>2020-05-18T14:49:56.000Z</time>
      </trkpt>
      <trkpt lat="48.97118" lon="7.7919">
        <ele>453.60000610352</ele>
        <time>2020-05-18T14:50:00.000Z</time>
      </trkpt>
      <trkpt lat="48.97119" lon="7.79161">
        <ele>453</ele>
        <time>2020-05-18T14:50:04.000Z</time>
      </trkpt>
      <trkpt lat="48.97119" lon="7.79153">
        <ele>452.79998779297</ele>
        <time>2020-05-18T14:50:05.000Z</time>
      </trkpt>
      <trkpt lat="48.97119" lon="7.79136">
        <ele>452.60000610352</ele>
        <time>2020-05-18T14:50:08.000Z</time>
      </trkpt>
      <trkpt lat="48.97121" lon="7.79108">
        <ele>452.60000610352</ele>
        <time>2020-05-18T14:50:12.000Z</time>
      </trkpt>
      <trkpt lat="48.97124" lon="7.79096">
        <ele>451.79998779297</ele>
        <time>2020-05-18T14:50:14.000Z</time>
      </trkpt>
      <trkpt lat="48.97125" lon="7.7909">
        <ele>451.60000610352</ele>
        <time>2020-05-18T14:50:15.000Z</time>
      </trkpt>
      <trkpt lat="48.97129" lon="7.7908">
        <ele>451.39999389648</ele>
        <time>2020-05-18T14:50:17.000Z</time>
      </trkpt>
      <trkpt lat="48.97135" lon="7.79059">
        <ele>451</ele>
        <time>2020-05-18T14:50:21.000Z</time>
      </trkpt>
      <trkpt lat="48.97137" lon="7.79053">
        <ele>450.79998779297</ele>
        <time>2020-05-18T14:50:22.000Z</time>
      </trkpt>
      <trkpt lat="48.9714" lon="7.79038">
        <ele>450.79998779297</ele>
        <time>2020-05-18T14:50:25.000Z</time>
      </trkpt>
      <trkpt lat="48.97143" lon="7.79034">
        <ele>451.60000610352</ele>
        <time>2020-05-18T14:50:29.000Z</time>
      </trkpt>
      <trkpt lat="48.97143" lon="7.79026">
        <ele>451.20001220703</ele>
        <time>2020-05-18T14:50:36.000Z</time>
      </trkpt>
      <trkpt lat="48.97144" lon="7.79018">
        <ele>451.20001220703</ele>
        <time>2020-05-18T14:50:38.000Z</time>
      </trkpt>
      <trkpt lat="48.97146" lon="7.79">
        <ele>450.20001220703</ele>
        <time>2020-05-18T14:50:42.000Z</time>
      </trkpt>
      <trkpt lat="48.97145" lon="7.78986">
        <ele>449.60000610352</ele>
        <time>2020-05-18T14:50:45.000Z</time>
      </trkpt>
      <trkpt lat="48.97143" lon="7.78981">
        <ele>449.39999389648</ele>
        <time>2020-05-18T14:50:46.000Z</time>
      </trkpt>
      <trkpt lat="48.97141" lon="7.78976">
        <ele>449.39999389648</ele>
        <time>2020-05-18T14:50:47.000Z</time>
      </trkpt>
      <trkpt lat="48.97133" lon="7.78957">
        <ele>449.39999389648</ele>
        <time>2020-05-18T14:50:50.000Z</time>
      </trkpt>
      <trkpt lat="48.97129" lon="7.78947">
        <ele>449.20001220703</ele>
        <time>2020-05-18T14:50:52.000Z</time>
      </trkpt>
      <trkpt lat="48.97127" lon="7.78942">
        <ele>449.20001220703</ele>
        <time>2020-05-18T14:50:53.000Z</time>
      </trkpt>
      <trkpt lat="48.97124" lon="7.78916">
        <ele>449.20001220703</ele>
        <time>2020-05-18T14:50:58.000Z</time>
      </trkpt>
      <trkpt lat="48.97124" lon="7.78911">
        <ele>449.20001220703</ele>
        <time>2020-05-18T14:50:59.000Z</time>
      </trkpt>
      <trkpt lat="48.97121" lon="7.78888">
        <ele>449.60000610352</ele>
        <time>2020-05-18T14:51:03.000Z</time>
      </trkpt>
      <trkpt lat="48.97115" lon="7.78862">
        <ele>450</ele>
        <time>2020-05-18T14:51:08.000Z</time>
      </trkpt>
      <trkpt lat="48.97111" lon="7.78849">
        <ele>450.60000610352</ele>
        <time>2020-05-18T14:51:11.000Z</time>
      </trkpt>
      <trkpt lat="48.9711" lon="7.78846">
        <ele>450.79998779297</ele>
        <time>2020-05-18T14:51:12.000Z</time>
      </trkpt>
      <trkpt lat="48.97107" lon="7.78836">
        <ele>451.60000610352</ele>
        <time>2020-05-18T14:51:15.000Z</time>
      </trkpt>
      <trkpt lat="48.97106" lon="7.78831">
        <ele>451.79998779297</ele>
        <time>2020-05-18T14:51:16.000Z</time>
      </trkpt>
      <trkpt lat="48.971" lon="7.7881">
        <ele>452.79998779297</ele>
        <time>2020-05-18T14:51:21.000Z</time>
      </trkpt>
      <trkpt lat="48.97099" lon="7.78806">
        <ele>452.79998779297</ele>
        <time>2020-05-18T14:51:22.000Z</time>
      </trkpt>
      <trkpt lat="48.97095" lon="7.78783">
        <ele>453.60000610352</ele>
        <time>2020-05-18T14:51:27.000Z</time>
      </trkpt>
      <trkpt lat="48.97095" lon="7.78779">
        <ele>453.79998779297</ele>
        <time>2020-05-18T14:51:28.000Z</time>
      </trkpt>
      <trkpt lat="48.97095" lon="7.78756">
        <ele>454.79998779297</ele>
        <time>2020-05-18T14:51:33.000Z</time>
      </trkpt>
      <trkpt lat="48.97094" lon="7.78735">
        <ele>455.39999389648</ele>
        <time>2020-05-18T14:51:37.000Z</time>
      </trkpt>
      <trkpt lat="48.97093" lon="7.78722">
        <ele>455.79998779297</ele>
        <time>2020-05-18T14:51:40.000Z</time>
      </trkpt>
      <trkpt lat="48.97093" lon="7.78717">
        <ele>455.79998779297</ele>
        <time>2020-05-18T14:51:41.000Z</time>
      </trkpt>
      <trkpt lat="48.97091" lon="7.78714">
        <ele>456</ele>
        <time>2020-05-18T14:51:42.000Z</time>
      </trkpt>
      <trkpt lat="48.97087" lon="7.78697">
        <ele>456.39999389648</ele>
        <time>2020-05-18T14:51:46.000Z</time>
      </trkpt>
      <trkpt lat="48.9708" lon="7.78673">
        <ele>456.79998779297</ele>
        <time>2020-05-18T14:51:51.000Z</time>
      </trkpt>
      <trkpt lat="48.97079" lon="7.78669">
        <ele>456.79998779297</ele>
        <time>2020-05-18T14:51:52.000Z</time>
      </trkpt>
      <trkpt lat="48.97075" lon="7.78651">
        <ele>457</ele>
        <time>2020-05-18T14:51:56.000Z</time>
      </trkpt>
      <trkpt lat="48.97073" lon="7.7862">
        <ele>457</ele>
        <time>2020-05-18T14:52:02.000Z</time>
      </trkpt>
      <trkpt lat="48.97074" lon="7.78597">
        <ele>456.79998779297</ele>
        <time>2020-05-18T14:52:06.000Z</time>
      </trkpt>
      <trkpt lat="48.97066" lon="7.78571">
        <ele>456.60000610352</ele>
        <time>2020-05-18T14:52:11.000Z</time>
      </trkpt>
      <trkpt lat="48.97059" lon="7.7856">
        <ele>456.39999389648</ele>
        <time>2020-05-18T14:52:14.000Z</time>
      </trkpt>
      <trkpt lat="48.97057" lon="7.78556">
        <ele>456.60000610352</ele>
        <time>2020-05-18T14:52:15.000Z</time>
      </trkpt>
      <trkpt lat="48.97049" lon="7.78538">
        <ele>456.39999389648</ele>
        <time>2020-05-18T14:52:20.000Z</time>
      </trkpt>
      <trkpt lat="48.97039" lon="7.78525">
        <ele>456</ele>
        <time>2020-05-18T14:52:24.000Z</time>
      </trkpt>
      <trkpt lat="48.97028" lon="7.78509">
        <ele>456</ele>
        <time>2020-05-18T14:52:28.000Z</time>
      </trkpt>
      <trkpt lat="48.97016" lon="7.78498">
        <ele>455.79998779297</ele>
        <time>2020-05-18T14:52:32.000Z</time>
      </trkpt>
      <trkpt lat="48.97009" lon="7.78494">
        <ele>455.79998779297</ele>
        <time>2020-05-18T14:52:34.000Z</time>
      </trkpt>
      <trkpt lat="48.97008" lon="7.7849">
        <ele>455.79998779297</ele>
        <time>2020-05-18T14:52:35.000Z</time>
      </trkpt>
      <trkpt lat="48.96999" lon="7.78468">
        <ele>456</ele>
        <time>2020-05-18T14:52:40.000Z</time>
      </trkpt>
      <trkpt lat="48.9699" lon="7.78452">
        <ele>455.60000610352</ele>
        <time>2020-05-18T14:52:44.000Z</time>
      </trkpt>
      <trkpt lat="48.96986" lon="7.78443">
        <ele>455.39999389648</ele>
        <time>2020-05-18T14:52:46.000Z</time>
      </trkpt>
      <trkpt lat="48.96984" lon="7.78439">
        <ele>455.39999389648</ele>
        <time>2020-05-18T14:52:47.000Z</time>
      </trkpt>
      <trkpt lat="48.96983" lon="7.78434">
        <ele>455.20001220703</ele>
        <time>2020-05-18T14:52:48.000Z</time>
      </trkpt>
      <trkpt lat="48.96974" lon="7.78409">
        <ele>455.20001220703</ele>
        <time>2020-05-18T14:52:53.000Z</time>
      </trkpt>
      <trkpt lat="48.96971" lon="7.78402">
        <ele>455.60000610352</ele>
        <time>2020-05-18T14:52:56.000Z</time>
      </trkpt>
      <trkpt lat="48.9697" lon="7.78398">
        <ele>455.60000610352</ele>
        <time>2020-05-18T14:52:57.000Z</time>
      </trkpt>
      <trkpt lat="48.96964" lon="7.78386">
        <ele>455.39999389648</ele>
        <time>2020-05-18T14:53:00.000Z</time>
      </trkpt>
      <trkpt lat="48.96961" lon="7.78378">
        <ele>455</ele>
        <time>2020-05-18T14:53:02.000Z</time>
      </trkpt>
      <trkpt lat="48.96958" lon="7.78354">
        <ele>455</ele>
        <time>2020-05-18T14:53:07.000Z</time>
      </trkpt>
      <trkpt lat="48.96961" lon="7.78329">
        <ele>454.79998779297</ele>
        <time>2020-05-18T14:53:12.000Z</time>
      </trkpt>
      <trkpt lat="48.96959" lon="7.7832">
        <ele>455</ele>
        <time>2020-05-18T14:53:16.000Z</time>
      </trkpt>
      <trkpt lat="48.96964" lon="7.78328">
        <ele>455.39999389648</ele>
        <time>2020-05-18T14:54:13.000Z</time>
      </trkpt>
      <trkpt lat="48.96965" lon="7.78331">
        <ele>455.39999389648</ele>
        <time>2020-05-18T14:54:14.000Z</time>
      </trkpt>
      <trkpt lat="48.96971" lon="7.7835">
        <ele>454.79998779297</ele>
        <time>2020-05-18T14:54:19.000Z</time>
      </trkpt>
      <trkpt lat="48.96973" lon="7.78353">
        <ele>454.79998779297</ele>
        <time>2020-05-18T14:54:20.000Z</time>
      </trkpt>
      <trkpt lat="48.96974" lon="7.78357">
        <ele>454.79998779297</ele>
        <time>2020-05-18T14:54:21.000Z</time>
      </trkpt>
      <trkpt lat="48.96977" lon="7.78367">
        <ele>455.60000610352</ele>
        <time>2020-05-18T14:54:24.000Z</time>
      </trkpt>
      <trkpt lat="48.96978" lon="7.7837">
        <ele>455.60000610352</ele>
        <time>2020-05-18T14:54:25.000Z</time>
      </trkpt>
      <trkpt lat="48.96979" lon="7.7838">
        <ele>455.60000610352</ele>
        <time>2020-05-18T14:54:28.000Z</time>
      </trkpt>
      <trkpt lat="48.96983" lon="7.78393">
        <ele>455.79998779297</ele>
        <time>2020-05-18T14:54:32.000Z</time>
      </trkpt>
      <trkpt lat="48.96984" lon="7.78395">
        <ele>456</ele>
        <time>2020-05-18T14:54:33.000Z</time>
      </trkpt>
      <trkpt lat="48.96988" lon="7.78397">
        <ele>456</ele>
        <time>2020-05-18T14:54:35.000Z</time>
      </trkpt>
      <trkpt lat="48.96992" lon="7.784">
        <ele>456.20001220703</ele>
        <time>2020-05-18T14:54:37.000Z</time>
      </trkpt>
      <trkpt lat="48.96995" lon="7.78401">
        <ele>456.20001220703</ele>
        <time>2020-05-18T14:54:38.000Z</time>
      </trkpt>
      <trkpt lat="48.97005" lon="7.78409">
        <ele>456</ele>
        <time>2020-05-18T14:54:42.000Z</time>
      </trkpt>
      <trkpt lat="48.97018" lon="7.78412">
        <ele>456.39999389648</ele>
        <time>2020-05-18T14:54:47.000Z</time>
      </trkpt>
      <trkpt lat="48.97025" lon="7.78412">
        <ele>456.20001220703</ele>
        <time>2020-05-18T14:54:51.000Z</time>
      </trkpt>
      <trkpt lat="48.97027" lon="7.78412">
        <ele>456.20001220703</ele>
        <time>2020-05-18T14:54:52.000Z</time>
      </trkpt>
      <trkpt lat="48.9703" lon="7.78413">
        <ele>455.79998779297</ele>
        <time>2020-05-18T14:54:54.000Z</time>
      </trkpt>
      <trkpt lat="48.97035" lon="7.78413">
        <ele>455.79998779297</ele>
        <time>2020-05-18T14:54:56.000Z</time>
      </trkpt>
      <trkpt lat="48.97039" lon="7.78413">
        <ele>456</ele>
        <time>2020-05-18T14:55:00.000Z</time>
      </trkpt>
      <trkpt lat="48.9704" lon="7.78412">
        <ele>455.39999389648</ele>
        <time>2020-05-18T14:55:28.000Z</time>
      </trkpt>
      <trkpt lat="48.97036" lon="7.78412">
        <ele>455.79998779297</ele>
        <time>2020-05-18T14:56:17.000Z</time>
      </trkpt>
      <trkpt lat="48.97035" lon="7.78412">
        <ele>456.20001220703</ele>
        <time>2020-05-18T14:56:21.000Z</time>
      </trkpt>
      <trkpt lat="48.97032" lon="7.78413">
        <ele>456.20001220703</ele>
        <time>2020-05-18T14:56:23.000Z</time>
      </trkpt>
      <trkpt lat="48.97023" lon="7.78412">
        <ele>456.39999389648</ele>
        <time>2020-05-18T14:56:28.000Z</time>
      </trkpt>
      <trkpt lat="48.97021" lon="7.78412">
        <ele>456.20001220703</ele>
        <time>2020-05-18T14:56:29.000Z</time>
      </trkpt>
      <trkpt lat="48.97009" lon="7.7841">
        <ele>456.20001220703</ele>
        <time>2020-05-18T14:56:34.000Z</time>
      </trkpt>
      <trkpt lat="48.96996" lon="7.78407">
        <ele>456</ele>
        <time>2020-05-18T14:56:40.000Z</time>
      </trkpt>
      <trkpt lat="48.96985" lon="7.784">
        <ele>456.20001220703</ele>
        <time>2020-05-18T14:56:45.000Z</time>
      </trkpt>
      <trkpt lat="48.96985" lon="7.78399">
        <ele>456.20001220703</ele>
        <time>2020-05-18T14:56:46.000Z</time>
      </trkpt>
      <trkpt lat="48.96984" lon="7.78394">
        <ele>455.79998779297</ele>
        <time>2020-05-18T14:56:49.000Z</time>
      </trkpt>
      <trkpt lat="48.96983" lon="7.78392">
        <ele>455.79998779297</ele>
        <time>2020-05-18T14:56:50.000Z</time>
      </trkpt>
      <trkpt lat="48.96979" lon="7.78383">
        <ele>456</ele>
        <time>2020-05-18T14:56:55.000Z</time>
      </trkpt>
      <trkpt lat="48.96979" lon="7.78381">
        <ele>455.79998779297</ele>
        <time>2020-05-18T14:57:05.000Z</time>
      </trkpt>
      <trkpt lat="48.96977" lon="7.78374">
        <ele>455.79998779297</ele>
        <time>2020-05-18T14:57:16.000Z</time>
      </trkpt>
      <trkpt lat="48.96977" lon="7.78371">
        <ele>455.60000610352</ele>
        <time>2020-05-18T14:57:17.000Z</time>
      </trkpt>
      <trkpt lat="48.96972" lon="7.7836">
        <ele>455</ele>
        <time>2020-05-18T14:57:20.000Z</time>
      </trkpt>
      <trkpt lat="48.9697" lon="7.78357">
        <ele>455</ele>
        <time>2020-05-18T14:57:21.000Z</time>
      </trkpt>
      <trkpt lat="48.96965" lon="7.78336">
        <ele>455</ele>
        <time>2020-05-18T14:57:26.000Z</time>
      </trkpt>
      <trkpt lat="48.96964" lon="7.78329">
        <ele>455</ele>
        <time>2020-05-18T14:57:28.000Z</time>
      </trkpt>
      <trkpt lat="48.96962" lon="7.78321">
        <ele>454.20001220703</ele>
        <time>2020-05-18T14:57:30.000Z</time>
      </trkpt>
      <trkpt lat="48.9696" lon="7.7831">
        <ele>453.79998779297</ele>
        <time>2020-05-18T14:57:32.000Z</time>
      </trkpt>
      <trkpt lat="48.96956" lon="7.78299">
        <ele>453.60000610352</ele>
        <time>2020-05-18T14:57:34.000Z</time>
      </trkpt>
      <trkpt lat="48.96947" lon="7.78272">
        <ele>453.20001220703</ele>
        <time>2020-05-18T14:57:39.000Z</time>
      </trkpt>
      <trkpt lat="48.96939" lon="7.78245">
        <ele>452.79998779297</ele>
        <time>2020-05-18T14:57:44.000Z</time>
      </trkpt>
      <trkpt lat="48.96931" lon="7.78224">
        <ele>452.39999389648</ele>
        <time>2020-05-18T14:57:47.000Z</time>
      </trkpt>
      <trkpt lat="48.96929" lon="7.78216">
        <ele>452.20001220703</ele>
        <time>2020-05-18T14:57:48.000Z</time>
      </trkpt>
      <trkpt lat="48.96922" lon="7.78195">
        <ele>452.20001220703</ele>
        <time>2020-05-18T14:57:51.000Z</time>
      </trkpt>
      <trkpt lat="48.96919" lon="7.78188">
        <ele>452.20001220703</ele>
        <time>2020-05-18T14:57:52.000Z</time>
      </trkpt>
      <trkpt lat="48.96914" lon="7.78175">
        <ele>451.79998779297</ele>
        <time>2020-05-18T14:57:54.000Z</time>
      </trkpt>
      <trkpt lat="48.96912" lon="7.78168">
        <ele>451.79998779297</ele>
        <time>2020-05-18T14:57:55.000Z</time>
      </trkpt>
      <trkpt lat="48.96909" lon="7.78156">
        <ele>451.60000610352</ele>
        <time>2020-05-18T14:57:57.000Z</time>
      </trkpt>
      <trkpt lat="48.96907" lon="7.7815">
        <ele>451.39999389648</ele>
        <time>2020-05-18T14:57:58.000Z</time>
      </trkpt>
      <trkpt lat="48.96898" lon="7.78124">
        <ele>451.20001220703</ele>
        <time>2020-05-18T14:58:02.000Z</time>
      </trkpt>
      <trkpt lat="48.96891" lon="7.78103">
        <ele>450.79998779297</ele>
        <time>2020-05-18T14:58:05.000Z</time>
      </trkpt>
      <trkpt lat="48.96885" lon="7.78085">
        <ele>450</ele>
        <time>2020-05-18T14:58:08.000Z</time>
      </trkpt>
      <trkpt lat="48.96883" lon="7.78079">
        <ele>449.79998779297</ele>
        <time>2020-05-18T14:58:09.000Z</time>
      </trkpt>
      <trkpt lat="48.96875" lon="7.78052">
        <ele>449.20001220703</ele>
        <time>2020-05-18T14:58:13.000Z</time>
      </trkpt>
      <trkpt lat="48.96871" lon="7.78035">
        <ele>449</ele>
        <time>2020-05-18T14:58:15.000Z</time>
      </trkpt>
      <trkpt lat="48.96866" lon="7.7802">
        <ele>448.79998779297</ele>
        <time>2020-05-18T14:58:17.000Z</time>
      </trkpt>
      <trkpt lat="48.96864" lon="7.78014">
        <ele>448.60000610352</ele>
        <time>2020-05-18T14:58:18.000Z</time>
      </trkpt>
      <trkpt lat="48.96856" lon="7.77987">
        <ele>448.60000610352</ele>
        <time>2020-05-18T14:58:22.000Z</time>
      </trkpt>
      <trkpt lat="48.96851" lon="7.77967">
        <ele>449.20001220703</ele>
        <time>2020-05-18T14:58:26.000Z</time>
      </trkpt>
      <trkpt lat="48.96851" lon="7.7796">
        <ele>449.39999389648</ele>
        <time>2020-05-18T14:58:28.000Z</time>
      </trkpt>
      <trkpt lat="48.96851" lon="7.77945">
        <ele>449</ele>
        <time>2020-05-18T14:58:31.000Z</time>
      </trkpt>
      <trkpt lat="48.96852" lon="7.77941">
        <ele>448.60000610352</ele>
        <time>2020-05-18T14:58:32.000Z</time>
      </trkpt>
      <trkpt lat="48.96858" lon="7.77929">
        <ele>447.79998779297</ele>
        <time>2020-05-18T14:58:35.000Z</time>
      </trkpt>
      <trkpt lat="48.96864" lon="7.7792">
        <ele>447.20001220703</ele>
        <time>2020-05-18T14:58:37.000Z</time>
      </trkpt>
      <trkpt lat="48.96869" lon="7.77908">
        <ele>446.79998779297</ele>
        <time>2020-05-18T14:58:39.000Z</time>
      </trkpt>
      <trkpt lat="48.96882" lon="7.77883">
        <ele>445.79998779297</ele>
        <time>2020-05-18T14:58:43.000Z</time>
      </trkpt>
      <trkpt lat="48.96891" lon="7.77869">
        <ele>444.39999389648</ele>
        <time>2020-05-18T14:58:45.000Z</time>
      </trkpt>
      <trkpt lat="48.96894" lon="7.77863">
        <ele>443.79998779297</ele>
        <time>2020-05-18T14:58:46.000Z</time>
      </trkpt>
      <trkpt lat="48.96897" lon="7.77856">
        <ele>443</ele>
        <time>2020-05-18T14:58:47.000Z</time>
      </trkpt>
      <trkpt lat="48.969" lon="7.7785">
        <ele>442.20001220703</ele>
        <time>2020-05-18T14:58:48.000Z</time>
      </trkpt>
      <trkpt lat="48.96901" lon="7.77844">
        <ele>441.39999389648</ele>
        <time>2020-05-18T14:58:49.000Z</time>
      </trkpt>
      <trkpt lat="48.96904" lon="7.77839">
        <ele>440.20001220703</ele>
        <time>2020-05-18T14:58:51.000Z</time>
      </trkpt>
      <trkpt lat="48.96912" lon="7.77825">
        <ele>439.60000610352</ele>
        <time>2020-05-18T14:58:55.000Z</time>
      </trkpt>
      <trkpt lat="48.96915" lon="7.7782">
        <ele>439</ele>
        <time>2020-05-18T14:58:56.000Z</time>
      </trkpt>
      <trkpt lat="48.96922" lon="7.77812">
        <ele>437.60000610352</ele>
        <time>2020-05-18T14:58:58.000Z</time>
      </trkpt>
      <trkpt lat="48.96924" lon="7.77808">
        <ele>437</ele>
        <time>2020-05-18T14:58:59.000Z</time>
      </trkpt>
      <trkpt lat="48.96926" lon="7.77802">
        <ele>436.20001220703</ele>
        <time>2020-05-18T14:59:00.000Z</time>
      </trkpt>
      <trkpt lat="48.9693" lon="7.77794">
        <ele>435.20001220703</ele>
        <time>2020-05-18T14:59:02.000Z</time>
      </trkpt>
      <trkpt lat="48.96931" lon="7.77792">
        <ele>434.20001220703</ele>
        <time>2020-05-18T14:59:03.000Z</time>
      </trkpt>
      <trkpt lat="48.96932" lon="7.77789">
        <ele>433</ele>
        <time>2020-05-18T14:59:05.000Z</time>
      </trkpt>
      <trkpt lat="48.96933" lon="7.77787">
        <ele>432.79998779297</ele>
        <time>2020-05-18T14:59:06.000Z</time>
      </trkpt>
      <trkpt lat="48.96937" lon="7.77782">
        <ele>432</ele>
        <time>2020-05-18T14:59:08.000Z</time>
      </trkpt>
      <trkpt lat="48.96943" lon="7.77774">
        <ele>431</ele>
        <time>2020-05-18T14:59:10.000Z</time>
      </trkpt>
      <trkpt lat="48.96946" lon="7.77769">
        <ele>429.79998779297</ele>
        <time>2020-05-18T14:59:11.000Z</time>
      </trkpt>
      <trkpt lat="48.96949" lon="7.77764">
        <ele>428.60000610352</ele>
        <time>2020-05-18T14:59:12.000Z</time>
      </trkpt>
      <trkpt lat="48.96951" lon="7.7776">
        <ele>426.79998779297</ele>
        <time>2020-05-18T14:59:13.000Z</time>
      </trkpt>
      <trkpt lat="48.96956" lon="7.77751">
        <ele>424.79998779297</ele>
        <time>2020-05-18T14:59:15.000Z</time>
      </trkpt>
      <trkpt lat="48.9696" lon="7.77746">
        <ele>423.79998779297</ele>
        <time>2020-05-18T14:59:16.000Z</time>
      </trkpt>
      <trkpt lat="48.96962" lon="7.77741">
        <ele>422.60000610352</ele>
        <time>2020-05-18T14:59:17.000Z</time>
      </trkpt>
      <trkpt lat="48.96966" lon="7.77734">
        <ele>421.39999389648</ele>
        <time>2020-05-18T14:59:19.000Z</time>
      </trkpt>
      <trkpt lat="48.96969" lon="7.7773">
        <ele>420.79998779297</ele>
        <time>2020-05-18T14:59:20.000Z</time>
      </trkpt>
      <trkpt lat="48.96972" lon="7.77727">
        <ele>420</ele>
        <time>2020-05-18T14:59:21.000Z</time>
      </trkpt>
      <trkpt lat="48.96977" lon="7.77721">
        <ele>418.79998779297</ele>
        <time>2020-05-18T14:59:23.000Z</time>
      </trkpt>
      <trkpt lat="48.96979" lon="7.77721">
        <ele>418.39999389648</ele>
        <time>2020-05-18T14:59:24.000Z</time>
      </trkpt>
      <trkpt lat="48.96982" lon="7.77722">
        <ele>417.79998779297</ele>
        <time>2020-05-18T14:59:26.000Z</time>
      </trkpt>
      <trkpt lat="48.96985" lon="7.77728">
        <ele>417.79998779297</ele>
        <time>2020-05-18T14:59:29.000Z</time>
      </trkpt>
      <trkpt lat="48.9699" lon="7.77733">
        <ele>418</ele>
        <time>2020-05-18T14:59:32.000Z</time>
      </trkpt>
      <trkpt lat="48.96994" lon="7.7774">
        <ele>418.20001220703</ele>
        <time>2020-05-18T14:59:35.000Z</time>
      </trkpt>
      <trkpt lat="48.97008" lon="7.77764">
        <ele>418</ele>
        <time>2020-05-18T14:59:42.000Z</time>
      </trkpt>
      <trkpt lat="48.97023" lon="7.77791">
        <ele>418.60000610352</ele>
        <time>2020-05-18T14:59:49.000Z</time>
      </trkpt>
      <trkpt lat="48.97033" lon="7.7782">
        <ele>417.79998779297</ele>
        <time>2020-05-18T14:59:55.000Z</time>
      </trkpt>
      <trkpt lat="48.97048" lon="7.77855">
        <ele>418</ele>
        <time>2020-05-18T15:00:02.000Z</time>
      </trkpt>
      <trkpt lat="48.97056" lon="7.77879">
        <ele>417.39999389648</ele>
        <time>2020-05-18T15:00:06.000Z</time>
      </trkpt>
      <trkpt lat="48.97058" lon="7.77885">
        <ele>417.39999389648</ele>
        <time>2020-05-18T15:00:07.000Z</time>
      </trkpt>
      <trkpt lat="48.97075" lon="7.77931">
        <ele>417</ele>
        <time>2020-05-18T15:00:14.000Z</time>
      </trkpt>
      <trkpt lat="48.97084" lon="7.77952">
        <ele>416.20001220703</ele>
        <time>2020-05-18T15:00:17.000Z</time>
      </trkpt>
      <trkpt lat="48.97088" lon="7.77959">
        <ele>416</ele>
        <time>2020-05-18T15:00:18.000Z</time>
      </trkpt>
      <trkpt lat="48.97092" lon="7.77965">
        <ele>415.60000610352</ele>
        <time>2020-05-18T15:00:19.000Z</time>
      </trkpt>
      <trkpt lat="48.97099" lon="7.77977">
        <ele>415.20001220703</ele>
        <time>2020-05-18T15:00:21.000Z</time>
      </trkpt>
      <trkpt lat="48.97109" lon="7.77996">
        <ele>415</ele>
        <time>2020-05-18T15:00:24.000Z</time>
      </trkpt>
      <trkpt lat="48.97119" lon="7.78012">
        <ele>415</ele>
        <time>2020-05-18T15:00:27.000Z</time>
      </trkpt>
      <trkpt lat="48.97122" lon="7.78017">
        <ele>415.20001220703</ele>
        <time>2020-05-18T15:00:28.000Z</time>
      </trkpt>
      <trkpt lat="48.9713" lon="7.78032">
        <ele>415.20001220703</ele>
        <time>2020-05-18T15:00:31.000Z</time>
      </trkpt>
      <trkpt lat="48.97133" lon="7.78037">
        <ele>415.20001220703</ele>
        <time>2020-05-18T15:00:32.000Z</time>
      </trkpt>
      <trkpt lat="48.97146" lon="7.78054">
        <ele>415.39999389648</ele>
        <time>2020-05-18T15:00:36.000Z</time>
      </trkpt>
      <trkpt lat="48.97149" lon="7.78059">
        <ele>415.39999389648</ele>
        <time>2020-05-18T15:00:37.000Z</time>
      </trkpt>
      <trkpt lat="48.97155" lon="7.78068">
        <ele>415.79998779297</ele>
        <time>2020-05-18T15:00:39.000Z</time>
      </trkpt>
      <trkpt lat="48.97163" lon="7.78082">
        <ele>415.60000610352</ele>
        <time>2020-05-18T15:00:42.000Z</time>
      </trkpt>
      <trkpt lat="48.97166" lon="7.78086">
        <ele>415.60000610352</ele>
        <time>2020-05-18T15:00:43.000Z</time>
      </trkpt>
      <trkpt lat="48.9718" lon="7.78107">
        <ele>415.60000610352</ele>
        <time>2020-05-18T15:00:48.000Z</time>
      </trkpt>
      <trkpt lat="48.97189" lon="7.78117">
        <ele>415.39999389648</ele>
        <time>2020-05-18T15:00:52.000Z</time>
      </trkpt>
      <trkpt lat="48.9719" lon="7.78118">
        <ele>416</ele>
        <time>2020-05-18T15:01:03.000Z</time>
      </trkpt>
      <trkpt lat="48.97194" lon="7.78121">
        <ele>415.39999389648</ele>
        <time>2020-05-18T15:01:22.000Z</time>
      </trkpt>
      <trkpt lat="48.97197" lon="7.78122">
        <ele>415.39999389648</ele>
        <time>2020-05-18T15:01:23.000Z</time>
      </trkpt>
      <trkpt lat="48.97203" lon="7.78127">
        <ele>414.60000610352</ele>
        <time>2020-05-18T15:01:25.000Z</time>
      </trkpt>
      <trkpt lat="48.97206" lon="7.78129">
        <ele>414.39999389648</ele>
        <time>2020-05-18T15:01:26.000Z</time>
      </trkpt>
      <trkpt lat="48.97211" lon="7.78135">
        <ele>413.60000610352</ele>
        <time>2020-05-18T15:01:28.000Z</time>
      </trkpt>
      <trkpt lat="48.97223" lon="7.78147">
        <ele>412.39999389648</ele>
        <time>2020-05-18T15:01:31.000Z</time>
      </trkpt>
      <trkpt lat="48.97227" lon="7.78152">
        <ele>412</ele>
        <time>2020-05-18T15:01:32.000Z</time>
      </trkpt>
      <trkpt lat="48.97231" lon="7.78157">
        <ele>410.79998779297</ele>
        <time>2020-05-18T15:01:33.000Z</time>
      </trkpt>
      <trkpt lat="48.97236" lon="7.78163">
        <ele>409.79998779297</ele>
        <time>2020-05-18T15:01:34.000Z</time>
      </trkpt>
      <trkpt lat="48.97241" lon="7.78168">
        <ele>409</ele>
        <time>2020-05-18T15:01:35.000Z</time>
      </trkpt>
      <trkpt lat="48.97246" lon="7.78174">
        <ele>408.60000610352</ele>
        <time>2020-05-18T15:01:36.000Z</time>
      </trkpt>
      <trkpt lat="48.9725" lon="7.7818">
        <ele>408.60000610352</ele>
        <time>2020-05-18T15:01:37.000Z</time>
      </trkpt>
      <trkpt lat="48.97274" lon="7.78211">
        <ele>407.60000610352</ele>
        <time>2020-05-18T15:01:42.000Z</time>
      </trkpt>
      <trkpt lat="48.97278" lon="7.78218">
        <ele>406.60000610352</ele>
        <time>2020-05-18T15:01:43.000Z</time>
      </trkpt>
      <trkpt lat="48.97282" lon="7.78224">
        <ele>405.79998779297</ele>
        <time>2020-05-18T15:01:44.000Z</time>
      </trkpt>
      <trkpt lat="48.97287" lon="7.7823">
        <ele>405.60000610352</ele>
        <time>2020-05-18T15:01:45.000Z</time>
      </trkpt>
      <trkpt lat="48.97294" lon="7.78239">
        <ele>405.60000610352</ele>
        <time>2020-05-18T15:01:47.000Z</time>
      </trkpt>
      <trkpt lat="48.97308" lon="7.78255">
        <ele>407</ele>
        <time>2020-05-18T15:01:51.000Z</time>
      </trkpt>
      <trkpt lat="48.97312" lon="7.7826">
        <ele>407.20001220703</ele>
        <time>2020-05-18T15:01:52.000Z</time>
      </trkpt>
      <trkpt lat="48.97329" lon="7.7828">
        <ele>406</ele>
        <time>2020-05-18T15:01:56.000Z</time>
      </trkpt>
      <trkpt lat="48.97334" lon="7.78284">
        <ele>405.60000610352</ele>
        <time>2020-05-18T15:01:57.000Z</time>
      </trkpt>
      <trkpt lat="48.97338" lon="7.78289">
        <ele>405.20001220703</ele>
        <time>2020-05-18T15:01:58.000Z</time>
      </trkpt>
      <trkpt lat="48.97348" lon="7.78301">
        <ele>404</ele>
        <time>2020-05-18T15:02:00.000Z</time>
      </trkpt>
      <trkpt lat="48.97359" lon="7.78314">
        <ele>402.79998779297</ele>
        <time>2020-05-18T15:02:02.000Z</time>
      </trkpt>
      <trkpt lat="48.97364" lon="7.7832">
        <ele>402.20001220703</ele>
        <time>2020-05-18T15:02:03.000Z</time>
      </trkpt>
      <trkpt lat="48.97369" lon="7.78326">
        <ele>401.39999389648</ele>
        <time>2020-05-18T15:02:04.000Z</time>
      </trkpt>
      <trkpt lat="48.97379" lon="7.78338">
        <ele>399.79998779297</ele>
        <time>2020-05-18T15:02:06.000Z</time>
      </trkpt>
      <trkpt lat="48.97383" lon="7.78343">
        <ele>398.79998779297</ele>
        <time>2020-05-18T15:02:07.000Z</time>
      </trkpt>
      <trkpt lat="48.97387" lon="7.78347">
        <ele>398.39999389648</ele>
        <time>2020-05-18T15:02:08.000Z</time>
      </trkpt>
      <trkpt lat="48.97392" lon="7.78351">
        <ele>398.20001220703</ele>
        <time>2020-05-18T15:02:11.000Z</time>
      </trkpt>
      <trkpt lat="48.97398" lon="7.78357">
        <ele>397.79998779297</ele>
        <time>2020-05-18T15:02:54.000Z</time>
      </trkpt>
      <trkpt lat="48.97402" lon="7.78362">
        <ele>397</ele>
        <time>2020-05-18T15:02:58.000Z</time>
      </trkpt>
      <trkpt lat="48.97404" lon="7.78364">
        <ele>396.79998779297</ele>
        <time>2020-05-18T15:02:59.000Z</time>
      </trkpt>
      <trkpt lat="48.97412" lon="7.78375">
        <ele>396</ele>
        <time>2020-05-18T15:03:03.000Z</time>
      </trkpt>
      <trkpt lat="48.97414" lon="7.78379">
        <ele>396</ele>
        <time>2020-05-18T15:03:04.000Z</time>
      </trkpt>
      <trkpt lat="48.97424" lon="7.78393">
        <ele>395.60000610352</ele>
        <time>2020-05-18T15:03:08.000Z</time>
      </trkpt>
      <trkpt lat="48.97435" lon="7.78407">
        <ele>394.79998779297</ele>
        <time>2020-05-18T15:03:12.000Z</time>
      </trkpt>
      <trkpt lat="48.97437" lon="7.78411">
        <ele>394.79998779297</ele>
        <time>2020-05-18T15:03:13.000Z</time>
      </trkpt>
      <trkpt lat="48.97447" lon="7.78428">
        <ele>394</ele>
        <time>2020-05-18T15:03:17.000Z</time>
      </trkpt>
      <trkpt lat="48.9745" lon="7.78435">
        <ele>393.79998779297</ele>
        <time>2020-05-18T15:03:18.000Z</time>
      </trkpt>
      <trkpt lat="48.97454" lon="7.78447">
        <ele>392.79998779297</ele>
        <time>2020-05-18T15:03:20.000Z</time>
      </trkpt>
      <trkpt lat="48.97456" lon="7.78454">
        <ele>392.39999389648</ele>
        <time>2020-05-18T15:03:21.000Z</time>
      </trkpt>
      <trkpt lat="48.97458" lon="7.78467">
        <ele>391.20001220703</ele>
        <time>2020-05-18T15:03:23.000Z</time>
      </trkpt>
      <trkpt lat="48.97458" lon="7.78474">
        <ele>390.79998779297</ele>
        <time>2020-05-18T15:03:24.000Z</time>
      </trkpt>
      <trkpt lat="48.97458" lon="7.78481">
        <ele>390.79998779297</ele>
        <time>2020-05-18T15:03:25.000Z</time>
      </trkpt>
      <trkpt lat="48.97457" lon="7.78488">
        <ele>390.79998779297</ele>
        <time>2020-05-18T15:03:26.000Z</time>
      </trkpt>
      <trkpt lat="48.9746" lon="7.78513">
        <ele>392</ele>
        <time>2020-05-18T15:03:31.000Z</time>
      </trkpt>
      <trkpt lat="48.9746" lon="7.78517">
        <ele>392.39999389648</ele>
        <time>2020-05-18T15:03:32.000Z</time>
      </trkpt>
      <trkpt lat="48.97458" lon="7.78532">
        <ele>393.39999389648</ele>
        <time>2020-05-18T15:03:36.000Z</time>
      </trkpt>
      <trkpt lat="48.97458" lon="7.78536">
        <ele>393.60000610352</ele>
        <time>2020-05-18T15:03:37.000Z</time>
      </trkpt>
      <trkpt lat="48.97457" lon="7.78544">
        <ele>394</ele>
        <time>2020-05-18T15:03:40.000Z</time>
      </trkpt>
      <trkpt lat="48.97457" lon="7.78549">
        <ele>394.60000610352</ele>
        <time>2020-05-18T15:03:42.000Z</time>
      </trkpt>
      <trkpt lat="48.97455" lon="7.78564">
        <ele>395.60000610352</ele>
        <time>2020-05-18T15:03:46.000Z</time>
      </trkpt>
      <trkpt lat="48.97455" lon="7.78567">
        <ele>395.60000610352</ele>
        <time>2020-05-18T15:03:47.000Z</time>
      </trkpt>
      <trkpt lat="48.97456" lon="7.78578">
        <ele>396.20001220703</ele>
        <time>2020-05-18T15:03:50.000Z</time>
      </trkpt>
      <trkpt lat="48.97458" lon="7.78591">
        <ele>396.60000610352</ele>
        <time>2020-05-18T15:03:54.000Z</time>
      </trkpt>
      <trkpt lat="48.97459" lon="7.78594">
        <ele>396.79998779297</ele>
        <time>2020-05-18T15:03:55.000Z</time>
      </trkpt>
      <trkpt lat="48.97461" lon="7.78615">
        <ele>397.60000610352</ele>
        <time>2020-05-18T15:04:01.000Z</time>
      </trkpt>
      <trkpt lat="48.97454" lon="7.78617">
        <ele>398.79998779297</ele>
        <time>2020-05-18T15:04:07.000Z</time>
      </trkpt>
      <trkpt lat="48.97454" lon="7.78617">
        <ele>399</ele>
        <time>2020-05-18T15:04:08.000Z</time>
      </trkpt>
      <trkpt lat="48.9745" lon="7.78611">
        <ele>400</ele>
        <time>2020-05-18T15:04:14.000Z</time>
      </trkpt>
      <trkpt lat="48.97444" lon="7.78612">
        <ele>401.20001220703</ele>
        <time>2020-05-18T15:04:18.000Z</time>
      </trkpt>
      <trkpt lat="48.97442" lon="7.78612">
        <ele>401.79998779297</ele>
        <time>2020-05-18T15:04:20.000Z</time>
      </trkpt>
      <trkpt lat="48.9744" lon="7.78613">
        <ele>402.79998779297</ele>
        <time>2020-05-18T15:04:22.000Z</time>
      </trkpt>
      <trkpt lat="48.97437" lon="7.78615">
        <ele>404.20001220703</ele>
        <time>2020-05-18T15:04:25.000Z</time>
      </trkpt>
      <trkpt lat="48.97436" lon="7.78616">
        <ele>404.60000610352</ele>
        <time>2020-05-18T15:04:27.000Z</time>
      </trkpt>
      <trkpt lat="48.97434" lon="7.78617">
        <ele>405.20001220703</ele>
        <time>2020-05-18T15:04:29.000Z</time>
      </trkpt>
      <trkpt lat="48.97431" lon="7.78618">
        <ele>406.39999389648</ele>
        <time>2020-05-18T15:04:32.000Z</time>
      </trkpt>
      <trkpt lat="48.97427" lon="7.7862">
        <ele>407.20001220703</ele>
        <time>2020-05-18T15:04:35.000Z</time>
      </trkpt>
      <trkpt lat="48.97426" lon="7.7862">
        <ele>407.60000610352</ele>
        <time>2020-05-18T15:04:36.000Z</time>
      </trkpt>
      <trkpt lat="48.97423" lon="7.78622">
        <ele>408.60000610352</ele>
        <time>2020-05-18T15:04:39.000Z</time>
      </trkpt>
      <trkpt lat="48.97422" lon="7.78623">
        <ele>409</ele>
        <time>2020-05-18T15:04:40.000Z</time>
      </trkpt>
      <trkpt lat="48.97419" lon="7.78625">
        <ele>409.60000610352</ele>
        <time>2020-05-18T15:04:43.000Z</time>
      </trkpt>
      <trkpt lat="48.97415" lon="7.78628">
        <ele>410.20001220703</ele>
        <time>2020-05-18T15:04:46.000Z</time>
      </trkpt>
      <trkpt lat="48.97414" lon="7.7863">
        <ele>410.79998779297</ele>
        <time>2020-05-18T15:04:47.000Z</time>
      </trkpt>
      <trkpt lat="48.97408" lon="7.78632">
        <ele>412</ele>
        <time>2020-05-18T15:04:51.000Z</time>
      </trkpt>
      <trkpt lat="48.97406" lon="7.78633">
        <ele>413</ele>
        <time>2020-05-18T15:04:54.000Z</time>
      </trkpt>
      <trkpt lat="48.97405" lon="7.78634">
        <ele>413.39999389648</ele>
        <time>2020-05-18T15:04:55.000Z</time>
      </trkpt>
      <trkpt lat="48.974" lon="7.7864">
        <ele>414.39999389648</ele>
        <time>2020-05-18T15:05:01.000Z</time>
      </trkpt>
      <trkpt lat="48.97399" lon="7.78641">
        <ele>414.60000610352</ele>
        <time>2020-05-18T15:05:02.000Z</time>
      </trkpt>
      <trkpt lat="48.97397" lon="7.78646">
        <ele>415.60000610352</ele>
        <time>2020-05-18T15:05:06.000Z</time>
      </trkpt>
      <trkpt lat="48.97396" lon="7.78647">
        <ele>416</ele>
        <time>2020-05-18T15:05:08.000Z</time>
      </trkpt>
      <trkpt lat="48.97394" lon="7.78648">
        <ele>416.60000610352</ele>
        <time>2020-05-18T15:05:10.000Z</time>
      </trkpt>
      <trkpt lat="48.97393" lon="7.78649">
        <ele>416.79998779297</ele>
        <time>2020-05-18T15:05:11.000Z</time>
      </trkpt>
      <trkpt lat="48.9739" lon="7.78653">
        <ele>418</ele>
        <time>2020-05-18T15:05:15.000Z</time>
      </trkpt>
      <trkpt lat="48.97389" lon="7.78655">
        <ele>418.39999389648</ele>
        <time>2020-05-18T15:05:17.000Z</time>
      </trkpt>
      <trkpt lat="48.97387" lon="7.78661">
        <ele>419.20001220703</ele>
        <time>2020-05-18T15:05:22.000Z</time>
      </trkpt>
      <trkpt lat="48.97385" lon="7.78664">
        <ele>419.79998779297</ele>
        <time>2020-05-18T15:05:24.000Z</time>
      </trkpt>
      <trkpt lat="48.97382" lon="7.78668">
        <ele>420.39999389648</ele>
        <time>2020-05-18T15:05:28.000Z</time>
      </trkpt>
      <trkpt lat="48.9738" lon="7.7867">
        <ele>420.79998779297</ele>
        <time>2020-05-18T15:05:30.000Z</time>
      </trkpt>
      <trkpt lat="48.97379" lon="7.78671">
        <ele>421</ele>
        <time>2020-05-18T15:05:31.000Z</time>
      </trkpt>
      <trkpt lat="48.97377" lon="7.78674">
        <ele>421.60000610352</ele>
        <time>2020-05-18T15:05:33.000Z</time>
      </trkpt>
      <trkpt lat="48.97374" lon="7.78678">
        <ele>422.20001220703</ele>
        <time>2020-05-18T15:05:37.000Z</time>
      </trkpt>
      <trkpt lat="48.97372" lon="7.78679">
        <ele>422.60000610352</ele>
        <time>2020-05-18T15:05:39.000Z</time>
      </trkpt>
      <trkpt lat="48.97369" lon="7.78685">
        <ele>423.60000610352</ele>
        <time>2020-05-18T15:05:44.000Z</time>
      </trkpt>
      <trkpt lat="48.97369" lon="7.78687">
        <ele>423.79998779297</ele>
        <time>2020-05-18T15:05:45.000Z</time>
      </trkpt>
      <trkpt lat="48.97366" lon="7.78693">
        <ele>424.79998779297</ele>
        <time>2020-05-18T15:05:50.000Z</time>
      </trkpt>
      <trkpt lat="48.97364" lon="7.78694">
        <ele>425</ele>
        <time>2020-05-18T15:05:51.000Z</time>
      </trkpt>
      <trkpt lat="48.9736" lon="7.787">
        <ele>425.79998779297</ele>
        <time>2020-05-18T15:05:55.000Z</time>
      </trkpt>
      <trkpt lat="48.97358" lon="7.78702">
        <ele>426</ele>
        <time>2020-05-18T15:05:57.000Z</time>
      </trkpt>
      <trkpt lat="48.97357" lon="7.78704">
        <ele>426.20001220703</ele>
        <time>2020-05-18T15:05:58.000Z</time>
      </trkpt>
      <trkpt lat="48.97356" lon="7.78705">
        <ele>426.39999389648</ele>
        <time>2020-05-18T15:05:59.000Z</time>
      </trkpt>
      <trkpt lat="48.97351" lon="7.7871">
        <ele>427</ele>
        <time>2020-05-18T15:06:03.000Z</time>
      </trkpt>
      <trkpt lat="48.9735" lon="7.78711">
        <ele>427.20001220703</ele>
        <time>2020-05-18T15:06:04.000Z</time>
      </trkpt>
      <trkpt lat="48.97345" lon="7.78716">
        <ele>428</ele>
        <time>2020-05-18T15:06:10.000Z</time>
      </trkpt>
      <trkpt lat="48.97344" lon="7.78716">
        <ele>428.20001220703</ele>
        <time>2020-05-18T15:06:11.000Z</time>
      </trkpt>
      <trkpt lat="48.97343" lon="7.78717">
        <ele>428.79998779297</ele>
        <time>2020-05-18T15:06:13.000Z</time>
      </trkpt>
      <trkpt lat="48.97339" lon="7.78722">
        <ele>429.60000610352</ele>
        <time>2020-05-18T15:06:17.000Z</time>
      </trkpt>
      <trkpt lat="48.97336" lon="7.78726">
        <ele>430.79998779297</ele>
        <time>2020-05-18T15:06:22.000Z</time>
      </trkpt>
      <trkpt lat="48.97335" lon="7.78729">
        <ele>431</ele>
        <time>2020-05-18T15:06:24.000Z</time>
      </trkpt>
      <trkpt lat="48.97342" lon="7.78742">
        <ele>431.20001220703</ele>
        <time>2020-05-18T15:06:32.000Z</time>
      </trkpt>
      <trkpt lat="48.97354" lon="7.78755">
        <ele>431</ele>
        <time>2020-05-18T15:06:39.000Z</time>
      </trkpt>
      <trkpt lat="48.97361" lon="7.78764">
        <ele>431.20001220703</ele>
        <time>2020-05-18T15:06:44.000Z</time>
      </trkpt>
      <trkpt lat="48.97367" lon="7.78771">
        <ele>431.79998779297</ele>
        <time>2020-05-18T15:06:48.000Z</time>
      </trkpt>
      <trkpt lat="48.97369" lon="7.78773">
        <ele>431.79998779297</ele>
        <time>2020-05-18T15:06:49.000Z</time>
      </trkpt>
      <trkpt lat="48.97375" lon="7.78782">
        <ele>432</ele>
        <time>2020-05-18T15:06:53.000Z</time>
      </trkpt>
      <trkpt lat="48.97386" lon="7.78793">
        <ele>432.39999389648</ele>
        <time>2020-05-18T15:06:59.000Z</time>
      </trkpt>
      <trkpt lat="48.97394" lon="7.78802">
        <ele>432.79998779297</ele>
        <time>2020-05-18T15:07:02.000Z</time>
      </trkpt>
      <trkpt lat="48.97402" lon="7.78813">
        <ele>433.39999389648</ele>
        <time>2020-05-18T15:07:06.000Z</time>
      </trkpt>
      <trkpt lat="48.97408" lon="7.78825">
        <ele>433.79998779297</ele>
        <time>2020-05-18T15:07:11.000Z</time>
      </trkpt>
      <trkpt lat="48.97415" lon="7.78841">
        <ele>434.79998779297</ele>
        <time>2020-05-18T15:07:18.000Z</time>
      </trkpt>
      <trkpt lat="48.97416" lon="7.78844">
        <ele>435</ele>
        <time>2020-05-18T15:07:19.000Z</time>
      </trkpt>
      <trkpt lat="48.9742" lon="7.78853">
        <ele>435.60000610352</ele>
        <time>2020-05-18T15:07:23.000Z</time>
      </trkpt>
      <trkpt lat="48.97423" lon="7.78859">
        <ele>436</ele>
        <time>2020-05-18T15:07:26.000Z</time>
      </trkpt>
      <trkpt lat="48.97424" lon="7.78862">
        <ele>436.60000610352</ele>
        <time>2020-05-18T15:07:28.000Z</time>
      </trkpt>
      <trkpt lat="48.97424" lon="7.78866">
        <ele>437.20001220703</ele>
        <time>2020-05-18T15:07:30.000Z</time>
      </trkpt>
      <trkpt lat="48.97429" lon="7.7888">
        <ele>438.20001220703</ele>
        <time>2020-05-18T15:07:35.000Z</time>
      </trkpt>
      <trkpt lat="48.9743" lon="7.78883">
        <ele>438.20001220703</ele>
        <time>2020-05-18T15:07:36.000Z</time>
      </trkpt>
      <trkpt lat="48.97432" lon="7.78888">
        <ele>438.60000610352</ele>
        <time>2020-05-18T15:07:38.000Z</time>
      </trkpt>
      <trkpt lat="48.97432" lon="7.7889">
        <ele>438.79998779297</ele>
        <time>2020-05-18T15:07:39.000Z</time>
      </trkpt>
      <trkpt lat="48.97434" lon="7.78896">
        <ele>439.20001220703</ele>
        <time>2020-05-18T15:07:41.000Z</time>
      </trkpt>
      <trkpt lat="48.97435" lon="7.78898">
        <ele>439.39999389648</ele>
        <time>2020-05-18T15:07:42.000Z</time>
      </trkpt>
      <trkpt lat="48.97437" lon="7.78905">
        <ele>439.79998779297</ele>
        <time>2020-05-18T15:07:45.000Z</time>
      </trkpt>
      <trkpt lat="48.97439" lon="7.78908">
        <ele>440.20001220703</ele>
        <time>2020-05-18T15:07:47.000Z</time>
      </trkpt>
      <trkpt lat="48.9744" lon="7.7891">
        <ele>440.20001220703</ele>
        <time>2020-05-18T15:07:48.000Z</time>
      </trkpt>
      <trkpt lat="48.97445" lon="7.78917">
        <ele>441</ele>
        <time>2020-05-18T15:07:52.000Z</time>
      </trkpt>
      <trkpt lat="48.97445" lon="7.78919">
        <ele>441.20001220703</ele>
        <time>2020-05-18T15:07:53.000Z</time>
      </trkpt>
      <trkpt lat="48.97449" lon="7.78925">
        <ele>441.60000610352</ele>
        <time>2020-05-18T15:07:56.000Z</time>
      </trkpt>
      <trkpt lat="48.97451" lon="7.78927">
        <ele>441.60000610352</ele>
        <time>2020-05-18T15:07:58.000Z</time>
      </trkpt>
      <trkpt lat="48.97457" lon="7.78934">
        <ele>442.20001220703</ele>
        <time>2020-05-18T15:08:02.000Z</time>
      </trkpt>
      <trkpt lat="48.97459" lon="7.78936">
        <ele>442.20001220703</ele>
        <time>2020-05-18T15:08:03.000Z</time>
      </trkpt>
      <trkpt lat="48.97478" lon="7.78953">
        <ele>441.79998779297</ele>
        <time>2020-05-18T15:08:09.000Z</time>
      </trkpt>
      <trkpt lat="48.97494" lon="7.78973">
        <ele>441</ele>
        <time>2020-05-18T15:08:15.000Z</time>
      </trkpt>
      <trkpt lat="48.97508" lon="7.78993">
        <ele>441.39999389648</ele>
        <time>2020-05-18T15:08:21.000Z</time>
      </trkpt>
      <trkpt lat="48.97517" lon="7.79009">
        <ele>441.20001220703</ele>
        <time>2020-05-18T15:08:26.000Z</time>
      </trkpt>
      <trkpt lat="48.97521" lon="7.79026">
        <ele>440.60000610352</ele>
        <time>2020-05-18T15:08:30.000Z</time>
      </trkpt>
      <trkpt lat="48.97524" lon="7.79033">
        <ele>440.20001220703</ele>
        <time>2020-05-18T15:08:33.000Z</time>
      </trkpt>
      <trkpt lat="48.97524" lon="7.79034">
        <ele>440</ele>
        <time>2020-05-18T15:08:35.000Z</time>
      </trkpt>
      <trkpt lat="48.97524" lon="7.79035">
        <ele>440.39999389648</ele>
        <time>2020-05-18T15:11:51.000Z</time>
      </trkpt>
      <trkpt lat="48.97522" lon="7.79035">
        <ele>440.39999389648</ele>
        <time>2020-05-18T15:11:54.000Z</time>
      </trkpt>
      <trkpt lat="48.97514" lon="7.79039">
        <ele>440.60000610352</ele>
        <time>2020-05-18T15:11:58.000Z</time>
      </trkpt>
      <trkpt lat="48.9751" lon="7.79041">
        <ele>440.79998779297</ele>
        <time>2020-05-18T15:12:00.000Z</time>
      </trkpt>
      <trkpt lat="48.97502" lon="7.79045">
        <ele>441.79998779297</ele>
        <time>2020-05-18T15:12:04.000Z</time>
      </trkpt>
      <trkpt lat="48.975" lon="7.79046">
        <ele>441.79998779297</ele>
        <time>2020-05-18T15:12:05.000Z</time>
      </trkpt>
      <trkpt lat="48.97492" lon="7.7905">
        <ele>442.79998779297</ele>
        <time>2020-05-18T15:12:09.000Z</time>
      </trkpt>
      <trkpt lat="48.9749" lon="7.7905">
        <ele>443</ele>
        <time>2020-05-18T15:12:10.000Z</time>
      </trkpt>
      <trkpt lat="48.97487" lon="7.79053">
        <ele>443.20001220703</ele>
        <time>2020-05-18T15:12:12.000Z</time>
      </trkpt>
      <trkpt lat="48.97484" lon="7.79058">
        <ele>443.20001220703</ele>
        <time>2020-05-18T15:12:14.000Z</time>
      </trkpt>
      <trkpt lat="48.97471" lon="7.79074">
        <ele>443.79998779297</ele>
        <time>2020-05-18T15:12:21.000Z</time>
      </trkpt>
      <trkpt lat="48.97469" lon="7.79076">
        <ele>444</ele>
        <time>2020-05-18T15:12:22.000Z</time>
      </trkpt>
      <trkpt lat="48.97458" lon="7.79086">
        <ele>445.20001220703</ele>
        <time>2020-05-18T15:12:27.000Z</time>
      </trkpt>
      <trkpt lat="48.97456" lon="7.79087">
        <ele>445.39999389648</ele>
        <time>2020-05-18T15:12:28.000Z</time>
      </trkpt>
      <trkpt lat="48.97453" lon="7.79092">
        <ele>446.20001220703</ele>
        <time>2020-05-18T15:12:31.000Z</time>
      </trkpt>
      <trkpt lat="48.97452" lon="7.79093">
        <ele>446.60000610352</ele>
        <time>2020-05-18T15:12:32.000Z</time>
      </trkpt>
      <trkpt lat="48.97444" lon="7.79099">
        <ele>447.39999389648</ele>
        <time>2020-05-18T15:12:37.000Z</time>
      </trkpt>
      <trkpt lat="48.97441" lon="7.79101">
        <ele>447.60000610352</ele>
        <time>2020-05-18T15:12:39.000Z</time>
      </trkpt>
      <trkpt lat="48.97435" lon="7.79107">
        <ele>448.39999389648</ele>
        <time>2020-05-18T15:12:44.000Z</time>
      </trkpt>
      <trkpt lat="48.97435" lon="7.79108">
        <ele>448.60000610352</ele>
        <time>2020-05-18T15:12:45.000Z</time>
      </trkpt>
      <trkpt lat="48.97431" lon="7.79113">
        <ele>449.60000610352</ele>
        <time>2020-05-18T15:12:49.000Z</time>
      </trkpt>
      <trkpt lat="48.9743" lon="7.79115">
        <ele>450</ele>
        <time>2020-05-18T15:12:50.000Z</time>
      </trkpt>
      <trkpt lat="48.97426" lon="7.79122">
        <ele>450.79998779297</ele>
        <time>2020-05-18T15:12:55.000Z</time>
      </trkpt>
      <trkpt lat="48.97422" lon="7.79128">
        <ele>451</ele>
        <time>2020-05-18T15:12:58.000Z</time>
      </trkpt>
      <trkpt lat="48.9742" lon="7.79133">
        <ele>451.60000610352</ele>
        <time>2020-05-18T15:13:00.000Z</time>
      </trkpt>
      <trkpt lat="48.97415" lon="7.79139">
        <ele>452.20001220703</ele>
        <time>2020-05-18T15:13:04.000Z</time>
      </trkpt>
      <trkpt lat="48.97413" lon="7.7914">
        <ele>452.39999389648</ele>
        <time>2020-05-18T15:13:05.000Z</time>
      </trkpt>
      <trkpt lat="48.9741" lon="7.79143">
        <ele>453.39999389648</ele>
        <time>2020-05-18T15:13:09.000Z</time>
      </trkpt>
      <trkpt lat="48.97409" lon="7.79146">
        <ele>453.60000610352</ele>
        <time>2020-05-18T15:13:11.000Z</time>
      </trkpt>
      <trkpt lat="48.97405" lon="7.79157">
        <ele>454.60000610352</ele>
        <time>2020-05-18T15:13:18.000Z</time>
      </trkpt>
      <trkpt lat="48.97404" lon="7.79158">
        <ele>454.60000610352</ele>
        <time>2020-05-18T15:13:19.000Z</time>
      </trkpt>
      <trkpt lat="48.97396" lon="7.79162">
        <ele>455.39999389648</ele>
        <time>2020-05-18T15:13:26.000Z</time>
      </trkpt>
      <trkpt lat="48.97394" lon="7.79165">
        <ele>455.60000610352</ele>
        <time>2020-05-18T15:13:28.000Z</time>
      </trkpt>
      <trkpt lat="48.97391" lon="7.79168">
        <ele>456</ele>
        <time>2020-05-18T15:13:32.000Z</time>
      </trkpt>
      <trkpt lat="48.97391" lon="7.79168">
        <ele>456</ele>
        <time>2020-05-18T15:13:39.000Z</time>
      </trkpt>
      <trkpt lat="48.97392" lon="7.79167">
        <ele>455.79998779297</ele>
        <time>2020-05-18T15:13:52.000Z</time>
      </trkpt>
      <trkpt lat="48.97392" lon="7.79164">
        <ele>456</ele>
        <time>2020-05-18T15:13:59.000Z</time>
      </trkpt>
      <trkpt lat="48.97393" lon="7.7916">
        <ele>455.60000610352</ele>
        <time>2020-05-18T15:14:07.000Z</time>
      </trkpt>
      <trkpt lat="48.97397" lon="7.79163">
        <ele>455.60000610352</ele>
        <time>2020-05-18T15:14:14.000Z</time>
      </trkpt>
      <trkpt lat="48.97402" lon="7.79159">
        <ele>455.20001220703</ele>
        <time>2020-05-18T15:14:20.000Z</time>
      </trkpt>
      <trkpt lat="48.97402" lon="7.79158">
        <ele>455</ele>
        <time>2020-05-18T15:14:21.000Z</time>
      </trkpt>
      <trkpt lat="48.97404" lon="7.79155">
        <ele>454.60000610352</ele>
        <time>2020-05-18T15:14:27.000Z</time>
      </trkpt>
      <trkpt lat="48.97405" lon="7.79152">
        <ele>454.20001220703</ele>
        <time>2020-05-18T15:14:32.000Z</time>
      </trkpt>
      <trkpt lat="48.97408" lon="7.79148">
        <ele>453.79998779297</ele>
        <time>2020-05-18T15:14:34.000Z</time>
      </trkpt>
      <trkpt lat="48.97413" lon="7.79142">
        <ele>453</ele>
        <time>2020-05-18T15:14:36.000Z</time>
      </trkpt>
      <trkpt lat="48.97418" lon="7.79133">
        <ele>452</ele>
        <time>2020-05-18T15:14:38.000Z</time>
      </trkpt>
      <trkpt lat="48.9742" lon="7.79129">
        <ele>451.20001220703</ele>
        <time>2020-05-18T15:14:39.000Z</time>
      </trkpt>
      <trkpt lat="48.97423" lon="7.79123">
        <ele>450.39999389648</ele>
        <time>2020-05-18T15:14:40.000Z</time>
      </trkpt>
      <trkpt lat="48.97429" lon="7.79112">
        <ele>449.20001220703</ele>
        <time>2020-05-18T15:14:42.000Z</time>
      </trkpt>
      <trkpt lat="48.97435" lon="7.79107">
        <ele>448.20001220703</ele>
        <time>2020-05-18T15:14:43.000Z</time>
      </trkpt>
      <trkpt lat="48.97441" lon="7.79103">
        <ele>447.20001220703</ele>
        <time>2020-05-18T15:14:44.000Z</time>
      </trkpt>
      <trkpt lat="48.97446" lon="7.79098">
        <ele>446.20001220703</ele>
        <time>2020-05-18T15:14:45.000Z</time>
      </trkpt>
      <trkpt lat="48.97452" lon="7.79093">
        <ele>445</ele>
        <time>2020-05-18T15:14:46.000Z</time>
      </trkpt>
      <trkpt lat="48.97459" lon="7.79086">
        <ele>443.79998779297</ele>
        <time>2020-05-18T15:14:47.000Z</time>
      </trkpt>
      <trkpt lat="48.9747" lon="7.79071">
        <ele>442.60000610352</ele>
        <time>2020-05-18T15:14:49.000Z</time>
      </trkpt>
      <trkpt lat="48.97485" lon="7.79062">
        <ele>441.79998779297</ele>
        <time>2020-05-18T15:14:52.000Z</time>
      </trkpt>
      <trkpt lat="48.97491" lon="7.79058">
        <ele>441.60000610352</ele>
        <time>2020-05-18T15:14:53.000Z</time>
      </trkpt>
      <trkpt lat="48.97498" lon="7.79054">
        <ele>441.20001220703</ele>
        <time>2020-05-18T15:14:54.000Z</time>
      </trkpt>
      <trkpt lat="48.97504" lon="7.79051">
        <ele>439.79998779297</ele>
        <time>2020-05-18T15:14:55.000Z</time>
      </trkpt>
      <trkpt lat="48.97517" lon="7.79049">
        <ele>438.60000610352</ele>
        <time>2020-05-18T15:14:57.000Z</time>
      </trkpt>
      <trkpt lat="48.97531" lon="7.79048">
        <ele>437</ele>
        <time>2020-05-18T15:14:59.000Z</time>
      </trkpt>
      <trkpt lat="48.97555" lon="7.79048">
        <ele>435.79998779297</ele>
        <time>2020-05-18T15:15:02.000Z</time>
      </trkpt>
      <trkpt lat="48.97571" lon="7.79048">
        <ele>436</ele>
        <time>2020-05-18T15:15:04.000Z</time>
      </trkpt>
      <trkpt lat="48.97595" lon="7.79049">
        <ele>434.60000610352</ele>
        <time>2020-05-18T15:15:07.000Z</time>
      </trkpt>
      <trkpt lat="48.97602" lon="7.79047">
        <ele>434</ele>
        <time>2020-05-18T15:15:08.000Z</time>
      </trkpt>
      <trkpt lat="48.97612" lon="7.79044">
        <ele>433.39999389648</ele>
        <time>2020-05-18T15:15:10.000Z</time>
      </trkpt>
      <trkpt lat="48.97616" lon="7.79041">
        <ele>433.39999389648</ele>
        <time>2020-05-18T15:15:11.000Z</time>
      </trkpt>
      <trkpt lat="48.9762" lon="7.79038">
        <ele>433.20001220703</ele>
        <time>2020-05-18T15:15:12.000Z</time>
      </trkpt>
      <trkpt lat="48.97628" lon="7.79028">
        <ele>431.60000610352</ele>
        <time>2020-05-18T15:15:14.000Z</time>
      </trkpt>
      <trkpt lat="48.97633" lon="7.79022">
        <ele>430</ele>
        <time>2020-05-18T15:15:15.000Z</time>
      </trkpt>
      <trkpt lat="48.97638" lon="7.79017">
        <ele>429</ele>
        <time>2020-05-18T15:15:16.000Z</time>
      </trkpt>
      <trkpt lat="48.97644" lon="7.79011">
        <ele>427.79998779297</ele>
        <time>2020-05-18T15:15:17.000Z</time>
      </trkpt>
      <trkpt lat="48.9765" lon="7.79006">
        <ele>426.79998779297</ele>
        <time>2020-05-18T15:15:18.000Z</time>
      </trkpt>
      <trkpt lat="48.97655" lon="7.79">
        <ele>425.39999389648</ele>
        <time>2020-05-18T15:15:19.000Z</time>
      </trkpt>
      <trkpt lat="48.9766" lon="7.78995">
        <ele>424.79998779297</ele>
        <time>2020-05-18T15:15:20.000Z</time>
      </trkpt>
      <trkpt lat="48.97665" lon="7.78989">
        <ele>423.79998779297</ele>
        <time>2020-05-18T15:15:21.000Z</time>
      </trkpt>
      <trkpt lat="48.97671" lon="7.78983">
        <ele>423</ele>
        <time>2020-05-18T15:15:22.000Z</time>
      </trkpt>
      <trkpt lat="48.97676" lon="7.78978">
        <ele>421.79998779297</ele>
        <time>2020-05-18T15:15:23.000Z</time>
      </trkpt>
      <trkpt lat="48.9768" lon="7.78973">
        <ele>419.60000610352</ele>
        <time>2020-05-18T15:15:24.000Z</time>
      </trkpt>
      <trkpt lat="48.97685" lon="7.78969">
        <ele>417.79998779297</ele>
        <time>2020-05-18T15:15:25.000Z</time>
      </trkpt>
      <trkpt lat="48.97689" lon="7.78965">
        <ele>416.39999389648</ele>
        <time>2020-05-18T15:15:26.000Z</time>
      </trkpt>
      <trkpt lat="48.97692" lon="7.78962">
        <ele>414.79998779297</ele>
        <time>2020-05-18T15:15:27.000Z</time>
      </trkpt>
      <trkpt lat="48.97699" lon="7.78958">
        <ele>413.20001220703</ele>
        <time>2020-05-18T15:15:29.000Z</time>
      </trkpt>
      <trkpt lat="48.97704" lon="7.78959">
        <ele>412.39999389648</ele>
        <time>2020-05-18T15:15:31.000Z</time>
      </trkpt>
      <trkpt lat="48.97707" lon="7.78962">
        <ele>411.79998779297</ele>
        <time>2020-05-18T15:15:32.000Z</time>
      </trkpt>
      <trkpt lat="48.9771" lon="7.78972">
        <ele>410.79998779297</ele>
        <time>2020-05-18T15:15:35.000Z</time>
      </trkpt>
      <trkpt lat="48.97712" lon="7.78979">
        <ele>410.79998779297</ele>
        <time>2020-05-18T15:15:37.000Z</time>
      </trkpt>
      <trkpt lat="48.97712" lon="7.78983">
        <ele>411</ele>
        <time>2020-05-18T15:15:38.000Z</time>
      </trkpt>
      <trkpt lat="48.97711" lon="7.78986">
        <ele>411</ele>
        <time>2020-05-18T15:15:39.000Z</time>
      </trkpt>
      <trkpt lat="48.97711" lon="7.7899">
        <ele>411.20001220703</ele>
        <time>2020-05-18T15:15:40.000Z</time>
      </trkpt>
      <trkpt lat="48.9771" lon="7.79003">
        <ele>411</ele>
        <time>2020-05-18T15:15:43.000Z</time>
      </trkpt>
      <trkpt lat="48.97707" lon="7.79025">
        <ele>410.79998779297</ele>
        <time>2020-05-18T15:15:47.000Z</time>
      </trkpt>
      <trkpt lat="48.97704" lon="7.79036">
        <ele>410.39999389648</ele>
        <time>2020-05-18T15:15:49.000Z</time>
      </trkpt>
      <trkpt lat="48.977" lon="7.7905">
        <ele>409.79998779297</ele>
        <time>2020-05-18T15:15:51.000Z</time>
      </trkpt>
      <trkpt lat="48.97698" lon="7.79058">
        <ele>409.60000610352</ele>
        <time>2020-05-18T15:15:52.000Z</time>
      </trkpt>
      <trkpt lat="48.97695" lon="7.79067">
        <ele>409.39999389648</ele>
        <time>2020-05-18T15:15:53.000Z</time>
      </trkpt>
      <trkpt lat="48.97689" lon="7.79082">
        <ele>408.39999389648</ele>
        <time>2020-05-18T15:15:55.000Z</time>
      </trkpt>
      <trkpt lat="48.97685" lon="7.79091">
        <ele>407</ele>
        <time>2020-05-18T15:15:56.000Z</time>
      </trkpt>
      <trkpt lat="48.97682" lon="7.791">
        <ele>406.39999389648</ele>
        <time>2020-05-18T15:15:57.000Z</time>
      </trkpt>
      <trkpt lat="48.97678" lon="7.79109">
        <ele>405.60000610352</ele>
        <time>2020-05-18T15:15:58.000Z</time>
      </trkpt>
      <trkpt lat="48.97673" lon="7.79117">
        <ele>404.39999389648</ele>
        <time>2020-05-18T15:15:59.000Z</time>
      </trkpt>
      <trkpt lat="48.97668" lon="7.79126">
        <ele>403</ele>
        <time>2020-05-18T15:16:00.000Z</time>
      </trkpt>
      <trkpt lat="48.97659" lon="7.7914">
        <ele>401.79998779297</ele>
        <time>2020-05-18T15:16:02.000Z</time>
      </trkpt>
      <trkpt lat="48.97655" lon="7.79145">
        <ele>401.39999389648</ele>
        <time>2020-05-18T15:16:03.000Z</time>
      </trkpt>
      <trkpt lat="48.97646" lon="7.79157">
        <ele>400.79998779297</ele>
        <time>2020-05-18T15:16:05.000Z</time>
      </trkpt>
      <trkpt lat="48.97641" lon="7.79163">
        <ele>400</ele>
        <time>2020-05-18T15:16:06.000Z</time>
      </trkpt>
      <trkpt lat="48.97637" lon="7.79166">
        <ele>399.20001220703</ele>
        <time>2020-05-18T15:16:07.000Z</time>
      </trkpt>
      <trkpt lat="48.97632" lon="7.79172">
        <ele>398.60000610352</ele>
        <time>2020-05-18T15:16:10.000Z</time>
      </trkpt>
      <trkpt lat="48.97625" lon="7.79184">
        <ele>398.20001220703</ele>
        <time>2020-05-18T15:16:20.000Z</time>
      </trkpt>
      <trkpt lat="48.97607" lon="7.79202">
        <ele>396.20001220703</ele>
        <time>2020-05-18T15:16:24.000Z</time>
      </trkpt>
      <trkpt lat="48.97602" lon="7.79208">
        <ele>394.79998779297</ele>
        <time>2020-05-18T15:16:25.000Z</time>
      </trkpt>
      <trkpt lat="48.97591" lon="7.79221">
        <ele>393.39999389648</ele>
        <time>2020-05-18T15:16:27.000Z</time>
      </trkpt>
      <trkpt lat="48.97586" lon="7.79229">
        <ele>392.39999389648</ele>
        <time>2020-05-18T15:16:28.000Z</time>
      </trkpt>
      <trkpt lat="48.97581" lon="7.79238">
        <ele>390.79998779297</ele>
        <time>2020-05-18T15:16:29.000Z</time>
      </trkpt>
      <trkpt lat="48.97576" lon="7.79248">
        <ele>390</ele>
        <time>2020-05-18T15:16:30.000Z</time>
      </trkpt>
      <trkpt lat="48.97572" lon="7.79257">
        <ele>389</ele>
        <time>2020-05-18T15:16:31.000Z</time>
      </trkpt>
      <trkpt lat="48.97564" lon="7.79277">
        <ele>387</ele>
        <time>2020-05-18T15:16:33.000Z</time>
      </trkpt>
      <trkpt lat="48.97557" lon="7.79295">
        <ele>386.20001220703</ele>
        <time>2020-05-18T15:16:35.000Z</time>
      </trkpt>
      <trkpt lat="48.97556" lon="7.79301">
        <ele>386.39999389648</ele>
        <time>2020-05-18T15:16:36.000Z</time>
      </trkpt>
      <trkpt lat="48.97559" lon="7.79304">
        <ele>386.39999389648</ele>
        <time>2020-05-18T15:16:39.000Z</time>
      </trkpt>
      <trkpt lat="48.97563" lon="7.79298">
        <ele>386.20001220703</ele>
        <time>2020-05-18T15:16:41.000Z</time>
      </trkpt>
      <trkpt lat="48.97565" lon="7.79295">
        <ele>386</ele>
        <time>2020-05-18T15:16:42.000Z</time>
      </trkpt>
      <trkpt lat="48.97567" lon="7.7929">
        <ele>386</ele>
        <time>2020-05-18T15:16:43.000Z</time>
      </trkpt>
      <trkpt lat="48.97585" lon="7.79266">
        <ele>385.20001220703</ele>
        <time>2020-05-18T15:16:49.000Z</time>
      </trkpt>
      <trkpt lat="48.97589" lon="7.79263">
        <ele>385.20001220703</ele>
        <time>2020-05-18T15:16:50.000Z</time>
      </trkpt>
      <trkpt lat="48.97601" lon="7.79253">
        <ele>384.79998779297</ele>
        <time>2020-05-18T15:16:53.000Z</time>
      </trkpt>
      <trkpt lat="48.97606" lon="7.7925">
        <ele>384.60000610352</ele>
        <time>2020-05-18T15:16:54.000Z</time>
      </trkpt>
      <trkpt lat="48.97619" lon="7.79243">
        <ele>384</ele>
        <time>2020-05-18T15:16:56.000Z</time>
      </trkpt>
      <trkpt lat="48.97626" lon="7.7924">
        <ele>383.20001220703</ele>
        <time>2020-05-18T15:16:57.000Z</time>
      </trkpt>
      <trkpt lat="48.97634" lon="7.79237">
        <ele>382</ele>
        <time>2020-05-18T15:16:58.000Z</time>
      </trkpt>
      <trkpt lat="48.97643" lon="7.79235">
        <ele>380.60000610352</ele>
        <time>2020-05-18T15:16:59.000Z</time>
      </trkpt>
      <trkpt lat="48.97653" lon="7.79233">
        <ele>379</ele>
        <time>2020-05-18T15:17:00.000Z</time>
      </trkpt>
      <trkpt lat="48.97661" lon="7.79231">
        <ele>377.60000610352</ele>
        <time>2020-05-18T15:17:01.000Z</time>
      </trkpt>
      <trkpt lat="48.9767" lon="7.79228">
        <ele>376.60000610352</ele>
        <time>2020-05-18T15:17:02.000Z</time>
      </trkpt>
      <trkpt lat="48.97678" lon="7.79225">
        <ele>374</ele>
        <time>2020-05-18T15:17:03.000Z</time>
      </trkpt>
      <trkpt lat="48.97686" lon="7.79222">
        <ele>372.60000610352</ele>
        <time>2020-05-18T15:17:04.000Z</time>
      </trkpt>
      <trkpt lat="48.97693" lon="7.79218">
        <ele>371.60000610352</ele>
        <time>2020-05-18T15:17:05.000Z</time>
      </trkpt>
      <trkpt lat="48.97707" lon="7.79211">
        <ele>370.20001220703</ele>
        <time>2020-05-18T15:17:07.000Z</time>
      </trkpt>
      <trkpt lat="48.97714" lon="7.79208">
        <ele>369.39999389648</ele>
        <time>2020-05-18T15:17:08.000Z</time>
      </trkpt>
      <trkpt lat="48.97721" lon="7.79204">
        <ele>368.39999389648</ele>
        <time>2020-05-18T15:17:09.000Z</time>
      </trkpt>
      <trkpt lat="48.97728" lon="7.79199">
        <ele>367.60000610352</ele>
        <time>2020-05-18T15:17:10.000Z</time>
      </trkpt>
      <trkpt lat="48.97735" lon="7.79194">
        <ele>365.60000610352</ele>
        <time>2020-05-18T15:17:11.000Z</time>
      </trkpt>
      <trkpt lat="48.97741" lon="7.79187">
        <ele>363.79998779297</ele>
        <time>2020-05-18T15:17:12.000Z</time>
      </trkpt>
      <trkpt lat="48.97747" lon="7.79181">
        <ele>362</ele>
        <time>2020-05-18T15:17:13.000Z</time>
      </trkpt>
      <trkpt lat="48.97753" lon="7.79173">
        <ele>360.60000610352</ele>
        <time>2020-05-18T15:17:14.000Z</time>
      </trkpt>
      <trkpt lat="48.97764" lon="7.79157">
        <ele>359.39999389648</ele>
        <time>2020-05-18T15:17:16.000Z</time>
      </trkpt>
      <trkpt lat="48.97775" lon="7.79142">
        <ele>358.79998779297</ele>
        <time>2020-05-18T15:17:18.000Z</time>
      </trkpt>
      <trkpt lat="48.97781" lon="7.79133">
        <ele>358.20001220703</ele>
        <time>2020-05-18T15:17:19.000Z</time>
      </trkpt>
      <trkpt lat="48.97791" lon="7.79114">
        <ele>356.79998779297</ele>
        <time>2020-05-18T15:17:21.000Z</time>
      </trkpt>
      <trkpt lat="48.978" lon="7.79094">
        <ele>355.60000610352</ele>
        <time>2020-05-18T15:17:23.000Z</time>
      </trkpt>
      <trkpt lat="48.97808" lon="7.79073">
        <ele>354.60000610352</ele>
        <time>2020-05-18T15:17:25.000Z</time>
      </trkpt>
      <trkpt lat="48.97812" lon="7.79063">
        <ele>354.20001220703</ele>
        <time>2020-05-18T15:17:26.000Z</time>
      </trkpt>
      <trkpt lat="48.97817" lon="7.79052">
        <ele>353.60000610352</ele>
        <time>2020-05-18T15:17:27.000Z</time>
      </trkpt>
      <trkpt lat="48.97824" lon="7.79033">
        <ele>352.79998779297</ele>
        <time>2020-05-18T15:17:29.000Z</time>
      </trkpt>
      <trkpt lat="48.97827" lon="7.79026">
        <ele>353</ele>
        <time>2020-05-18T15:17:30.000Z</time>
      </trkpt>
      <trkpt lat="48.97831" lon="7.7902">
        <ele>352.20001220703</ele>
        <time>2020-05-18T15:17:32.000Z</time>
      </trkpt>
      <trkpt lat="48.97833" lon="7.79016">
        <ele>351.79998779297</ele>
        <time>2020-05-18T15:17:33.000Z</time>
      </trkpt>
      <trkpt lat="48.97835" lon="7.79012">
        <ele>352</ele>
        <time>2020-05-18T15:17:34.000Z</time>
      </trkpt>
      <trkpt lat="48.97838" lon="7.79009">
        <ele>351.20001220703</ele>
        <time>2020-05-18T15:17:36.000Z</time>
      </trkpt>
      <trkpt lat="48.97838" lon="7.79008">
        <ele>350.60000610352</ele>
        <time>2020-05-18T15:17:38.000Z</time>
      </trkpt>
      <trkpt lat="48.97839" lon="7.79007">
        <ele>350.20001220703</ele>
        <time>2020-05-18T15:17:39.000Z</time>
      </trkpt>
      <trkpt lat="48.97844" lon="7.79005">
        <ele>349</ele>
        <time>2020-05-18T15:17:42.000Z</time>
      </trkpt>
      <trkpt lat="48.97847" lon="7.79005">
        <ele>348.20001220703</ele>
        <time>2020-05-18T15:17:43.000Z</time>
      </trkpt>
      <trkpt lat="48.97851" lon="7.79005">
        <ele>346.79998779297</ele>
        <time>2020-05-18T15:17:44.000Z</time>
      </trkpt>
      <trkpt lat="48.97855" lon="7.79004">
        <ele>345.60000610352</ele>
        <time>2020-05-18T15:17:45.000Z</time>
      </trkpt>
      <trkpt lat="48.97858" lon="7.79004">
        <ele>344</ele>
        <time>2020-05-18T15:17:46.000Z</time>
      </trkpt>
      <trkpt lat="48.97861" lon="7.79003">
        <ele>342.39999389648</ele>
        <time>2020-05-18T15:17:47.000Z</time>
      </trkpt>
      <trkpt lat="48.97864" lon="7.79001">
        <ele>341.39999389648</ele>
        <time>2020-05-18T15:17:48.000Z</time>
      </trkpt>
      <trkpt lat="48.97868" lon="7.78999">
        <ele>340.20001220703</ele>
        <time>2020-05-18T15:17:49.000Z</time>
      </trkpt>
      <trkpt lat="48.97877" lon="7.78993">
        <ele>337.60000610352</ele>
        <time>2020-05-18T15:17:51.000Z</time>
      </trkpt>
      <trkpt lat="48.97881" lon="7.7899">
        <ele>336.20001220703</ele>
        <time>2020-05-18T15:17:52.000Z</time>
      </trkpt>
      <trkpt lat="48.97885" lon="7.78989">
        <ele>334.79998779297</ele>
        <time>2020-05-18T15:17:53.000Z</time>
      </trkpt>
      <trkpt lat="48.97888" lon="7.78988">
        <ele>333.39999389648</ele>
        <time>2020-05-18T15:17:54.000Z</time>
      </trkpt>
      <trkpt lat="48.9789" lon="7.78987">
        <ele>332.20001220703</ele>
        <time>2020-05-18T15:17:55.000Z</time>
      </trkpt>
      <trkpt lat="48.97897" lon="7.78987">
        <ele>331</ele>
        <time>2020-05-18T15:17:57.000Z</time>
      </trkpt>
      <trkpt lat="48.97904" lon="7.78987">
        <ele>329</ele>
        <time>2020-05-18T15:17:59.000Z</time>
      </trkpt>
      <trkpt lat="48.97907" lon="7.78988">
        <ele>328</ele>
        <time>2020-05-18T15:18:00.000Z</time>
      </trkpt>
      <trkpt lat="48.9791" lon="7.78989">
        <ele>327</ele>
        <time>2020-05-18T15:18:01.000Z</time>
      </trkpt>
      <trkpt lat="48.97912" lon="7.78991">
        <ele>326</ele>
        <time>2020-05-18T15:18:03.000Z</time>
      </trkpt>
      <trkpt lat="48.97913" lon="7.78991">
        <ele>325.60000610352</ele>
        <time>2020-05-18T15:18:04.000Z</time>
      </trkpt>
      <trkpt lat="48.97915" lon="7.78992">
        <ele>325</ele>
        <time>2020-05-18T15:18:08.000Z</time>
      </trkpt>
      <trkpt lat="48.97917" lon="7.78993">
        <ele>325</ele>
        <time>2020-05-18T15:18:14.000Z</time>
      </trkpt>
      <trkpt lat="48.9792" lon="7.78999">
        <ele>324.39999389648</ele>
        <time>2020-05-18T15:18:16.000Z</time>
      </trkpt>
      <trkpt lat="48.97922" lon="7.79003">
        <ele>323.79998779297</ele>
        <time>2020-05-18T15:18:17.000Z</time>
      </trkpt>
      <trkpt lat="48.97925" lon="7.79011">
        <ele>323.20001220703</ele>
        <time>2020-05-18T15:18:20.000Z</time>
      </trkpt>
      <trkpt lat="48.97924" lon="7.79013">
        <ele>323.20001220703</ele>
        <time>2020-05-18T15:18:21.000Z</time>
      </trkpt>
      <trkpt lat="48.97923" lon="7.79025">
        <ele>323.39999389648</ele>
        <time>2020-05-18T15:18:25.000Z</time>
      </trkpt>
      <trkpt lat="48.9792" lon="7.79041">
        <ele>323.39999389648</ele>
        <time>2020-05-18T15:18:29.000Z</time>
      </trkpt>
      <trkpt lat="48.97918" lon="7.79054">
        <ele>323.39999389648</ele>
        <time>2020-05-18T15:18:32.000Z</time>
      </trkpt>
      <trkpt lat="48.97915" lon="7.79071">
        <ele>323.39999389648</ele>
        <time>2020-05-18T15:18:36.000Z</time>
      </trkpt>
      <trkpt lat="48.97914" lon="7.79074">
        <ele>323.39999389648</ele>
        <time>2020-05-18T15:18:37.000Z</time>
      </trkpt>
      <trkpt lat="48.97912" lon="7.79083">
        <ele>323.79998779297</ele>
        <time>2020-05-18T15:18:40.000Z</time>
      </trkpt>
      <trkpt lat="48.97909" lon="7.79092">
        <ele>324</ele>
        <time>2020-05-18T15:18:42.000Z</time>
      </trkpt>
      <trkpt lat="48.97906" lon="7.79106">
        <ele>324.39999389648</ele>
        <time>2020-05-18T15:18:45.000Z</time>
      </trkpt>
      <trkpt lat="48.97906" lon="7.79118">
        <ele>324.79998779297</ele>
        <time>2020-05-18T15:18:50.000Z</time>
      </trkpt>
      <trkpt lat="48.97904" lon="7.79124">
        <ele>324.60000610352</ele>
        <time>2020-05-18T15:18:59.000Z</time>
      </trkpt>
      <trkpt lat="48.97903" lon="7.79127">
        <ele>324.60000610352</ele>
        <time>2020-05-18T15:19:00.000Z</time>
      </trkpt>
      <trkpt lat="48.97895" lon="7.79145">
        <ele>324.39999389648</ele>
        <time>2020-05-18T15:19:06.000Z</time>
      </trkpt>
      <trkpt lat="48.97892" lon="7.79155">
        <ele>324</ele>
        <time>2020-05-18T15:19:09.000Z</time>
      </trkpt>
      <trkpt lat="48.97891" lon="7.79158">
        <ele>324</ele>
        <time>2020-05-18T15:19:10.000Z</time>
      </trkpt>
      <trkpt lat="48.9789" lon="7.7917">
        <ele>323.60000610352</ele>
        <time>2020-05-18T15:19:14.000Z</time>
      </trkpt>
      <trkpt lat="48.97891" lon="7.79173">
        <ele>323.60000610352</ele>
        <time>2020-05-18T15:19:15.000Z</time>
      </trkpt>
      <trkpt lat="48.97895" lon="7.79185">
        <ele>324</ele>
        <time>2020-05-18T15:19:19.000Z</time>
      </trkpt>
      <trkpt lat="48.97898" lon="7.79191">
        <ele>324.60000610352</ele>
        <time>2020-05-18T15:19:22.000Z</time>
      </trkpt>
      <trkpt lat="48.979" lon="7.79195">
        <ele>325</ele>
        <time>2020-05-18T15:19:24.000Z</time>
      </trkpt>
      <trkpt lat="48.97903" lon="7.79199">
        <ele>325.60000610352</ele>
        <time>2020-05-18T15:19:26.000Z</time>
      </trkpt>
      <trkpt lat="48.97908" lon="7.79208">
        <ele>326.39999389648</ele>
        <time>2020-05-18T15:19:30.000Z</time>
      </trkpt>
      <trkpt lat="48.9791" lon="7.79213">
        <ele>326.79998779297</ele>
        <time>2020-05-18T15:19:32.000Z</time>
      </trkpt>
      <trkpt lat="48.97912" lon="7.79218">
        <ele>327.20001220703</ele>
        <time>2020-05-18T15:19:34.000Z</time>
      </trkpt>
      <trkpt lat="48.97914" lon="7.79222">
        <ele>327.79998779297</ele>
        <time>2020-05-18T15:19:36.000Z</time>
      </trkpt>
      <trkpt lat="48.97919" lon="7.7923">
        <ele>328.60000610352</ele>
        <time>2020-05-18T15:19:40.000Z</time>
      </trkpt>
      <trkpt lat="48.97923" lon="7.79233">
        <ele>329</ele>
        <time>2020-05-18T15:19:42.000Z</time>
      </trkpt>
      <trkpt lat="48.97928" lon="7.79237">
        <ele>329.79998779297</ele>
        <time>2020-05-18T15:19:46.000Z</time>
      </trkpt>
      <trkpt lat="48.97932" lon="7.79237">
        <ele>330.20001220703</ele>
        <time>2020-05-18T15:19:48.000Z</time>
      </trkpt>
      <trkpt lat="48.97934" lon="7.79236">
        <ele>330.39999389648</ele>
        <time>2020-05-18T15:19:50.000Z</time>
      </trkpt>
      <trkpt lat="48.9794" lon="7.79231">
        <ele>330.39999389648</ele>
        <time>2020-05-18T15:19:53.000Z</time>
      </trkpt>
      <trkpt lat="48.97943" lon="7.7923">
        <ele>330.39999389648</ele>
        <time>2020-05-18T15:19:54.000Z</time>
      </trkpt>
      <trkpt lat="48.97958" lon="7.79221">
        <ele>329.20001220703</ele>
        <time>2020-05-18T15:19:59.000Z</time>
      </trkpt>
      <trkpt lat="48.97974" lon="7.79214">
        <ele>328.20001220703</ele>
        <time>2020-05-18T15:20:04.000Z</time>
      </trkpt>
      <trkpt lat="48.97988" lon="7.79203">
        <ele>327</ele>
        <time>2020-05-18T15:20:08.000Z</time>
      </trkpt>
      <trkpt lat="48.97992" lon="7.79201">
        <ele>326.79998779297</ele>
        <time>2020-05-18T15:20:09.000Z</time>
      </trkpt>
      <trkpt lat="48.98007" lon="7.79193">
        <ele>326</ele>
        <time>2020-05-18T15:20:13.000Z</time>
      </trkpt>
      <trkpt lat="48.98017" lon="7.79193">
        <ele>324.79998779297</ele>
        <time>2020-05-18T15:20:15.000Z</time>
      </trkpt>
      <trkpt lat="48.98026" lon="7.79194">
        <ele>324.39999389648</ele>
        <time>2020-05-18T15:20:17.000Z</time>
      </trkpt>
      <trkpt lat="48.98035" lon="7.79198">
        <ele>324</ele>
        <time>2020-05-18T15:20:19.000Z</time>
      </trkpt>
      <trkpt lat="48.98039" lon="7.79201">
        <ele>323.60000610352</ele>
        <time>2020-05-18T15:20:20.000Z</time>
      </trkpt>
      <trkpt lat="48.98057" lon="7.79217">
        <ele>322.60000610352</ele>
        <time>2020-05-18T15:20:23.000Z</time>
      </trkpt>
      <trkpt lat="48.98063" lon="7.79222">
        <ele>322.60000610352</ele>
        <time>2020-05-18T15:20:24.000Z</time>
      </trkpt>
      <trkpt lat="48.98069" lon="7.79228">
        <ele>322.60000610352</ele>
        <time>2020-05-18T15:20:25.000Z</time>
      </trkpt>
      <trkpt lat="48.98083" lon="7.79241">
        <ele>321.39999389648</ele>
        <time>2020-05-18T15:20:28.000Z</time>
      </trkpt>
      <trkpt lat="48.98098" lon="7.79251">
        <ele>320.39999389648</ele>
        <time>2020-05-18T15:20:32.000Z</time>
      </trkpt>
      <trkpt lat="48.98103" lon="7.79252">
        <ele>320.39999389648</ele>
        <time>2020-05-18T15:20:34.000Z</time>
      </trkpt>
      <trkpt lat="48.98106" lon="7.79254">
        <ele>320.20001220703</ele>
        <time>2020-05-18T15:20:36.000Z</time>
      </trkpt>
      <trkpt lat="48.98106" lon="7.79255">
        <ele>320</ele>
        <time>2020-05-18T15:20:37.000Z</time>
      </trkpt>
      <trkpt lat="48.98104" lon="7.79258">
        <ele>320</ele>
        <time>2020-05-18T15:20:40.000Z</time>
      </trkpt>
      <trkpt lat="48.98103" lon="7.7926">
        <ele>320.79998779297</ele>
        <time>2020-05-18T15:20:42.000Z</time>
      </trkpt>
      <trkpt lat="48.98102" lon="7.79261">
        <ele>321.20001220703</ele>
        <time>2020-05-18T15:20:43.000Z</time>
      </trkpt>
      <trkpt lat="48.98099" lon="7.79262">
        <ele>322.20001220703</ele>
        <time>2020-05-18T15:20:46.000Z</time>
      </trkpt>
      <trkpt lat="48.98096" lon="7.79262">
        <ele>323.20001220703</ele>
        <time>2020-05-18T15:20:50.000Z</time>
      </trkpt>
      <trkpt lat="48.98092" lon="7.79262">
        <ele>324.39999389648</ele>
        <time>2020-05-18T15:20:54.000Z</time>
      </trkpt>
      <trkpt lat="48.98091" lon="7.79262">
        <ele>324.79998779297</ele>
        <time>2020-05-18T15:20:55.000Z</time>
      </trkpt>
      <trkpt lat="48.9809" lon="7.79261">
        <ele>325</ele>
        <time>2020-05-18T15:20:56.000Z</time>
      </trkpt>
      <trkpt lat="48.98088" lon="7.79262">
        <ele>325.60000610352</ele>
        <time>2020-05-18T15:20:58.000Z</time>
      </trkpt>
      <trkpt lat="48.98085" lon="7.79261">
        <ele>326.39999389648</ele>
        <time>2020-05-18T15:21:01.000Z</time>
      </trkpt>
      <trkpt lat="48.98084" lon="7.79261">
        <ele>326.79998779297</ele>
        <time>2020-05-18T15:21:02.000Z</time>
      </trkpt>
      <trkpt lat="48.98081" lon="7.7926">
        <ele>327.79998779297</ele>
        <time>2020-05-18T15:21:06.000Z</time>
      </trkpt>
      <trkpt lat="48.9808" lon="7.7926">
        <ele>328</ele>
        <time>2020-05-18T15:21:07.000Z</time>
      </trkpt>
      <trkpt lat="48.98078" lon="7.79259">
        <ele>328.79998779297</ele>
        <time>2020-05-18T15:21:10.000Z</time>
      </trkpt>
      <trkpt lat="48.98074" lon="7.79258">
        <ele>330</ele>
        <time>2020-05-18T15:21:14.000Z</time>
      </trkpt>
      <trkpt lat="48.98066" lon="7.79256">
        <ele>331</ele>
        <time>2020-05-18T15:21:19.000Z</time>
      </trkpt>
      <trkpt lat="48.98061" lon="7.79256">
        <ele>331.79998779297</ele>
        <time>2020-05-18T15:21:22.000Z</time>
      </trkpt>
      <trkpt lat="48.9806" lon="7.79255">
        <ele>332</ele>
        <time>2020-05-18T15:21:23.000Z</time>
      </trkpt>
      <trkpt lat="48.98054" lon="7.79255">
        <ele>333.20001220703</ele>
        <time>2020-05-18T15:21:28.000Z</time>
      </trkpt>
      <trkpt lat="48.98052" lon="7.79255">
        <ele>333.60000610352</ele>
        <time>2020-05-18T15:21:30.000Z</time>
      </trkpt>
      <trkpt lat="48.98049" lon="7.79256">
        <ele>334.20001220703</ele>
        <time>2020-05-18T15:21:33.000Z</time>
      </trkpt>
      <trkpt lat="48.98045" lon="7.79256">
        <ele>334.79998779297</ele>
        <time>2020-05-18T15:21:36.000Z</time>
      </trkpt>
      <trkpt lat="48.98041" lon="7.79256">
        <ele>335.39999389648</ele>
        <time>2020-05-18T15:21:40.000Z</time>
      </trkpt>
      <trkpt lat="48.98039" lon="7.79258">
        <ele>335.79998779297</ele>
        <time>2020-05-18T15:21:43.000Z</time>
      </trkpt>
      <trkpt lat="48.98035" lon="7.79259">
        <ele>336.39999389648</ele>
        <time>2020-05-18T15:21:46.000Z</time>
      </trkpt>
      <trkpt lat="48.9803" lon="7.79259">
        <ele>337.39999389648</ele>
        <time>2020-05-18T15:21:50.000Z</time>
      </trkpt>
      <trkpt lat="48.9803" lon="7.79259">
        <ele>338</ele>
        <time>2020-05-18T15:21:51.000Z</time>
      </trkpt>
      <trkpt lat="48.98023" lon="7.79261">
        <ele>339.20001220703</ele>
        <time>2020-05-18T15:21:57.000Z</time>
      </trkpt>
      <trkpt lat="48.98022" lon="7.79262">
        <ele>339.20001220703</ele>
        <time>2020-05-18T15:21:58.000Z</time>
      </trkpt>
      <trkpt lat="48.98014" lon="7.79266">
        <ele>340.20001220703</ele>
        <time>2020-05-18T15:22:03.000Z</time>
      </trkpt>
      <trkpt lat="48.98013" lon="7.79267">
        <ele>340.39999389648</ele>
        <time>2020-05-18T15:22:04.000Z</time>
      </trkpt>
      <trkpt lat="48.98009" lon="7.79269">
        <ele>341.39999389648</ele>
        <time>2020-05-18T15:22:08.000Z</time>
      </trkpt>
      <trkpt lat="48.98006" lon="7.79271">
        <ele>341.79998779297</ele>
        <time>2020-05-18T15:22:11.000Z</time>
      </trkpt>
      <trkpt lat="48.98001" lon="7.79275">
        <ele>342.39999389648</ele>
        <time>2020-05-18T15:22:16.000Z</time>
      </trkpt>
      <trkpt lat="48.97996" lon="7.79281">
        <ele>343.60000610352</ele>
        <time>2020-05-18T15:22:22.000Z</time>
      </trkpt>
      <trkpt lat="48.97996" lon="7.79283">
        <ele>343.79998779297</ele>
        <time>2020-05-18T15:22:23.000Z</time>
      </trkpt>
      <trkpt lat="48.97994" lon="7.79285">
        <ele>344</ele>
        <time>2020-05-18T15:22:25.000Z</time>
      </trkpt>
      <trkpt lat="48.9799" lon="7.7929">
        <ele>344.79998779297</ele>
        <time>2020-05-18T15:22:29.000Z</time>
      </trkpt>
      <trkpt lat="48.97985" lon="7.79297">
        <ele>345.39999389648</ele>
        <time>2020-05-18T15:22:33.000Z</time>
      </trkpt>
      <trkpt lat="48.97982" lon="7.79301">
        <ele>345.79998779297</ele>
        <time>2020-05-18T15:22:35.000Z</time>
      </trkpt>
      <trkpt lat="48.9798" lon="7.79302">
        <ele>346.20001220703</ele>
        <time>2020-05-18T15:22:36.000Z</time>
      </trkpt>
      <trkpt lat="48.97978" lon="7.79306">
        <ele>347.20001220703</ele>
        <time>2020-05-18T15:22:39.000Z</time>
      </trkpt>
      <trkpt lat="48.97974" lon="7.79312">
        <ele>347.79998779297</ele>
        <time>2020-05-18T15:22:43.000Z</time>
      </trkpt>
      <trkpt lat="48.97973" lon="7.79313">
        <ele>348.39999389648</ele>
        <time>2020-05-18T15:22:45.000Z</time>
      </trkpt>
      <trkpt lat="48.9797" lon="7.79316">
        <ele>349.20001220703</ele>
        <time>2020-05-18T15:22:48.000Z</time>
      </trkpt>
      <trkpt lat="48.97969" lon="7.79317">
        <ele>349.39999389648</ele>
        <time>2020-05-18T15:22:49.000Z</time>
      </trkpt>
      <trkpt lat="48.97967" lon="7.79321">
        <ele>349.79998779297</ele>
        <time>2020-05-18T15:22:52.000Z</time>
      </trkpt>
      <trkpt lat="48.97965" lon="7.79327">
        <ele>350.39999389648</ele>
        <time>2020-05-18T15:22:56.000Z</time>
      </trkpt>
      <trkpt lat="48.97962" lon="7.79331">
        <ele>351.79998779297</ele>
        <time>2020-05-18T15:22:59.000Z</time>
      </trkpt>
      <trkpt lat="48.97959" lon="7.79335">
        <ele>352.79998779297</ele>
        <time>2020-05-18T15:23:02.000Z</time>
      </trkpt>
      <trkpt lat="48.97958" lon="7.79336">
        <ele>353.39999389648</ele>
        <time>2020-05-18T15:23:03.000Z</time>
      </trkpt>
      <trkpt lat="48.97955" lon="7.79344">
        <ele>354.39999389648</ele>
        <time>2020-05-18T15:23:07.000Z</time>
      </trkpt>
      <trkpt lat="48.97954" lon="7.79345">
        <ele>354.79998779297</ele>
        <time>2020-05-18T15:23:09.000Z</time>
      </trkpt>
      <trkpt lat="48.97952" lon="7.7935">
        <ele>355.60000610352</ele>
        <time>2020-05-18T15:23:12.000Z</time>
      </trkpt>
      <trkpt lat="48.97948" lon="7.79353">
        <ele>356.79998779297</ele>
        <time>2020-05-18T15:23:16.000Z</time>
      </trkpt>
      <trkpt lat="48.97948" lon="7.79356">
        <ele>357.39999389648</ele>
        <time>2020-05-18T15:23:18.000Z</time>
      </trkpt>
      <trkpt lat="48.97946" lon="7.79362">
        <ele>358</ele>
        <time>2020-05-18T15:23:21.000Z</time>
      </trkpt>
      <trkpt lat="48.97945" lon="7.79364">
        <ele>358.39999389648</ele>
        <time>2020-05-18T15:23:22.000Z</time>
      </trkpt>
      <trkpt lat="48.97944" lon="7.79366">
        <ele>359</ele>
        <time>2020-05-18T15:23:24.000Z</time>
      </trkpt>
      <trkpt lat="48.97941" lon="7.79373">
        <ele>360</ele>
        <time>2020-05-18T15:23:29.000Z</time>
      </trkpt>
      <trkpt lat="48.97939" lon="7.79376">
        <ele>361.20001220703</ele>
        <time>2020-05-18T15:23:33.000Z</time>
      </trkpt>
      <trkpt lat="48.97938" lon="7.79378">
        <ele>361.60000610352</ele>
        <time>2020-05-18T15:23:34.000Z</time>
      </trkpt>
      <trkpt lat="48.97936" lon="7.79384">
        <ele>362.60000610352</ele>
        <time>2020-05-18T15:23:39.000Z</time>
      </trkpt>
      <trkpt lat="48.97933" lon="7.79389">
        <ele>363.60000610352</ele>
        <time>2020-05-18T15:23:43.000Z</time>
      </trkpt>
      <trkpt lat="48.97933" lon="7.7939">
        <ele>363.79998779297</ele>
        <time>2020-05-18T15:23:44.000Z</time>
      </trkpt>
      <trkpt lat="48.97931" lon="7.79395">
        <ele>364.79998779297</ele>
        <time>2020-05-18T15:23:49.000Z</time>
      </trkpt>
      <trkpt lat="48.9793" lon="7.79396">
        <ele>365.20001220703</ele>
        <time>2020-05-18T15:23:50.000Z</time>
      </trkpt>
      <trkpt lat="48.9793" lon="7.79401">
        <ele>366.20001220703</ele>
        <time>2020-05-18T15:23:54.000Z</time>
      </trkpt>
      <trkpt lat="48.97929" lon="7.79404">
        <ele>366.60000610352</ele>
        <time>2020-05-18T15:23:56.000Z</time>
      </trkpt>
      <trkpt lat="48.97928" lon="7.79407">
        <ele>367.39999389648</ele>
        <time>2020-05-18T15:23:59.000Z</time>
      </trkpt>
      <trkpt lat="48.97926" lon="7.7941">
        <ele>368.39999389648</ele>
        <time>2020-05-18T15:24:03.000Z</time>
      </trkpt>
      <trkpt lat="48.97926" lon="7.79412">
        <ele>368.60000610352</ele>
        <time>2020-05-18T15:24:04.000Z</time>
      </trkpt>
      <trkpt lat="48.97923" lon="7.79417">
        <ele>370</ele>
        <time>2020-05-18T15:24:08.000Z</time>
      </trkpt>
      <trkpt lat="48.97923" lon="7.7942">
        <ele>370.39999389648</ele>
        <time>2020-05-18T15:24:10.000Z</time>
      </trkpt>
      <trkpt lat="48.97921" lon="7.79423">
        <ele>371</ele>
        <time>2020-05-18T15:24:13.000Z</time>
      </trkpt>
      <trkpt lat="48.97921" lon="7.79424">
        <ele>371.20001220703</ele>
        <time>2020-05-18T15:24:20.000Z</time>
      </trkpt>
      <trkpt lat="48.97919" lon="7.79426">
        <ele>371.60000610352</ele>
        <time>2020-05-18T15:24:38.000Z</time>
      </trkpt>
      <trkpt lat="48.97919" lon="7.7943">
        <ele>372.60000610352</ele>
        <time>2020-05-18T15:24:42.000Z</time>
      </trkpt>
      <trkpt lat="48.97918" lon="7.79433">
        <ele>373.60000610352</ele>
        <time>2020-05-18T15:24:45.000Z</time>
      </trkpt>
      <trkpt lat="48.97917" lon="7.79442">
        <ele>375</ele>
        <time>2020-05-18T15:24:50.000Z</time>
      </trkpt>
      <trkpt lat="48.97916" lon="7.79447">
        <ele>376.20001220703</ele>
        <time>2020-05-18T15:24:54.000Z</time>
      </trkpt>
      <trkpt lat="48.97917" lon="7.79447">
        <ele>376.60000610352</ele>
        <time>2020-05-18T15:24:55.000Z</time>
      </trkpt>
      <trkpt lat="48.97917" lon="7.79448">
        <ele>377.60000610352</ele>
        <time>2020-05-18T15:24:57.000Z</time>
      </trkpt>
      <trkpt lat="48.97914" lon="7.79457">
        <ele>378.39999389648</ele>
        <time>2020-05-18T15:25:05.000Z</time>
      </trkpt>
      <trkpt lat="48.97913" lon="7.79458">
        <ele>378.79998779297</ele>
        <time>2020-05-18T15:25:06.000Z</time>
      </trkpt>
      <trkpt lat="48.97912" lon="7.7947">
        <ele>379.79998779297</ele>
        <time>2020-05-18T15:25:16.000Z</time>
      </trkpt>
      <trkpt lat="48.97909" lon="7.79479">
        <ele>380</ele>
        <time>2020-05-18T15:25:24.000Z</time>
      </trkpt>
      <trkpt lat="48.97907" lon="7.79483">
        <ele>380.20001220703</ele>
        <time>2020-05-18T15:25:26.000Z</time>
      </trkpt>
      <trkpt lat="48.97907" lon="7.79486">
        <ele>380.20001220703</ele>
        <time>2020-05-18T15:25:27.000Z</time>
      </trkpt>
      <trkpt lat="48.97904" lon="7.79493">
        <ele>380.39999389648</ele>
        <time>2020-05-18T15:25:30.000Z</time>
      </trkpt>
      <trkpt lat="48.979" lon="7.79501">
        <ele>380.79998779297</ele>
        <time>2020-05-18T15:25:35.000Z</time>
      </trkpt>
      <trkpt lat="48.979" lon="7.79503">
        <ele>380.79998779297</ele>
        <time>2020-05-18T15:25:36.000Z</time>
      </trkpt>
      <trkpt lat="48.97895" lon="7.79515">
        <ele>381.20001220703</ele>
        <time>2020-05-18T15:25:41.000Z</time>
      </trkpt>
      <trkpt lat="48.97892" lon="7.79518">
        <ele>381.79998779297</ele>
        <time>2020-05-18T15:25:44.000Z</time>
      </trkpt>
      <trkpt lat="48.97888" lon="7.79524">
        <ele>382</ele>
        <time>2020-05-18T15:25:47.000Z</time>
      </trkpt>
      <trkpt lat="48.97882" lon="7.79537">
        <ele>382.60000610352</ele>
        <time>2020-05-18T15:25:52.000Z</time>
      </trkpt>
      <trkpt lat="48.97879" lon="7.79542">
        <ele>382.60000610352</ele>
        <time>2020-05-18T15:25:54.000Z</time>
      </trkpt>
      <trkpt lat="48.97877" lon="7.79546">
        <ele>382.79998779297</ele>
        <time>2020-05-18T15:25:56.000Z</time>
      </trkpt>
      <trkpt lat="48.97873" lon="7.79552">
        <ele>383</ele>
        <time>2020-05-18T15:25:59.000Z</time>
      </trkpt>
      <trkpt lat="48.97871" lon="7.79553">
        <ele>383.20001220703</ele>
        <time>2020-05-18T15:26:00.000Z</time>
      </trkpt>
      <trkpt lat="48.97865" lon="7.79563">
        <ele>383.79998779297</ele>
        <time>2020-05-18T15:26:05.000Z</time>
      </trkpt>
      <trkpt lat="48.97864" lon="7.79564">
        <ele>383.79998779297</ele>
        <time>2020-05-18T15:26:06.000Z</time>
      </trkpt>
      <trkpt lat="48.97857" lon="7.79572">
        <ele>384.20001220703</ele>
        <time>2020-05-18T15:26:10.000Z</time>
      </trkpt>
      <trkpt lat="48.97851" lon="7.79579">
        <ele>384.79998779297</ele>
        <time>2020-05-18T15:26:14.000Z</time>
      </trkpt>
      <trkpt lat="48.9785" lon="7.7958">
        <ele>385</ele>
        <time>2020-05-18T15:26:15.000Z</time>
      </trkpt>
      <trkpt lat="48.97845" lon="7.79585">
        <ele>385.39999389648</ele>
        <time>2020-05-18T15:26:18.000Z</time>
      </trkpt>
      <trkpt lat="48.97843" lon="7.79588">
        <ele>385.79998779297</ele>
        <time>2020-05-18T15:26:20.000Z</time>
      </trkpt>
      <trkpt lat="48.97836" lon="7.79604">
        <ele>386.39999389648</ele>
        <time>2020-05-18T15:26:26.000Z</time>
      </trkpt>
      <trkpt lat="48.97834" lon="7.79605">
        <ele>386.20001220703</ele>
        <time>2020-05-18T15:26:35.000Z</time>
      </trkpt>
      <trkpt lat="48.97838" lon="7.79598">
        <ele>386.39999389648</ele>
        <time>2020-05-18T15:26:41.000Z</time>
      </trkpt>
      <trkpt lat="48.97847" lon="7.79585">
        <ele>385.39999389648</ele>
        <time>2020-05-18T15:26:46.000Z</time>
      </trkpt>
      <trkpt lat="48.97853" lon="7.79577">
        <ele>384.39999389648</ele>
        <time>2020-05-18T15:26:48.000Z</time>
      </trkpt>
      <trkpt lat="48.97862" lon="7.79562">
        <ele>383.39999389648</ele>
        <time>2020-05-18T15:26:51.000Z</time>
      </trkpt>
      <trkpt lat="48.97866" lon="7.79556">
        <ele>383</ele>
        <time>2020-05-18T15:26:52.000Z</time>
      </trkpt>
      <trkpt lat="48.97879" lon="7.79538">
        <ele>382.60000610352</ele>
        <time>2020-05-18T15:26:55.000Z</time>
      </trkpt>
      <trkpt lat="48.97883" lon="7.79531">
        <ele>382.20001220703</ele>
        <time>2020-05-18T15:26:56.000Z</time>
      </trkpt>
      <trkpt lat="48.97888" lon="7.79524">
        <ele>381.39999389648</ele>
        <time>2020-05-18T15:26:57.000Z</time>
      </trkpt>
      <trkpt lat="48.97892" lon="7.79516">
        <ele>381</ele>
        <time>2020-05-18T15:26:58.000Z</time>
      </trkpt>
      <trkpt lat="48.97899" lon="7.79498">
        <ele>379.39999389648</ele>
        <time>2020-05-18T15:27:00.000Z</time>
      </trkpt>
      <trkpt lat="48.97906" lon="7.79484">
        <ele>378.60000610352</ele>
        <time>2020-05-18T15:27:03.000Z</time>
      </trkpt>
      <trkpt lat="48.97908" lon="7.79482">
        <ele>378.79998779297</ele>
        <time>2020-05-18T15:27:04.000Z</time>
      </trkpt>
      <trkpt lat="48.97915" lon="7.79473">
        <ele>378.79998779297</ele>
        <time>2020-05-18T15:27:07.000Z</time>
      </trkpt>
      <trkpt lat="48.97921" lon="7.79464">
        <ele>378.39999389648</ele>
        <time>2020-05-18T15:27:09.000Z</time>
      </trkpt>
      <trkpt lat="48.97928" lon="7.79454">
        <ele>377.79998779297</ele>
        <time>2020-05-18T15:27:11.000Z</time>
      </trkpt>
      <trkpt lat="48.97931" lon="7.7945">
        <ele>377.20001220703</ele>
        <time>2020-05-18T15:27:12.000Z</time>
      </trkpt>
      <trkpt lat="48.97938" lon="7.79439">
        <ele>376</ele>
        <time>2020-05-18T15:27:14.000Z</time>
      </trkpt>
      <trkpt lat="48.97942" lon="7.79435">
        <ele>375.20001220703</ele>
        <time>2020-05-18T15:27:15.000Z</time>
      </trkpt>
      <trkpt lat="48.97946" lon="7.7943">
        <ele>374.60000610352</ele>
        <time>2020-05-18T15:27:16.000Z</time>
      </trkpt>
      <trkpt lat="48.97956" lon="7.7942">
        <ele>374.20001220703</ele>
        <time>2020-05-18T15:27:18.000Z</time>
      </trkpt>
      <trkpt lat="48.97964" lon="7.79412">
        <ele>373.60000610352</ele>
        <time>2020-05-18T15:27:20.000Z</time>
      </trkpt>
      <trkpt lat="48.97969" lon="7.79408">
        <ele>373.20001220703</ele>
        <time>2020-05-18T15:27:21.000Z</time>
      </trkpt>
      <trkpt lat="48.97982" lon="7.79408">
        <ele>372.39999389648</ele>
        <time>2020-05-18T15:27:24.000Z</time>
      </trkpt>
      <trkpt lat="48.97988" lon="7.79411">
        <ele>372</ele>
        <time>2020-05-18T15:27:25.000Z</time>
      </trkpt>
      <trkpt lat="48.97994" lon="7.79414">
        <ele>371.20001220703</ele>
        <time>2020-05-18T15:27:26.000Z</time>
      </trkpt>
      <trkpt lat="48.98" lon="7.79417">
        <ele>370.39999389648</ele>
        <time>2020-05-18T15:27:27.000Z</time>
      </trkpt>
      <trkpt lat="48.98007" lon="7.79422">
        <ele>369.20001220703</ele>
        <time>2020-05-18T15:27:28.000Z</time>
      </trkpt>
      <trkpt lat="48.98014" lon="7.79427">
        <ele>368.60000610352</ele>
        <time>2020-05-18T15:27:29.000Z</time>
      </trkpt>
      <trkpt lat="48.9802" lon="7.79433">
        <ele>368</ele>
        <time>2020-05-18T15:27:30.000Z</time>
      </trkpt>
      <trkpt lat="48.98039" lon="7.79454">
        <ele>367.20001220703</ele>
        <time>2020-05-18T15:27:33.000Z</time>
      </trkpt>
      <trkpt lat="48.98044" lon="7.79462">
        <ele>367</ele>
        <time>2020-05-18T15:27:34.000Z</time>
      </trkpt>
      <trkpt lat="48.98067" lon="7.79488">
        <ele>366.20001220703</ele>
        <time>2020-05-18T15:27:37.000Z</time>
      </trkpt>
      <trkpt lat="48.98073" lon="7.79496">
        <ele>365.79998779297</ele>
        <time>2020-05-18T15:27:38.000Z</time>
      </trkpt>
      <trkpt lat="48.98079" lon="7.79503">
        <ele>365.60000610352</ele>
        <time>2020-05-18T15:27:39.000Z</time>
      </trkpt>
      <trkpt lat="48.98101" lon="7.79519">
        <ele>364.20001220703</ele>
        <time>2020-05-18T15:27:42.000Z</time>
      </trkpt>
      <trkpt lat="48.98117" lon="7.79534">
        <ele>364</ele>
        <time>2020-05-18T15:27:45.000Z</time>
      </trkpt>
      <trkpt lat="48.98123" lon="7.7954">
        <ele>363.60000610352</ele>
        <time>2020-05-18T15:27:46.000Z</time>
      </trkpt>
      <trkpt lat="48.98133" lon="7.79551">
        <ele>363</ele>
        <time>2020-05-18T15:27:48.000Z</time>
      </trkpt>
      <trkpt lat="48.98146" lon="7.79566">
        <ele>362.60000610352</ele>
        <time>2020-05-18T15:27:51.000Z</time>
      </trkpt>
      <trkpt lat="48.98151" lon="7.79572">
        <ele>362.60000610352</ele>
        <time>2020-05-18T15:27:52.000Z</time>
      </trkpt>
      <trkpt lat="48.9816" lon="7.79583">
        <ele>362</ele>
        <time>2020-05-18T15:27:54.000Z</time>
      </trkpt>
      <trkpt lat="48.98165" lon="7.7959">
        <ele>361.60000610352</ele>
        <time>2020-05-18T15:27:55.000Z</time>
      </trkpt>
      <trkpt lat="48.98185" lon="7.79629">
        <ele>361</ele>
        <time>2020-05-18T15:28:01.000Z</time>
      </trkpt>
      <trkpt lat="48.98187" lon="7.79635">
        <ele>361</ele>
        <time>2020-05-18T15:28:02.000Z</time>
      </trkpt>
      <trkpt lat="48.98191" lon="7.79647">
        <ele>360.79998779297</ele>
        <time>2020-05-18T15:28:04.000Z</time>
      </trkpt>
      <trkpt lat="48.98201" lon="7.79669">
        <ele>360.60000610352</ele>
        <time>2020-05-18T15:28:07.000Z</time>
      </trkpt>
      <trkpt lat="48.98214" lon="7.79693">
        <ele>360.20001220703</ele>
        <time>2020-05-18T15:28:11.000Z</time>
      </trkpt>
      <trkpt lat="48.98228" lon="7.79715">
        <ele>360.20001220703</ele>
        <time>2020-05-18T15:28:16.000Z</time>
      </trkpt>
      <trkpt lat="48.98232" lon="7.79719">
        <ele>360.20001220703</ele>
        <time>2020-05-18T15:28:17.000Z</time>
      </trkpt>
      <trkpt lat="48.9824" lon="7.79729">
        <ele>359.60000610352</ele>
        <time>2020-05-18T15:28:19.000Z</time>
      </trkpt>
      <trkpt lat="48.98243" lon="7.79735">
        <ele>359.39999389648</ele>
        <time>2020-05-18T15:28:20.000Z</time>
      </trkpt>
      <trkpt lat="48.98266" lon="7.7977">
        <ele>358.79998779297</ele>
        <time>2020-05-18T15:28:27.000Z</time>
      </trkpt>
      <trkpt lat="48.98281" lon="7.79795">
        <ele>358.60000610352</ele>
        <time>2020-05-18T15:28:32.000Z</time>
      </trkpt>
      <trkpt lat="48.98284" lon="7.798">
        <ele>358.79998779297</ele>
        <time>2020-05-18T15:28:33.000Z</time>
      </trkpt>
      <trkpt lat="48.98294" lon="7.79822">
        <ele>358.79998779297</ele>
        <time>2020-05-18T15:28:37.000Z</time>
      </trkpt>
      <trkpt lat="48.98299" lon="7.7984">
        <ele>359</ele>
        <time>2020-05-18T15:28:39.000Z</time>
      </trkpt>
      <trkpt lat="48.98307" lon="7.7986">
        <ele>359.20001220703</ele>
        <time>2020-05-18T15:28:42.000Z</time>
      </trkpt>
      <trkpt lat="48.9832" lon="7.79886">
        <ele>359.39999389648</ele>
        <time>2020-05-18T15:28:47.000Z</time>
      </trkpt>
      <trkpt lat="48.9833" lon="7.79909">
        <ele>359.79998779297</ele>
        <time>2020-05-18T15:28:52.000Z</time>
      </trkpt>
      <trkpt lat="48.98342" lon="7.79927">
        <ele>359.79998779297</ele>
        <time>2020-05-18T15:28:56.000Z</time>
      </trkpt>
      <trkpt lat="48.98356" lon="7.79951">
        <ele>359.60000610352</ele>
        <time>2020-05-18T15:29:01.000Z</time>
      </trkpt>
      <trkpt lat="48.98368" lon="7.79974">
        <ele>359.79998779297</ele>
        <time>2020-05-18T15:29:06.000Z</time>
      </trkpt>
      <trkpt lat="48.98381" lon="7.80004">
        <ele>360.20001220703</ele>
        <time>2020-05-18T15:29:11.000Z</time>
      </trkpt>
      <trkpt lat="48.98388" lon="7.80026">
        <ele>360.20001220703</ele>
        <time>2020-05-18T15:29:15.000Z</time>
      </trkpt>
      <trkpt lat="48.984" lon="7.8006">
        <ele>360.20001220703</ele>
        <time>2020-05-18T15:29:21.000Z</time>
      </trkpt>
      <trkpt lat="48.98411" lon="7.80094">
        <ele>360.79998779297</ele>
        <time>2020-05-18T15:29:27.000Z</time>
      </trkpt>
      <trkpt lat="48.98415" lon="7.80105">
        <ele>361.20001220703</ele>
        <time>2020-05-18T15:29:29.000Z</time>
      </trkpt>
      <trkpt lat="48.9842" lon="7.80121">
        <ele>361.20001220703</ele>
        <time>2020-05-18T15:29:32.000Z</time>
      </trkpt>
      <trkpt lat="48.98423" lon="7.80127">
        <ele>361.20001220703</ele>
        <time>2020-05-18T15:29:33.000Z</time>
      </trkpt>
      <trkpt lat="48.98432" lon="7.80152">
        <ele>361.20001220703</ele>
        <time>2020-05-18T15:29:37.000Z</time>
      </trkpt>
      <trkpt lat="48.98437" lon="7.80164">
        <ele>361.20001220703</ele>
        <time>2020-05-18T15:29:39.000Z</time>
      </trkpt>
      <trkpt lat="48.98444" lon="7.80183">
        <ele>361.20001220703</ele>
        <time>2020-05-18T15:29:42.000Z</time>
      </trkpt>
      <trkpt lat="48.98456" lon="7.8021">
        <ele>361.79998779297</ele>
        <time>2020-05-18T15:29:47.000Z</time>
      </trkpt>
      <trkpt lat="48.98465" lon="7.80239">
        <ele>361.60000610352</ele>
        <time>2020-05-18T15:29:52.000Z</time>
      </trkpt>
      <trkpt lat="48.98472" lon="7.80263">
        <ele>361.39999389648</ele>
        <time>2020-05-18T15:29:56.000Z</time>
      </trkpt>
      <trkpt lat="48.9848" lon="7.80282">
        <ele>361.60000610352</ele>
        <time>2020-05-18T15:29:59.000Z</time>
      </trkpt>
      <trkpt lat="48.98485" lon="7.80292">
        <ele>361.60000610352</ele>
        <time>2020-05-18T15:30:01.000Z</time>
      </trkpt>
      <trkpt lat="48.98497" lon="7.8032">
        <ele>362</ele>
        <time>2020-05-18T15:30:06.000Z</time>
      </trkpt>
      <trkpt lat="48.98513" lon="7.8035">
        <ele>361.39999389648</ele>
        <time>2020-05-18T15:30:11.000Z</time>
      </trkpt>
      <trkpt lat="48.98516" lon="7.80357">
        <ele>361.60000610352</ele>
        <time>2020-05-18T15:30:12.000Z</time>
      </trkpt>
      <trkpt lat="48.98522" lon="7.80377">
        <ele>361.39999389648</ele>
        <time>2020-05-18T15:30:15.000Z</time>
      </trkpt>
      <trkpt lat="48.98525" lon="7.80384">
        <ele>361.20001220703</ele>
        <time>2020-05-18T15:30:16.000Z</time>
      </trkpt>
      <trkpt lat="48.98535" lon="7.80415">
        <ele>360.79998779297</ele>
        <time>2020-05-18T15:30:21.000Z</time>
      </trkpt>
      <trkpt lat="48.98537" lon="7.80421">
        <ele>361</ele>
        <time>2020-05-18T15:30:22.000Z</time>
      </trkpt>
      <trkpt lat="48.98547" lon="7.80444">
        <ele>361</ele>
        <time>2020-05-18T15:30:26.000Z</time>
      </trkpt>
      <trkpt lat="48.98551" lon="7.80457">
        <ele>361</ele>
        <time>2020-05-18T15:30:28.000Z</time>
      </trkpt>
      <trkpt lat="48.98554" lon="7.80463">
        <ele>361</ele>
        <time>2020-05-18T15:30:29.000Z</time>
      </trkpt>
      <trkpt lat="48.98555" lon="7.8047">
        <ele>360.79998779297</ele>
        <time>2020-05-18T15:30:30.000Z</time>
      </trkpt>
      <trkpt lat="48.98557" lon="7.80476">
        <ele>361</ele>
        <time>2020-05-18T15:30:31.000Z</time>
      </trkpt>
      <trkpt lat="48.98559" lon="7.80483">
        <ele>361</ele>
        <time>2020-05-18T15:30:32.000Z</time>
      </trkpt>
      <trkpt lat="48.98574" lon="7.80526">
        <ele>361</ele>
        <time>2020-05-18T15:30:39.000Z</time>
      </trkpt>
      <trkpt lat="48.98579" lon="7.80539">
        <ele>361</ele>
        <time>2020-05-18T15:30:41.000Z</time>
      </trkpt>
      <trkpt lat="48.98582" lon="7.80549">
        <ele>361</ele>
        <time>2020-05-18T15:30:43.000Z</time>
      </trkpt>
      <trkpt lat="48.98597" lon="7.80575">
        <ele>362.20001220703</ele>
        <time>2020-05-18T15:30:49.000Z</time>
      </trkpt>
      <trkpt lat="48.98599" lon="7.80581">
        <ele>362.20001220703</ele>
        <time>2020-05-18T15:30:50.000Z</time>
      </trkpt>
      <trkpt lat="48.98607" lon="7.80598">
        <ele>362</ele>
        <time>2020-05-18T15:30:53.000Z</time>
      </trkpt>
      <trkpt lat="48.98613" lon="7.80611">
        <ele>362.20001220703</ele>
        <time>2020-05-18T15:30:55.000Z</time>
      </trkpt>
      <trkpt lat="48.98626" lon="7.80645">
        <ele>362</ele>
        <time>2020-05-18T15:31:00.000Z</time>
      </trkpt>
      <trkpt lat="48.98629" lon="7.80652">
        <ele>361.79998779297</ele>
        <time>2020-05-18T15:31:01.000Z</time>
      </trkpt>
      <trkpt lat="48.98633" lon="7.80665">
        <ele>361.79998779297</ele>
        <time>2020-05-18T15:31:03.000Z</time>
      </trkpt>
      <trkpt lat="48.98636" lon="7.80676">
        <ele>361.79998779297</ele>
        <time>2020-05-18T15:31:05.000Z</time>
      </trkpt>
      <trkpt lat="48.98642" lon="7.80695">
        <ele>361.60000610352</ele>
        <time>2020-05-18T15:31:09.000Z</time>
      </trkpt>
      <trkpt lat="48.98651" lon="7.80724">
        <ele>362</ele>
        <time>2020-05-18T15:31:14.000Z</time>
      </trkpt>
      <trkpt lat="48.98653" lon="7.80738">
        <ele>362.20001220703</ele>
        <time>2020-05-18T15:31:16.000Z</time>
      </trkpt>
      <trkpt lat="48.98654" lon="7.80757">
        <ele>363</ele>
        <time>2020-05-18T15:31:19.000Z</time>
      </trkpt>
      <trkpt lat="48.98657" lon="7.80776">
        <ele>363.39999389648</ele>
        <time>2020-05-18T15:31:22.000Z</time>
      </trkpt>
      <trkpt lat="48.98656" lon="7.80782">
        <ele>363.39999389648</ele>
        <time>2020-05-18T15:31:23.000Z</time>
      </trkpt>
      <trkpt lat="48.9865" lon="7.80819">
        <ele>363.39999389648</ele>
        <time>2020-05-18T15:31:29.000Z</time>
      </trkpt>
      <trkpt lat="48.98648" lon="7.80827">
        <ele>363.60000610352</ele>
        <time>2020-05-18T15:31:31.000Z</time>
      </trkpt>
      <trkpt lat="48.98647" lon="7.80833">
        <ele>363.79998779297</ele>
        <time>2020-05-18T15:31:33.000Z</time>
      </trkpt>
      <trkpt lat="48.98646" lon="7.80839">
        <ele>364.20001220703</ele>
        <time>2020-05-18T15:31:38.000Z</time>
      </trkpt>
      <trkpt lat="48.98647" lon="7.80844">
        <ele>364.20001220703</ele>
        <time>2020-05-18T15:31:48.000Z</time>
      </trkpt>
      <trkpt lat="48.98648" lon="7.80852">
        <ele>364.20001220703</ele>
        <time>2020-05-18T15:31:50.000Z</time>
      </trkpt>
      <trkpt lat="48.98653" lon="7.80869">
        <ele>363.39999389648</ele>
        <time>2020-05-18T15:31:54.000Z</time>
      </trkpt>
      <trkpt lat="48.98655" lon="7.80874">
        <ele>363.20001220703</ele>
        <time>2020-05-18T15:31:55.000Z</time>
      </trkpt>
      <trkpt lat="48.98656" lon="7.8088">
        <ele>363.20001220703</ele>
        <time>2020-05-18T15:31:56.000Z</time>
      </trkpt>
      <trkpt lat="48.98663" lon="7.80903">
        <ele>362.79998779297</ele>
        <time>2020-05-18T15:32:00.000Z</time>
      </trkpt>
      <trkpt lat="48.98663" lon="7.80908">
        <ele>362.79998779297</ele>
        <time>2020-05-18T15:32:01.000Z</time>
      </trkpt>
      <trkpt lat="48.98675" lon="7.80937">
        <ele>361.79998779297</ele>
        <time>2020-05-18T15:32:06.000Z</time>
      </trkpt>
      <trkpt lat="48.9868" lon="7.80945">
        <ele>362.20001220703</ele>
        <time>2020-05-18T15:32:10.000Z</time>
      </trkpt>
      <trkpt lat="48.98689" lon="7.80958">
        <ele>362.20001220703</ele>
        <time>2020-05-18T15:32:18.000Z</time>
      </trkpt>
      <trkpt lat="48.98697" lon="7.80969">
        <ele>361.39999389648</ele>
        <time>2020-05-18T15:32:23.000Z</time>
      </trkpt>
      <trkpt lat="48.98704" lon="7.8098">
        <ele>361.20001220703</ele>
        <time>2020-05-18T15:32:28.000Z</time>
      </trkpt>
      <trkpt lat="48.98718" lon="7.80999">
        <ele>360.39999389648</ele>
        <time>2020-05-18T15:32:33.000Z</time>
      </trkpt>
      <trkpt lat="48.98722" lon="7.81003">
        <ele>360</ele>
        <time>2020-05-18T15:32:34.000Z</time>
      </trkpt>
      <trkpt lat="48.98729" lon="7.81012">
        <ele>359</ele>
        <time>2020-05-18T15:32:36.000Z</time>
      </trkpt>
      <trkpt lat="48.98741" lon="7.81032">
        <ele>358.20001220703</ele>
        <time>2020-05-18T15:32:40.000Z</time>
      </trkpt>
      <trkpt lat="48.98748" lon="7.81044">
        <ele>357.79998779297</ele>
        <time>2020-05-18T15:32:42.000Z</time>
      </trkpt>
      <trkpt lat="48.98761" lon="7.81065">
        <ele>356.79998779297</ele>
        <time>2020-05-18T15:32:45.000Z</time>
      </trkpt>
      <trkpt lat="48.98766" lon="7.81071">
        <ele>356.60000610352</ele>
        <time>2020-05-18T15:32:46.000Z</time>
      </trkpt>
      <trkpt lat="48.98774" lon="7.81086">
        <ele>356.20001220703</ele>
        <time>2020-05-18T15:32:48.000Z</time>
      </trkpt>
      <trkpt lat="48.98782" lon="7.81101">
        <ele>355.79998779297</ele>
        <time>2020-05-18T15:32:50.000Z</time>
      </trkpt>
      <trkpt lat="48.98786" lon="7.81107">
        <ele>355.39999389648</ele>
        <time>2020-05-18T15:32:51.000Z</time>
      </trkpt>
      <trkpt lat="48.98793" lon="7.81119">
        <ele>354.79998779297</ele>
        <time>2020-05-18T15:32:53.000Z</time>
      </trkpt>
      <trkpt lat="48.98797" lon="7.81127">
        <ele>354.20001220703</ele>
        <time>2020-05-18T15:32:54.000Z</time>
      </trkpt>
      <trkpt lat="48.988" lon="7.81135">
        <ele>353.79998779297</ele>
        <time>2020-05-18T15:32:55.000Z</time>
      </trkpt>
      <trkpt lat="48.98807" lon="7.81148">
        <ele>353.20001220703</ele>
        <time>2020-05-18T15:32:57.000Z</time>
      </trkpt>
      <trkpt lat="48.98811" lon="7.81156">
        <ele>353</ele>
        <time>2020-05-18T15:32:58.000Z</time>
      </trkpt>
      <trkpt lat="48.98815" lon="7.81163">
        <ele>352.79998779297</ele>
        <time>2020-05-18T15:32:59.000Z</time>
      </trkpt>
      <trkpt lat="48.98821" lon="7.81176">
        <ele>352</ele>
        <time>2020-05-18T15:33:01.000Z</time>
      </trkpt>
      <trkpt lat="48.98824" lon="7.81182">
        <ele>351.79998779297</ele>
        <time>2020-05-18T15:33:02.000Z</time>
      </trkpt>
      <trkpt lat="48.98826" lon="7.81189">
        <ele>351.79998779297</ele>
        <time>2020-05-18T15:33:03.000Z</time>
      </trkpt>
      <trkpt lat="48.98833" lon="7.81204">
        <ele>351.79998779297</ele>
        <time>2020-05-18T15:33:05.000Z</time>
      </trkpt>
      <trkpt lat="48.98841" lon="7.81219">
        <ele>352</ele>
        <time>2020-05-18T15:33:07.000Z</time>
      </trkpt>
      <trkpt lat="48.98847" lon="7.81233">
        <ele>351.79998779297</ele>
        <time>2020-05-18T15:33:09.000Z</time>
      </trkpt>
      <trkpt lat="48.98856" lon="7.81255">
        <ele>351.20001220703</ele>
        <time>2020-05-18T15:33:12.000Z</time>
      </trkpt>
      <trkpt lat="48.98858" lon="7.81263">
        <ele>351</ele>
        <time>2020-05-18T15:33:13.000Z</time>
      </trkpt>
      <trkpt lat="48.98862" lon="7.81271">
        <ele>350.60000610352</ele>
        <time>2020-05-18T15:33:14.000Z</time>
      </trkpt>
      <trkpt lat="48.98865" lon="7.81279">
        <ele>350.39999389648</ele>
        <time>2020-05-18T15:33:15.000Z</time>
      </trkpt>
      <trkpt lat="48.98874" lon="7.81301">
        <ele>349.60000610352</ele>
        <time>2020-05-18T15:33:18.000Z</time>
      </trkpt>
      <trkpt lat="48.98879" lon="7.81317">
        <ele>349.20001220703</ele>
        <time>2020-05-18T15:33:20.000Z</time>
      </trkpt>
      <trkpt lat="48.98883" lon="7.81325">
        <ele>349.20001220703</ele>
        <time>2020-05-18T15:33:21.000Z</time>
      </trkpt>
      <trkpt lat="48.98897" lon="7.81367">
        <ele>348.20001220703</ele>
        <time>2020-05-18T15:33:26.000Z</time>
      </trkpt>
      <trkpt lat="48.98907" lon="7.81401">
        <ele>347</ele>
        <time>2020-05-18T15:33:30.000Z</time>
      </trkpt>
      <trkpt lat="48.9891" lon="7.81411">
        <ele>346.39999389648</ele>
        <time>2020-05-18T15:33:31.000Z</time>
      </trkpt>
      <trkpt lat="48.98913" lon="7.81432">
        <ele>345.79998779297</ele>
        <time>2020-05-18T15:33:33.000Z</time>
      </trkpt>
      <trkpt lat="48.98916" lon="7.81452">
        <ele>345.39999389648</ele>
        <time>2020-05-18T15:33:35.000Z</time>
      </trkpt>
      <trkpt lat="48.98916" lon="7.81475">
        <ele>344.60000610352</ele>
        <time>2020-05-18T15:33:38.000Z</time>
      </trkpt>
      <trkpt lat="48.98917" lon="7.81486">
        <ele>344.39999389648</ele>
        <time>2020-05-18T15:33:39.000Z</time>
      </trkpt>
      <trkpt lat="48.98915" lon="7.81495">
        <ele>344.39999389648</ele>
        <time>2020-05-18T15:33:40.000Z</time>
      </trkpt>
      <trkpt lat="48.98901" lon="7.81545">
        <ele>343.60000610352</ele>
        <time>2020-05-18T15:33:45.000Z</time>
      </trkpt>
      <trkpt lat="48.98889" lon="7.81583">
        <ele>342.60000610352</ele>
        <time>2020-05-18T15:33:49.000Z</time>
      </trkpt>
      <trkpt lat="48.98886" lon="7.81593">
        <ele>342.39999389648</ele>
        <time>2020-05-18T15:33:50.000Z</time>
      </trkpt>
      <trkpt lat="48.98884" lon="7.81603">
        <ele>341.79998779297</ele>
        <time>2020-05-18T15:33:51.000Z</time>
      </trkpt>
      <trkpt lat="48.98881" lon="7.81622">
        <ele>341.60000610352</ele>
        <time>2020-05-18T15:33:53.000Z</time>
      </trkpt>
      <trkpt lat="48.98876" lon="7.81649">
        <ele>341.39999389648</ele>
        <time>2020-05-18T15:33:56.000Z</time>
      </trkpt>
      <trkpt lat="48.98864" lon="7.81691">
        <ele>340.79998779297</ele>
        <time>2020-05-18T15:34:01.000Z</time>
      </trkpt>
      <trkpt lat="48.98863" lon="7.817">
        <ele>340.39999389648</ele>
        <time>2020-05-18T15:34:02.000Z</time>
      </trkpt>
      <trkpt lat="48.98865" lon="7.81714">
        <ele>340</ele>
        <time>2020-05-18T15:34:04.000Z</time>
      </trkpt>
      <trkpt lat="48.98875" lon="7.81733">
        <ele>340</ele>
        <time>2020-05-18T15:34:08.000Z</time>
      </trkpt>
      <trkpt lat="48.98893" lon="7.81733">
        <ele>340.20001220703</ele>
        <time>2020-05-18T15:34:12.000Z</time>
      </trkpt>
      <trkpt lat="48.98896" lon="7.81732">
        <ele>340</ele>
        <time>2020-05-18T15:34:13.000Z</time>
      </trkpt>
      <trkpt lat="48.98909" lon="7.81729">
        <ele>339.60000610352</ele>
        <time>2020-05-18T15:34:15.000Z</time>
      </trkpt>
      <trkpt lat="48.98919" lon="7.81725">
        <ele>339.20001220703</ele>
        <time>2020-05-18T15:34:17.000Z</time>
      </trkpt>
      <trkpt lat="48.98929" lon="7.81723">
        <ele>339</ele>
        <time>2020-05-18T15:34:19.000Z</time>
      </trkpt>
      <trkpt lat="48.98934" lon="7.81721">
        <ele>338.39999389648</ele>
        <time>2020-05-18T15:34:20.000Z</time>
      </trkpt>
      <trkpt lat="48.98946" lon="7.81716">
        <ele>338</ele>
        <time>2020-05-18T15:34:22.000Z</time>
      </trkpt>
      <trkpt lat="48.98968" lon="7.81705">
        <ele>338</ele>
        <time>2020-05-18T15:34:27.000Z</time>
      </trkpt>
      <trkpt lat="48.98973" lon="7.81702">
        <ele>338</ele>
        <time>2020-05-18T15:34:28.000Z</time>
      </trkpt>
      <trkpt lat="48.98988" lon="7.81698">
        <ele>338</ele>
        <time>2020-05-18T15:34:31.000Z</time>
      </trkpt>
      <trkpt lat="48.98993" lon="7.81697">
        <ele>338</ele>
        <time>2020-05-18T15:34:32.000Z</time>
      </trkpt>
      <trkpt lat="48.99016" lon="7.81704">
        <ele>338.39999389648</ele>
        <time>2020-05-18T15:34:36.000Z</time>
      </trkpt>
      <trkpt lat="48.99024" lon="7.81714">
        <ele>338.20001220703</ele>
        <time>2020-05-18T15:34:38.000Z</time>
      </trkpt>
      <trkpt lat="48.99031" lon="7.81724">
        <ele>338.79998779297</ele>
        <time>2020-05-18T15:34:40.000Z</time>
      </trkpt>
      <trkpt lat="48.99052" lon="7.81767">
        <ele>339.79998779297</ele>
        <time>2020-05-18T15:34:46.000Z</time>
      </trkpt>
      <trkpt lat="48.99063" lon="7.81796">
        <ele>339.39999389648</ele>
        <time>2020-05-18T15:34:50.000Z</time>
      </trkpt>
      <trkpt lat="48.99068" lon="7.81809">
        <ele>339.20001220703</ele>
        <time>2020-05-18T15:34:52.000Z</time>
      </trkpt>
      <trkpt lat="48.99082" lon="7.81843">
        <ele>339.39999389648</ele>
        <time>2020-05-18T15:34:57.000Z</time>
      </trkpt>
      <trkpt lat="48.99085" lon="7.8185">
        <ele>339.60000610352</ele>
        <time>2020-05-18T15:34:58.000Z</time>
      </trkpt>
      <trkpt lat="48.99089" lon="7.81864">
        <ele>339.60000610352</ele>
        <time>2020-05-18T15:35:00.000Z</time>
      </trkpt>
      <trkpt lat="48.99091" lon="7.81877">
        <ele>339.60000610352</ele>
        <time>2020-05-18T15:35:02.000Z</time>
      </trkpt>
      <trkpt lat="48.99093" lon="7.81883">
        <ele>339.39999389648</ele>
        <time>2020-05-18T15:35:03.000Z</time>
      </trkpt>
      <trkpt lat="48.991" lon="7.81906">
        <ele>339.39999389648</ele>
        <time>2020-05-18T15:35:06.000Z</time>
      </trkpt>
      <trkpt lat="48.99102" lon="7.81913">
        <ele>339.39999389648</ele>
        <time>2020-05-18T15:35:07.000Z</time>
      </trkpt>
      <trkpt lat="48.99109" lon="7.81934">
        <ele>339.39999389648</ele>
        <time>2020-05-18T15:35:10.000Z</time>
      </trkpt>
      <trkpt lat="48.9911" lon="7.81941">
        <ele>339.60000610352</ele>
        <time>2020-05-18T15:35:11.000Z</time>
      </trkpt>
      <trkpt lat="48.99117" lon="7.81971">
        <ele>340</ele>
        <time>2020-05-18T15:35:15.000Z</time>
      </trkpt>
      <trkpt lat="48.99123" lon="7.81991">
        <ele>341</ele>
        <time>2020-05-18T15:35:19.000Z</time>
      </trkpt>
      <trkpt lat="48.99126" lon="7.82015">
        <ele>341.20001220703</ele>
        <time>2020-05-18T15:35:23.000Z</time>
      </trkpt>
      <trkpt lat="48.99132" lon="7.8205">
        <ele>340.20001220703</ele>
        <time>2020-05-18T15:35:29.000Z</time>
      </trkpt>
      <trkpt lat="48.99135" lon="7.82071">
        <ele>340.39999389648</ele>
        <time>2020-05-18T15:35:33.000Z</time>
      </trkpt>
      <trkpt lat="48.99138" lon="7.82094">
        <ele>340.60000610352</ele>
        <time>2020-05-18T15:35:37.000Z</time>
      </trkpt>
      <trkpt lat="48.99141" lon="7.82113">
        <ele>340.60000610352</ele>
        <time>2020-05-18T15:35:40.000Z</time>
      </trkpt>
      <trkpt lat="48.99148" lon="7.82147">
        <ele>341</ele>
        <time>2020-05-18T15:35:45.000Z</time>
      </trkpt>
      <trkpt lat="48.99153" lon="7.82166">
        <ele>341.39999389648</ele>
        <time>2020-05-18T15:35:49.000Z</time>
      </trkpt>
      <trkpt lat="48.99161" lon="7.82189">
        <ele>341.79998779297</ele>
        <time>2020-05-18T15:35:53.000Z</time>
      </trkpt>
      <trkpt lat="48.99164" lon="7.82196">
        <ele>341.39999389648</ele>
        <time>2020-05-18T15:35:54.000Z</time>
      </trkpt>
      <trkpt lat="48.99175" lon="7.82222">
        <ele>340.39999389648</ele>
        <time>2020-05-18T15:35:58.000Z</time>
      </trkpt>
      <trkpt lat="48.99178" lon="7.8223">
        <ele>340</ele>
        <time>2020-05-18T15:35:59.000Z</time>
      </trkpt>
      <trkpt lat="48.99181" lon="7.82238">
        <ele>339.79998779297</ele>
        <time>2020-05-18T15:36:00.000Z</time>
      </trkpt>
      <trkpt lat="48.99189" lon="7.82259">
        <ele>339.39999389648</ele>
        <time>2020-05-18T15:36:03.000Z</time>
      </trkpt>
      <trkpt lat="48.99195" lon="7.82274">
        <ele>339</ele>
        <time>2020-05-18T15:36:05.000Z</time>
      </trkpt>
      <trkpt lat="48.99199" lon="7.82289">
        <ele>338.20001220703</ele>
        <time>2020-05-18T15:36:07.000Z</time>
      </trkpt>
      <trkpt lat="48.99201" lon="7.82298">
        <ele>338.20001220703</ele>
        <time>2020-05-18T15:36:08.000Z</time>
      </trkpt>
      <trkpt lat="48.99203" lon="7.82307">
        <ele>337.79998779297</ele>
        <time>2020-05-18T15:36:09.000Z</time>
      </trkpt>
      <trkpt lat="48.99207" lon="7.82332">
        <ele>336.79998779297</ele>
        <time>2020-05-18T15:36:12.000Z</time>
      </trkpt>
      <trkpt lat="48.99208" lon="7.82341">
        <ele>337</ele>
        <time>2020-05-18T15:36:13.000Z</time>
      </trkpt>
      <trkpt lat="48.99209" lon="7.82365">
        <ele>337</ele>
        <time>2020-05-18T15:36:16.000Z</time>
      </trkpt>
      <trkpt lat="48.9921" lon="7.82387">
        <ele>337</ele>
        <time>2020-05-18T15:36:19.000Z</time>
      </trkpt>
      <trkpt lat="48.99215" lon="7.82424">
        <ele>336.79998779297</ele>
        <time>2020-05-18T15:36:24.000Z</time>
      </trkpt>
      <trkpt lat="48.99216" lon="7.8243">
        <ele>336.60000610352</ele>
        <time>2020-05-18T15:36:25.000Z</time>
      </trkpt>
      <trkpt lat="48.9922" lon="7.82456">
        <ele>336.79998779297</ele>
        <time>2020-05-18T15:36:29.000Z</time>
      </trkpt>
      <trkpt lat="48.99222" lon="7.82469">
        <ele>337</ele>
        <time>2020-05-18T15:36:31.000Z</time>
      </trkpt>
      <trkpt lat="48.99222" lon="7.82482">
        <ele>337</ele>
        <time>2020-05-18T15:36:33.000Z</time>
      </trkpt>
      <trkpt lat="48.99223" lon="7.82495">
        <ele>337</ele>
        <time>2020-05-18T15:36:35.000Z</time>
      </trkpt>
      <trkpt lat="48.99224" lon="7.82502">
        <ele>337</ele>
        <time>2020-05-18T15:36:36.000Z</time>
      </trkpt>
      <trkpt lat="48.99224" lon="7.82528">
        <ele>337</ele>
        <time>2020-05-18T15:36:40.000Z</time>
      </trkpt>
      <trkpt lat="48.99225" lon="7.82534">
        <ele>336.79998779297</ele>
        <time>2020-05-18T15:36:41.000Z</time>
      </trkpt>
      <trkpt lat="48.99228" lon="7.82554">
        <ele>336.39999389648</ele>
        <time>2020-05-18T15:36:44.000Z</time>
      </trkpt>
      <trkpt lat="48.9923" lon="7.82563">
        <ele>336.20001220703</ele>
        <time>2020-05-18T15:36:45.000Z</time>
      </trkpt>
      <trkpt lat="48.99233" lon="7.8257">
        <ele>336</ele>
        <time>2020-05-18T15:36:46.000Z</time>
      </trkpt>
      <trkpt lat="48.9924" lon="7.82585">
        <ele>334.79998779297</ele>
        <time>2020-05-18T15:36:48.000Z</time>
      </trkpt>
      <trkpt lat="48.99244" lon="7.82591">
        <ele>334.39999389648</ele>
        <time>2020-05-18T15:36:49.000Z</time>
      </trkpt>
      <trkpt lat="48.99247" lon="7.82599">
        <ele>333.39999389648</ele>
        <time>2020-05-18T15:36:51.000Z</time>
      </trkpt>
      <trkpt lat="48.99249" lon="7.82601">
        <ele>333</ele>
        <time>2020-05-18T15:36:52.000Z</time>
      </trkpt>
      <trkpt lat="48.99251" lon="7.82602">
        <ele>332.79998779297</ele>
        <time>2020-05-18T15:36:53.000Z</time>
      </trkpt>
      <trkpt lat="48.99255" lon="7.82601">
        <ele>332.79998779297</ele>
        <time>2020-05-18T15:36:54.000Z</time>
      </trkpt>
      <trkpt lat="48.9926" lon="7.82595">
        <ele>332.20001220703</ele>
        <time>2020-05-18T15:36:56.000Z</time>
      </trkpt>
      <trkpt lat="48.99274" lon="7.82578">
        <ele>331</ele>
        <time>2020-05-18T15:37:00.000Z</time>
      </trkpt>
      <trkpt lat="48.99283" lon="7.8257">
        <ele>330.60000610352</ele>
        <time>2020-05-18T15:37:02.000Z</time>
      </trkpt>
      <trkpt lat="48.99288" lon="7.82566">
        <ele>330</ele>
        <time>2020-05-18T15:37:03.000Z</time>
      </trkpt>
      <trkpt lat="48.99293" lon="7.82561">
        <ele>329.60000610352</ele>
        <time>2020-05-18T15:37:04.000Z</time>
      </trkpt>
      <trkpt lat="48.99299" lon="7.82558">
        <ele>329.20001220703</ele>
        <time>2020-05-18T15:37:05.000Z</time>
      </trkpt>
      <trkpt lat="48.99306" lon="7.82556">
        <ele>328.60000610352</ele>
        <time>2020-05-18T15:37:06.000Z</time>
      </trkpt>
      <trkpt lat="48.99321" lon="7.82554">
        <ele>326.79998779297</ele>
        <time>2020-05-18T15:37:08.000Z</time>
      </trkpt>
      <trkpt lat="48.99329" lon="7.82553">
        <ele>326</ele>
        <time>2020-05-18T15:37:09.000Z</time>
      </trkpt>
      <trkpt lat="48.99337" lon="7.82553">
        <ele>325.39999389648</ele>
        <time>2020-05-18T15:37:10.000Z</time>
      </trkpt>
      <trkpt lat="48.99346" lon="7.82551">
        <ele>324.79998779297</ele>
        <time>2020-05-18T15:37:11.000Z</time>
      </trkpt>
      <trkpt lat="48.99354" lon="7.82549">
        <ele>323.39999389648</ele>
        <time>2020-05-18T15:37:12.000Z</time>
      </trkpt>
      <trkpt lat="48.99363" lon="7.82546">
        <ele>322.39999389648</ele>
        <time>2020-05-18T15:37:13.000Z</time>
      </trkpt>
      <trkpt lat="48.99372" lon="7.82544">
        <ele>321.79998779297</ele>
        <time>2020-05-18T15:37:14.000Z</time>
      </trkpt>
      <trkpt lat="48.99379" lon="7.82542">
        <ele>321.20001220703</ele>
        <time>2020-05-18T15:37:15.000Z</time>
      </trkpt>
      <trkpt lat="48.99401" lon="7.82535">
        <ele>320.39999389648</ele>
        <time>2020-05-18T15:37:18.000Z</time>
      </trkpt>
      <trkpt lat="48.99408" lon="7.82533">
        <ele>320</ele>
        <time>2020-05-18T15:37:19.000Z</time>
      </trkpt>
      <trkpt lat="48.99421" lon="7.82528">
        <ele>319</ele>
        <time>2020-05-18T15:37:21.000Z</time>
      </trkpt>
      <trkpt lat="48.99426" lon="7.82528">
        <ele>318.79998779297</ele>
        <time>2020-05-18T15:37:22.000Z</time>
      </trkpt>
      <trkpt lat="48.99437" lon="7.82543">
        <ele>318.20001220703</ele>
        <time>2020-05-18T15:37:25.000Z</time>
      </trkpt>
      <trkpt lat="48.9944" lon="7.82568">
        <ele>318</ele>
        <time>2020-05-18T15:37:28.000Z</time>
      </trkpt>
      <trkpt lat="48.99433" lon="7.8259">
        <ele>317.79998779297</ele>
        <time>2020-05-18T15:37:31.000Z</time>
      </trkpt>
      <trkpt lat="48.9943" lon="7.82597">
        <ele>317.79998779297</ele>
        <time>2020-05-18T15:37:32.000Z</time>
      </trkpt>
      <trkpt lat="48.99414" lon="7.82627">
        <ele>318</ele>
        <time>2020-05-18T15:37:37.000Z</time>
      </trkpt>
      <trkpt lat="48.9941" lon="7.82633">
        <ele>318</ele>
        <time>2020-05-18T15:37:38.000Z</time>
      </trkpt>
      <trkpt lat="48.99401" lon="7.82646">
        <ele>317.60000610352</ele>
        <time>2020-05-18T15:37:40.000Z</time>
      </trkpt>
      <trkpt lat="48.99391" lon="7.8266">
        <ele>316.79998779297</ele>
        <time>2020-05-18T15:37:42.000Z</time>
      </trkpt>
      <trkpt lat="48.99386" lon="7.82669">
        <ele>315.79998779297</ele>
        <time>2020-05-18T15:37:43.000Z</time>
      </trkpt>
      <trkpt lat="48.9938" lon="7.82689">
        <ele>314.39999389648</ele>
        <time>2020-05-18T15:37:45.000Z</time>
      </trkpt>
      <trkpt lat="48.9938" lon="7.827">
        <ele>313.60000610352</ele>
        <time>2020-05-18T15:37:46.000Z</time>
      </trkpt>
      <trkpt lat="48.99382" lon="7.82711">
        <ele>313</ele>
        <time>2020-05-18T15:37:47.000Z</time>
      </trkpt>
      <trkpt lat="48.99388" lon="7.82732">
        <ele>312.39999389648</ele>
        <time>2020-05-18T15:37:49.000Z</time>
      </trkpt>
      <trkpt lat="48.99392" lon="7.82742">
        <ele>312</ele>
        <time>2020-05-18T15:37:50.000Z</time>
      </trkpt>
      <trkpt lat="48.99398" lon="7.82752">
        <ele>311.39999389648</ele>
        <time>2020-05-18T15:37:51.000Z</time>
      </trkpt>
      <trkpt lat="48.99404" lon="7.82762">
        <ele>310.79998779297</ele>
        <time>2020-05-18T15:37:52.000Z</time>
      </trkpt>
      <trkpt lat="48.99411" lon="7.82771">
        <ele>310</ele>
        <time>2020-05-18T15:37:53.000Z</time>
      </trkpt>
      <trkpt lat="48.99418" lon="7.8278">
        <ele>309.20001220703</ele>
        <time>2020-05-18T15:37:54.000Z</time>
      </trkpt>
      <trkpt lat="48.99426" lon="7.8279">
        <ele>308.39999389648</ele>
        <time>2020-05-18T15:37:55.000Z</time>
      </trkpt>
      <trkpt lat="48.99442" lon="7.82809">
        <ele>306.20001220703</ele>
        <time>2020-05-18T15:37:57.000Z</time>
      </trkpt>
      <trkpt lat="48.99449" lon="7.82818">
        <ele>304.79998779297</ele>
        <time>2020-05-18T15:37:58.000Z</time>
      </trkpt>
      <trkpt lat="48.99464" lon="7.82838">
        <ele>303.39999389648</ele>
        <time>2020-05-18T15:38:00.000Z</time>
      </trkpt>
      <trkpt lat="48.99478" lon="7.82856">
        <ele>302.79998779297</ele>
        <time>2020-05-18T15:38:02.000Z</time>
      </trkpt>
      <trkpt lat="48.99491" lon="7.82872">
        <ele>303</ele>
        <time>2020-05-18T15:38:04.000Z</time>
      </trkpt>
      <trkpt lat="48.99506" lon="7.82879">
        <ele>303.60000610352</ele>
        <time>2020-05-18T15:38:06.000Z</time>
      </trkpt>
      <trkpt lat="48.99526" lon="7.82877">
        <ele>304.79998779297</ele>
        <time>2020-05-18T15:38:09.000Z</time>
      </trkpt>
      <trkpt lat="48.99532" lon="7.82877">
        <ele>305.60000610352</ele>
        <time>2020-05-18T15:38:10.000Z</time>
      </trkpt>
      <trkpt lat="48.99538" lon="7.82877">
        <ele>306.20001220703</ele>
        <time>2020-05-18T15:38:11.000Z</time>
      </trkpt>
      <trkpt lat="48.99548" lon="7.82879">
        <ele>308</ele>
        <time>2020-05-18T15:38:13.000Z</time>
      </trkpt>
      <trkpt lat="48.99557" lon="7.82881">
        <ele>309.60000610352</ele>
        <time>2020-05-18T15:38:15.000Z</time>
      </trkpt>
      <trkpt lat="48.99567" lon="7.82883">
        <ele>310.79998779297</ele>
        <time>2020-05-18T15:38:17.000Z</time>
      </trkpt>
      <trkpt lat="48.99585" lon="7.8289">
        <ele>312</ele>
        <time>2020-05-18T15:38:21.000Z</time>
      </trkpt>
      <trkpt lat="48.99589" lon="7.82891">
        <ele>312.20001220703</ele>
        <time>2020-05-18T15:38:22.000Z</time>
      </trkpt>
      <trkpt lat="48.99629" lon="7.82911">
        <ele>312.60000610352</ele>
        <time>2020-05-18T15:38:31.000Z</time>
      </trkpt>
      <trkpt lat="48.99637" lon="7.82915">
        <ele>312.60000610352</ele>
        <time>2020-05-18T15:38:33.000Z</time>
      </trkpt>
      <trkpt lat="48.99655" lon="7.82922">
        <ele>311.60000610352</ele>
        <time>2020-05-18T15:38:37.000Z</time>
      </trkpt>
      <trkpt lat="48.99666" lon="7.82926">
        <ele>310.79998779297</ele>
        <time>2020-05-18T15:38:39.000Z</time>
      </trkpt>
      <trkpt lat="48.99671" lon="7.82928">
        <ele>310.39999389648</ele>
        <time>2020-05-18T15:38:40.000Z</time>
      </trkpt>
      <trkpt lat="48.99684" lon="7.82929">
        <ele>309.79998779297</ele>
        <time>2020-05-18T15:38:42.000Z</time>
      </trkpt>
      <trkpt lat="48.9969" lon="7.82931">
        <ele>309.20001220703</ele>
        <time>2020-05-18T15:38:43.000Z</time>
      </trkpt>
      <trkpt lat="48.99704" lon="7.82938">
        <ele>308.60000610352</ele>
        <time>2020-05-18T15:38:45.000Z</time>
      </trkpt>
      <trkpt lat="48.9971" lon="7.82942">
        <ele>308</ele>
        <time>2020-05-18T15:38:46.000Z</time>
      </trkpt>
      <trkpt lat="48.99725" lon="7.82952">
        <ele>307</ele>
        <time>2020-05-18T15:38:48.000Z</time>
      </trkpt>
      <trkpt lat="48.99732" lon="7.82958">
        <ele>305.79998779297</ele>
        <time>2020-05-18T15:38:49.000Z</time>
      </trkpt>
      <trkpt lat="48.9974" lon="7.82964">
        <ele>304.60000610352</ele>
        <time>2020-05-18T15:38:50.000Z</time>
      </trkpt>
      <trkpt lat="48.99748" lon="7.82968">
        <ele>303.60000610352</ele>
        <time>2020-05-18T15:38:51.000Z</time>
      </trkpt>
      <trkpt lat="48.99766" lon="7.82976">
        <ele>301.60000610352</ele>
        <time>2020-05-18T15:38:53.000Z</time>
      </trkpt>
      <trkpt lat="48.99775" lon="7.8298">
        <ele>300.60000610352</ele>
        <time>2020-05-18T15:38:54.000Z</time>
      </trkpt>
      <trkpt lat="48.99784" lon="7.82985">
        <ele>299.20001220703</ele>
        <time>2020-05-18T15:38:55.000Z</time>
      </trkpt>
      <trkpt lat="48.99802" lon="7.82998">
        <ele>297.20001220703</ele>
        <time>2020-05-18T15:38:57.000Z</time>
      </trkpt>
      <trkpt lat="48.99811" lon="7.83005">
        <ele>296</ele>
        <time>2020-05-18T15:38:58.000Z</time>
      </trkpt>
      <trkpt lat="48.99828" lon="7.83018">
        <ele>295</ele>
        <time>2020-05-18T15:39:00.000Z</time>
      </trkpt>
      <trkpt lat="48.99836" lon="7.83023">
        <ele>294.79998779297</ele>
        <time>2020-05-18T15:39:01.000Z</time>
      </trkpt>
      <trkpt lat="48.99847" lon="7.83032">
        <ele>295</ele>
        <time>2020-05-18T15:39:03.000Z</time>
      </trkpt>
      <trkpt lat="48.9985" lon="7.83048">
        <ele>296.20001220703</ele>
        <time>2020-05-18T15:39:06.000Z</time>
      </trkpt>
      <trkpt lat="48.99841" lon="7.8306">
        <ele>297.20001220703</ele>
        <time>2020-05-18T15:39:09.000Z</time>
      </trkpt>
      <trkpt lat="48.99838" lon="7.83062">
        <ele>297.20001220703</ele>
        <time>2020-05-18T15:39:10.000Z</time>
      </trkpt>
      <trkpt lat="48.99819" lon="7.83075">
        <ele>298.20001220703</ele>
        <time>2020-05-18T15:39:15.000Z</time>
      </trkpt>
      <trkpt lat="48.99809" lon="7.83083">
        <ele>299</ele>
        <time>2020-05-18T15:39:18.000Z</time>
      </trkpt>
      <trkpt lat="48.99802" lon="7.83088">
        <ele>299.39999389648</ele>
        <time>2020-05-18T15:39:20.000Z</time>
      </trkpt>
      <trkpt lat="48.99796" lon="7.83098">
        <ele>299.79998779297</ele>
        <time>2020-05-18T15:39:23.000Z</time>
      </trkpt>
      <trkpt lat="48.99795" lon="7.83102">
        <ele>300</ele>
        <time>2020-05-18T15:39:24.000Z</time>
      </trkpt>
      <trkpt lat="48.99797" lon="7.83111">
        <ele>300</ele>
        <time>2020-05-18T15:39:26.000Z</time>
      </trkpt>
      <trkpt lat="48.99801" lon="7.83122">
        <ele>299.79998779297</ele>
        <time>2020-05-18T15:39:28.000Z</time>
      </trkpt>
      <trkpt lat="48.99808" lon="7.83136">
        <ele>299</ele>
        <time>2020-05-18T15:39:30.000Z</time>
      </trkpt>
      <trkpt lat="48.99812" lon="7.83144">
        <ele>298.20001220703</ele>
        <time>2020-05-18T15:39:31.000Z</time>
      </trkpt>
      <trkpt lat="48.99816" lon="7.83154">
        <ele>296.60000610352</ele>
        <time>2020-05-18T15:39:32.000Z</time>
      </trkpt>
      <trkpt lat="48.99821" lon="7.83164">
        <ele>295.20001220703</ele>
        <time>2020-05-18T15:39:33.000Z</time>
      </trkpt>
      <trkpt lat="48.99825" lon="7.83174">
        <ele>294.39999389648</ele>
        <time>2020-05-18T15:39:34.000Z</time>
      </trkpt>
      <trkpt lat="48.9983" lon="7.83186">
        <ele>292.79998779297</ele>
        <time>2020-05-18T15:39:35.000Z</time>
      </trkpt>
      <trkpt lat="48.99836" lon="7.83198">
        <ele>291.79998779297</ele>
        <time>2020-05-18T15:39:36.000Z</time>
      </trkpt>
      <trkpt lat="48.99847" lon="7.83222">
        <ele>290</ele>
        <time>2020-05-18T15:39:38.000Z</time>
      </trkpt>
      <trkpt lat="48.99853" lon="7.83235">
        <ele>288</ele>
        <time>2020-05-18T15:39:39.000Z</time>
      </trkpt>
      <trkpt lat="48.99858" lon="7.83249">
        <ele>286.60000610352</ele>
        <time>2020-05-18T15:39:40.000Z</time>
      </trkpt>
      <trkpt lat="48.99864" lon="7.83263">
        <ele>285.60000610352</ele>
        <time>2020-05-18T15:39:41.000Z</time>
      </trkpt>
      <trkpt lat="48.99873" lon="7.83289">
        <ele>284.20001220703</ele>
        <time>2020-05-18T15:39:43.000Z</time>
      </trkpt>
      <trkpt lat="48.99888" lon="7.8333">
        <ele>283.20001220703</ele>
        <time>2020-05-18T15:39:46.000Z</time>
      </trkpt>
      <trkpt lat="48.99897" lon="7.83357">
        <ele>281.79998779297</ele>
        <time>2020-05-18T15:39:48.000Z</time>
      </trkpt>
      <trkpt lat="48.99912" lon="7.83404">
        <ele>281</ele>
        <time>2020-05-18T15:39:52.000Z</time>
      </trkpt>
      <trkpt lat="48.99922" lon="7.83411">
        <ele>281.60000610352</ele>
        <time>2020-05-18T15:39:54.000Z</time>
      </trkpt>
      <trkpt lat="48.99936" lon="7.83408">
        <ele>281.39999389648</ele>
        <time>2020-05-18T15:39:56.000Z</time>
      </trkpt>
      <trkpt lat="48.99943" lon="7.83405">
        <ele>281.20001220703</ele>
        <time>2020-05-18T15:39:57.000Z</time>
      </trkpt>
      <trkpt lat="48.99951" lon="7.83403">
        <ele>280.20001220703</ele>
        <time>2020-05-18T15:39:58.000Z</time>
      </trkpt>
      <trkpt lat="48.9996" lon="7.834">
        <ele>278.60000610352</ele>
        <time>2020-05-18T15:39:59.000Z</time>
      </trkpt>
      <trkpt lat="48.99968" lon="7.83397">
        <ele>276.60000610352</ele>
        <time>2020-05-18T15:40:00.000Z</time>
      </trkpt>
      <trkpt lat="48.99976" lon="7.83391">
        <ele>274.39999389648</ele>
        <time>2020-05-18T15:40:01.000Z</time>
      </trkpt>
      <trkpt lat="48.99982" lon="7.83383">
        <ele>273</ele>
        <time>2020-05-18T15:40:02.000Z</time>
      </trkpt>
      <trkpt lat="48.99986" lon="7.83374">
        <ele>271.60000610352</ele>
        <time>2020-05-18T15:40:03.000Z</time>
      </trkpt>
      <trkpt lat="48.99991" lon="7.83364">
        <ele>270.60000610352</ele>
        <time>2020-05-18T15:40:04.000Z</time>
      </trkpt>
      <trkpt lat="48.99996" lon="7.83356">
        <ele>270.20001220703</ele>
        <time>2020-05-18T15:40:05.000Z</time>
      </trkpt>
      <trkpt lat="49.00008" lon="7.83345">
        <ele>270.60000610352</ele>
        <time>2020-05-18T15:40:07.000Z</time>
      </trkpt>
      <trkpt lat="49.00013" lon="7.83343">
        <ele>271.79998779297</ele>
        <time>2020-05-18T15:40:08.000Z</time>
      </trkpt>
      <trkpt lat="49.00019" lon="7.8334">
        <ele>272.79998779297</ele>
        <time>2020-05-18T15:40:09.000Z</time>
      </trkpt>
      <trkpt lat="49.00028" lon="7.83337">
        <ele>274.60000610352</ele>
        <time>2020-05-18T15:40:11.000Z</time>
      </trkpt>
      <trkpt lat="49.00035" lon="7.83334">
        <ele>275.60000610352</ele>
        <time>2020-05-18T15:40:13.000Z</time>
      </trkpt>
      <trkpt lat="49.0004" lon="7.83333">
        <ele>276.79998779297</ele>
        <time>2020-05-18T15:40:15.000Z</time>
      </trkpt>
      <trkpt lat="49.00042" lon="7.83332">
        <ele>277</ele>
        <time>2020-05-18T15:40:16.000Z</time>
      </trkpt>
      <trkpt lat="49.00048" lon="7.83328">
        <ele>278</ele>
        <time>2020-05-18T15:40:19.000Z</time>
      </trkpt>
      <trkpt lat="49.00053" lon="7.83323">
        <ele>279.20001220703</ele>
        <time>2020-05-18T15:40:22.000Z</time>
      </trkpt>
      <trkpt lat="49.00055" lon="7.8332">
        <ele>280.20001220703</ele>
        <time>2020-05-18T15:40:24.000Z</time>
      </trkpt>
      <trkpt lat="49.00056" lon="7.83318">
        <ele>280.60000610352</ele>
        <time>2020-05-18T15:40:25.000Z</time>
      </trkpt>
      <trkpt lat="49.0006" lon="7.83308">
        <ele>281.39999389648</ele>
        <time>2020-05-18T15:40:29.000Z</time>
      </trkpt>
      <trkpt lat="49.00061" lon="7.83306">
        <ele>281.79998779297</ele>
        <time>2020-05-18T15:40:30.000Z</time>
      </trkpt>
      <trkpt lat="49.00066" lon="7.83296">
        <ele>282.79998779297</ele>
        <time>2020-05-18T15:40:35.000Z</time>
      </trkpt>
      <trkpt lat="49.00069" lon="7.83291">
        <ele>284</ele>
        <time>2020-05-18T15:40:38.000Z</time>
      </trkpt>
      <trkpt lat="49.0007" lon="7.83283">
        <ele>284.79998779297</ele>
        <time>2020-05-18T15:40:42.000Z</time>
      </trkpt>
      <trkpt lat="49.00071" lon="7.83278">
        <ele>285.20001220703</ele>
        <time>2020-05-18T15:40:44.000Z</time>
      </trkpt>
      <trkpt lat="49.00072" lon="7.83275">
        <ele>285.39999389648</ele>
        <time>2020-05-18T15:40:45.000Z</time>
      </trkpt>
      <trkpt lat="49.00073" lon="7.83268">
        <ele>285.79998779297</ele>
        <time>2020-05-18T15:40:47.000Z</time>
      </trkpt>
      <trkpt lat="49.00076" lon="7.83258">
        <ele>286.20001220703</ele>
        <time>2020-05-18T15:40:50.000Z</time>
      </trkpt>
      <trkpt lat="49.00078" lon="7.83247">
        <ele>286.79998779297</ele>
        <time>2020-05-18T15:40:53.000Z</time>
      </trkpt>
      <trkpt lat="49.00079" lon="7.8324">
        <ele>287.39999389648</ele>
        <time>2020-05-18T15:40:55.000Z</time>
      </trkpt>
      <trkpt lat="49.0008" lon="7.83235">
        <ele>287.60000610352</ele>
        <time>2020-05-18T15:40:57.000Z</time>
      </trkpt>
      <trkpt lat="49.00081" lon="7.83233">
        <ele>287.60000610352</ele>
        <time>2020-05-18T15:40:58.000Z</time>
      </trkpt>
      <trkpt lat="49.00086" lon="7.8322">
        <ele>288.39999389648</ele>
        <time>2020-05-18T15:41:03.000Z</time>
      </trkpt>
      <trkpt lat="49.00087" lon="7.83218">
        <ele>288.60000610352</ele>
        <time>2020-05-18T15:41:04.000Z</time>
      </trkpt>
      <trkpt lat="49.00089" lon="7.83211">
        <ele>289.20001220703</ele>
        <time>2020-05-18T15:41:08.000Z</time>
      </trkpt>
      <trkpt lat="49.0009" lon="7.83206">
        <ele>289.79998779297</ele>
        <time>2020-05-18T15:41:10.000Z</time>
      </trkpt>
      <trkpt lat="49.00091" lon="7.83203">
        <ele>290</ele>
        <time>2020-05-18T15:41:11.000Z</time>
      </trkpt>
      <trkpt lat="49.00092" lon="7.83201">
        <ele>290</ele>
        <time>2020-05-18T15:41:12.000Z</time>
      </trkpt>
      <trkpt lat="49.00095" lon="7.8319">
        <ele>290.60000610352</ele>
        <time>2020-05-18T15:41:17.000Z</time>
      </trkpt>
      <trkpt lat="49.00096" lon="7.83186">
        <ele>290.79998779297</ele>
        <time>2020-05-18T15:41:18.000Z</time>
      </trkpt>
      <trkpt lat="49.00099" lon="7.83171">
        <ele>291.60000610352</ele>
        <time>2020-05-18T15:41:23.000Z</time>
      </trkpt>
      <trkpt lat="49.00101" lon="7.83159">
        <ele>292</ele>
        <time>2020-05-18T15:41:27.000Z</time>
      </trkpt>
      <trkpt lat="49.00102" lon="7.83156">
        <ele>292</ele>
        <time>2020-05-18T15:41:28.000Z</time>
      </trkpt>
      <trkpt lat="49.00108" lon="7.83139">
        <ele>292.79998779297</ele>
        <time>2020-05-18T15:41:34.000Z</time>
      </trkpt>
      <trkpt lat="49.00109" lon="7.83136">
        <ele>293</ele>
        <time>2020-05-18T15:41:35.000Z</time>
      </trkpt>
      <trkpt lat="49.00114" lon="7.83125">
        <ele>293.79998779297</ele>
        <time>2020-05-18T15:41:40.000Z</time>
      </trkpt>
      <trkpt lat="49.00116" lon="7.83122">
        <ele>294.20001220703</ele>
        <time>2020-05-18T15:41:42.000Z</time>
      </trkpt>
      <trkpt lat="49.00117" lon="7.8312">
        <ele>295</ele>
        <time>2020-05-18T15:41:45.000Z</time>
      </trkpt>
      <trkpt lat="49.00118" lon="7.83119">
        <ele>295.20001220703</ele>
        <time>2020-05-18T15:41:54.000Z</time>
      </trkpt>
      <trkpt lat="49.00122" lon="7.83106">
        <ele>296.39999389648</ele>
        <time>2020-05-18T15:42:17.000Z</time>
      </trkpt>
      <trkpt lat="49.00123" lon="7.83103">
        <ele>296.39999389648</ele>
        <time>2020-05-18T15:42:18.000Z</time>
      </trkpt>
      <trkpt lat="49.00124" lon="7.831">
        <ele>296.39999389648</ele>
        <time>2020-05-18T15:42:19.000Z</time>
      </trkpt>
      <trkpt lat="49.00127" lon="7.83088">
        <ele>296.60000610352</ele>
        <time>2020-05-18T15:42:23.000Z</time>
      </trkpt>
      <trkpt lat="49.00127" lon="7.83085">
        <ele>296.79998779297</ele>
        <time>2020-05-18T15:42:24.000Z</time>
      </trkpt>
      <trkpt lat="49.00131" lon="7.83074">
        <ele>297.39999389648</ele>
        <time>2020-05-18T15:42:28.000Z</time>
      </trkpt>
      <trkpt lat="49.00132" lon="7.8307">
        <ele>297.60000610352</ele>
        <time>2020-05-18T15:42:29.000Z</time>
      </trkpt>
      <trkpt lat="49.00135" lon="7.83061">
        <ele>298.20001220703</ele>
        <time>2020-05-18T15:42:32.000Z</time>
      </trkpt>
      <trkpt lat="49.00135" lon="7.83057">
        <ele>298.39999389648</ele>
        <time>2020-05-18T15:42:33.000Z</time>
      </trkpt>
      <trkpt lat="49.00136" lon="7.83052">
        <ele>298.79998779297</ele>
        <time>2020-05-18T15:42:35.000Z</time>
      </trkpt>
      <trkpt lat="49.00138" lon="7.83041">
        <ele>299.60000610352</ele>
        <time>2020-05-18T15:42:38.000Z</time>
      </trkpt>
      <trkpt lat="49.00139" lon="7.83037">
        <ele>299.60000610352</ele>
        <time>2020-05-18T15:42:39.000Z</time>
      </trkpt>
      <trkpt lat="49.00141" lon="7.83029">
        <ele>299.79998779297</ele>
        <time>2020-05-18T15:42:41.000Z</time>
      </trkpt>
      <trkpt lat="49.00142" lon="7.83001">
        <ele>299.79998779297</ele>
        <time>2020-05-18T15:42:47.000Z</time>
      </trkpt>
      <trkpt lat="49.00144" lon="7.82966">
        <ele>300.39999389648</ele>
        <time>2020-05-18T15:42:54.000Z</time>
      </trkpt>
      <trkpt lat="49.00147" lon="7.82941">
        <ele>300.60000610352</ele>
        <time>2020-05-18T15:42:59.000Z</time>
      </trkpt>
      <trkpt lat="49.00148" lon="7.82925">
        <ele>300.60000610352</ele>
        <time>2020-05-18T15:43:02.000Z</time>
      </trkpt>
      <trkpt lat="49.0015" lon="7.82916">
        <ele>300.79998779297</ele>
        <time>2020-05-18T15:43:04.000Z</time>
      </trkpt>
      <trkpt lat="49.00154" lon="7.82887">
        <ele>300.79998779297</ele>
        <time>2020-05-18T15:43:10.000Z</time>
      </trkpt>
      <trkpt lat="49.00157" lon="7.82866">
        <ele>301.39999389648</ele>
        <time>2020-05-18T15:43:15.000Z</time>
      </trkpt>
      <trkpt lat="49.00159" lon="7.82847">
        <ele>301.79998779297</ele>
        <time>2020-05-18T15:43:19.000Z</time>
      </trkpt>
      <trkpt lat="49.0016" lon="7.82832">
        <ele>301.79998779297</ele>
        <time>2020-05-18T15:43:22.000Z</time>
      </trkpt>
      <trkpt lat="49.00165" lon="7.82779">
        <ele>302</ele>
        <time>2020-05-18T15:43:32.000Z</time>
      </trkpt>
      <trkpt lat="49.0017" lon="7.82726">
        <ele>301.79998779297</ele>
        <time>2020-05-18T15:43:42.000Z</time>
      </trkpt>
      <trkpt lat="49.00174" lon="7.82707">
        <ele>303</ele>
        <time>2020-05-18T15:43:46.000Z</time>
      </trkpt>
      <trkpt lat="49.0018" lon="7.82689">
        <ele>303</ele>
        <time>2020-05-18T15:43:50.000Z</time>
      </trkpt>
      <trkpt lat="49.00193" lon="7.82665">
        <ele>304</ele>
        <time>2020-05-18T15:43:57.000Z</time>
      </trkpt>
      <trkpt lat="49.00209" lon="7.82645">
        <ele>304.79998779297</ele>
        <time>2020-05-18T15:44:05.000Z</time>
      </trkpt>
      <trkpt lat="49.00213" lon="7.82642">
        <ele>305.20001220703</ele>
        <time>2020-05-18T15:44:07.000Z</time>
      </trkpt>
      <trkpt lat="49.00228" lon="7.82631">
        <ele>305.79998779297</ele>
        <time>2020-05-18T15:44:14.000Z</time>
      </trkpt>
      <trkpt lat="49.00233" lon="7.82629">
        <ele>306</ele>
        <time>2020-05-18T15:44:16.000Z</time>
      </trkpt>
      <trkpt lat="49.00237" lon="7.82626">
        <ele>306.39999389648</ele>
        <time>2020-05-18T15:44:18.000Z</time>
      </trkpt>
      <trkpt lat="49.00241" lon="7.82623">
        <ele>307</ele>
        <time>2020-05-18T15:44:20.000Z</time>
      </trkpt>
      <trkpt lat="49.00243" lon="7.82621">
        <ele>307.39999389648</ele>
        <time>2020-05-18T15:44:21.000Z</time>
      </trkpt>
      <trkpt lat="49.00256" lon="7.82612">
        <ele>308.39999389648</ele>
        <time>2020-05-18T15:44:27.000Z</time>
      </trkpt>
      <trkpt lat="49.0026" lon="7.82608">
        <ele>308.79998779297</ele>
        <time>2020-05-18T15:44:29.000Z</time>
      </trkpt>
      <trkpt lat="49.00264" lon="7.82604">
        <ele>309.39999389648</ele>
        <time>2020-05-18T15:44:31.000Z</time>
      </trkpt>
      <trkpt lat="49.00272" lon="7.82597">
        <ele>310.60000610352</ele>
        <time>2020-05-18T15:44:35.000Z</time>
      </trkpt>
      <trkpt lat="49.00279" lon="7.82589">
        <ele>311.20001220703</ele>
        <time>2020-05-18T15:44:39.000Z</time>
      </trkpt>
      <trkpt lat="49.00298" lon="7.8257">
        <ele>311.60000610352</ele>
        <time>2020-05-18T15:44:49.000Z</time>
      </trkpt>
      <trkpt lat="49.003" lon="7.82567">
        <ele>311.60000610352</ele>
        <time>2020-05-18T15:44:50.000Z</time>
      </trkpt>
      <trkpt lat="49.00307" lon="7.82557">
        <ele>312.79998779297</ele>
        <time>2020-05-18T15:44:55.000Z</time>
      </trkpt>
      <trkpt lat="49.00308" lon="7.82556">
        <ele>313</ele>
        <time>2020-05-18T15:44:56.000Z</time>
      </trkpt>
      <trkpt lat="49.00308" lon="7.82555">
        <ele>313.79998779297</ele>
        <time>2020-05-18T15:45:06.000Z</time>
      </trkpt>
      <trkpt lat="49.00308" lon="7.82555">
        <ele>314</ele>
        <time>2020-05-18T15:45:07.000Z</time>
      </trkpt>
      <trkpt lat="49.00313" lon="7.82551">
        <ele>313.79998779297</ele>
        <time>2020-05-18T15:45:20.000Z</time>
      </trkpt>
      <trkpt lat="49.00316" lon="7.82548">
        <ele>313.79998779297</ele>
        <time>2020-05-18T15:45:22.000Z</time>
      </trkpt>
      <trkpt lat="49.00319" lon="7.82549">
        <ele>314.39999389648</ele>
        <time>2020-05-18T15:45:24.000Z</time>
      </trkpt>
      <trkpt lat="49.00321" lon="7.82555">
        <ele>315.20001220703</ele>
        <time>2020-05-18T15:45:28.000Z</time>
      </trkpt>
      <trkpt lat="49.00325" lon="7.82569">
        <ele>315.79998779297</ele>
        <time>2020-05-18T15:45:34.000Z</time>
      </trkpt>
      <trkpt lat="49.0033" lon="7.82586">
        <ele>316</ele>
        <time>2020-05-18T15:45:40.000Z</time>
      </trkpt>
      <trkpt lat="49.00331" lon="7.82595">
        <ele>316.20001220703</ele>
        <time>2020-05-18T15:45:42.000Z</time>
      </trkpt>
      <trkpt lat="49.00332" lon="7.82606">
        <ele>316.60000610352</ele>
        <time>2020-05-18T15:45:45.000Z</time>
      </trkpt>
      <trkpt lat="49.00338" lon="7.82628">
        <ele>317.39999389648</ele>
        <time>2020-05-18T15:45:50.000Z</time>
      </trkpt>
      <trkpt lat="49.00343" lon="7.82652">
        <ele>318.20001220703</ele>
        <time>2020-05-18T15:45:55.000Z</time>
      </trkpt>
      <trkpt lat="49.00347" lon="7.8268">
        <ele>318.60000610352</ele>
        <time>2020-05-18T15:46:01.000Z</time>
      </trkpt>
      <trkpt lat="49.00348" lon="7.82692">
        <ele>319.20001220703</ele>
        <time>2020-05-18T15:46:03.000Z</time>
      </trkpt>
      <trkpt lat="49.00351" lon="7.82716">
        <ele>319.79998779297</ele>
        <time>2020-05-18T15:46:08.000Z</time>
      </trkpt>
      <trkpt lat="49.00352" lon="7.82721">
        <ele>320</ele>
        <time>2020-05-18T15:46:09.000Z</time>
      </trkpt>
      <trkpt lat="49.0036" lon="7.82761">
        <ele>320.60000610352</ele>
        <time>2020-05-18T15:46:17.000Z</time>
      </trkpt>
      <trkpt lat="49.0036" lon="7.82766">
        <ele>320.79998779297</ele>
        <time>2020-05-18T15:46:18.000Z</time>
      </trkpt>
      <trkpt lat="49.00365" lon="7.82799">
        <ele>322</ele>
        <time>2020-05-18T15:46:25.000Z</time>
      </trkpt>
      <trkpt lat="49.00366" lon="7.82804">
        <ele>322.20001220703</ele>
        <time>2020-05-18T15:46:26.000Z</time>
      </trkpt>
      <trkpt lat="49.00371" lon="7.82824">
        <ele>323</ele>
        <time>2020-05-18T15:46:31.000Z</time>
      </trkpt>
      <trkpt lat="49.00372" lon="7.82828">
        <ele>323.20001220703</ele>
        <time>2020-05-18T15:46:32.000Z</time>
      </trkpt>
      <trkpt lat="49.00379" lon="7.8285">
        <ele>323.60000610352</ele>
        <time>2020-05-18T15:46:37.000Z</time>
      </trkpt>
      <trkpt lat="49.00381" lon="7.82859">
        <ele>324.39999389648</ele>
        <time>2020-05-18T15:46:39.000Z</time>
      </trkpt>
      <trkpt lat="49.00387" lon="7.8288">
        <ele>325</ele>
        <time>2020-05-18T15:46:44.000Z</time>
      </trkpt>
      <trkpt lat="49.0039" lon="7.82898">
        <ele>325.39999389648</ele>
        <time>2020-05-18T15:46:48.000Z</time>
      </trkpt>
      <trkpt lat="49.00392" lon="7.82905">
        <ele>325.79998779297</ele>
        <time>2020-05-18T15:46:50.000Z</time>
      </trkpt>
      <trkpt lat="49.00399" lon="7.82935">
        <ele>326.20001220703</ele>
        <time>2020-05-18T15:46:56.000Z</time>
      </trkpt>
      <trkpt lat="49.00401" lon="7.82943">
        <ele>326.39999389648</ele>
        <time>2020-05-18T15:46:58.000Z</time>
      </trkpt>
      <trkpt lat="49.00404" lon="7.82955">
        <ele>326.79998779297</ele>
        <time>2020-05-18T15:47:01.000Z</time>
      </trkpt>
      <trkpt lat="49.00414" lon="7.82976">
        <ele>327.20001220703</ele>
        <time>2020-05-18T15:47:07.000Z</time>
      </trkpt>
      <trkpt lat="49.00416" lon="7.82984">
        <ele>327.60000610352</ele>
        <time>2020-05-18T15:47:09.000Z</time>
      </trkpt>
      <trkpt lat="49.0042" lon="7.82999">
        <ele>328</ele>
        <time>2020-05-18T15:47:12.000Z</time>
      </trkpt>
      <trkpt lat="49.00429" lon="7.83029">
        <ele>328.60000610352</ele>
        <time>2020-05-18T15:47:18.000Z</time>
      </trkpt>
      <trkpt lat="49.0043" lon="7.83034">
        <ele>328.79998779297</ele>
        <time>2020-05-18T15:47:19.000Z</time>
      </trkpt>
      <trkpt lat="49.00439" lon="7.83064">
        <ele>329.60000610352</ele>
        <time>2020-05-18T15:47:25.000Z</time>
      </trkpt>
      <trkpt lat="49.00443" lon="7.83083">
        <ele>329.60000610352</ele>
        <time>2020-05-18T15:47:29.000Z</time>
      </trkpt>
      <trkpt lat="49.00445" lon="7.83091">
        <ele>329.60000610352</ele>
        <time>2020-05-18T15:47:31.000Z</time>
      </trkpt>
      <trkpt lat="49.00454" lon="7.83113">
        <ele>330.20001220703</ele>
        <time>2020-05-18T15:47:36.000Z</time>
      </trkpt>
      <trkpt lat="49.00465" lon="7.8314">
        <ele>330.60000610352</ele>
        <time>2020-05-18T15:47:42.000Z</time>
      </trkpt>
      <trkpt lat="49.00469" lon="7.8315">
        <ele>331</ele>
        <time>2020-05-18T15:47:44.000Z</time>
      </trkpt>
      <trkpt lat="49.00478" lon="7.83171">
        <ele>331.20001220703</ele>
        <time>2020-05-18T15:47:49.000Z</time>
      </trkpt>
      <trkpt lat="49.00485" lon="7.83198">
        <ele>330.79998779297</ele>
        <time>2020-05-18T15:47:54.000Z</time>
      </trkpt>
      <trkpt lat="49.00492" lon="7.83228">
        <ele>331</ele>
        <time>2020-05-18T15:48:00.000Z</time>
      </trkpt>
      <trkpt lat="49.00497" lon="7.83255">
        <ele>330.60000610352</ele>
        <time>2020-05-18T15:48:05.000Z</time>
      </trkpt>
      <trkpt lat="49.00506" lon="7.83284">
        <ele>331.39999389648</ele>
        <time>2020-05-18T15:48:11.000Z</time>
      </trkpt>
      <trkpt lat="49.00512" lon="7.83302">
        <ele>331.79998779297</ele>
        <time>2020-05-18T15:48:15.000Z</time>
      </trkpt>
      <trkpt lat="49.00514" lon="7.83308">
        <ele>332.20001220703</ele>
        <time>2020-05-18T15:48:16.000Z</time>
      </trkpt>
      <trkpt lat="49.00523" lon="7.83335">
        <ele>332.60000610352</ele>
        <time>2020-05-18T15:48:20.000Z</time>
      </trkpt>
      <trkpt lat="49.00528" lon="7.83356">
        <ele>332.79998779297</ele>
        <time>2020-05-18T15:48:23.000Z</time>
      </trkpt>
      <trkpt lat="49.00531" lon="7.83365">
        <ele>333</ele>
        <time>2020-05-18T15:48:24.000Z</time>
      </trkpt>
      <trkpt lat="49.00538" lon="7.83385">
        <ele>333.20001220703</ele>
        <time>2020-05-18T15:48:27.000Z</time>
      </trkpt>
      <trkpt lat="49.00541" lon="7.83391">
        <ele>333.39999389648</ele>
        <time>2020-05-18T15:48:28.000Z</time>
      </trkpt>
      <trkpt lat="49.00546" lon="7.83403">
        <ele>333.60000610352</ele>
        <time>2020-05-18T15:48:30.000Z</time>
      </trkpt>
      <trkpt lat="49.00549" lon="7.83409">
        <ele>333.79998779297</ele>
        <time>2020-05-18T15:48:31.000Z</time>
      </trkpt>
      <trkpt lat="49.00551" lon="7.83413">
        <ele>334</ele>
        <time>2020-05-18T15:48:32.000Z</time>
      </trkpt>
      <trkpt lat="49.00559" lon="7.83428">
        <ele>334.60000610352</ele>
        <time>2020-05-18T15:48:36.000Z</time>
      </trkpt>
      <trkpt lat="49.00562" lon="7.83431">
        <ele>335</ele>
        <time>2020-05-18T15:48:37.000Z</time>
      </trkpt>
      <trkpt lat="49.00569" lon="7.83441">
        <ele>335.79998779297</ele>
        <time>2020-05-18T15:48:40.000Z</time>
      </trkpt>
      <trkpt lat="49.00578" lon="7.83455">
        <ele>336</ele>
        <time>2020-05-18T15:48:44.000Z</time>
      </trkpt>
      <trkpt lat="49.00581" lon="7.83458">
        <ele>336.20001220703</ele>
        <time>2020-05-18T15:48:45.000Z</time>
      </trkpt>
      <trkpt lat="49.00587" lon="7.83467">
        <ele>336.39999389648</ele>
        <time>2020-05-18T15:48:48.000Z</time>
      </trkpt>
      <trkpt lat="49.00594" lon="7.83475">
        <ele>337.20001220703</ele>
        <time>2020-05-18T15:48:51.000Z</time>
      </trkpt>
      <trkpt lat="49.00601" lon="7.83481">
        <ele>337.79998779297</ele>
        <time>2020-05-18T15:48:54.000Z</time>
      </trkpt>
      <trkpt lat="49.00608" lon="7.83489">
        <ele>338.20001220703</ele>
        <time>2020-05-18T15:48:56.000Z</time>
      </trkpt>
      <trkpt lat="49.00617" lon="7.83495">
        <ele>338.79998779297</ele>
        <time>2020-05-18T15:48:59.000Z</time>
      </trkpt>
      <trkpt lat="49.00622" lon="7.83498">
        <ele>339.20001220703</ele>
        <time>2020-05-18T15:49:01.000Z</time>
      </trkpt>
      <trkpt lat="49.00632" lon="7.83505">
        <ele>340</ele>
        <time>2020-05-18T15:49:05.000Z</time>
      </trkpt>
      <trkpt lat="49.00638" lon="7.83509">
        <ele>340.39999389648</ele>
        <time>2020-05-18T15:49:07.000Z</time>
      </trkpt>
      <trkpt lat="49.00648" lon="7.83516">
        <ele>341.20001220703</ele>
        <time>2020-05-18T15:49:11.000Z</time>
      </trkpt>
      <trkpt lat="49.0065" lon="7.83518">
        <ele>341.39999389648</ele>
        <time>2020-05-18T15:49:12.000Z</time>
      </trkpt>
      <trkpt lat="49.00658" lon="7.83526">
        <ele>342</ele>
        <time>2020-05-18T15:49:16.000Z</time>
      </trkpt>
      <trkpt lat="49.00666" lon="7.83536">
        <ele>342.60000610352</ele>
        <time>2020-05-18T15:49:20.000Z</time>
      </trkpt>
      <trkpt lat="49.00668" lon="7.83538">
        <ele>342.79998779297</ele>
        <time>2020-05-18T15:49:21.000Z</time>
      </trkpt>
      <trkpt lat="49.00684" lon="7.83552">
        <ele>343.20001220703</ele>
        <time>2020-05-18T15:49:26.000Z</time>
      </trkpt>
      <trkpt lat="49.00692" lon="7.83558">
        <ele>343.79998779297</ele>
        <time>2020-05-18T15:49:28.000Z</time>
      </trkpt>
      <trkpt lat="49.00701" lon="7.83567">
        <ele>344.39999389648</ele>
        <time>2020-05-18T15:49:31.000Z</time>
      </trkpt>
      <trkpt lat="49.00714" lon="7.83577">
        <ele>345</ele>
        <time>2020-05-18T15:49:35.000Z</time>
      </trkpt>
      <trkpt lat="49.00716" lon="7.83579">
        <ele>345.39999389648</ele>
        <time>2020-05-18T15:49:36.000Z</time>
      </trkpt>
      <trkpt lat="49.00727" lon="7.83588">
        <ele>346</ele>
        <time>2020-05-18T15:49:41.000Z</time>
      </trkpt>
      <trkpt lat="49.0073" lon="7.83591">
        <ele>346.39999389648</ele>
        <time>2020-05-18T15:49:43.000Z</time>
      </trkpt>
      <trkpt lat="49.00734" lon="7.83593">
        <ele>346.79998779297</ele>
        <time>2020-05-18T15:49:45.000Z</time>
      </trkpt>
      <trkpt lat="49.00745" lon="7.83597">
        <ele>347.60000610352</ele>
        <time>2020-05-18T15:49:50.000Z</time>
      </trkpt>
      <trkpt lat="49.00749" lon="7.83597">
        <ele>347.79998779297</ele>
        <time>2020-05-18T15:49:51.000Z</time>
      </trkpt>
      <trkpt lat="49.00756" lon="7.83599">
        <ele>348.60000610352</ele>
        <time>2020-05-18T15:49:54.000Z</time>
      </trkpt>
      <trkpt lat="49.00766" lon="7.836">
        <ele>349</ele>
        <time>2020-05-18T15:49:58.000Z</time>
      </trkpt>
      <trkpt lat="49.00776" lon="7.83599">
        <ele>350.20001220703</ele>
        <time>2020-05-18T15:50:01.000Z</time>
      </trkpt>
      <trkpt lat="49.00779" lon="7.83599">
        <ele>350.39999389648</ele>
        <time>2020-05-18T15:50:02.000Z</time>
      </trkpt>
      <trkpt lat="49.00791" lon="7.83595">
        <ele>351.20001220703</ele>
        <time>2020-05-18T15:50:07.000Z</time>
      </trkpt>
      <trkpt lat="49.00794" lon="7.83594">
        <ele>351.39999389648</ele>
        <time>2020-05-18T15:50:08.000Z</time>
      </trkpt>
      <trkpt lat="49.00803" lon="7.83591">
        <ele>352.60000610352</ele>
        <time>2020-05-18T15:50:12.000Z</time>
      </trkpt>
      <trkpt lat="49.00815" lon="7.83589">
        <ele>353.20001220703</ele>
        <time>2020-05-18T15:50:17.000Z</time>
      </trkpt>
      <trkpt lat="49.00818" lon="7.83588">
        <ele>353.39999389648</ele>
        <time>2020-05-18T15:50:18.000Z</time>
      </trkpt>
      <trkpt lat="49.0082" lon="7.83588">
        <ele>353.60000610352</ele>
        <time>2020-05-18T15:50:19.000Z</time>
      </trkpt>
      <trkpt lat="49.00831" lon="7.83585">
        <ele>354.60000610352</ele>
        <time>2020-05-18T15:50:24.000Z</time>
      </trkpt>
      <trkpt lat="49.00841" lon="7.8358">
        <ele>355.20001220703</ele>
        <time>2020-05-18T15:50:28.000Z</time>
      </trkpt>
      <trkpt lat="49.00844" lon="7.83578">
        <ele>355.39999389648</ele>
        <time>2020-05-18T15:50:29.000Z</time>
      </trkpt>
      <trkpt lat="49.00849" lon="7.83572">
        <ele>355.79998779297</ele>
        <time>2020-05-18T15:50:31.000Z</time>
      </trkpt>
      <trkpt lat="49.00857" lon="7.83561">
        <ele>356.20001220703</ele>
        <time>2020-05-18T15:50:35.000Z</time>
      </trkpt>
      <trkpt lat="49.00865" lon="7.83547">
        <ele>356.79998779297</ele>
        <time>2020-05-18T15:50:40.000Z</time>
      </trkpt>
      <trkpt lat="49.0087" lon="7.83538">
        <ele>356.60000610352</ele>
        <time>2020-05-18T15:50:43.000Z</time>
      </trkpt>
      <trkpt lat="49.00874" lon="7.83531">
        <ele>357</ele>
        <time>2020-05-18T15:50:45.000Z</time>
      </trkpt>
      <trkpt lat="49.00881" lon="7.83519">
        <ele>357.60000610352</ele>
        <time>2020-05-18T15:50:49.000Z</time>
      </trkpt>
      <trkpt lat="49.00894" lon="7.83498">
        <ele>357.20001220703</ele>
        <time>2020-05-18T15:50:55.000Z</time>
      </trkpt>
      <trkpt lat="49.00906" lon="7.83474">
        <ele>357.39999389648</ele>
        <time>2020-05-18T15:51:00.000Z</time>
      </trkpt>
      <trkpt lat="49.00918" lon="7.83452">
        <ele>357.39999389648</ele>
        <time>2020-05-18T15:51:05.000Z</time>
      </trkpt>
      <trkpt lat="49.00934" lon="7.83417">
        <ele>356.79998779297</ele>
        <time>2020-05-18T15:51:12.000Z</time>
      </trkpt>
      <trkpt lat="49.00945" lon="7.83399">
        <ele>356.79998779297</ele>
        <time>2020-05-18T15:51:16.000Z</time>
      </trkpt>
      <trkpt lat="49.00953" lon="7.83386">
        <ele>356.39999389648</ele>
        <time>2020-05-18T15:51:19.000Z</time>
      </trkpt>
      <trkpt lat="49.00958" lon="7.83377">
        <ele>356.20001220703</ele>
        <time>2020-05-18T15:51:21.000Z</time>
      </trkpt>
      <trkpt lat="49.00973" lon="7.83348">
        <ele>356.60000610352</ele>
        <time>2020-05-18T15:51:27.000Z</time>
      </trkpt>
      <trkpt lat="49.00985" lon="7.83322">
        <ele>356.39999389648</ele>
        <time>2020-05-18T15:51:32.000Z</time>
      </trkpt>
      <trkpt lat="49.00998" lon="7.83299">
        <ele>357</ele>
        <time>2020-05-18T15:51:37.000Z</time>
      </trkpt>
      <trkpt lat="49.01007" lon="7.83281">
        <ele>357.39999389648</ele>
        <time>2020-05-18T15:51:41.000Z</time>
      </trkpt>
      <trkpt lat="49.01009" lon="7.83277">
        <ele>357.39999389648</ele>
        <time>2020-05-18T15:51:42.000Z</time>
      </trkpt>
      <trkpt lat="49.0102" lon="7.83259">
        <ele>357.20001220703</ele>
        <time>2020-05-18T15:51:46.000Z</time>
      </trkpt>
      <trkpt lat="49.0103" lon="7.8325">
        <ele>357.20001220703</ele>
        <time>2020-05-18T15:51:49.000Z</time>
      </trkpt>
      <trkpt lat="49.01043" lon="7.83239">
        <ele>356.79998779297</ele>
        <time>2020-05-18T15:51:53.000Z</time>
      </trkpt>
      <trkpt lat="49.01051" lon="7.83233">
        <ele>356.20001220703</ele>
        <time>2020-05-18T15:51:55.000Z</time>
      </trkpt>
      <trkpt lat="49.01055" lon="7.8323">
        <ele>356</ele>
        <time>2020-05-18T15:51:56.000Z</time>
      </trkpt>
      <trkpt lat="49.01078" lon="7.83212">
        <ele>355</ele>
        <time>2020-05-18T15:52:01.000Z</time>
      </trkpt>
      <trkpt lat="49.01082" lon="7.83208">
        <ele>354.60000610352</ele>
        <time>2020-05-18T15:52:02.000Z</time>
      </trkpt>
      <trkpt lat="49.01101" lon="7.83195">
        <ele>353.60000610352</ele>
        <time>2020-05-18T15:52:06.000Z</time>
      </trkpt>
      <trkpt lat="49.01105" lon="7.83192">
        <ele>353.39999389648</ele>
        <time>2020-05-18T15:52:07.000Z</time>
      </trkpt>
      <trkpt lat="49.01137" lon="7.83169">
        <ele>353.60000610352</ele>
        <time>2020-05-18T15:52:14.000Z</time>
      </trkpt>
      <trkpt lat="49.0116" lon="7.83156">
        <ele>353.39999389648</ele>
        <time>2020-05-18T15:52:19.000Z</time>
      </trkpt>
      <trkpt lat="49.01164" lon="7.83153">
        <ele>353.39999389648</ele>
        <time>2020-05-18T15:52:20.000Z</time>
      </trkpt>
      <trkpt lat="49.01194" lon="7.83132">
        <ele>353.39999389648</ele>
        <time>2020-05-18T15:52:27.000Z</time>
      </trkpt>
      <trkpt lat="49.01206" lon="7.83125">
        <ele>354.39999389648</ele>
        <time>2020-05-18T15:52:31.000Z</time>
      </trkpt>
      <trkpt lat="49.01209" lon="7.83124">
        <ele>354.60000610352</ele>
        <time>2020-05-18T15:52:32.000Z</time>
      </trkpt>
      <trkpt lat="49.01211" lon="7.83123">
        <ele>354.79998779297</ele>
        <time>2020-05-18T15:52:34.000Z</time>
      </trkpt>
      <trkpt lat="49.01211" lon="7.83123">
        <ele>354.79998779297</ele>
        <time>2020-05-18T15:52:35.000Z</time>
      </trkpt>
      <trkpt lat="49.01212" lon="7.83123">
        <ele>355</ele>
        <time>2020-05-18T15:52:56.000Z</time>
      </trkpt>
      <trkpt lat="49.01211" lon="7.83122">
        <ele>355</ele>
        <time>2020-05-18T15:52:59.000Z</time>
      </trkpt>
      <trkpt lat="49.0121" lon="7.83122">
        <ele>355</ele>
        <time>2020-05-18T15:53:00.000Z</time>
      </trkpt>
      <trkpt lat="49.01206" lon="7.83127">
        <ele>355.20001220703</ele>
        <time>2020-05-18T15:53:03.000Z</time>
      </trkpt>
      <trkpt lat="49.01201" lon="7.83131">
        <ele>355</ele>
        <time>2020-05-18T15:53:06.000Z</time>
      </trkpt>
      <trkpt lat="49.012" lon="7.83135">
        <ele>354.79998779297</ele>
        <time>2020-05-18T15:53:08.000Z</time>
      </trkpt>
      <trkpt lat="49.012" lon="7.83152">
        <ele>354.20001220703</ele>
        <time>2020-05-18T15:53:13.000Z</time>
      </trkpt>
      <trkpt lat="49.012" lon="7.83156">
        <ele>353.79998779297</ele>
        <time>2020-05-18T15:53:14.000Z</time>
      </trkpt>
      <trkpt lat="49.012" lon="7.83161">
        <ele>353.20001220703</ele>
        <time>2020-05-18T15:53:15.000Z</time>
      </trkpt>
      <trkpt lat="49.01198" lon="7.83176">
        <ele>352.20001220703</ele>
        <time>2020-05-18T15:53:19.000Z</time>
      </trkpt>
      <trkpt lat="49.012" lon="7.83168">
        <ele>352.39999389648</ele>
        <time>2020-05-18T15:53:42.000Z</time>
      </trkpt>
      <trkpt lat="49.012" lon="7.83165">
        <ele>352.39999389648</ele>
        <time>2020-05-18T15:53:43.000Z</time>
      </trkpt>
      <trkpt lat="49.01203" lon="7.8315">
        <ele>353.20001220703</ele>
        <time>2020-05-18T15:53:47.000Z</time>
      </trkpt>
      <trkpt lat="49.01203" lon="7.83147">
        <ele>353.39999389648</ele>
        <time>2020-05-18T15:53:48.000Z</time>
      </trkpt>
      <trkpt lat="49.0121" lon="7.83134">
        <ele>353.79998779297</ele>
        <time>2020-05-18T15:53:52.000Z</time>
      </trkpt>
      <trkpt lat="49.01213" lon="7.83132">
        <ele>353.79998779297</ele>
        <time>2020-05-18T15:53:53.000Z</time>
      </trkpt>
      <trkpt lat="49.0123" lon="7.83116">
        <ele>354</ele>
        <time>2020-05-18T15:53:58.000Z</time>
      </trkpt>
      <trkpt lat="49.01243" lon="7.83106">
        <ele>354.60000610352</ele>
        <time>2020-05-18T15:54:03.000Z</time>
      </trkpt>
      <trkpt lat="49.01246" lon="7.83105">
        <ele>354.79998779297</ele>
        <time>2020-05-18T15:54:04.000Z</time>
      </trkpt>
      <trkpt lat="49.01262" lon="7.83089">
        <ele>354.39999389648</ele>
        <time>2020-05-18T15:54:10.000Z</time>
      </trkpt>
      <trkpt lat="49.01289" lon="7.83067">
        <ele>354.20001220703</ele>
        <time>2020-05-18T15:54:17.000Z</time>
      </trkpt>
      <trkpt lat="49.01294" lon="7.83064">
        <ele>354.20001220703</ele>
        <time>2020-05-18T15:54:18.000Z</time>
      </trkpt>
      <trkpt lat="49.01313" lon="7.83054">
        <ele>354</ele>
        <time>2020-05-18T15:54:22.000Z</time>
      </trkpt>
      <trkpt lat="49.01334" lon="7.8304">
        <ele>353.79998779297</ele>
        <time>2020-05-18T15:54:27.000Z</time>
      </trkpt>
      <trkpt lat="49.01339" lon="7.83038">
        <ele>353.39999389648</ele>
        <time>2020-05-18T15:54:28.000Z</time>
      </trkpt>
      <trkpt lat="49.01342" lon="7.83036">
        <ele>353.20001220703</ele>
        <time>2020-05-18T15:54:29.000Z</time>
      </trkpt>
      <trkpt lat="49.01361" lon="7.8304">
        <ele>353.60000610352</ele>
        <time>2020-05-18T15:54:34.000Z</time>
      </trkpt>
      <trkpt lat="49.01366" lon="7.83041">
        <ele>353.39999389648</ele>
        <time>2020-05-18T15:54:35.000Z</time>
      </trkpt>
      <trkpt lat="49.01376" lon="7.83045">
        <ele>352.39999389648</ele>
        <time>2020-05-18T15:54:37.000Z</time>
      </trkpt>
      <trkpt lat="49.01392" lon="7.8305">
        <ele>351.39999389648</ele>
        <time>2020-05-18T15:54:40.000Z</time>
      </trkpt>
      <trkpt lat="49.01397" lon="7.83052">
        <ele>351.39999389648</ele>
        <time>2020-05-18T15:54:41.000Z</time>
      </trkpt>
      <trkpt lat="49.01425" lon="7.83062">
        <ele>351.20001220703</ele>
        <time>2020-05-18T15:54:46.000Z</time>
      </trkpt>
      <trkpt lat="49.01445" lon="7.8307">
        <ele>351</ele>
        <time>2020-05-18T15:54:50.000Z</time>
      </trkpt>
      <trkpt lat="49.01449" lon="7.83072">
        <ele>351</ele>
        <time>2020-05-18T15:54:51.000Z</time>
      </trkpt>
      <trkpt lat="49.01463" lon="7.83077">
        <ele>350.79998779297</ele>
        <time>2020-05-18T15:54:54.000Z</time>
      </trkpt>
      <trkpt lat="49.01472" lon="7.83081">
        <ele>350.60000610352</ele>
        <time>2020-05-18T15:54:56.000Z</time>
      </trkpt>
      <trkpt lat="49.01488" lon="7.83087">
        <ele>350.20001220703</ele>
        <time>2020-05-18T15:54:59.000Z</time>
      </trkpt>
      <trkpt lat="49.01499" lon="7.83091">
        <ele>350.20001220703</ele>
        <time>2020-05-18T15:55:01.000Z</time>
      </trkpt>
      <trkpt lat="49.01504" lon="7.83092">
        <ele>350.20001220703</ele>
        <time>2020-05-18T15:55:02.000Z</time>
      </trkpt>
      <trkpt lat="49.0153" lon="7.83102">
        <ele>349.20001220703</ele>
        <time>2020-05-18T15:55:06.000Z</time>
      </trkpt>
      <trkpt lat="49.01559" lon="7.83116">
        <ele>348.79998779297</ele>
        <time>2020-05-18T15:55:11.000Z</time>
      </trkpt>
      <trkpt lat="49.01575" lon="7.83124">
        <ele>348.20001220703</ele>
        <time>2020-05-18T15:55:14.000Z</time>
      </trkpt>
      <trkpt lat="49.01585" lon="7.83129">
        <ele>348</ele>
        <time>2020-05-18T15:55:16.000Z</time>
      </trkpt>
      <trkpt lat="49.01593" lon="7.83135">
        <ele>347.79998779297</ele>
        <time>2020-05-18T15:55:18.000Z</time>
      </trkpt>
      <trkpt lat="49.01607" lon="7.8314">
        <ele>348.20001220703</ele>
        <time>2020-05-18T15:55:21.000Z</time>
      </trkpt>
      <trkpt lat="49.01624" lon="7.83149">
        <ele>349.20001220703</ele>
        <time>2020-05-18T15:55:25.000Z</time>
      </trkpt>
      <trkpt lat="49.01632" lon="7.83152">
        <ele>349.39999389648</ele>
        <time>2020-05-18T15:55:27.000Z</time>
      </trkpt>
      <trkpt lat="49.01642" lon="7.83157">
        <ele>349.60000610352</ele>
        <time>2020-05-18T15:55:29.000Z</time>
      </trkpt>
      <trkpt lat="49.01655" lon="7.83162">
        <ele>349.60000610352</ele>
        <time>2020-05-18T15:55:31.000Z</time>
      </trkpt>
      <trkpt lat="49.01689" lon="7.8318">
        <ele>349.79998779297</ele>
        <time>2020-05-18T15:55:37.000Z</time>
      </trkpt>
      <trkpt lat="49.01701" lon="7.83187">
        <ele>350</ele>
        <time>2020-05-18T15:55:40.000Z</time>
      </trkpt>
      <trkpt lat="49.01708" lon="7.8319">
        <ele>350.39999389648</ele>
        <time>2020-05-18T15:55:42.000Z</time>
      </trkpt>
      <trkpt lat="49.01727" lon="7.83197">
        <ele>350.79998779297</ele>
        <time>2020-05-18T15:55:47.000Z</time>
      </trkpt>
      <trkpt lat="49.01742" lon="7.83202">
        <ele>351</ele>
        <time>2020-05-18T15:55:51.000Z</time>
      </trkpt>
      <trkpt lat="49.01757" lon="7.83211">
        <ele>351.20001220703</ele>
        <time>2020-05-18T15:55:55.000Z</time>
      </trkpt>
      <trkpt lat="49.0176" lon="7.83211">
        <ele>351.39999389648</ele>
        <time>2020-05-18T15:55:56.000Z</time>
      </trkpt>
      <trkpt lat="49.01779" lon="7.83217">
        <ele>352</ele>
        <time>2020-05-18T15:56:01.000Z</time>
      </trkpt>
      <trkpt lat="49.01783" lon="7.83219">
        <ele>352.39999389648</ele>
        <time>2020-05-18T15:56:02.000Z</time>
      </trkpt>
      <trkpt lat="49.01806" lon="7.83229">
        <ele>353</ele>
        <time>2020-05-18T15:56:07.000Z</time>
      </trkpt>
      <trkpt lat="49.01823" lon="7.83236">
        <ele>353.20001220703</ele>
        <time>2020-05-18T15:56:10.000Z</time>
      </trkpt>
      <trkpt lat="49.01827" lon="7.83239">
        <ele>353.39999389648</ele>
        <time>2020-05-18T15:56:11.000Z</time>
      </trkpt>
      <trkpt lat="49.01835" lon="7.83254">
        <ele>354.20001220703</ele>
        <time>2020-05-18T15:56:14.000Z</time>
      </trkpt>
      <trkpt lat="49.01838" lon="7.83259">
        <ele>354.60000610352</ele>
        <time>2020-05-18T15:56:15.000Z</time>
      </trkpt>
      <trkpt lat="49.01844" lon="7.83276">
        <ele>355.20001220703</ele>
        <time>2020-05-18T15:56:18.000Z</time>
      </trkpt>
      <trkpt lat="49.0185" lon="7.83293">
        <ele>355.60000610352</ele>
        <time>2020-05-18T15:56:21.000Z</time>
      </trkpt>
      <trkpt lat="49.01854" lon="7.83303">
        <ele>356.20001220703</ele>
        <time>2020-05-18T15:56:23.000Z</time>
      </trkpt>
      <trkpt lat="49.0186" lon="7.83321">
        <ele>357</ele>
        <time>2020-05-18T15:56:27.000Z</time>
      </trkpt>
      <trkpt lat="49.01861" lon="7.83332">
        <ele>357.20001220703</ele>
        <time>2020-05-18T15:56:29.000Z</time>
      </trkpt>
      <trkpt lat="49.01867" lon="7.83353">
        <ele>357.79998779297</ele>
        <time>2020-05-18T15:56:33.000Z</time>
      </trkpt>
      <trkpt lat="49.01871" lon="7.83363">
        <ele>358.20001220703</ele>
        <time>2020-05-18T15:56:35.000Z</time>
      </trkpt>
      <trkpt lat="49.01877" lon="7.83385">
        <ele>358.79998779297</ele>
        <time>2020-05-18T15:56:39.000Z</time>
      </trkpt>
      <trkpt lat="49.01881" lon="7.834">
        <ele>359.20001220703</ele>
        <time>2020-05-18T15:56:42.000Z</time>
      </trkpt>
      <trkpt lat="49.01885" lon="7.8341">
        <ele>359.60000610352</ele>
        <time>2020-05-18T15:56:44.000Z</time>
      </trkpt>
      <trkpt lat="49.0189" lon="7.83431">
        <ele>360.20001220703</ele>
        <time>2020-05-18T15:56:48.000Z</time>
      </trkpt>
      <trkpt lat="49.01894" lon="7.83441">
        <ele>360.60000610352</ele>
        <time>2020-05-18T15:56:50.000Z</time>
      </trkpt>
      <trkpt lat="49.01902" lon="7.83472">
        <ele>361.20001220703</ele>
        <time>2020-05-18T15:56:56.000Z</time>
      </trkpt>
      <trkpt lat="49.0191" lon="7.83484">
        <ele>361.39999389648</ele>
        <time>2020-05-18T15:56:59.000Z</time>
      </trkpt>
      <trkpt lat="49.01913" lon="7.83485">
        <ele>361.39999389648</ele>
        <time>2020-05-18T15:57:00.000Z</time>
      </trkpt>
      <trkpt lat="49.01926" lon="7.83477">
        <ele>362.39999389648</ele>
        <time>2020-05-18T15:57:04.000Z</time>
      </trkpt>
      <trkpt lat="49.01945" lon="7.83462">
        <ele>362.60000610352</ele>
        <time>2020-05-18T15:57:10.000Z</time>
      </trkpt>
      <trkpt lat="49.01963" lon="7.83446">
        <ele>362</ele>
        <time>2020-05-18T15:57:15.000Z</time>
      </trkpt>
      <trkpt lat="49.01968" lon="7.83443">
        <ele>361.79998779297</ele>
        <time>2020-05-18T15:57:16.000Z</time>
      </trkpt>
      <trkpt lat="49.01984" lon="7.83431">
        <ele>361.79998779297</ele>
        <time>2020-05-18T15:57:19.000Z</time>
      </trkpt>
      <trkpt lat="49.02004" lon="7.83415">
        <ele>361.39999389648</ele>
        <time>2020-05-18T15:57:23.000Z</time>
      </trkpt>
      <trkpt lat="49.02009" lon="7.83412">
        <ele>361.39999389648</ele>
        <time>2020-05-18T15:57:24.000Z</time>
      </trkpt>
      <trkpt lat="49.02031" lon="7.83396">
        <ele>361.79998779297</ele>
        <time>2020-05-18T15:57:29.000Z</time>
      </trkpt>
      <trkpt lat="49.02041" lon="7.83394">
        <ele>362.79998779297</ele>
        <time>2020-05-18T15:57:31.000Z</time>
      </trkpt>
      <trkpt lat="49.02049" lon="7.83396">
        <ele>363.39999389648</ele>
        <time>2020-05-18T15:57:33.000Z</time>
      </trkpt>
      <trkpt lat="49.02057" lon="7.834">
        <ele>363.79998779297</ele>
        <time>2020-05-18T15:57:35.000Z</time>
      </trkpt>
      <trkpt lat="49.02065" lon="7.83404">
        <ele>364.20001220703</ele>
        <time>2020-05-18T15:57:37.000Z</time>
      </trkpt>
      <trkpt lat="49.02083" lon="7.83413">
        <ele>364.20001220703</ele>
        <time>2020-05-18T15:57:42.000Z</time>
      </trkpt>
      <trkpt lat="49.021" lon="7.83424">
        <ele>364.79998779297</ele>
        <time>2020-05-18T15:57:47.000Z</time>
      </trkpt>
      <trkpt lat="49.02104" lon="7.83426">
        <ele>365.20001220703</ele>
        <time>2020-05-18T15:57:48.000Z</time>
      </trkpt>
      <trkpt lat="49.02121" lon="7.83437">
        <ele>366.39999389648</ele>
        <time>2020-05-18T15:57:53.000Z</time>
      </trkpt>
      <trkpt lat="49.0213" lon="7.83445">
        <ele>367.20001220703</ele>
        <time>2020-05-18T15:57:56.000Z</time>
      </trkpt>
      <trkpt lat="49.02135" lon="7.8345">
        <ele>367.60000610352</ele>
        <time>2020-05-18T15:57:58.000Z</time>
      </trkpt>
      <trkpt lat="49.02151" lon="7.83463">
        <ele>368.39999389648</ele>
        <time>2020-05-18T15:58:03.000Z</time>
      </trkpt>
      <trkpt lat="49.0216" lon="7.83465">
        <ele>369.39999389648</ele>
        <time>2020-05-18T15:58:07.000Z</time>
      </trkpt>
      <trkpt lat="49.02162" lon="7.83465">
        <ele>369.39999389648</ele>
        <time>2020-05-18T15:58:08.000Z</time>
      </trkpt>
      <trkpt lat="49.02173" lon="7.83472">
        <ele>369.79998779297</ele>
        <time>2020-05-18T15:58:12.000Z</time>
      </trkpt>
      <trkpt lat="49.02178" lon="7.83477">
        <ele>370.20001220703</ele>
        <time>2020-05-18T15:58:14.000Z</time>
      </trkpt>
      <trkpt lat="49.02182" lon="7.83485">
        <ele>370.60000610352</ele>
        <time>2020-05-18T15:58:16.000Z</time>
      </trkpt>
      <trkpt lat="49.02186" lon="7.83493">
        <ele>370.79998779297</ele>
        <time>2020-05-18T15:58:18.000Z</time>
      </trkpt>
      <trkpt lat="49.02194" lon="7.83504">
        <ele>371.39999389648</ele>
        <time>2020-05-18T15:58:22.000Z</time>
      </trkpt>
      <trkpt lat="49.02197" lon="7.83508">
        <ele>371.60000610352</ele>
        <time>2020-05-18T15:58:24.000Z</time>
      </trkpt>
      <trkpt lat="49.02201" lon="7.8351">
        <ele>372</ele>
        <time>2020-05-18T15:58:26.000Z</time>
      </trkpt>
      <trkpt lat="49.0221" lon="7.83519">
        <ele>373</ele>
        <time>2020-05-18T15:58:31.000Z</time>
      </trkpt>
      <trkpt lat="49.02217" lon="7.83527">
        <ele>373.39999389648</ele>
        <time>2020-05-18T15:58:35.000Z</time>
      </trkpt>
      <trkpt lat="49.0222" lon="7.83529">
        <ele>373.39999389648</ele>
        <time>2020-05-18T15:58:36.000Z</time>
      </trkpt>
      <trkpt lat="49.02231" lon="7.83538">
        <ele>373.60000610352</ele>
        <time>2020-05-18T15:58:40.000Z</time>
      </trkpt>
      <trkpt lat="49.0224" lon="7.83547">
        <ele>373.79998779297</ele>
        <time>2020-05-18T15:58:42.000Z</time>
      </trkpt>
      <trkpt lat="49.02246" lon="7.83554">
        <ele>374</ele>
        <time>2020-05-18T15:58:44.000Z</time>
      </trkpt>
      <trkpt lat="49.0225" lon="7.83559">
        <ele>374</ele>
        <time>2020-05-18T15:58:46.000Z</time>
      </trkpt>
      <trkpt lat="49.02258" lon="7.83568">
        <ele>374</ele>
        <time>2020-05-18T15:58:49.000Z</time>
      </trkpt>
      <trkpt lat="49.02261" lon="7.83573">
        <ele>374</ele>
        <time>2020-05-18T15:58:51.000Z</time>
      </trkpt>
      <trkpt lat="49.02273" lon="7.83592">
        <ele>374.79998779297</ele>
        <time>2020-05-18T15:58:57.000Z</time>
      </trkpt>
      <trkpt lat="49.0228" lon="7.836">
        <ele>375</ele>
        <time>2020-05-18T15:59:00.000Z</time>
      </trkpt>
      <trkpt lat="49.02285" lon="7.83609">
        <ele>375.20001220703</ele>
        <time>2020-05-18T15:59:03.000Z</time>
      </trkpt>
      <trkpt lat="49.02288" lon="7.83615">
        <ele>375.39999389648</ele>
        <time>2020-05-18T15:59:05.000Z</time>
      </trkpt>
      <trkpt lat="49.02293" lon="7.83626">
        <ele>375.39999389648</ele>
        <time>2020-05-18T15:59:08.000Z</time>
      </trkpt>
      <trkpt lat="49.02296" lon="7.83638">
        <ele>375.20001220703</ele>
        <time>2020-05-18T15:59:10.000Z</time>
      </trkpt>
      <trkpt lat="49.02296" lon="7.83644">
        <ele>375.20001220703</ele>
        <time>2020-05-18T15:59:11.000Z</time>
      </trkpt>
      <trkpt lat="49.02304" lon="7.83669">
        <ele>375.79998779297</ele>
        <time>2020-05-18T15:59:15.000Z</time>
      </trkpt>
      <trkpt lat="49.02309" lon="7.8368">
        <ele>376.20001220703</ele>
        <time>2020-05-18T15:59:17.000Z</time>
      </trkpt>
      <trkpt lat="49.02313" lon="7.83702">
        <ele>376.39999389648</ele>
        <time>2020-05-18T15:59:21.000Z</time>
      </trkpt>
      <trkpt lat="49.02312" lon="7.83713">
        <ele>377</ele>
        <time>2020-05-18T15:59:23.000Z</time>
      </trkpt>
      <trkpt lat="49.02313" lon="7.83719">
        <ele>377.39999389648</ele>
        <time>2020-05-18T15:59:24.000Z</time>
      </trkpt>
      <trkpt lat="49.02314" lon="7.83729">
        <ele>377.79998779297</ele>
        <time>2020-05-18T15:59:26.000Z</time>
      </trkpt>
      <trkpt lat="49.02314" lon="7.83734">
        <ele>377.79998779297</ele>
        <time>2020-05-18T15:59:27.000Z</time>
      </trkpt>
      <trkpt lat="49.02316" lon="7.83751">
        <ele>378.20001220703</ele>
        <time>2020-05-18T15:59:30.000Z</time>
      </trkpt>
      <trkpt lat="49.02322" lon="7.83772">
        <ele>378.39999389648</ele>
        <time>2020-05-18T15:59:34.000Z</time>
      </trkpt>
      <trkpt lat="49.02324" lon="7.83777">
        <ele>378.39999389648</ele>
        <time>2020-05-18T15:59:35.000Z</time>
      </trkpt>
      <trkpt lat="49.02328" lon="7.83802">
        <ele>378.39999389648</ele>
        <time>2020-05-18T15:59:39.000Z</time>
      </trkpt>
      <trkpt lat="49.02329" lon="7.83825">
        <ele>378</ele>
        <time>2020-05-18T15:59:42.000Z</time>
      </trkpt>
      <trkpt lat="49.02329" lon="7.83836">
        <ele>378</ele>
        <time>2020-05-18T15:59:43.000Z</time>
      </trkpt>
      <trkpt lat="49.02328" lon="7.83862">
        <ele>377</ele>
        <time>2020-05-18T15:59:47.000Z</time>
      </trkpt>
      <trkpt lat="49.0233" lon="7.839">
        <ele>377</ele>
        <time>2020-05-18T15:59:52.000Z</time>
      </trkpt>
      <trkpt lat="49.02333" lon="7.83923">
        <ele>376.60000610352</ele>
        <time>2020-05-18T15:59:55.000Z</time>
      </trkpt>
      <trkpt lat="49.02333" lon="7.83941">
        <ele>376</ele>
        <time>2020-05-18T15:59:57.000Z</time>
      </trkpt>
      <trkpt lat="49.02332" lon="7.83957">
        <ele>375.39999389648</ele>
        <time>2020-05-18T15:59:59.000Z</time>
      </trkpt>
      <trkpt lat="49.02332" lon="7.83984">
        <ele>374.39999389648</ele>
        <time>2020-05-18T16:00:02.000Z</time>
      </trkpt>
      <trkpt lat="49.02327" lon="7.84024">
        <ele>373.20001220703</ele>
        <time>2020-05-18T16:00:06.000Z</time>
      </trkpt>
      <trkpt lat="49.02324" lon="7.84034">
        <ele>372.79998779297</ele>
        <time>2020-05-18T16:00:07.000Z</time>
      </trkpt>
      <trkpt lat="49.02318" lon="7.84056">
        <ele>372</ele>
        <time>2020-05-18T16:00:09.000Z</time>
      </trkpt>
      <trkpt lat="49.02314" lon="7.84067">
        <ele>371.60000610352</ele>
        <time>2020-05-18T16:00:10.000Z</time>
      </trkpt>
      <trkpt lat="49.0231" lon="7.8408">
        <ele>370.79998779297</ele>
        <time>2020-05-18T16:00:11.000Z</time>
      </trkpt>
      <trkpt lat="49.02306" lon="7.84092">
        <ele>369.79998779297</ele>
        <time>2020-05-18T16:00:12.000Z</time>
      </trkpt>
      <trkpt lat="49.023" lon="7.8412">
        <ele>367.60000610352</ele>
        <time>2020-05-18T16:00:14.000Z</time>
      </trkpt>
      <trkpt lat="49.02298" lon="7.84133">
        <ele>366</ele>
        <time>2020-05-18T16:00:15.000Z</time>
      </trkpt>
      <trkpt lat="49.02295" lon="7.84162">
        <ele>364.79998779297</ele>
        <time>2020-05-18T16:00:17.000Z</time>
      </trkpt>
      <trkpt lat="49.02294" lon="7.84191">
        <ele>364</ele>
        <time>2020-05-18T16:00:19.000Z</time>
      </trkpt>
      <trkpt lat="49.02293" lon="7.84205">
        <ele>363.79998779297</ele>
        <time>2020-05-18T16:00:20.000Z</time>
      </trkpt>
      <trkpt lat="49.02288" lon="7.84245">
        <ele>363.39999389648</ele>
        <time>2020-05-18T16:00:23.000Z</time>
      </trkpt>
      <trkpt lat="49.02285" lon="7.8428">
        <ele>363.60000610352</ele>
        <time>2020-05-18T16:00:26.000Z</time>
      </trkpt>
      <trkpt lat="49.02286" lon="7.84298">
        <ele>363.60000610352</ele>
        <time>2020-05-18T16:00:28.000Z</time>
      </trkpt>
      <trkpt lat="49.02288" lon="7.84315">
        <ele>363.79998779297</ele>
        <time>2020-05-18T16:00:30.000Z</time>
      </trkpt>
      <trkpt lat="49.02288" lon="7.84331">
        <ele>363.79998779297</ele>
        <time>2020-05-18T16:00:32.000Z</time>
      </trkpt>
      <trkpt lat="49.02288" lon="7.84339">
        <ele>364.20001220703</ele>
        <time>2020-05-18T16:00:33.000Z</time>
      </trkpt>
      <trkpt lat="49.02284" lon="7.84351">
        <ele>364.60000610352</ele>
        <time>2020-05-18T16:00:35.000Z</time>
      </trkpt>
      <trkpt lat="49.02278" lon="7.84365">
        <ele>365</ele>
        <time>2020-05-18T16:00:38.000Z</time>
      </trkpt>
      <trkpt lat="49.02269" lon="7.84387">
        <ele>364.60000610352</ele>
        <time>2020-05-18T16:00:42.000Z</time>
      </trkpt>
      <trkpt lat="49.02265" lon="7.84394">
        <ele>364.60000610352</ele>
        <time>2020-05-18T16:00:43.000Z</time>
      </trkpt>
      <trkpt lat="49.0225" lon="7.8442">
        <ele>363.20001220703</ele>
        <time>2020-05-18T16:00:47.000Z</time>
      </trkpt>
      <trkpt lat="49.02245" lon="7.84427">
        <ele>363</ele>
        <time>2020-05-18T16:00:48.000Z</time>
      </trkpt>
      <trkpt lat="49.02235" lon="7.84445">
        <ele>362.20001220703</ele>
        <time>2020-05-18T16:00:50.000Z</time>
      </trkpt>
      <trkpt lat="49.02226" lon="7.84461">
        <ele>361.79998779297</ele>
        <time>2020-05-18T16:00:52.000Z</time>
      </trkpt>
      <trkpt lat="49.0222" lon="7.84471">
        <ele>361.20001220703</ele>
        <time>2020-05-18T16:00:54.000Z</time>
      </trkpt>
      <trkpt lat="49.02217" lon="7.84475">
        <ele>360.39999389648</ele>
        <time>2020-05-18T16:00:55.000Z</time>
      </trkpt>
      <trkpt lat="49.02211" lon="7.84481">
        <ele>359.60000610352</ele>
        <time>2020-05-18T16:00:57.000Z</time>
      </trkpt>
      <trkpt lat="49.02203" lon="7.84488">
        <ele>359</ele>
        <time>2020-05-18T16:00:59.000Z</time>
      </trkpt>
      <trkpt lat="49.02199" lon="7.84494">
        <ele>358.60000610352</ele>
        <time>2020-05-18T16:01:00.000Z</time>
      </trkpt>
      <trkpt lat="49.02189" lon="7.84506">
        <ele>357.60000610352</ele>
        <time>2020-05-18T16:01:02.000Z</time>
      </trkpt>
      <trkpt lat="49.02184" lon="7.84512">
        <ele>357</ele>
        <time>2020-05-18T16:01:03.000Z</time>
      </trkpt>
      <trkpt lat="49.02162" lon="7.84539">
        <ele>356.20001220703</ele>
        <time>2020-05-18T16:01:08.000Z</time>
      </trkpt>
      <trkpt lat="49.02155" lon="7.84549">
        <ele>355.79998779297</ele>
        <time>2020-05-18T16:01:10.000Z</time>
      </trkpt>
      <trkpt lat="49.02151" lon="7.84555">
        <ele>356.20001220703</ele>
        <time>2020-05-18T16:01:11.000Z</time>
      </trkpt>
      <trkpt lat="49.0214" lon="7.84572">
        <ele>356.39999389648</ele>
        <time>2020-05-18T16:01:14.000Z</time>
      </trkpt>
      <trkpt lat="49.02132" lon="7.84584">
        <ele>356.39999389648</ele>
        <time>2020-05-18T16:01:17.000Z</time>
      </trkpt>
      <trkpt lat="49.02129" lon="7.84582">
        <ele>356.60000610352</ele>
        <time>2020-05-18T16:01:18.000Z</time>
      </trkpt>
      <trkpt lat="49.02121" lon="7.84567">
        <ele>356.39999389648</ele>
        <time>2020-05-18T16:01:21.000Z</time>
      </trkpt>
      <trkpt lat="49.02105" lon="7.84537">
        <ele>354.39999389648</ele>
        <time>2020-05-18T16:01:25.000Z</time>
      </trkpt>
      <trkpt lat="49.021" lon="7.8453">
        <ele>353.39999389648</ele>
        <time>2020-05-18T16:01:26.000Z</time>
      </trkpt>
      <trkpt lat="49.02095" lon="7.84525">
        <ele>352.20001220703</ele>
        <time>2020-05-18T16:01:27.000Z</time>
      </trkpt>
      <trkpt lat="49.02082" lon="7.84524">
        <ele>351</ele>
        <time>2020-05-18T16:01:29.000Z</time>
      </trkpt>
      <trkpt lat="49.02067" lon="7.84541">
        <ele>350.79998779297</ele>
        <time>2020-05-18T16:01:32.000Z</time>
      </trkpt>
      <trkpt lat="49.02049" lon="7.84556">
        <ele>351</ele>
        <time>2020-05-18T16:01:36.000Z</time>
      </trkpt>
      <trkpt lat="49.02045" lon="7.84569">
        <ele>351.39999389648</ele>
        <time>2020-05-18T16:01:39.000Z</time>
      </trkpt>
      <trkpt lat="49.02047" lon="7.84576">
        <ele>351.60000610352</ele>
        <time>2020-05-18T16:01:41.000Z</time>
      </trkpt>
      <trkpt lat="49.02048" lon="7.8458">
        <ele>351.60000610352</ele>
        <time>2020-05-18T16:01:42.000Z</time>
      </trkpt>
      <trkpt lat="49.02049" lon="7.84582">
        <ele>351.79998779297</ele>
        <time>2020-05-18T16:01:43.000Z</time>
      </trkpt>
      <trkpt lat="49.02049" lon="7.84587">
        <ele>351.79998779297</ele>
        <time>2020-05-18T16:01:45.000Z</time>
      </trkpt>
      <trkpt lat="49.02047" lon="7.84589">
        <ele>352</ele>
        <time>2020-05-18T16:01:48.000Z</time>
      </trkpt>
      <trkpt lat="49.02047" lon="7.84588">
        <ele>352.20001220703</ele>
        <time>2020-05-18T16:01:53.000Z</time>
      </trkpt>
      <trkpt lat="49.02048" lon="7.84587">
        <ele>351.79998779297</ele>
        <time>2020-05-18T16:01:57.000Z</time>
      </trkpt>
    </trkseg>
  </trk>
</gpx>